<?xml version="1.0" encoding="UTF-8" standalone="no" ?>
<gpx xmlns="http://www.topografix.com/GPX/1/1" xmlns:xsi="http://www.w3.org/2001/XMLSchema-instance" xsi:schemaLocation="http://www.topografix.com/GPX/1/1 http://www.topografix.com/GPX/1/1/gpx.xsd" version="1.1" creator="VisuGPX - https://www.visugpx.com">
  <metadata>
    <name>Treffen 2016 - ret 5 - fin</name>
    <desc><![CDATA[Retour par les routes du Sud-Ouest, grandes courbes et paysages pittoresques.]]></desc>
  </metadata>
  <trk>
    <name><![CDATA[TREFFEN-16-RET5-FIN]]></name>
    <trkseg>
      <trkpt lat="43.43497" lon="2.01563">
        <ele>259.69</ele>
        <time>2016-06-24T07:47:08Z</time>
      </trkpt>
      <trkpt lat="43.43498" lon="2.01563">
        <ele>260.17</ele>
        <time>2016-06-24T07:51:43Z</time>
      </trkpt>
      <trkpt lat="43.43499" lon="2.01564">
        <ele>261.62</ele>
        <time>2016-06-24T07:56:26Z</time>
      </trkpt>
      <trkpt lat="43.43499" lon="2.01564">
        <ele>261.62</ele>
        <time>2016-06-24T07:57:13Z</time>
      </trkpt>
      <trkpt lat="43.43495" lon="2.01575">
        <ele>261.14</ele>
        <time>2016-06-24T07:57:18Z</time>
      </trkpt>
      <trkpt lat="43.43496" lon="2.01585">
        <ele>261.62</ele>
        <time>2016-06-24T07:57:20Z</time>
      </trkpt>
      <trkpt lat="43.43501" lon="2.01619">
        <ele>262.58</ele>
        <time>2016-06-24T07:57:26Z</time>
      </trkpt>
      <trkpt lat="43.43491" lon="2.01633">
        <ele>262.1</ele>
        <time>2016-06-24T07:57:30Z</time>
      </trkpt>
      <trkpt lat="43.43441" lon="2.01657">
        <ele>262.1</ele>
        <time>2016-06-24T07:57:46Z</time>
      </trkpt>
      <trkpt lat="43.43431" lon="2.01662">
        <ele>262.58</ele>
        <time>2016-06-24T07:58:06Z</time>
      </trkpt>
      <trkpt lat="43.43429" lon="2.01663">
        <ele>262.1</ele>
        <time>2016-06-24T07:58:07Z</time>
      </trkpt>
      <trkpt lat="43.43426" lon="2.01669">
        <ele>262.1</ele>
        <time>2016-06-24T07:58:10Z</time>
      </trkpt>
      <trkpt lat="43.43425" lon="2.01698">
        <ele>262.58</ele>
        <time>2016-06-24T07:58:14Z</time>
      </trkpt>
      <trkpt lat="43.4343" lon="2.0174">
        <ele>262.58</ele>
        <time>2016-06-24T07:58:18Z</time>
      </trkpt>
      <trkpt lat="43.43428" lon="2.01761">
        <ele>261.62</ele>
        <time>2016-06-24T07:58:20Z</time>
      </trkpt>
      <trkpt lat="43.43421" lon="2.01788">
        <ele>259.21</ele>
        <time>2016-06-24T07:58:23Z</time>
      </trkpt>
      <trkpt lat="43.43415" lon="2.01818">
        <ele>259.21</ele>
        <time>2016-06-24T07:58:30Z</time>
      </trkpt>
      <trkpt lat="43.43433" lon="2.01838">
        <ele>259.69</ele>
        <time>2016-06-24T07:58:34Z</time>
      </trkpt>
      <trkpt lat="43.43484" lon="2.01865">
        <ele>264.02</ele>
        <time>2016-06-24T07:58:39Z</time>
      </trkpt>
      <trkpt lat="43.43507" lon="2.01877">
        <ele>265.46</ele>
        <time>2016-06-24T07:58:41Z</time>
      </trkpt>
      <trkpt lat="43.43555" lon="2.01903">
        <ele>269.79</ele>
        <time>2016-06-24T07:58:45Z</time>
      </trkpt>
      <trkpt lat="43.43568" lon="2.01909">
        <ele>270.27</ele>
        <time>2016-06-24T07:58:46Z</time>
      </trkpt>
      <trkpt lat="43.43607" lon="2.0193">
        <ele>273.63</ele>
        <time>2016-06-24T07:58:49Z</time>
      </trkpt>
      <trkpt lat="43.4362" lon="2.01936">
        <ele>273.63</ele>
        <time>2016-06-24T07:58:50Z</time>
      </trkpt>
      <trkpt lat="43.43651" lon="2.01952">
        <ele>273.63</ele>
        <time>2016-06-24T07:58:53Z</time>
      </trkpt>
      <trkpt lat="43.43689" lon="2.01942">
        <ele>274.11</ele>
        <time>2016-06-24T07:58:57Z</time>
      </trkpt>
      <trkpt lat="43.4374" lon="2.01905">
        <ele>275.07</ele>
        <time>2016-06-24T07:59:02Z</time>
      </trkpt>
      <trkpt lat="43.43751" lon="2.01897">
        <ele>275.56</ele>
        <time>2016-06-24T07:59:03Z</time>
      </trkpt>
      <trkpt lat="43.43784" lon="2.01857">
        <ele>279.88</ele>
        <time>2016-06-24T07:59:07Z</time>
      </trkpt>
      <trkpt lat="43.4379" lon="2.01846">
        <ele>280.36</ele>
        <time>2016-06-24T07:59:08Z</time>
      </trkpt>
      <trkpt lat="43.43817" lon="2.01829">
        <ele>284.21</ele>
        <time>2016-06-24T07:59:12Z</time>
      </trkpt>
      <trkpt lat="43.43829" lon="2.01841">
        <ele>285.17</ele>
        <time>2016-06-24T07:59:14Z</time>
      </trkpt>
      <trkpt lat="43.4384" lon="2.01869">
        <ele>287.09</ele>
        <time>2016-06-24T07:59:16Z</time>
      </trkpt>
      <trkpt lat="43.43873" lon="2.01953">
        <ele>289.97</ele>
        <time>2016-06-24T07:59:23Z</time>
      </trkpt>
      <trkpt lat="43.4389" lon="2.02001">
        <ele>291.9</ele>
        <time>2016-06-24T07:59:28Z</time>
      </trkpt>
      <trkpt lat="43.43902" lon="2.02056">
        <ele>291.9</ele>
        <time>2016-06-24T07:59:33Z</time>
      </trkpt>
      <trkpt lat="43.43913" lon="2.02088">
        <ele>294.3</ele>
        <time>2016-06-24T07:59:36Z</time>
      </trkpt>
      <trkpt lat="43.43918" lon="2.02097">
        <ele>294.3</ele>
        <time>2016-06-24T07:59:37Z</time>
      </trkpt>
      <trkpt lat="43.43968" lon="2.02184">
        <ele>296.22</ele>
        <time>2016-06-24T07:59:48Z</time>
      </trkpt>
      <trkpt lat="43.44027" lon="2.02293">
        <ele>293.34</ele>
        <time>2016-06-24T07:59:57Z</time>
      </trkpt>
      <trkpt lat="43.44054" lon="2.02332">
        <ele>289.97</ele>
        <time>2016-06-24T08:00:01Z</time>
      </trkpt>
      <trkpt lat="43.44072" lon="2.02353">
        <ele>288.53</ele>
        <time>2016-06-24T08:00:04Z</time>
      </trkpt>
      <trkpt lat="43.44085" lon="2.02368">
        <ele>285.17</ele>
        <time>2016-06-24T08:00:09Z</time>
      </trkpt>
      <trkpt lat="43.44095" lon="2.02384">
        <ele>284.21</ele>
        <time>2016-06-24T08:00:16Z</time>
      </trkpt>
      <trkpt lat="43.44112" lon="2.02364">
        <ele>284.69</ele>
        <time>2016-06-24T08:00:22Z</time>
      </trkpt>
      <trkpt lat="43.44121" lon="2.02345">
        <ele>285.17</ele>
        <time>2016-06-24T08:00:24Z</time>
      </trkpt>
      <trkpt lat="43.44165" lon="2.02272">
        <ele>279.88</ele>
        <time>2016-06-24T08:00:30Z</time>
      </trkpt>
      <trkpt lat="43.44186" lon="2.02236">
        <ele>278.44</ele>
        <time>2016-06-24T08:00:33Z</time>
      </trkpt>
      <trkpt lat="43.44218" lon="2.02185">
        <ele>274.59</ele>
        <time>2016-06-24T08:00:37Z</time>
      </trkpt>
      <trkpt lat="43.44235" lon="2.02158">
        <ele>273.63</ele>
        <time>2016-06-24T08:00:39Z</time>
      </trkpt>
      <trkpt lat="43.4428" lon="2.02118">
        <ele>271.71</ele>
        <time>2016-06-24T08:00:43Z</time>
      </trkpt>
      <trkpt lat="43.44304" lon="2.02105">
        <ele>270.27</ele>
        <time>2016-06-24T08:00:45Z</time>
      </trkpt>
      <trkpt lat="43.4435" lon="2.02062">
        <ele>265.94</ele>
        <time>2016-06-24T08:00:49Z</time>
      </trkpt>
      <trkpt lat="43.44392" lon="2.01998">
        <ele>262.58</ele>
        <time>2016-06-24T08:00:53Z</time>
      </trkpt>
      <trkpt lat="43.44433" lon="2.01931">
        <ele>257.77</ele>
        <time>2016-06-24T08:00:57Z</time>
      </trkpt>
      <trkpt lat="43.44445" lon="2.01915">
        <ele>257.29</ele>
        <time>2016-06-24T08:00:58Z</time>
      </trkpt>
      <trkpt lat="43.4448" lon="2.01874">
        <ele>254.89</ele>
        <time>2016-06-24T08:01:01Z</time>
      </trkpt>
      <trkpt lat="43.44491" lon="2.01861">
        <ele>253.93</ele>
        <time>2016-06-24T08:01:02Z</time>
      </trkpt>
      <trkpt lat="43.44522" lon="2.01792">
        <ele>248.64</ele>
        <time>2016-06-24T08:01:06Z</time>
      </trkpt>
      <trkpt lat="43.44528" lon="2.01771">
        <ele>249.12</ele>
        <time>2016-06-24T08:01:07Z</time>
      </trkpt>
      <trkpt lat="43.44545" lon="2.0171">
        <ele>244.79</ele>
        <time>2016-06-24T08:01:10Z</time>
      </trkpt>
      <trkpt lat="43.44566" lon="2.01634">
        <ele>239.99</ele>
        <time>2016-06-24T08:01:14Z</time>
      </trkpt>
      <trkpt lat="43.44575" lon="2.01598">
        <ele>237.1</ele>
        <time>2016-06-24T08:01:16Z</time>
      </trkpt>
      <trkpt lat="43.44574" lon="2.01529">
        <ele>232.3</ele>
        <time>2016-06-24T08:01:20Z</time>
      </trkpt>
      <trkpt lat="43.44565" lon="2.01482">
        <ele>229.41</ele>
        <time>2016-06-24T08:01:23Z</time>
      </trkpt>
      <trkpt lat="43.44562" lon="2.01468">
        <ele>229.41</ele>
        <time>2016-06-24T08:01:24Z</time>
      </trkpt>
      <trkpt lat="43.4456" lon="2.01454">
        <ele>228.45</ele>
        <time>2016-06-24T08:01:25Z</time>
      </trkpt>
      <trkpt lat="43.44564" lon="2.01419">
        <ele>226.53</ele>
        <time>2016-06-24T08:01:28Z</time>
      </trkpt>
      <trkpt lat="43.44578" lon="2.01401">
        <ele>226.53</ele>
        <time>2016-06-24T08:01:30Z</time>
      </trkpt>
      <trkpt lat="43.44616" lon="2.01363">
        <ele>223.64</ele>
        <time>2016-06-24T08:01:34Z</time>
      </trkpt>
      <trkpt lat="43.44648" lon="2.01303">
        <ele>220.28</ele>
        <time>2016-06-24T08:01:38Z</time>
      </trkpt>
      <trkpt lat="43.44653" lon="2.01285">
        <ele>219.32</ele>
        <time>2016-06-24T08:01:39Z</time>
      </trkpt>
      <trkpt lat="43.44679" lon="2.01186">
        <ele>214.03</ele>
        <time>2016-06-24T08:01:44Z</time>
      </trkpt>
      <trkpt lat="43.44697" lon="2.01124">
        <ele>210.67</ele>
        <time>2016-06-24T08:01:47Z</time>
      </trkpt>
      <trkpt lat="43.44708" lon="2.01084">
        <ele>206.82</ele>
        <time>2016-06-24T08:01:49Z</time>
      </trkpt>
      <trkpt lat="43.44729" lon="2.01005">
        <ele>202.98</ele>
        <time>2016-06-24T08:01:53Z</time>
      </trkpt>
      <trkpt lat="43.44746" lon="2.00944">
        <ele>199.13</ele>
        <time>2016-06-24T08:01:56Z</time>
      </trkpt>
      <trkpt lat="43.44768" lon="2.00863">
        <ele>195.77</ele>
        <time>2016-06-24T08:02:00Z</time>
      </trkpt>
      <trkpt lat="43.44778" lon="2.00825">
        <ele>191.44</ele>
        <time>2016-06-24T08:02:02Z</time>
      </trkpt>
      <trkpt lat="43.44792" lon="2.00772">
        <ele>188.08</ele>
        <time>2016-06-24T08:02:05Z</time>
      </trkpt>
      <trkpt lat="43.44801" lon="2.00739">
        <ele>185.19</ele>
        <time>2016-06-24T08:02:07Z</time>
      </trkpt>
      <trkpt lat="43.44842" lon="2.00674">
        <ele>181.35</ele>
        <time>2016-06-24T08:02:12Z</time>
      </trkpt>
      <trkpt lat="43.44853" lon="2.00667">
        <ele>179.42</ele>
        <time>2016-06-24T08:02:13Z</time>
      </trkpt>
      <trkpt lat="43.44897" lon="2.00644">
        <ele>176.06</ele>
        <time>2016-06-24T08:02:17Z</time>
      </trkpt>
      <trkpt lat="43.44909" lon="2.00638">
        <ele>176.06</ele>
        <time>2016-06-24T08:02:18Z</time>
      </trkpt>
      <trkpt lat="43.4503" lon="2.00575">
        <ele>172.21</ele>
        <time>2016-06-24T08:02:27Z</time>
      </trkpt>
      <trkpt lat="43.45044" lon="2.00568">
        <ele>171.73</ele>
        <time>2016-06-24T08:02:28Z</time>
      </trkpt>
      <trkpt lat="43.45087" lon="2.00546">
        <ele>167.89</ele>
        <time>2016-06-24T08:02:32Z</time>
      </trkpt>
      <trkpt lat="43.45104" lon="2.00538">
        <ele>166.93</ele>
        <time>2016-06-24T08:02:34Z</time>
      </trkpt>
      <trkpt lat="43.45119" lon="2.00536">
        <ele>165.48</ele>
        <time>2016-06-24T08:02:36Z</time>
      </trkpt>
      <trkpt lat="43.45136" lon="2.00526">
        <ele>165.96</ele>
        <time>2016-06-24T08:02:39Z</time>
      </trkpt>
      <trkpt lat="43.45241" lon="2.00464">
        <ele>164.04</ele>
        <time>2016-06-24T08:02:50Z</time>
      </trkpt>
      <trkpt lat="43.45312" lon="2.00426">
        <ele>160.68</ele>
        <time>2016-06-24T08:02:56Z</time>
      </trkpt>
      <trkpt lat="43.45335" lon="2.00414">
        <ele>160.2</ele>
        <time>2016-06-24T08:02:58Z</time>
      </trkpt>
      <trkpt lat="43.45388" lon="2.00386">
        <ele>157.79</ele>
        <time>2016-06-24T08:03:03Z</time>
      </trkpt>
      <trkpt lat="43.4549" lon="2.00331">
        <ele>154.43</ele>
        <time>2016-06-24T08:03:13Z</time>
      </trkpt>
      <trkpt lat="43.45559" lon="2.00294">
        <ele>152.51</ele>
        <time>2016-06-24T08:03:20Z</time>
      </trkpt>
      <trkpt lat="43.45613" lon="2.00263">
        <ele>149.14</ele>
        <time>2016-06-24T08:03:27Z</time>
      </trkpt>
      <trkpt lat="43.45618" lon="2.00259">
        <ele>149.14</ele>
        <time>2016-06-24T08:03:28Z</time>
      </trkpt>
      <trkpt lat="43.45631" lon="2.00253">
        <ele>148.18</ele>
        <time>2016-06-24T08:03:32Z</time>
      </trkpt>
      <trkpt lat="43.45646" lon="2.00233">
        <ele>149.14</ele>
        <time>2016-06-24T08:03:39Z</time>
      </trkpt>
      <trkpt lat="43.45636" lon="2.00209">
        <ele>148.18</ele>
        <time>2016-06-24T08:03:43Z</time>
      </trkpt>
      <trkpt lat="43.45631" lon="2.00185">
        <ele>149.62</ele>
        <time>2016-06-24T08:03:46Z</time>
      </trkpt>
      <trkpt lat="43.45607" lon="2.00072">
        <ele>149.62</ele>
        <time>2016-06-24T08:04:01Z</time>
      </trkpt>
      <trkpt lat="43.45605" lon="2.00053">
        <ele>148.66</ele>
        <time>2016-06-24T08:04:07Z</time>
      </trkpt>
      <trkpt lat="43.45583" lon="1.99966">
        <ele>150.58</ele>
        <time>2016-06-24T08:04:17Z</time>
      </trkpt>
      <trkpt lat="43.45551" lon="1.99814">
        <ele>151.54</ele>
        <time>2016-06-24T08:04:30Z</time>
      </trkpt>
      <trkpt lat="43.45511" lon="1.9963">
        <ele>151.06</ele>
        <time>2016-06-24T08:04:46Z</time>
      </trkpt>
      <trkpt lat="43.45499" lon="1.99566">
        <ele>149.62</ele>
        <time>2016-06-24T08:04:54Z</time>
      </trkpt>
      <trkpt lat="43.4548" lon="1.9947">
        <ele>150.58</ele>
        <time>2016-06-24T08:05:04Z</time>
      </trkpt>
      <trkpt lat="43.45456" lon="1.99367">
        <ele>150.1</ele>
        <time>2016-06-24T08:05:14Z</time>
      </trkpt>
      <trkpt lat="43.45456" lon="1.99344">
        <ele>149.14</ele>
        <time>2016-06-24T08:05:17Z</time>
      </trkpt>
      <trkpt lat="43.45446" lon="1.99309">
        <ele>150.1</ele>
        <time>2016-06-24T08:05:21Z</time>
      </trkpt>
      <trkpt lat="43.45417" lon="1.99191">
        <ele>152.51</ele>
        <time>2016-06-24T08:05:30Z</time>
      </trkpt>
      <trkpt lat="43.45384" lon="1.99041">
        <ele>152.51</ele>
        <time>2016-06-24T08:05:39Z</time>
      </trkpt>
      <trkpt lat="43.45343" lon="1.98846">
        <ele>153.95</ele>
        <time>2016-06-24T08:05:49Z</time>
      </trkpt>
      <trkpt lat="43.45333" lon="1.98803">
        <ele>155.39</ele>
        <time>2016-06-24T08:05:51Z</time>
      </trkpt>
      <trkpt lat="43.45269" lon="1.9851">
        <ele>153.95</ele>
        <time>2016-06-24T08:06:05Z</time>
      </trkpt>
      <trkpt lat="43.45212" lon="1.9825">
        <ele>152.51</ele>
        <time>2016-06-24T08:06:19Z</time>
      </trkpt>
      <trkpt lat="43.45172" lon="1.98068">
        <ele>152.03</ele>
        <time>2016-06-24T08:06:31Z</time>
      </trkpt>
      <trkpt lat="43.45158" lon="1.98006">
        <ele>151.06</ele>
        <time>2016-06-24T08:06:36Z</time>
      </trkpt>
      <trkpt lat="43.45162" lon="1.97977">
        <ele>152.51</ele>
        <time>2016-06-24T08:06:39Z</time>
      </trkpt>
      <trkpt lat="43.45166" lon="1.9795">
        <ele>151.06</ele>
        <time>2016-06-24T08:06:42Z</time>
      </trkpt>
      <trkpt lat="43.45139" lon="1.97908">
        <ele>152.51</ele>
        <time>2016-06-24T08:06:47Z</time>
      </trkpt>
      <trkpt lat="43.45101" lon="1.97744">
        <ele>153.47</ele>
        <time>2016-06-24T08:06:58Z</time>
      </trkpt>
      <trkpt lat="43.45054" lon="1.97527">
        <ele>155.39</ele>
        <time>2016-06-24T08:07:09Z</time>
      </trkpt>
      <trkpt lat="43.4499" lon="1.97232">
        <ele>155.87</ele>
        <time>2016-06-24T08:07:23Z</time>
      </trkpt>
      <trkpt lat="43.44925" lon="1.96935">
        <ele>154.91</ele>
        <time>2016-06-24T08:07:36Z</time>
      </trkpt>
      <trkpt lat="43.44845" lon="1.96566">
        <ele>155.87</ele>
        <time>2016-06-24T08:07:52Z</time>
      </trkpt>
      <trkpt lat="43.44751" lon="1.96133">
        <ele>154.43</ele>
        <time>2016-06-24T08:08:10Z</time>
      </trkpt>
      <trkpt lat="43.44662" lon="1.95724">
        <ele>152.99</ele>
        <time>2016-06-24T08:08:27Z</time>
      </trkpt>
      <trkpt lat="43.44574" lon="1.95325">
        <ele>154.43</ele>
        <time>2016-06-24T08:08:44Z</time>
      </trkpt>
      <trkpt lat="43.44558" lon="1.95251">
        <ele>151.06</ele>
        <time>2016-06-24T08:08:48Z</time>
      </trkpt>
      <trkpt lat="43.44552" lon="1.95218">
        <ele>149.62</ele>
        <time>2016-06-24T08:08:51Z</time>
      </trkpt>
      <trkpt lat="43.4455" lon="1.95193">
        <ele>148.66</ele>
        <time>2016-06-24T08:08:58Z</time>
      </trkpt>
      <trkpt lat="43.4455" lon="1.95175">
        <ele>147.7</ele>
        <time>2016-06-24T08:09:04Z</time>
      </trkpt>
      <trkpt lat="43.44558" lon="1.95093">
        <ele>149.62</ele>
        <time>2016-06-24T08:09:10Z</time>
      </trkpt>
      <trkpt lat="43.44578" lon="1.94878">
        <ele>150.58</ele>
        <time>2016-06-24T08:09:20Z</time>
      </trkpt>
      <trkpt lat="43.44605" lon="1.94592">
        <ele>152.51</ele>
        <time>2016-06-24T08:09:31Z</time>
      </trkpt>
      <trkpt lat="43.44652" lon="1.9411">
        <ele>153.47</ele>
        <time>2016-06-24T08:09:47Z</time>
      </trkpt>
      <trkpt lat="43.44693" lon="1.93678">
        <ele>150.58</ele>
        <time>2016-06-24T08:10:02Z</time>
      </trkpt>
      <trkpt lat="43.44696" lon="1.93653">
        <ele>150.58</ele>
        <time>2016-06-24T08:10:03Z</time>
      </trkpt>
      <trkpt lat="43.44708" lon="1.93515">
        <ele>154.91</ele>
        <time>2016-06-24T08:10:08Z</time>
      </trkpt>
      <trkpt lat="43.44711" lon="1.93486">
        <ele>154.43</ele>
        <time>2016-06-24T08:10:09Z</time>
      </trkpt>
      <trkpt lat="43.44767" lon="1.92918">
        <ele>151.06</ele>
        <time>2016-06-24T08:10:28Z</time>
      </trkpt>
      <trkpt lat="43.44825" lon="1.92304">
        <ele>150.1</ele>
        <time>2016-06-24T08:10:48Z</time>
      </trkpt>
      <trkpt lat="43.4488" lon="1.9174">
        <ele>150.58</ele>
        <time>2016-06-24T08:11:07Z</time>
      </trkpt>
      <trkpt lat="43.44895" lon="1.91604">
        <ele>149.62</ele>
        <time>2016-06-24T08:11:12Z</time>
      </trkpt>
      <trkpt lat="43.44905" lon="1.91461">
        <ele>152.99</ele>
        <time>2016-06-24T08:11:17Z</time>
      </trkpt>
      <trkpt lat="43.44908" lon="1.91431">
        <ele>152.99</ele>
        <time>2016-06-24T08:11:18Z</time>
      </trkpt>
      <trkpt lat="43.44919" lon="1.91312">
        <ele>155.39</ele>
        <time>2016-06-24T08:11:22Z</time>
      </trkpt>
      <trkpt lat="43.44932" lon="1.91187">
        <ele>158.27</ele>
        <time>2016-06-24T08:11:26Z</time>
      </trkpt>
      <trkpt lat="43.44941" lon="1.91092">
        <ele>161.64</ele>
        <time>2016-06-24T08:11:29Z</time>
      </trkpt>
      <trkpt lat="43.4495" lon="1.90996">
        <ele>165.48</ele>
        <time>2016-06-24T08:11:32Z</time>
      </trkpt>
      <trkpt lat="43.44956" lon="1.90932">
        <ele>166.93</ele>
        <time>2016-06-24T08:11:34Z</time>
      </trkpt>
      <trkpt lat="43.44974" lon="1.9074">
        <ele>170.77</ele>
        <time>2016-06-24T08:11:40Z</time>
      </trkpt>
      <trkpt lat="43.44977" lon="1.90708">
        <ele>170.77</ele>
        <time>2016-06-24T08:11:41Z</time>
      </trkpt>
      <trkpt lat="43.44988" lon="1.90612">
        <ele>172.21</ele>
        <time>2016-06-24T08:11:44Z</time>
      </trkpt>
      <trkpt lat="43.45002" lon="1.90455">
        <ele>176.06</ele>
        <time>2016-06-24T08:11:49Z</time>
      </trkpt>
      <trkpt lat="43.45013" lon="1.9032">
        <ele>178.46</ele>
        <time>2016-06-24T08:11:54Z</time>
      </trkpt>
      <trkpt lat="43.45009" lon="1.90184">
        <ele>180.38</ele>
        <time>2016-06-24T08:12:01Z</time>
      </trkpt>
      <trkpt lat="43.45006" lon="1.90122">
        <ele>183.75</ele>
        <time>2016-06-24T08:12:05Z</time>
      </trkpt>
      <trkpt lat="43.45001" lon="1.90055">
        <ele>187.11</ele>
        <time>2016-06-24T08:12:10Z</time>
      </trkpt>
      <trkpt lat="43.45" lon="1.90031">
        <ele>188.08</ele>
        <time>2016-06-24T08:12:12Z</time>
      </trkpt>
      <trkpt lat="43.44997" lon="1.89969">
        <ele>190.96</ele>
        <time>2016-06-24T08:12:18Z</time>
      </trkpt>
      <trkpt lat="43.44996" lon="1.89949">
        <ele>192.88</ele>
        <time>2016-06-24T08:12:20Z</time>
      </trkpt>
      <trkpt lat="43.44993" lon="1.89893">
        <ele>196.25</ele>
        <time>2016-06-24T08:12:26Z</time>
      </trkpt>
      <trkpt lat="43.44993" lon="1.89885">
        <ele>196.73</ele>
        <time>2016-06-24T08:12:27Z</time>
      </trkpt>
      <trkpt lat="43.44985" lon="1.89822">
        <ele>200.57</ele>
        <time>2016-06-24T08:12:34Z</time>
      </trkpt>
      <trkpt lat="43.44977" lon="1.89787">
        <ele>205.86</ele>
        <time>2016-06-24T08:12:36Z</time>
      </trkpt>
      <trkpt lat="43.44973" lon="1.89767">
        <ele>206.34</ele>
        <time>2016-06-24T08:12:37Z</time>
      </trkpt>
      <trkpt lat="43.44962" lon="1.89723">
        <ele>210.19</ele>
        <time>2016-06-24T08:12:39Z</time>
      </trkpt>
      <trkpt lat="43.44951" lon="1.89681">
        <ele>211.63</ele>
        <time>2016-06-24T08:12:41Z</time>
      </trkpt>
      <trkpt lat="43.44946" lon="1.89659">
        <ele>213.55</ele>
        <time>2016-06-24T08:12:42Z</time>
      </trkpt>
      <trkpt lat="43.44933" lon="1.89562">
        <ele>218.36</ele>
        <time>2016-06-24T08:12:46Z</time>
      </trkpt>
      <trkpt lat="43.44935" lon="1.89508">
        <ele>221.72</ele>
        <time>2016-06-24T08:12:48Z</time>
      </trkpt>
      <trkpt lat="43.44948" lon="1.89372">
        <ele>228.45</ele>
        <time>2016-06-24T08:12:53Z</time>
      </trkpt>
      <trkpt lat="43.44949" lon="1.89317">
        <ele>229.41</ele>
        <time>2016-06-24T08:12:55Z</time>
      </trkpt>
      <trkpt lat="43.44948" lon="1.89242">
        <ele>230.85</ele>
        <time>2016-06-24T08:12:58Z</time>
      </trkpt>
      <trkpt lat="43.44916" lon="1.8917">
        <ele>234.22</ele>
        <time>2016-06-24T08:13:02Z</time>
      </trkpt>
      <trkpt lat="43.44899" lon="1.89161">
        <ele>235.18</ele>
        <time>2016-06-24T08:13:03Z</time>
      </trkpt>
      <trkpt lat="43.44849" lon="1.89141">
        <ele>237.1</ele>
        <time>2016-06-24T08:13:06Z</time>
      </trkpt>
      <trkpt lat="43.44794" lon="1.89089">
        <ele>239.99</ele>
        <time>2016-06-24T08:13:10Z</time>
      </trkpt>
      <trkpt lat="43.44761" lon="1.89039">
        <ele>242.39</ele>
        <time>2016-06-24T08:13:13Z</time>
      </trkpt>
      <trkpt lat="43.44696" lon="1.88991">
        <ele>243.83</ele>
        <time>2016-06-24T08:13:18Z</time>
      </trkpt>
      <trkpt lat="43.44688" lon="1.88942">
        <ele>245.27</ele>
        <time>2016-06-24T08:13:21Z</time>
      </trkpt>
      <trkpt lat="43.44713" lon="1.88858">
        <ele>248.16</ele>
        <time>2016-06-24T08:13:26Z</time>
      </trkpt>
      <trkpt lat="43.4476" lon="1.88787">
        <ele>250.56</ele>
        <time>2016-06-24T08:13:31Z</time>
      </trkpt>
      <trkpt lat="43.44807" lon="1.88741">
        <ele>253.93</ele>
        <time>2016-06-24T08:13:35Z</time>
      </trkpt>
      <trkpt lat="43.44826" lon="1.88712">
        <ele>254.89</ele>
        <time>2016-06-24T08:13:37Z</time>
      </trkpt>
      <trkpt lat="43.4485" lon="1.88639">
        <ele>257.29</ele>
        <time>2016-06-24T08:13:41Z</time>
      </trkpt>
      <trkpt lat="43.44856" lon="1.88622">
        <ele>258.25</ele>
        <time>2016-06-24T08:13:42Z</time>
      </trkpt>
      <trkpt lat="43.44904" lon="1.88556">
        <ele>262.1</ele>
        <time>2016-06-24T08:13:47Z</time>
      </trkpt>
      <trkpt lat="43.4495" lon="1.8852">
        <ele>262.1</ele>
        <time>2016-06-24T08:13:52Z</time>
      </trkpt>
      <trkpt lat="43.44974" lon="1.8848">
        <ele>262.1</ele>
        <time>2016-06-24T08:13:56Z</time>
      </trkpt>
      <trkpt lat="43.45056" lon="1.88277">
        <ele>263.06</ele>
        <time>2016-06-24T08:14:09Z</time>
      </trkpt>
      <trkpt lat="43.45165" lon="1.88019">
        <ele>261.14</ele>
        <time>2016-06-24T08:14:23Z</time>
      </trkpt>
      <trkpt lat="43.45228" lon="1.87894">
        <ele>259.69</ele>
        <time>2016-06-24T08:14:29Z</time>
      </trkpt>
      <trkpt lat="43.45303" lon="1.87668">
        <ele>256.81</ele>
        <time>2016-06-24T08:14:38Z</time>
      </trkpt>
      <trkpt lat="43.45311" lon="1.87642">
        <ele>256.81</ele>
        <time>2016-06-24T08:14:39Z</time>
      </trkpt>
      <trkpt lat="43.45406" lon="1.87311">
        <ele>253.93</ele>
        <time>2016-06-24T08:14:51Z</time>
      </trkpt>
      <trkpt lat="43.45446" lon="1.87171">
        <ele>250.56</ele>
        <time>2016-06-24T08:14:56Z</time>
      </trkpt>
      <trkpt lat="43.45477" lon="1.87069">
        <ele>246.72</ele>
        <time>2016-06-24T08:15:00Z</time>
      </trkpt>
      <trkpt lat="43.45495" lon="1.8696">
        <ele>243.35</ele>
        <time>2016-06-24T08:15:04Z</time>
      </trkpt>
      <trkpt lat="43.45506" lon="1.86875">
        <ele>239.51</ele>
        <time>2016-06-24T08:15:07Z</time>
      </trkpt>
      <trkpt lat="43.45517" lon="1.86791">
        <ele>235.18</ele>
        <time>2016-06-24T08:15:10Z</time>
      </trkpt>
      <trkpt lat="43.4553" lon="1.86708">
        <ele>233.74</ele>
        <time>2016-06-24T08:15:13Z</time>
      </trkpt>
      <trkpt lat="43.45549" lon="1.8663">
        <ele>229.41</ele>
        <time>2016-06-24T08:15:16Z</time>
      </trkpt>
      <trkpt lat="43.45556" lon="1.86604">
        <ele>227.49</ele>
        <time>2016-06-24T08:15:17Z</time>
      </trkpt>
      <trkpt lat="43.45599" lon="1.86509">
        <ele>223.64</ele>
        <time>2016-06-24T08:15:21Z</time>
      </trkpt>
      <trkpt lat="43.45624" lon="1.86465">
        <ele>221.24</ele>
        <time>2016-06-24T08:15:23Z</time>
      </trkpt>
      <trkpt lat="43.45652" lon="1.86427">
        <ele>218.84</ele>
        <time>2016-06-24T08:15:25Z</time>
      </trkpt>
      <trkpt lat="43.45695" lon="1.86339">
        <ele>214.03</ele>
        <time>2016-06-24T08:15:29Z</time>
      </trkpt>
      <trkpt lat="43.4572" lon="1.86265">
        <ele>211.63</ele>
        <time>2016-06-24T08:15:32Z</time>
      </trkpt>
      <trkpt lat="43.4574" lon="1.86218">
        <ele>208.26</ele>
        <time>2016-06-24T08:15:34Z</time>
      </trkpt>
      <trkpt lat="43.45792" lon="1.86135">
        <ele>204.9</ele>
        <time>2016-06-24T08:15:38Z</time>
      </trkpt>
      <trkpt lat="43.45837" lon="1.86078">
        <ele>201.05</ele>
        <time>2016-06-24T08:15:41Z</time>
      </trkpt>
      <trkpt lat="43.45872" lon="1.86046">
        <ele>200.09</ele>
        <time>2016-06-24T08:15:43Z</time>
      </trkpt>
      <trkpt lat="43.45909" lon="1.86019">
        <ele>197.21</ele>
        <time>2016-06-24T08:15:45Z</time>
      </trkpt>
      <trkpt lat="43.45968" lon="1.85979">
        <ele>195.28</ele>
        <time>2016-06-24T08:15:48Z</time>
      </trkpt>
      <trkpt lat="43.46047" lon="1.85924">
        <ele>191.92</ele>
        <time>2016-06-24T08:15:52Z</time>
      </trkpt>
      <trkpt lat="43.46066" lon="1.8591">
        <ele>190.48</ele>
        <time>2016-06-24T08:15:53Z</time>
      </trkpt>
      <trkpt lat="43.46115" lon="1.85857">
        <ele>186.15</ele>
        <time>2016-06-24T08:15:56Z</time>
      </trkpt>
      <trkpt lat="43.46141" lon="1.85781">
        <ele>184.71</ele>
        <time>2016-06-24T08:15:59Z</time>
      </trkpt>
      <trkpt lat="43.46143" lon="1.85723">
        <ele>183.75</ele>
        <time>2016-06-24T08:16:01Z</time>
      </trkpt>
      <trkpt lat="43.46141" lon="1.85694">
        <ele>183.75</ele>
        <time>2016-06-24T08:16:02Z</time>
      </trkpt>
      <trkpt lat="43.4612" lon="1.85549">
        <ele>189.04</ele>
        <time>2016-06-24T08:16:07Z</time>
      </trkpt>
      <trkpt lat="43.46109" lon="1.85461">
        <ele>191.44</ele>
        <time>2016-06-24T08:16:10Z</time>
      </trkpt>
      <trkpt lat="43.46098" lon="1.85348">
        <ele>195.28</ele>
        <time>2016-06-24T08:16:14Z</time>
      </trkpt>
      <trkpt lat="43.46068" lon="1.85243">
        <ele>198.17</ele>
        <time>2016-06-24T08:16:18Z</time>
      </trkpt>
      <trkpt lat="43.46016" lon="1.85133">
        <ele>202.49</ele>
        <time>2016-06-24T08:16:23Z</time>
      </trkpt>
      <trkpt lat="43.45989" lon="1.85069">
        <ele>204.9</ele>
        <time>2016-06-24T08:16:26Z</time>
      </trkpt>
      <trkpt lat="43.45976" lon="1.84999">
        <ele>208.26</ele>
        <time>2016-06-24T08:16:29Z</time>
      </trkpt>
      <trkpt lat="43.45981" lon="1.84925">
        <ele>211.15</ele>
        <time>2016-06-24T08:16:32Z</time>
      </trkpt>
      <trkpt lat="43.46047" lon="1.84621">
        <ele>214.03</ele>
        <time>2016-06-24T08:16:44Z</time>
      </trkpt>
      <trkpt lat="43.46083" lon="1.84444">
        <ele>217.88</ele>
        <time>2016-06-24T08:16:51Z</time>
      </trkpt>
      <trkpt lat="43.46157" lon="1.84049">
        <ele>220.28</ele>
        <time>2016-06-24T08:17:06Z</time>
      </trkpt>
      <trkpt lat="43.46157" lon="1.83995">
        <ele>221.72</ele>
        <time>2016-06-24T08:17:08Z</time>
      </trkpt>
      <trkpt lat="43.46147" lon="1.83914">
        <ele>222.68</ele>
        <time>2016-06-24T08:17:11Z</time>
      </trkpt>
      <trkpt lat="43.46118" lon="1.83705">
        <ele>224.12</ele>
        <time>2016-06-24T08:17:19Z</time>
      </trkpt>
      <trkpt lat="43.46147" lon="1.83455">
        <ele>224.12</ele>
        <time>2016-06-24T08:17:28Z</time>
      </trkpt>
      <trkpt lat="43.46191" lon="1.83079">
        <ele>220.76</ele>
        <time>2016-06-24T08:17:42Z</time>
      </trkpt>
      <trkpt lat="43.46193" lon="1.82859">
        <ele>221.72</ele>
        <time>2016-06-24T08:17:50Z</time>
      </trkpt>
      <trkpt lat="43.46189" lon="1.82649">
        <ele>218.36</ele>
        <time>2016-06-24T08:17:57Z</time>
      </trkpt>
      <trkpt lat="43.46188" lon="1.82572">
        <ele>213.55</ele>
        <time>2016-06-24T08:18:00Z</time>
      </trkpt>
      <trkpt lat="43.46187" lon="1.82549">
        <ele>213.55</ele>
        <time>2016-06-24T08:18:01Z</time>
      </trkpt>
      <trkpt lat="43.4618" lon="1.82347">
        <ele>212.11</ele>
        <time>2016-06-24T08:18:11Z</time>
      </trkpt>
      <trkpt lat="43.4618" lon="1.82317">
        <ele>210.67</ele>
        <time>2016-06-24T08:18:13Z</time>
      </trkpt>
      <trkpt lat="43.46163" lon="1.82285">
        <ele>208.74</ele>
        <time>2016-06-24T08:18:17Z</time>
      </trkpt>
      <trkpt lat="43.46077" lon="1.82268">
        <ele>211.15</ele>
        <time>2016-06-24T08:18:25Z</time>
      </trkpt>
      <trkpt lat="43.46055" lon="1.82243">
        <ele>212.59</ele>
        <time>2016-06-24T08:18:27Z</time>
      </trkpt>
      <trkpt lat="43.46012" lon="1.82175">
        <ele>214.51</ele>
        <time>2016-06-24T08:18:31Z</time>
      </trkpt>
      <trkpt lat="43.4593" lon="1.82041">
        <ele>217.88</ele>
        <time>2016-06-24T08:18:38Z</time>
      </trkpt>
      <trkpt lat="43.45859" lon="1.81923">
        <ele>213.07</ele>
        <time>2016-06-24T08:18:44Z</time>
      </trkpt>
      <trkpt lat="43.45848" lon="1.81905">
        <ele>212.11</ele>
        <time>2016-06-24T08:18:45Z</time>
      </trkpt>
      <trkpt lat="43.45789" lon="1.81863">
        <ele>209.7</ele>
        <time>2016-06-24T08:18:49Z</time>
      </trkpt>
      <trkpt lat="43.45674" lon="1.81823">
        <ele>205.86</ele>
        <time>2016-06-24T08:18:55Z</time>
      </trkpt>
      <trkpt lat="43.45613" lon="1.81802">
        <ele>204.42</ele>
        <time>2016-06-24T08:18:58Z</time>
      </trkpt>
      <trkpt lat="43.45573" lon="1.81788">
        <ele>202.98</ele>
        <time>2016-06-24T08:19:00Z</time>
      </trkpt>
      <trkpt lat="43.45514" lon="1.81768">
        <ele>199.61</ele>
        <time>2016-06-24T08:19:03Z</time>
      </trkpt>
      <trkpt lat="43.45495" lon="1.81761">
        <ele>199.13</ele>
        <time>2016-06-24T08:19:04Z</time>
      </trkpt>
      <trkpt lat="43.45476" lon="1.81752">
        <ele>198.17</ele>
        <time>2016-06-24T08:19:05Z</time>
      </trkpt>
      <trkpt lat="43.45286" lon="1.81597">
        <ele>194.8</ele>
        <time>2016-06-24T08:19:16Z</time>
      </trkpt>
      <trkpt lat="43.45212" lon="1.81532">
        <ele>193.36</ele>
        <time>2016-06-24T08:19:20Z</time>
      </trkpt>
      <trkpt lat="43.45156" lon="1.81484">
        <ele>191.44</ele>
        <time>2016-06-24T08:19:23Z</time>
      </trkpt>
      <trkpt lat="43.45097" lon="1.81439">
        <ele>188.56</ele>
        <time>2016-06-24T08:19:26Z</time>
      </trkpt>
      <trkpt lat="43.45035" lon="1.81404">
        <ele>186.15</ele>
        <time>2016-06-24T08:19:29Z</time>
      </trkpt>
      <trkpt lat="43.44814" lon="1.81277">
        <ele>183.27</ele>
        <time>2016-06-24T08:19:40Z</time>
      </trkpt>
      <trkpt lat="43.44714" lon="1.81263">
        <ele>181.35</ele>
        <time>2016-06-24T08:19:45Z</time>
      </trkpt>
      <trkpt lat="43.44645" lon="1.81208">
        <ele>178.94</ele>
        <time>2016-06-24T08:19:50Z</time>
      </trkpt>
      <trkpt lat="43.44586" lon="1.81036">
        <ele>175.1</ele>
        <time>2016-06-24T08:19:57Z</time>
      </trkpt>
      <trkpt lat="43.44551" lon="1.80932">
        <ele>171.25</ele>
        <time>2016-06-24T08:20:01Z</time>
      </trkpt>
      <trkpt lat="43.44523" lon="1.80855">
        <ele>167.41</ele>
        <time>2016-06-24T08:20:04Z</time>
      </trkpt>
      <trkpt lat="43.44495" lon="1.80777">
        <ele>164.04</ele>
        <time>2016-06-24T08:20:07Z</time>
      </trkpt>
      <trkpt lat="43.44479" lon="1.80728">
        <ele>161.64</ele>
        <time>2016-06-24T08:20:09Z</time>
      </trkpt>
      <trkpt lat="43.44474" lon="1.80655">
        <ele>158.75</ele>
        <time>2016-06-24T08:20:12Z</time>
      </trkpt>
      <trkpt lat="43.44479" lon="1.8063">
        <ele>159.24</ele>
        <time>2016-06-24T08:20:13Z</time>
      </trkpt>
      <trkpt lat="43.44567" lon="1.80273">
        <ele>160.2</ele>
        <time>2016-06-24T08:20:26Z</time>
      </trkpt>
      <trkpt lat="43.44634" lon="1.79996">
        <ele>161.64</ele>
        <time>2016-06-24T08:20:36Z</time>
      </trkpt>
      <trkpt lat="43.44639" lon="1.79809">
        <ele>159.72</ele>
        <time>2016-06-24T08:20:43Z</time>
      </trkpt>
      <trkpt lat="43.44639" lon="1.79782">
        <ele>160.2</ele>
        <time>2016-06-24T08:20:44Z</time>
      </trkpt>
      <trkpt lat="43.44638" lon="1.79754">
        <ele>158.75</ele>
        <time>2016-06-24T08:20:45Z</time>
      </trkpt>
      <trkpt lat="43.44675" lon="1.79508">
        <ele>158.75</ele>
        <time>2016-06-24T08:20:54Z</time>
      </trkpt>
      <trkpt lat="43.4471" lon="1.7932">
        <ele>155.39</ele>
        <time>2016-06-24T08:21:01Z</time>
      </trkpt>
      <trkpt lat="43.44696" lon="1.79237">
        <ele>152.51</ele>
        <time>2016-06-24T08:21:05Z</time>
      </trkpt>
      <trkpt lat="43.44682" lon="1.79222">
        <ele>152.51</ele>
        <time>2016-06-24T08:21:06Z</time>
      </trkpt>
      <trkpt lat="43.44531" lon="1.79085">
        <ele>156.35</ele>
        <time>2016-06-24T08:21:15Z</time>
      </trkpt>
      <trkpt lat="43.44478" lon="1.79038">
        <ele>159.72</ele>
        <time>2016-06-24T08:21:18Z</time>
      </trkpt>
      <trkpt lat="43.44444" lon="1.79007">
        <ele>160.68</ele>
        <time>2016-06-24T08:21:20Z</time>
      </trkpt>
      <trkpt lat="43.44428" lon="1.7899">
        <ele>161.64</ele>
        <time>2016-06-24T08:21:21Z</time>
      </trkpt>
      <trkpt lat="43.44373" lon="1.7888">
        <ele>165.96</ele>
        <time>2016-06-24T08:21:26Z</time>
      </trkpt>
      <trkpt lat="43.44347" lon="1.78805">
        <ele>167.89</ele>
        <time>2016-06-24T08:21:29Z</time>
      </trkpt>
      <trkpt lat="43.44301" lon="1.7867">
        <ele>166.45</ele>
        <time>2016-06-24T08:21:34Z</time>
      </trkpt>
      <trkpt lat="43.4427" lon="1.78584">
        <ele>165</ele>
        <time>2016-06-24T08:21:37Z</time>
      </trkpt>
      <trkpt lat="43.44229" lon="1.78472">
        <ele>167.41</ele>
        <time>2016-06-24T08:21:41Z</time>
      </trkpt>
      <trkpt lat="43.44199" lon="1.78391">
        <ele>172.21</ele>
        <time>2016-06-24T08:21:44Z</time>
      </trkpt>
      <trkpt lat="43.44176" lon="1.7834">
        <ele>176.06</ele>
        <time>2016-06-24T08:21:46Z</time>
      </trkpt>
      <trkpt lat="43.44131" lon="1.78274">
        <ele>180.87</ele>
        <time>2016-06-24T08:21:49Z</time>
      </trkpt>
      <trkpt lat="43.44095" lon="1.78242">
        <ele>182.31</ele>
        <time>2016-06-24T08:21:51Z</time>
      </trkpt>
      <trkpt lat="43.44016" lon="1.78195">
        <ele>184.71</ele>
        <time>2016-06-24T08:21:55Z</time>
      </trkpt>
      <trkpt lat="43.43876" lon="1.78114">
        <ele>189.04</ele>
        <time>2016-06-24T08:22:02Z</time>
      </trkpt>
      <trkpt lat="43.43857" lon="1.78103">
        <ele>189.52</ele>
        <time>2016-06-24T08:22:03Z</time>
      </trkpt>
      <trkpt lat="43.4369" lon="1.77998">
        <ele>191.44</ele>
        <time>2016-06-24T08:22:13Z</time>
      </trkpt>
      <trkpt lat="43.43663" lon="1.77969">
        <ele>192.4</ele>
        <time>2016-06-24T08:22:15Z</time>
      </trkpt>
      <trkpt lat="43.43633" lon="1.7791">
        <ele>192.88</ele>
        <time>2016-06-24T08:22:18Z</time>
      </trkpt>
      <trkpt lat="43.43577" lon="1.77746">
        <ele>190.96</ele>
        <time>2016-06-24T08:22:25Z</time>
      </trkpt>
      <trkpt lat="43.43495" lon="1.77625">
        <ele>187.11</ele>
        <time>2016-06-24T08:22:31Z</time>
      </trkpt>
      <trkpt lat="43.43346" lon="1.77452">
        <ele>191.92</ele>
        <time>2016-06-24T08:22:40Z</time>
      </trkpt>
      <trkpt lat="43.43168" lon="1.77236">
        <ele>188.56</ele>
        <time>2016-06-24T08:22:51Z</time>
      </trkpt>
      <trkpt lat="43.43124" lon="1.77166">
        <ele>187.11</ele>
        <time>2016-06-24T08:22:54Z</time>
      </trkpt>
      <trkpt lat="43.42985" lon="1.76898">
        <ele>190.48</ele>
        <time>2016-06-24T08:23:05Z</time>
      </trkpt>
      <trkpt lat="43.42962" lon="1.76846">
        <ele>191.44</ele>
        <time>2016-06-24T08:23:07Z</time>
      </trkpt>
      <trkpt lat="43.42844" lon="1.76663">
        <ele>190</ele>
        <time>2016-06-24T08:23:15Z</time>
      </trkpt>
      <trkpt lat="43.42735" lon="1.76515">
        <ele>190</ele>
        <time>2016-06-24T08:23:22Z</time>
      </trkpt>
      <trkpt lat="43.42657" lon="1.76341">
        <ele>189.04</ele>
        <time>2016-06-24T08:23:29Z</time>
      </trkpt>
      <trkpt lat="43.42631" lon="1.76166">
        <ele>188.56</ele>
        <time>2016-06-24T08:23:35Z</time>
      </trkpt>
      <trkpt lat="43.42611" lon="1.75944">
        <ele>185.19</ele>
        <time>2016-06-24T08:23:43Z</time>
      </trkpt>
      <trkpt lat="43.42603" lon="1.75854">
        <ele>184.23</ele>
        <time>2016-06-24T08:23:47Z</time>
      </trkpt>
      <trkpt lat="43.42586" lon="1.75754">
        <ele>183.75</ele>
        <time>2016-06-24T08:23:52Z</time>
      </trkpt>
      <trkpt lat="43.42551" lon="1.75686">
        <ele>182.79</ele>
        <time>2016-06-24T08:23:56Z</time>
      </trkpt>
      <trkpt lat="43.42477" lon="1.75595">
        <ele>180.38</ele>
        <time>2016-06-24T08:24:03Z</time>
      </trkpt>
      <trkpt lat="43.42463" lon="1.7552">
        <ele>179.9</ele>
        <time>2016-06-24T08:24:08Z</time>
      </trkpt>
      <trkpt lat="43.42486" lon="1.75405">
        <ele>179.9</ele>
        <time>2016-06-24T08:24:14Z</time>
      </trkpt>
      <trkpt lat="43.42494" lon="1.75365">
        <ele>178.46</ele>
        <time>2016-06-24T08:24:16Z</time>
      </trkpt>
      <trkpt lat="43.42487" lon="1.75282">
        <ele>176.54</ele>
        <time>2016-06-24T08:24:20Z</time>
      </trkpt>
      <trkpt lat="43.4246" lon="1.75211">
        <ele>172.21</ele>
        <time>2016-06-24T08:24:24Z</time>
      </trkpt>
      <trkpt lat="43.42439" lon="1.75156">
        <ele>168.85</ele>
        <time>2016-06-24T08:24:29Z</time>
      </trkpt>
      <trkpt lat="43.42409" lon="1.75076">
        <ele>168.37</ele>
        <time>2016-06-24T08:24:38Z</time>
      </trkpt>
      <trkpt lat="43.42375" lon="1.74985">
        <ele>167.41</ele>
        <time>2016-06-24T08:24:49Z</time>
      </trkpt>
      <trkpt lat="43.42355" lon="1.74914">
        <ele>167.41</ele>
        <time>2016-06-24T08:24:55Z</time>
      </trkpt>
      <trkpt lat="43.42348" lon="1.74877">
        <ele>167.89</ele>
        <time>2016-06-24T08:24:57Z</time>
      </trkpt>
      <trkpt lat="43.42279" lon="1.74737">
        <ele>164.52</ele>
        <time>2016-06-24T08:25:04Z</time>
      </trkpt>
      <trkpt lat="43.42223" lon="1.7462">
        <ele>160.2</ele>
        <time>2016-06-24T08:25:09Z</time>
      </trkpt>
      <trkpt lat="43.42191" lon="1.74548">
        <ele>157.79</ele>
        <time>2016-06-24T08:25:12Z</time>
      </trkpt>
      <trkpt lat="43.42129" lon="1.74472">
        <ele>152.99</ele>
        <time>2016-06-24T08:25:16Z</time>
      </trkpt>
      <trkpt lat="43.42045" lon="1.74448">
        <ele>150.1</ele>
        <time>2016-06-24T08:25:20Z</time>
      </trkpt>
      <trkpt lat="43.42002" lon="1.74459">
        <ele>149.62</ele>
        <time>2016-06-24T08:25:22Z</time>
      </trkpt>
      <trkpt lat="43.41897" lon="1.74496">
        <ele>154.91</ele>
        <time>2016-06-24T08:25:27Z</time>
      </trkpt>
      <trkpt lat="43.41875" lon="1.74499">
        <ele>155.39</ele>
        <time>2016-06-24T08:25:28Z</time>
      </trkpt>
      <trkpt lat="43.41811" lon="1.74503">
        <ele>155.87</ele>
        <time>2016-06-24T08:25:31Z</time>
      </trkpt>
      <trkpt lat="43.41698" lon="1.74437">
        <ele>152.99</ele>
        <time>2016-06-24T08:25:37Z</time>
      </trkpt>
      <trkpt lat="43.41672" lon="1.74389">
        <ele>151.06</ele>
        <time>2016-06-24T08:25:39Z</time>
      </trkpt>
      <trkpt lat="43.41619" lon="1.74254">
        <ele>150.58</ele>
        <time>2016-06-24T08:25:44Z</time>
      </trkpt>
      <trkpt lat="43.41585" lon="1.74174">
        <ele>153.95</ele>
        <time>2016-06-24T08:25:47Z</time>
      </trkpt>
      <trkpt lat="43.41456" lon="1.74003">
        <ele>153.47</ele>
        <time>2016-06-24T08:25:55Z</time>
      </trkpt>
      <trkpt lat="43.41376" lon="1.73906">
        <ele>156.83</ele>
        <time>2016-06-24T08:26:00Z</time>
      </trkpt>
      <trkpt lat="43.41312" lon="1.7382">
        <ele>160.2</ele>
        <time>2016-06-24T08:26:04Z</time>
      </trkpt>
      <trkpt lat="43.41184" lon="1.73648">
        <ele>163.56</ele>
        <time>2016-06-24T08:26:12Z</time>
      </trkpt>
      <trkpt lat="43.41134" lon="1.73587">
        <ele>166.93</ele>
        <time>2016-06-24T08:26:15Z</time>
      </trkpt>
      <trkpt lat="43.41118" lon="1.73567">
        <ele>166.93</ele>
        <time>2016-06-24T08:26:16Z</time>
      </trkpt>
      <trkpt lat="43.41086" lon="1.73526">
        <ele>167.89</ele>
        <time>2016-06-24T08:26:18Z</time>
      </trkpt>
      <trkpt lat="43.40969" lon="1.73382">
        <ele>163.56</ele>
        <time>2016-06-24T08:26:25Z</time>
      </trkpt>
      <trkpt lat="43.40953" lon="1.73361">
        <ele>163.56</ele>
        <time>2016-06-24T08:26:26Z</time>
      </trkpt>
      <trkpt lat="43.40894" lon="1.73275">
        <ele>161.64</ele>
        <time>2016-06-24T08:26:30Z</time>
      </trkpt>
      <trkpt lat="43.40791" lon="1.73112">
        <ele>157.79</ele>
        <time>2016-06-24T08:26:37Z</time>
      </trkpt>
      <trkpt lat="43.40776" lon="1.73088">
        <ele>158.27</ele>
        <time>2016-06-24T08:26:38Z</time>
      </trkpt>
      <trkpt lat="43.40572" lon="1.72766">
        <ele>156.35</ele>
        <time>2016-06-24T08:26:52Z</time>
      </trkpt>
      <trkpt lat="43.40517" lon="1.72679">
        <ele>152.03</ele>
        <time>2016-06-24T08:26:56Z</time>
      </trkpt>
      <trkpt lat="43.40503" lon="1.72657">
        <ele>151.54</ele>
        <time>2016-06-24T08:26:57Z</time>
      </trkpt>
      <trkpt lat="43.40452" lon="1.72577">
        <ele>148.66</ele>
        <time>2016-06-24T08:27:01Z</time>
      </trkpt>
      <trkpt lat="43.40405" lon="1.72504">
        <ele>145.78</ele>
        <time>2016-06-24T08:27:06Z</time>
      </trkpt>
      <trkpt lat="43.40394" lon="1.72472">
        <ele>145.3</ele>
        <time>2016-06-24T08:27:09Z</time>
      </trkpt>
      <trkpt lat="43.40358" lon="1.7243">
        <ele>146.74</ele>
        <time>2016-06-24T08:27:15Z</time>
      </trkpt>
      <trkpt lat="43.40273" lon="1.72328">
        <ele>146.26</ele>
        <time>2016-06-24T08:27:26Z</time>
      </trkpt>
      <trkpt lat="43.40258" lon="1.72313">
        <ele>145.3</ele>
        <time>2016-06-24T08:27:28Z</time>
      </trkpt>
      <trkpt lat="43.40227" lon="1.72282">
        <ele>143.85</ele>
        <time>2016-06-24T08:27:32Z</time>
      </trkpt>
      <trkpt lat="43.40145" lon="1.72199">
        <ele>140.49</ele>
        <time>2016-06-24T08:27:42Z</time>
      </trkpt>
      <trkpt lat="43.40115" lon="1.7217">
        <ele>138.09</ele>
        <time>2016-06-24T08:27:46Z</time>
      </trkpt>
      <trkpt lat="43.40081" lon="1.72136">
        <ele>135.68</ele>
        <time>2016-06-24T08:27:51Z</time>
      </trkpt>
      <trkpt lat="43.40032" lon="1.72087">
        <ele>132.32</ele>
        <time>2016-06-24T08:27:58Z</time>
      </trkpt>
      <trkpt lat="43.40026" lon="1.7208">
        <ele>132.32</ele>
        <time>2016-06-24T08:27:59Z</time>
      </trkpt>
      <trkpt lat="43.40003" lon="1.72059">
        <ele>131.36</ele>
        <time>2016-06-24T08:28:02Z</time>
      </trkpt>
      <trkpt lat="43.39982" lon="1.72037">
        <ele>128.95</ele>
        <time>2016-06-24T08:28:05Z</time>
      </trkpt>
      <trkpt lat="43.39969" lon="1.72023">
        <ele>127.51</ele>
        <time>2016-06-24T08:28:07Z</time>
      </trkpt>
      <trkpt lat="43.3995" lon="1.72003">
        <ele>126.07</ele>
        <time>2016-06-24T08:28:10Z</time>
      </trkpt>
      <trkpt lat="43.39924" lon="1.71977">
        <ele>123.67</ele>
        <time>2016-06-24T08:28:18Z</time>
      </trkpt>
      <trkpt lat="43.39873" lon="1.71916">
        <ele>122.22</ele>
        <time>2016-06-24T08:28:31Z</time>
      </trkpt>
      <trkpt lat="43.39864" lon="1.71907">
        <ele>121.74</ele>
        <time>2016-06-24T08:28:33Z</time>
      </trkpt>
      <trkpt lat="43.39804" lon="1.7184">
        <ele>119.34</ele>
        <time>2016-06-24T08:28:47Z</time>
      </trkpt>
      <trkpt lat="43.39781" lon="1.71814">
        <ele>118.86</ele>
        <time>2016-06-24T08:28:58Z</time>
      </trkpt>
      <trkpt lat="43.39782" lon="1.71812">
        <ele>118.38</ele>
        <time>2016-06-24T08:29:23Z</time>
      </trkpt>
      <trkpt lat="43.39788" lon="1.71801">
        <ele>118.38</ele>
        <time>2016-06-24T08:29:27Z</time>
      </trkpt>
      <trkpt lat="43.39811" lon="1.71776">
        <ele>118.38</ele>
        <time>2016-06-24T08:29:39Z</time>
      </trkpt>
      <trkpt lat="43.39852" lon="1.71732">
        <ele>119.34</ele>
        <time>2016-06-24T08:29:52Z</time>
      </trkpt>
      <trkpt lat="43.39886" lon="1.71697">
        <ele>118.86</ele>
        <time>2016-06-24T08:30:03Z</time>
      </trkpt>
      <trkpt lat="43.3991" lon="1.71673">
        <ele>118.86</ele>
        <time>2016-06-24T08:30:09Z</time>
      </trkpt>
      <trkpt lat="43.39948" lon="1.71625">
        <ele>118.38</ele>
        <time>2016-06-24T08:30:22Z</time>
      </trkpt>
      <trkpt lat="43.39961" lon="1.71609">
        <ele>117.9</ele>
        <time>2016-06-24T08:30:31Z</time>
      </trkpt>
      <trkpt lat="43.39968" lon="1.71599">
        <ele>118.38</ele>
        <time>2016-06-24T08:30:38Z</time>
      </trkpt>
      <trkpt lat="43.40015" lon="1.71537">
        <ele>118.86</ele>
        <time>2016-06-24T08:30:47Z</time>
      </trkpt>
      <trkpt lat="43.40045" lon="1.71495">
        <ele>119.34</ele>
        <time>2016-06-24T08:30:52Z</time>
      </trkpt>
      <trkpt lat="43.40051" lon="1.71487">
        <ele>118.38</ele>
        <time>2016-06-24T08:30:53Z</time>
      </trkpt>
      <trkpt lat="43.40089" lon="1.71428">
        <ele>116.46</ele>
        <time>2016-06-24T08:31:01Z</time>
      </trkpt>
      <trkpt lat="43.40091" lon="1.71423">
        <ele>117.9</ele>
        <time>2016-06-24T08:31:02Z</time>
      </trkpt>
      <trkpt lat="43.40092" lon="1.71418">
        <ele>116.94</ele>
        <time>2016-06-24T08:31:03Z</time>
      </trkpt>
      <trkpt lat="43.40092" lon="1.71413">
        <ele>115.5</ele>
        <time>2016-06-24T08:31:04Z</time>
      </trkpt>
      <trkpt lat="43.4009" lon="1.71406">
        <ele>115.98</ele>
        <time>2016-06-24T08:31:05Z</time>
      </trkpt>
      <trkpt lat="43.40087" lon="1.71399">
        <ele>116.46</ele>
        <time>2016-06-24T08:31:06Z</time>
      </trkpt>
      <trkpt lat="43.40084" lon="1.71391">
        <ele>115.98</ele>
        <time>2016-06-24T08:31:07Z</time>
      </trkpt>
      <trkpt lat="43.40079" lon="1.71376">
        <ele>116.46</ele>
        <time>2016-06-24T08:31:09Z</time>
      </trkpt>
      <trkpt lat="43.40078" lon="1.71368">
        <ele>115.98</ele>
        <time>2016-06-24T08:31:10Z</time>
      </trkpt>
      <trkpt lat="43.40076" lon="1.7136">
        <ele>115.98</ele>
        <time>2016-06-24T08:31:11Z</time>
      </trkpt>
      <trkpt lat="43.40059" lon="1.71326">
        <ele>116.46</ele>
        <time>2016-06-24T08:31:15Z</time>
      </trkpt>
      <trkpt lat="43.40054" lon="1.71316">
        <ele>115.5</ele>
        <time>2016-06-24T08:31:16Z</time>
      </trkpt>
      <trkpt lat="43.4" lon="1.71178">
        <ele>115.01</ele>
        <time>2016-06-24T08:31:29Z</time>
      </trkpt>
      <trkpt lat="43.39925" lon="1.70994">
        <ele>115.5</ele>
        <time>2016-06-24T08:31:41Z</time>
      </trkpt>
      <trkpt lat="43.39862" lon="1.70838">
        <ele>115.98</ele>
        <time>2016-06-24T08:31:52Z</time>
      </trkpt>
      <trkpt lat="43.3982" lon="1.70732">
        <ele>118.38</ele>
        <time>2016-06-24T08:31:59Z</time>
      </trkpt>
      <trkpt lat="43.39743" lon="1.70524">
        <ele>117.42</ele>
        <time>2016-06-24T08:32:10Z</time>
      </trkpt>
      <trkpt lat="43.39661" lon="1.7032">
        <ele>119.82</ele>
        <time>2016-06-24T08:32:20Z</time>
      </trkpt>
      <trkpt lat="43.3964" lon="1.70274">
        <ele>120.78</ele>
        <time>2016-06-24T08:32:22Z</time>
      </trkpt>
      <trkpt lat="43.39543" lon="1.70069">
        <ele>123.67</ele>
        <time>2016-06-24T08:32:31Z</time>
      </trkpt>
      <trkpt lat="43.39469" lon="1.69934">
        <ele>127.03</ele>
        <time>2016-06-24T08:32:37Z</time>
      </trkpt>
      <trkpt lat="43.39448" lon="1.69886">
        <ele>127.99</ele>
        <time>2016-06-24T08:32:39Z</time>
      </trkpt>
      <trkpt lat="43.39382" lon="1.69724">
        <ele>127.03</ele>
        <time>2016-06-24T08:32:46Z</time>
      </trkpt>
      <trkpt lat="43.3933" lon="1.69549">
        <ele>124.15</ele>
        <time>2016-06-24T08:32:53Z</time>
      </trkpt>
      <trkpt lat="43.39291" lon="1.69425">
        <ele>121.26</ele>
        <time>2016-06-24T08:32:58Z</time>
      </trkpt>
      <trkpt lat="43.39267" lon="1.69364">
        <ele>119.34</ele>
        <time>2016-06-24T08:33:01Z</time>
      </trkpt>
      <trkpt lat="43.39223" lon="1.69256">
        <ele>119.34</ele>
        <time>2016-06-24T08:33:08Z</time>
      </trkpt>
      <trkpt lat="43.39188" lon="1.69173">
        <ele>120.78</ele>
        <time>2016-06-24T08:33:15Z</time>
      </trkpt>
      <trkpt lat="43.39111" lon="1.69054">
        <ele>118.86</ele>
        <time>2016-06-24T08:33:26Z</time>
      </trkpt>
      <trkpt lat="43.39061" lon="1.68979">
        <ele>118.86</ele>
        <time>2016-06-24T08:33:33Z</time>
      </trkpt>
      <trkpt lat="43.39034" lon="1.68926">
        <ele>119.34</ele>
        <time>2016-06-24T08:33:37Z</time>
      </trkpt>
      <trkpt lat="43.39016" lon="1.68851">
        <ele>120.3</ele>
        <time>2016-06-24T08:33:42Z</time>
      </trkpt>
      <trkpt lat="43.39016" lon="1.68766">
        <ele>119.34</ele>
        <time>2016-06-24T08:33:47Z</time>
      </trkpt>
      <trkpt lat="43.39033" lon="1.68655">
        <ele>118.86</ele>
        <time>2016-06-24T08:33:54Z</time>
      </trkpt>
      <trkpt lat="43.39038" lon="1.68627">
        <ele>118.38</ele>
        <time>2016-06-24T08:33:56Z</time>
      </trkpt>
      <trkpt lat="43.39065" lon="1.68455">
        <ele>118.86</ele>
        <time>2016-06-24T08:34:10Z</time>
      </trkpt>
      <trkpt lat="43.39072" lon="1.68414">
        <ele>118.38</ele>
        <time>2016-06-24T08:34:18Z</time>
      </trkpt>
      <trkpt lat="43.39074" lon="1.68409">
        <ele>117.9</ele>
        <time>2016-06-24T08:34:21Z</time>
      </trkpt>
      <trkpt lat="43.39055" lon="1.68388">
        <ele>118.86</ele>
        <time>2016-06-24T08:34:27Z</time>
      </trkpt>
      <trkpt lat="43.39006" lon="1.68355">
        <ele>119.82</ele>
        <time>2016-06-24T08:34:34Z</time>
      </trkpt>
      <trkpt lat="43.38967" lon="1.68338">
        <ele>121.26</ele>
        <time>2016-06-24T08:34:39Z</time>
      </trkpt>
      <trkpt lat="43.38896" lon="1.68351">
        <ele>121.26</ele>
        <time>2016-06-24T08:34:47Z</time>
      </trkpt>
      <trkpt lat="43.38858" lon="1.68364">
        <ele>121.26</ele>
        <time>2016-06-24T08:34:51Z</time>
      </trkpt>
      <trkpt lat="43.38733" lon="1.68357">
        <ele>124.63</ele>
        <time>2016-06-24T08:35:01Z</time>
      </trkpt>
      <trkpt lat="43.38718" lon="1.68355">
        <ele>124.63</ele>
        <time>2016-06-24T08:35:02Z</time>
      </trkpt>
      <trkpt lat="43.38619" lon="1.68348">
        <ele>127.51</ele>
        <time>2016-06-24T08:35:08Z</time>
      </trkpt>
      <trkpt lat="43.38489" lon="1.68339">
        <ele>130.4</ele>
        <time>2016-06-24T08:35:15Z</time>
      </trkpt>
      <trkpt lat="43.38151" lon="1.68315">
        <ele>131.36</ele>
        <time>2016-06-24T08:35:31Z</time>
      </trkpt>
      <trkpt lat="43.37963" lon="1.683">
        <ele>132.32</ele>
        <time>2016-06-24T08:35:40Z</time>
      </trkpt>
      <trkpt lat="43.37925" lon="1.68286">
        <ele>133.28</ele>
        <time>2016-06-24T08:35:42Z</time>
      </trkpt>
      <trkpt lat="43.37887" lon="1.6827">
        <ele>131.84</ele>
        <time>2016-06-24T08:35:44Z</time>
      </trkpt>
      <trkpt lat="43.37775" lon="1.68219">
        <ele>131.84</ele>
        <time>2016-06-24T08:35:50Z</time>
      </trkpt>
      <trkpt lat="43.37709" lon="1.68126">
        <ele>133.28</ele>
        <time>2016-06-24T08:35:55Z</time>
      </trkpt>
      <trkpt lat="43.37703" lon="1.68101">
        <ele>132.8</ele>
        <time>2016-06-24T08:35:56Z</time>
      </trkpt>
      <trkpt lat="43.37672" lon="1.67939">
        <ele>133.76</ele>
        <time>2016-06-24T08:36:02Z</time>
      </trkpt>
      <trkpt lat="43.37597" lon="1.67811">
        <ele>135.68</ele>
        <time>2016-06-24T08:36:08Z</time>
      </trkpt>
      <trkpt lat="43.37554" lon="1.67751">
        <ele>134.72</ele>
        <time>2016-06-24T08:36:11Z</time>
      </trkpt>
      <trkpt lat="43.37486" lon="1.67695">
        <ele>134.72</ele>
        <time>2016-06-24T08:36:15Z</time>
      </trkpt>
      <trkpt lat="43.37384" lon="1.67664">
        <ele>135.68</ele>
        <time>2016-06-24T08:36:20Z</time>
      </trkpt>
      <trkpt lat="43.37225" lon="1.67581">
        <ele>135.68</ele>
        <time>2016-06-24T08:36:28Z</time>
      </trkpt>
      <trkpt lat="43.37205" lon="1.67571">
        <ele>135.2</ele>
        <time>2016-06-24T08:36:29Z</time>
      </trkpt>
      <trkpt lat="43.37118" lon="1.67562">
        <ele>137.61</ele>
        <time>2016-06-24T08:36:33Z</time>
      </trkpt>
      <trkpt lat="43.3705" lon="1.67561">
        <ele>141.45</ele>
        <time>2016-06-24T08:36:36Z</time>
      </trkpt>
      <trkpt lat="43.3696" lon="1.67561">
        <ele>144.82</ele>
        <time>2016-06-24T08:36:40Z</time>
      </trkpt>
      <trkpt lat="43.36871" lon="1.67562">
        <ele>147.7</ele>
        <time>2016-06-24T08:36:44Z</time>
      </trkpt>
      <trkpt lat="43.3679" lon="1.67564">
        <ele>151.06</ele>
        <time>2016-06-24T08:36:48Z</time>
      </trkpt>
      <trkpt lat="43.36734" lon="1.67547">
        <ele>153.47</ele>
        <time>2016-06-24T08:36:51Z</time>
      </trkpt>
      <trkpt lat="43.36702" lon="1.67488">
        <ele>157.31</ele>
        <time>2016-06-24T08:36:54Z</time>
      </trkpt>
      <trkpt lat="43.36708" lon="1.67414">
        <ele>160.68</ele>
        <time>2016-06-24T08:36:57Z</time>
      </trkpt>
      <trkpt lat="43.36714" lon="1.67389">
        <ele>162.12</ele>
        <time>2016-06-24T08:36:58Z</time>
      </trkpt>
      <trkpt lat="43.36731" lon="1.6734">
        <ele>163.56</ele>
        <time>2016-06-24T08:37:00Z</time>
      </trkpt>
      <trkpt lat="43.36757" lon="1.67264">
        <ele>167.89</ele>
        <time>2016-06-24T08:37:03Z</time>
      </trkpt>
      <trkpt lat="43.36784" lon="1.67185">
        <ele>170.29</ele>
        <time>2016-06-24T08:37:06Z</time>
      </trkpt>
      <trkpt lat="43.36809" lon="1.67106">
        <ele>174.62</ele>
        <time>2016-06-24T08:37:09Z</time>
      </trkpt>
      <trkpt lat="43.36818" lon="1.6708">
        <ele>174.62</ele>
        <time>2016-06-24T08:37:10Z</time>
      </trkpt>
      <trkpt lat="43.36852" lon="1.6698">
        <ele>178.46</ele>
        <time>2016-06-24T08:37:14Z</time>
      </trkpt>
      <trkpt lat="43.36868" lon="1.66931">
        <ele>179.42</ele>
        <time>2016-06-24T08:37:16Z</time>
      </trkpt>
      <trkpt lat="43.36882" lon="1.66881">
        <ele>180.38</ele>
        <time>2016-06-24T08:37:18Z</time>
      </trkpt>
      <trkpt lat="43.36883" lon="1.66753">
        <ele>183.75</ele>
        <time>2016-06-24T08:37:23Z</time>
      </trkpt>
      <trkpt lat="43.36842" lon="1.66668">
        <ele>188.08</ele>
        <time>2016-06-24T08:37:27Z</time>
      </trkpt>
      <trkpt lat="43.36827" lon="1.66654">
        <ele>187.59</ele>
        <time>2016-06-24T08:37:28Z</time>
      </trkpt>
      <trkpt lat="43.36811" lon="1.66643">
        <ele>187.59</ele>
        <time>2016-06-24T08:37:29Z</time>
      </trkpt>
      <trkpt lat="43.36739" lon="1.66597">
        <ele>188.08</ele>
        <time>2016-06-24T08:37:34Z</time>
      </trkpt>
      <trkpt lat="43.36681" lon="1.66483">
        <ele>187.59</ele>
        <time>2016-06-24T08:37:40Z</time>
      </trkpt>
      <trkpt lat="43.36677" lon="1.66458">
        <ele>186.15</ele>
        <time>2016-06-24T08:37:41Z</time>
      </trkpt>
      <trkpt lat="43.36671" lon="1.6638">
        <ele>184.71</ele>
        <time>2016-06-24T08:37:44Z</time>
      </trkpt>
      <trkpt lat="43.36665" lon="1.66269">
        <ele>180.87</ele>
        <time>2016-06-24T08:37:48Z</time>
      </trkpt>
      <trkpt lat="43.36658" lon="1.66157">
        <ele>176.54</ele>
        <time>2016-06-24T08:37:52Z</time>
      </trkpt>
      <trkpt lat="43.36655" lon="1.66129">
        <ele>176.54</ele>
        <time>2016-06-24T08:37:53Z</time>
      </trkpt>
      <trkpt lat="43.36641" lon="1.66044">
        <ele>172.21</ele>
        <time>2016-06-24T08:37:56Z</time>
      </trkpt>
      <trkpt lat="43.36619" lon="1.65929">
        <ele>168.37</ele>
        <time>2016-06-24T08:38:00Z</time>
      </trkpt>
      <trkpt lat="43.36612" lon="1.65841">
        <ele>164.52</ele>
        <time>2016-06-24T08:38:03Z</time>
      </trkpt>
      <trkpt lat="43.36615" lon="1.65756">
        <ele>160.2</ele>
        <time>2016-06-24T08:38:06Z</time>
      </trkpt>
      <trkpt lat="43.36622" lon="1.65701">
        <ele>158.75</ele>
        <time>2016-06-24T08:38:08Z</time>
      </trkpt>
      <trkpt lat="43.36637" lon="1.6562">
        <ele>154.43</ele>
        <time>2016-06-24T08:38:11Z</time>
      </trkpt>
      <trkpt lat="43.36653" lon="1.6554">
        <ele>152.99</ele>
        <time>2016-06-24T08:38:14Z</time>
      </trkpt>
      <trkpt lat="43.36665" lon="1.65487">
        <ele>151.54</ele>
        <time>2016-06-24T08:38:16Z</time>
      </trkpt>
      <trkpt lat="43.36692" lon="1.65359">
        <ele>150.1</ele>
        <time>2016-06-24T08:38:21Z</time>
      </trkpt>
      <trkpt lat="43.36697" lon="1.65334">
        <ele>149.62</ele>
        <time>2016-06-24T08:38:22Z</time>
      </trkpt>
      <trkpt lat="43.36683" lon="1.65204">
        <ele>149.62</ele>
        <time>2016-06-24T08:38:27Z</time>
      </trkpt>
      <trkpt lat="43.36642" lon="1.65141">
        <ele>149.14</ele>
        <time>2016-06-24T08:38:30Z</time>
      </trkpt>
      <trkpt lat="43.36578" lon="1.6507">
        <ele>144.82</ele>
        <time>2016-06-24T08:38:34Z</time>
      </trkpt>
      <trkpt lat="43.36551" lon="1.65042">
        <ele>141.45</ele>
        <time>2016-06-24T08:38:36Z</time>
      </trkpt>
      <trkpt lat="43.36465" lon="1.64947">
        <ele>144.82</ele>
        <time>2016-06-24T08:38:44Z</time>
      </trkpt>
      <trkpt lat="43.36429" lon="1.64908">
        <ele>148.18</ele>
        <time>2016-06-24T08:38:47Z</time>
      </trkpt>
      <trkpt lat="43.36379" lon="1.6485">
        <ele>151.54</ele>
        <time>2016-06-24T08:38:51Z</time>
      </trkpt>
      <trkpt lat="43.36366" lon="1.64835">
        <ele>151.54</ele>
        <time>2016-06-24T08:38:52Z</time>
      </trkpt>
      <trkpt lat="43.3633" lon="1.64786">
        <ele>154.91</ele>
        <time>2016-06-24T08:38:55Z</time>
      </trkpt>
      <trkpt lat="43.36296" lon="1.64727">
        <ele>158.27</ele>
        <time>2016-06-24T08:38:58Z</time>
      </trkpt>
      <trkpt lat="43.36264" lon="1.64646">
        <ele>161.64</ele>
        <time>2016-06-24T08:39:02Z</time>
      </trkpt>
      <trkpt lat="43.36257" lon="1.64625">
        <ele>161.16</ele>
        <time>2016-06-24T08:39:03Z</time>
      </trkpt>
      <trkpt lat="43.36228" lon="1.64545">
        <ele>165.96</ele>
        <time>2016-06-24T08:39:07Z</time>
      </trkpt>
      <trkpt lat="43.36207" lon="1.64484">
        <ele>167.89</ele>
        <time>2016-06-24T08:39:10Z</time>
      </trkpt>
      <trkpt lat="43.36187" lon="1.64427">
        <ele>171.25</ele>
        <time>2016-06-24T08:39:13Z</time>
      </trkpt>
      <trkpt lat="43.3617" lon="1.64382">
        <ele>175.58</ele>
        <time>2016-06-24T08:39:15Z</time>
      </trkpt>
      <trkpt lat="43.36151" lon="1.64329">
        <ele>179.9</ele>
        <time>2016-06-24T08:39:17Z</time>
      </trkpt>
      <trkpt lat="43.36122" lon="1.64244">
        <ele>183.75</ele>
        <time>2016-06-24T08:39:20Z</time>
      </trkpt>
      <trkpt lat="43.36113" lon="1.64217">
        <ele>183.75</ele>
        <time>2016-06-24T08:39:21Z</time>
      </trkpt>
      <trkpt lat="43.36085" lon="1.6414">
        <ele>182.31</ele>
        <time>2016-06-24T08:39:24Z</time>
      </trkpt>
      <trkpt lat="43.36042" lon="1.64017">
        <ele>186.15</ele>
        <time>2016-06-24T08:39:29Z</time>
      </trkpt>
      <trkpt lat="43.36025" lon="1.63969">
        <ele>190.48</ele>
        <time>2016-06-24T08:39:31Z</time>
      </trkpt>
      <trkpt lat="43.36016" lon="1.63946">
        <ele>190.96</ele>
        <time>2016-06-24T08:39:32Z</time>
      </trkpt>
      <trkpt lat="43.36" lon="1.63899">
        <ele>191.92</ele>
        <time>2016-06-24T08:39:34Z</time>
      </trkpt>
      <trkpt lat="43.35967" lon="1.63807">
        <ele>196.25</ele>
        <time>2016-06-24T08:39:38Z</time>
      </trkpt>
      <trkpt lat="43.35937" lon="1.63718">
        <ele>199.13</ele>
        <time>2016-06-24T08:39:42Z</time>
      </trkpt>
      <trkpt lat="43.35927" lon="1.63674">
        <ele>201.05</ele>
        <time>2016-06-24T08:39:44Z</time>
      </trkpt>
      <trkpt lat="43.35904" lon="1.63568">
        <ele>204.42</ele>
        <time>2016-06-24T08:39:49Z</time>
      </trkpt>
      <trkpt lat="43.35895" lon="1.635">
        <ele>207.78</ele>
        <time>2016-06-24T08:39:52Z</time>
      </trkpt>
      <trkpt lat="43.35891" lon="1.63454">
        <ele>209.22</ele>
        <time>2016-06-24T08:39:54Z</time>
      </trkpt>
      <trkpt lat="43.35887" lon="1.63407">
        <ele>210.67</ele>
        <time>2016-06-24T08:39:56Z</time>
      </trkpt>
      <trkpt lat="43.3588" lon="1.63331">
        <ele>214.51</ele>
        <time>2016-06-24T08:39:59Z</time>
      </trkpt>
      <trkpt lat="43.35866" lon="1.63181">
        <ele>216.43</ele>
        <time>2016-06-24T08:40:05Z</time>
      </trkpt>
      <trkpt lat="43.35849" lon="1.63003">
        <ele>219.8</ele>
        <time>2016-06-24T08:40:12Z</time>
      </trkpt>
      <trkpt lat="43.35847" lon="1.62979">
        <ele>220.28</ele>
        <time>2016-06-24T08:40:13Z</time>
      </trkpt>
      <trkpt lat="43.35839" lon="1.62884">
        <ele>222.2</ele>
        <time>2016-06-24T08:40:17Z</time>
      </trkpt>
      <trkpt lat="43.35851" lon="1.62739">
        <ele>224.12</ele>
        <time>2016-06-24T08:40:24Z</time>
      </trkpt>
      <trkpt lat="43.35877" lon="1.62639">
        <ele>224.12</ele>
        <time>2016-06-24T08:40:32Z</time>
      </trkpt>
      <trkpt lat="43.35917" lon="1.6248">
        <ele>223.64</ele>
        <time>2016-06-24T08:40:46Z</time>
      </trkpt>
      <trkpt lat="43.35926" lon="1.62416">
        <ele>220.28</ele>
        <time>2016-06-24T08:40:52Z</time>
      </trkpt>
      <trkpt lat="43.35927" lon="1.62408">
        <ele>219.8</ele>
        <time>2016-06-24T08:40:53Z</time>
      </trkpt>
      <trkpt lat="43.35928" lon="1.62388">
        <ele>218.36</ele>
        <time>2016-06-24T08:41:01Z</time>
      </trkpt>
      <trkpt lat="43.35928" lon="1.62388">
        <ele>218.36</ele>
        <time>2016-06-24T08:41:13Z</time>
      </trkpt>
      <trkpt lat="43.35908" lon="1.62377">
        <ele>218.84</ele>
        <time>2016-06-24T08:41:17Z</time>
      </trkpt>
      <trkpt lat="43.35843" lon="1.62363">
        <ele>218.36</ele>
        <time>2016-06-24T08:41:24Z</time>
      </trkpt>
      <trkpt lat="43.35746" lon="1.62342">
        <ele>217.88</ele>
        <time>2016-06-24T08:41:37Z</time>
      </trkpt>
      <trkpt lat="43.35695" lon="1.62334">
        <ele>220.28</ele>
        <time>2016-06-24T08:41:43Z</time>
      </trkpt>
      <trkpt lat="43.35637" lon="1.62338">
        <ele>223.64</ele>
        <time>2016-06-24T08:41:50Z</time>
      </trkpt>
      <trkpt lat="43.35612" lon="1.62337">
        <ele>223.64</ele>
        <time>2016-06-24T08:41:56Z</time>
      </trkpt>
      <trkpt lat="43.35605" lon="1.6232">
        <ele>224.12</ele>
        <time>2016-06-24T08:42:01Z</time>
      </trkpt>
      <trkpt lat="43.35609" lon="1.62298">
        <ele>225.09</ele>
        <time>2016-06-24T08:42:04Z</time>
      </trkpt>
      <trkpt lat="43.35634" lon="1.62179">
        <ele>223.64</ele>
        <time>2016-06-24T08:42:15Z</time>
      </trkpt>
      <trkpt lat="43.35679" lon="1.62052">
        <ele>223.16</ele>
        <time>2016-06-24T08:42:24Z</time>
      </trkpt>
      <trkpt lat="43.35751" lon="1.61888">
        <ele>220.28</ele>
        <time>2016-06-24T08:42:34Z</time>
      </trkpt>
      <trkpt lat="43.35787" lon="1.61816">
        <ele>219.32</ele>
        <time>2016-06-24T08:42:39Z</time>
      </trkpt>
      <trkpt lat="43.35826" lon="1.61718">
        <ele>216.91</ele>
        <time>2016-06-24T08:42:46Z</time>
      </trkpt>
      <trkpt lat="43.35831" lon="1.61708">
        <ele>217.4</ele>
        <time>2016-06-24T08:42:47Z</time>
      </trkpt>
      <trkpt lat="43.35888" lon="1.61578">
        <ele>216.43</ele>
        <time>2016-06-24T08:42:57Z</time>
      </trkpt>
      <trkpt lat="43.35951" lon="1.61394">
        <ele>213.07</ele>
        <time>2016-06-24T08:43:08Z</time>
      </trkpt>
      <trkpt lat="43.3597" lon="1.61318">
        <ele>208.74</ele>
        <time>2016-06-24T08:43:12Z</time>
      </trkpt>
      <trkpt lat="43.35996" lon="1.6121">
        <ele>205.38</ele>
        <time>2016-06-24T08:43:17Z</time>
      </trkpt>
      <trkpt lat="43.36017" lon="1.61119">
        <ele>201.53</ele>
        <time>2016-06-24T08:43:21Z</time>
      </trkpt>
      <trkpt lat="43.36021" lon="1.61096">
        <ele>201.05</ele>
        <time>2016-06-24T08:43:22Z</time>
      </trkpt>
      <trkpt lat="43.36036" lon="1.6103">
        <ele>197.21</ele>
        <time>2016-06-24T08:43:25Z</time>
      </trkpt>
      <trkpt lat="43.36043" lon="1.60989">
        <ele>194.32</ele>
        <time>2016-06-24T08:43:27Z</time>
      </trkpt>
      <trkpt lat="43.36042" lon="1.60882">
        <ele>191.44</ele>
        <time>2016-06-24T08:43:32Z</time>
      </trkpt>
      <trkpt lat="43.36036" lon="1.60837">
        <ele>189.04</ele>
        <time>2016-06-24T08:43:34Z</time>
      </trkpt>
      <trkpt lat="43.35984" lon="1.60688">
        <ele>188.56</ele>
        <time>2016-06-24T08:43:40Z</time>
      </trkpt>
      <trkpt lat="43.35971" lon="1.60659">
        <ele>191.92</ele>
        <time>2016-06-24T08:43:41Z</time>
      </trkpt>
      <trkpt lat="43.35958" lon="1.6063">
        <ele>191.44</ele>
        <time>2016-06-24T08:43:42Z</time>
      </trkpt>
      <trkpt lat="43.35946" lon="1.606">
        <ele>188.08</ele>
        <time>2016-06-24T08:43:43Z</time>
      </trkpt>
      <trkpt lat="43.35934" lon="1.6057">
        <ele>184.23</ele>
        <time>2016-06-24T08:43:44Z</time>
      </trkpt>
      <trkpt lat="43.35922" lon="1.60539">
        <ele>184.23</ele>
        <time>2016-06-24T08:43:45Z</time>
      </trkpt>
      <trkpt lat="43.359" lon="1.60482">
        <ele>179.42</ele>
        <time>2016-06-24T08:43:47Z</time>
      </trkpt>
      <trkpt lat="43.35852" lon="1.60376">
        <ele>175.1</ele>
        <time>2016-06-24T08:43:51Z</time>
      </trkpt>
      <trkpt lat="43.35822" lon="1.60291">
        <ele>170.77</ele>
        <time>2016-06-24T08:43:54Z</time>
      </trkpt>
      <trkpt lat="43.35783" lon="1.60179">
        <ele>167.41</ele>
        <time>2016-06-24T08:43:58Z</time>
      </trkpt>
      <trkpt lat="43.35758" lon="1.60099">
        <ele>163.56</ele>
        <time>2016-06-24T08:44:01Z</time>
      </trkpt>
      <trkpt lat="43.35751" lon="1.60072">
        <ele>163.56</ele>
        <time>2016-06-24T08:44:02Z</time>
      </trkpt>
      <trkpt lat="43.35746" lon="1.60044">
        <ele>162.6</ele>
        <time>2016-06-24T08:44:03Z</time>
      </trkpt>
      <trkpt lat="43.35751" lon="1.59821">
        <ele>164.04</ele>
        <time>2016-06-24T08:44:11Z</time>
      </trkpt>
      <trkpt lat="43.35777" lon="1.59471">
        <ele>161.16</ele>
        <time>2016-06-24T08:44:24Z</time>
      </trkpt>
      <trkpt lat="43.35765" lon="1.59252">
        <ele>159.24</ele>
        <time>2016-06-24T08:44:32Z</time>
      </trkpt>
      <trkpt lat="43.35754" lon="1.59199">
        <ele>157.79</ele>
        <time>2016-06-24T08:44:34Z</time>
      </trkpt>
      <trkpt lat="43.357" lon="1.59042">
        <ele>156.83</ele>
        <time>2016-06-24T08:44:40Z</time>
      </trkpt>
      <trkpt lat="43.35582" lon="1.58869">
        <ele>156.35</ele>
        <time>2016-06-24T08:44:48Z</time>
      </trkpt>
      <trkpt lat="43.35466" lon="1.58727">
        <ele>162.12</ele>
        <time>2016-06-24T08:44:55Z</time>
      </trkpt>
      <trkpt lat="43.35434" lon="1.58684">
        <ele>165.96</ele>
        <time>2016-06-24T08:44:57Z</time>
      </trkpt>
      <trkpt lat="43.35395" lon="1.58611">
        <ele>170.29</ele>
        <time>2016-06-24T08:45:00Z</time>
      </trkpt>
      <trkpt lat="43.35368" lon="1.58503">
        <ele>175.58</ele>
        <time>2016-06-24T08:45:04Z</time>
      </trkpt>
      <trkpt lat="43.35364" lon="1.58447">
        <ele>179.42</ele>
        <time>2016-06-24T08:45:06Z</time>
      </trkpt>
      <trkpt lat="43.35366" lon="1.5839">
        <ele>182.79</ele>
        <time>2016-06-24T08:45:08Z</time>
      </trkpt>
      <trkpt lat="43.35373" lon="1.58332">
        <ele>186.63</ele>
        <time>2016-06-24T08:45:10Z</time>
      </trkpt>
      <trkpt lat="43.35399" lon="1.58216">
        <ele>191.92</ele>
        <time>2016-06-24T08:45:14Z</time>
      </trkpt>
      <trkpt lat="43.35432" lon="1.58112">
        <ele>194.32</ele>
        <time>2016-06-24T08:45:18Z</time>
      </trkpt>
      <trkpt lat="43.35455" lon="1.58068">
        <ele>195.77</ele>
        <time>2016-06-24T08:45:20Z</time>
      </trkpt>
      <trkpt lat="43.35482" lon="1.5803">
        <ele>198.65</ele>
        <time>2016-06-24T08:45:22Z</time>
      </trkpt>
      <trkpt lat="43.35501" lon="1.57989">
        <ele>198.65</ele>
        <time>2016-06-24T08:45:24Z</time>
      </trkpt>
      <trkpt lat="43.35539" lon="1.57945">
        <ele>200.09</ele>
        <time>2016-06-24T08:45:27Z</time>
      </trkpt>
      <trkpt lat="43.35556" lon="1.57939">
        <ele>202.49</ele>
        <time>2016-06-24T08:45:28Z</time>
      </trkpt>
      <trkpt lat="43.35621" lon="1.57873">
        <ele>204.42</ele>
        <time>2016-06-24T08:45:33Z</time>
      </trkpt>
      <trkpt lat="43.35689" lon="1.57685">
        <ele>207.78</ele>
        <time>2016-06-24T08:45:41Z</time>
      </trkpt>
      <trkpt lat="43.35761" lon="1.57428">
        <ele>205.86</ele>
        <time>2016-06-24T08:45:51Z</time>
      </trkpt>
      <trkpt lat="43.35786" lon="1.57319">
        <ele>202.49</ele>
        <time>2016-06-24T08:45:55Z</time>
      </trkpt>
      <trkpt lat="43.35798" lon="1.57233">
        <ele>201.05</ele>
        <time>2016-06-24T08:45:58Z</time>
      </trkpt>
      <trkpt lat="43.35818" lon="1.57087">
        <ele>198.65</ele>
        <time>2016-06-24T08:46:03Z</time>
      </trkpt>
      <trkpt lat="43.35846" lon="1.5688">
        <ele>194.8</ele>
        <time>2016-06-24T08:46:10Z</time>
      </trkpt>
      <trkpt lat="43.35854" lon="1.56821">
        <ele>193.84</ele>
        <time>2016-06-24T08:46:12Z</time>
      </trkpt>
      <trkpt lat="43.35867" lon="1.5673">
        <ele>189.52</ele>
        <time>2016-06-24T08:46:15Z</time>
      </trkpt>
      <trkpt lat="43.35872" lon="1.56701">
        <ele>190</ele>
        <time>2016-06-24T08:46:16Z</time>
      </trkpt>
      <trkpt lat="43.35884" lon="1.56642">
        <ele>186.63</ele>
        <time>2016-06-24T08:46:18Z</time>
      </trkpt>
      <trkpt lat="43.35891" lon="1.56583">
        <ele>186.15</ele>
        <time>2016-06-24T08:46:20Z</time>
      </trkpt>
      <trkpt lat="43.35889" lon="1.5646">
        <ele>181.83</ele>
        <time>2016-06-24T08:46:24Z</time>
      </trkpt>
      <trkpt lat="43.35875" lon="1.56334">
        <ele>177.98</ele>
        <time>2016-06-24T08:46:28Z</time>
      </trkpt>
      <trkpt lat="43.35867" lon="1.5627">
        <ele>174.14</ele>
        <time>2016-06-24T08:46:30Z</time>
      </trkpt>
      <trkpt lat="43.35857" lon="1.56174">
        <ele>170.77</ele>
        <time>2016-06-24T08:46:33Z</time>
      </trkpt>
      <trkpt lat="43.35847" lon="1.56081">
        <ele>166.45</ele>
        <time>2016-06-24T08:46:36Z</time>
      </trkpt>
      <trkpt lat="43.35841" lon="1.56019">
        <ele>165</ele>
        <time>2016-06-24T08:46:38Z</time>
      </trkpt>
      <trkpt lat="43.35851" lon="1.5593">
        <ele>162.12</ele>
        <time>2016-06-24T08:46:41Z</time>
      </trkpt>
      <trkpt lat="43.35895" lon="1.55761">
        <ele>161.16</ele>
        <time>2016-06-24T08:46:47Z</time>
      </trkpt>
      <trkpt lat="43.35999" lon="1.5557">
        <ele>159.72</ele>
        <time>2016-06-24T08:46:55Z</time>
      </trkpt>
      <trkpt lat="43.36082" lon="1.55391">
        <ele>158.75</ele>
        <time>2016-06-24T08:47:02Z</time>
      </trkpt>
      <trkpt lat="43.36094" lon="1.55365">
        <ele>158.27</ele>
        <time>2016-06-24T08:47:03Z</time>
      </trkpt>
      <trkpt lat="43.36119" lon="1.55189">
        <ele>158.75</ele>
        <time>2016-06-24T08:47:09Z</time>
      </trkpt>
      <trkpt lat="43.36107" lon="1.54909">
        <ele>158.27</ele>
        <time>2016-06-24T08:47:18Z</time>
      </trkpt>
      <trkpt lat="43.36075" lon="1.54689">
        <ele>157.79</ele>
        <time>2016-06-24T08:47:25Z</time>
      </trkpt>
      <trkpt lat="43.36074" lon="1.54471">
        <ele>156.35</ele>
        <time>2016-06-24T08:47:32Z</time>
      </trkpt>
      <trkpt lat="43.36076" lon="1.54321">
        <ele>154.91</ele>
        <time>2016-06-24T08:47:37Z</time>
      </trkpt>
      <trkpt lat="43.36135" lon="1.54097">
        <ele>155.39</ele>
        <time>2016-06-24T08:47:45Z</time>
      </trkpt>
      <trkpt lat="43.36243" lon="1.53822">
        <ele>155.87</ele>
        <time>2016-06-24T08:47:55Z</time>
      </trkpt>
      <trkpt lat="43.36403" lon="1.53427">
        <ele>151.54</ele>
        <time>2016-06-24T08:48:10Z</time>
      </trkpt>
      <trkpt lat="43.36412" lon="1.53407">
        <ele>151.54</ele>
        <time>2016-06-24T08:48:11Z</time>
      </trkpt>
      <trkpt lat="43.36425" lon="1.53347">
        <ele>148.18</ele>
        <time>2016-06-24T08:48:14Z</time>
      </trkpt>
      <trkpt lat="43.36396" lon="1.53296">
        <ele>148.18</ele>
        <time>2016-06-24T08:48:17Z</time>
      </trkpt>
      <trkpt lat="43.36349" lon="1.53251">
        <ele>149.62</ele>
        <time>2016-06-24T08:48:20Z</time>
      </trkpt>
      <trkpt lat="43.36319" lon="1.5322">
        <ele>149.14</ele>
        <time>2016-06-24T08:48:22Z</time>
      </trkpt>
      <trkpt lat="43.36297" lon="1.53185">
        <ele>148.18</ele>
        <time>2016-06-24T08:48:24Z</time>
      </trkpt>
      <trkpt lat="43.36295" lon="1.5312">
        <ele>150.1</ele>
        <time>2016-06-24T08:48:27Z</time>
      </trkpt>
      <trkpt lat="43.36305" lon="1.53049">
        <ele>153.47</ele>
        <time>2016-06-24T08:48:30Z</time>
      </trkpt>
      <trkpt lat="43.36313" lon="1.5298">
        <ele>156.83</ele>
        <time>2016-06-24T08:48:33Z</time>
      </trkpt>
      <trkpt lat="43.36321" lon="1.52908">
        <ele>160.68</ele>
        <time>2016-06-24T08:48:36Z</time>
      </trkpt>
      <trkpt lat="43.36316" lon="1.52834">
        <ele>164.04</ele>
        <time>2016-06-24T08:48:39Z</time>
      </trkpt>
      <trkpt lat="43.36306" lon="1.52782">
        <ele>165</ele>
        <time>2016-06-24T08:48:41Z</time>
      </trkpt>
      <trkpt lat="43.36298" lon="1.52705">
        <ele>167.89</ele>
        <time>2016-06-24T08:48:44Z</time>
      </trkpt>
      <trkpt lat="43.36297" lon="1.52627">
        <ele>172.69</ele>
        <time>2016-06-24T08:48:47Z</time>
      </trkpt>
      <trkpt lat="43.36296" lon="1.526">
        <ele>172.21</ele>
        <time>2016-06-24T08:48:48Z</time>
      </trkpt>
      <trkpt lat="43.36297" lon="1.52521">
        <ele>176.54</ele>
        <time>2016-06-24T08:48:51Z</time>
      </trkpt>
      <trkpt lat="43.36297" lon="1.52496">
        <ele>176.06</ele>
        <time>2016-06-24T08:48:52Z</time>
      </trkpt>
      <trkpt lat="43.3627" lon="1.52426">
        <ele>177.98</ele>
        <time>2016-06-24T08:48:56Z</time>
      </trkpt>
      <trkpt lat="43.36211" lon="1.52449">
        <ele>182.31</ele>
        <time>2016-06-24T08:49:00Z</time>
      </trkpt>
      <trkpt lat="43.36173" lon="1.52509">
        <ele>185.67</ele>
        <time>2016-06-24T08:49:03Z</time>
      </trkpt>
      <trkpt lat="43.36147" lon="1.5254">
        <ele>186.63</ele>
        <time>2016-06-24T08:49:05Z</time>
      </trkpt>
      <trkpt lat="43.36104" lon="1.52538">
        <ele>188.08</ele>
        <time>2016-06-24T08:49:08Z</time>
      </trkpt>
      <trkpt lat="43.36092" lon="1.52524">
        <ele>190</ele>
        <time>2016-06-24T08:49:09Z</time>
      </trkpt>
      <trkpt lat="43.36037" lon="1.52451">
        <ele>198.17</ele>
        <time>2016-06-24T08:49:13Z</time>
      </trkpt>
      <trkpt lat="43.36009" lon="1.52415">
        <ele>199.13</ele>
        <time>2016-06-24T08:49:15Z</time>
      </trkpt>
      <trkpt lat="43.35947" lon="1.52397">
        <ele>201.53</ele>
        <time>2016-06-24T08:49:19Z</time>
      </trkpt>
      <trkpt lat="43.35911" lon="1.52403">
        <ele>204.42</ele>
        <time>2016-06-24T08:49:21Z</time>
      </trkpt>
      <trkpt lat="43.35893" lon="1.52399">
        <ele>204.9</ele>
        <time>2016-06-24T08:49:22Z</time>
      </trkpt>
      <trkpt lat="43.35849" lon="1.52345">
        <ele>206.34</ele>
        <time>2016-06-24T08:49:26Z</time>
      </trkpt>
      <trkpt lat="43.35854" lon="1.52302">
        <ele>209.7</ele>
        <time>2016-06-24T08:49:28Z</time>
      </trkpt>
      <trkpt lat="43.35872" lon="1.52206">
        <ele>215.95</ele>
        <time>2016-06-24T08:49:32Z</time>
      </trkpt>
      <trkpt lat="43.35837" lon="1.52124">
        <ele>218.84</ele>
        <time>2016-06-24T08:49:37Z</time>
      </trkpt>
      <trkpt lat="43.35773" lon="1.521">
        <ele>225.09</ele>
        <time>2016-06-24T08:49:40Z</time>
      </trkpt>
      <trkpt lat="43.3573" lon="1.52074">
        <ele>228.45</ele>
        <time>2016-06-24T08:49:42Z</time>
      </trkpt>
      <trkpt lat="43.35674" lon="1.52024">
        <ele>230.85</ele>
        <time>2016-06-24T08:49:45Z</time>
      </trkpt>
      <trkpt lat="43.35643" lon="1.51984">
        <ele>232.78</ele>
        <time>2016-06-24T08:49:47Z</time>
      </trkpt>
      <trkpt lat="43.35613" lon="1.51944">
        <ele>234.22</ele>
        <time>2016-06-24T08:49:49Z</time>
      </trkpt>
      <trkpt lat="43.3555" lon="1.51892">
        <ele>230.37</ele>
        <time>2016-06-24T08:49:53Z</time>
      </trkpt>
      <trkpt lat="43.35523" lon="1.51801">
        <ele>229.41</ele>
        <time>2016-06-24T08:49:58Z</time>
      </trkpt>
      <trkpt lat="43.35527" lon="1.51775">
        <ele>229.89</ele>
        <time>2016-06-24T08:49:59Z</time>
      </trkpt>
      <trkpt lat="43.35551" lon="1.51671">
        <ele>225.57</ele>
        <time>2016-06-24T08:50:03Z</time>
      </trkpt>
      <trkpt lat="43.3557" lon="1.51592">
        <ele>223.16</ele>
        <time>2016-06-24T08:50:06Z</time>
      </trkpt>
      <trkpt lat="43.35576" lon="1.51565">
        <ele>222.68</ele>
        <time>2016-06-24T08:50:07Z</time>
      </trkpt>
      <trkpt lat="43.35583" lon="1.5148">
        <ele>217.4</ele>
        <time>2016-06-24T08:50:10Z</time>
      </trkpt>
      <trkpt lat="43.35584" lon="1.51422">
        <ele>215.95</ele>
        <time>2016-06-24T08:50:12Z</time>
      </trkpt>
      <trkpt lat="43.35582" lon="1.51336">
        <ele>212.11</ele>
        <time>2016-06-24T08:50:15Z</time>
      </trkpt>
      <trkpt lat="43.3558" lon="1.51278">
        <ele>210.19</ele>
        <time>2016-06-24T08:50:17Z</time>
      </trkpt>
      <trkpt lat="43.35577" lon="1.51191">
        <ele>206.82</ele>
        <time>2016-06-24T08:50:20Z</time>
      </trkpt>
      <trkpt lat="43.35576" lon="1.51162">
        <ele>206.82</ele>
        <time>2016-06-24T08:50:21Z</time>
      </trkpt>
      <trkpt lat="43.35577" lon="1.51104">
        <ele>203.94</ele>
        <time>2016-06-24T08:50:23Z</time>
      </trkpt>
      <trkpt lat="43.356" lon="1.50992">
        <ele>199.13</ele>
        <time>2016-06-24T08:50:27Z</time>
      </trkpt>
      <trkpt lat="43.35628" lon="1.50913">
        <ele>195.28</ele>
        <time>2016-06-24T08:50:30Z</time>
      </trkpt>
      <trkpt lat="43.35645" lon="1.50863">
        <ele>191.92</ele>
        <time>2016-06-24T08:50:32Z</time>
      </trkpt>
      <trkpt lat="43.35661" lon="1.50816">
        <ele>188.56</ele>
        <time>2016-06-24T08:50:34Z</time>
      </trkpt>
      <trkpt lat="43.35669" lon="1.50793">
        <ele>188.56</ele>
        <time>2016-06-24T08:50:35Z</time>
      </trkpt>
      <trkpt lat="43.35676" lon="1.5077">
        <ele>187.59</ele>
        <time>2016-06-24T08:50:36Z</time>
      </trkpt>
      <trkpt lat="43.35661" lon="1.50679">
        <ele>181.35</ele>
        <time>2016-06-24T08:50:40Z</time>
      </trkpt>
      <trkpt lat="43.35645" lon="1.50639">
        <ele>180.38</ele>
        <time>2016-06-24T08:50:42Z</time>
      </trkpt>
      <trkpt lat="43.35643" lon="1.50554">
        <ele>185.19</ele>
        <time>2016-06-24T08:50:46Z</time>
      </trkpt>
      <trkpt lat="43.35659" lon="1.50506">
        <ele>187.59</ele>
        <time>2016-06-24T08:50:48Z</time>
      </trkpt>
      <trkpt lat="43.35719" lon="1.50417">
        <ele>192.88</ele>
        <time>2016-06-24T08:50:52Z</time>
      </trkpt>
      <trkpt lat="43.35734" lon="1.50393">
        <ele>194.32</ele>
        <time>2016-06-24T08:50:53Z</time>
      </trkpt>
      <trkpt lat="43.35771" lon="1.50285">
        <ele>199.61</ele>
        <time>2016-06-24T08:50:57Z</time>
      </trkpt>
      <trkpt lat="43.35781" lon="1.50197">
        <ele>202.98</ele>
        <time>2016-06-24T08:51:00Z</time>
      </trkpt>
      <trkpt lat="43.35803" lon="1.50115">
        <ele>205.38</ele>
        <time>2016-06-24T08:51:03Z</time>
      </trkpt>
      <trkpt lat="43.35847" lon="1.50008">
        <ele>208.74</ele>
        <time>2016-06-24T08:51:07Z</time>
      </trkpt>
      <trkpt lat="43.35859" lon="1.49983">
        <ele>209.22</ele>
        <time>2016-06-24T08:51:08Z</time>
      </trkpt>
      <trkpt lat="43.35951" lon="1.49823">
        <ele>209.22</ele>
        <time>2016-06-24T08:51:15Z</time>
      </trkpt>
      <trkpt lat="43.35951" lon="1.49714">
        <ele>210.67</ele>
        <time>2016-06-24T08:51:20Z</time>
      </trkpt>
      <trkpt lat="43.35931" lon="1.49668">
        <ele>212.11</ele>
        <time>2016-06-24T08:51:22Z</time>
      </trkpt>
      <trkpt lat="43.35905" lon="1.49626">
        <ele>210.67</ele>
        <time>2016-06-24T08:51:24Z</time>
      </trkpt>
      <trkpt lat="43.35837" lon="1.49582">
        <ele>207.3</ele>
        <time>2016-06-24T08:51:28Z</time>
      </trkpt>
      <trkpt lat="43.35799" lon="1.49571">
        <ele>206.34</ele>
        <time>2016-06-24T08:51:30Z</time>
      </trkpt>
      <trkpt lat="43.35756" lon="1.49526">
        <ele>202.49</ele>
        <time>2016-06-24T08:51:33Z</time>
      </trkpt>
      <trkpt lat="43.35748" lon="1.49446">
        <ele>202.01</ele>
        <time>2016-06-24T08:51:36Z</time>
      </trkpt>
      <trkpt lat="43.35762" lon="1.49391">
        <ele>202.01</ele>
        <time>2016-06-24T08:51:38Z</time>
      </trkpt>
      <trkpt lat="43.35798" lon="1.49278">
        <ele>199.13</ele>
        <time>2016-06-24T08:51:42Z</time>
      </trkpt>
      <trkpt lat="43.35816" lon="1.49221">
        <ele>195.28</ele>
        <time>2016-06-24T08:51:44Z</time>
      </trkpt>
      <trkpt lat="43.35842" lon="1.49136">
        <ele>191.92</ele>
        <time>2016-06-24T08:51:47Z</time>
      </trkpt>
      <trkpt lat="43.3585" lon="1.49107">
        <ele>190.96</ele>
        <time>2016-06-24T08:51:48Z</time>
      </trkpt>
      <trkpt lat="43.35867" lon="1.48957">
        <ele>186.15</ele>
        <time>2016-06-24T08:51:53Z</time>
      </trkpt>
      <trkpt lat="43.3587" lon="1.48896">
        <ele>184.71</ele>
        <time>2016-06-24T08:51:55Z</time>
      </trkpt>
      <trkpt lat="43.35873" lon="1.48836">
        <ele>181.83</ele>
        <time>2016-06-24T08:51:57Z</time>
      </trkpt>
      <trkpt lat="43.35876" lon="1.48778">
        <ele>180.38</ele>
        <time>2016-06-24T08:51:59Z</time>
      </trkpt>
      <trkpt lat="43.35865" lon="1.48674">
        <ele>175.58</ele>
        <time>2016-06-24T08:52:03Z</time>
      </trkpt>
      <trkpt lat="43.35833" lon="1.48613">
        <ele>172.21</ele>
        <time>2016-06-24T08:52:06Z</time>
      </trkpt>
      <trkpt lat="43.35772" lon="1.4855">
        <ele>167.89</ele>
        <time>2016-06-24T08:52:10Z</time>
      </trkpt>
      <trkpt lat="43.35758" lon="1.48537">
        <ele>165.48</ele>
        <time>2016-06-24T08:52:11Z</time>
      </trkpt>
      <trkpt lat="43.35721" lon="1.48523">
        <ele>160.2</ele>
        <time>2016-06-24T08:52:14Z</time>
      </trkpt>
      <trkpt lat="43.35697" lon="1.48523">
        <ele>159.24</ele>
        <time>2016-06-24T08:52:16Z</time>
      </trkpt>
      <trkpt lat="43.35666" lon="1.48529">
        <ele>156.83</ele>
        <time>2016-06-24T08:52:19Z</time>
      </trkpt>
      <trkpt lat="43.35621" lon="1.48537">
        <ele>153.95</ele>
        <time>2016-06-24T08:52:24Z</time>
      </trkpt>
      <trkpt lat="43.35558" lon="1.48548">
        <ele>151.06</ele>
        <time>2016-06-24T08:52:33Z</time>
      </trkpt>
      <trkpt lat="43.35523" lon="1.48553">
        <ele>149.62</ele>
        <time>2016-06-24T08:52:38Z</time>
      </trkpt>
      <trkpt lat="43.35508" lon="1.48553">
        <ele>149.62</ele>
        <time>2016-06-24T08:52:40Z</time>
      </trkpt>
      <trkpt lat="43.35481" lon="1.48546">
        <ele>148.18</ele>
        <time>2016-06-24T08:52:44Z</time>
      </trkpt>
      <trkpt lat="43.35435" lon="1.48509">
        <ele>144.82</ele>
        <time>2016-06-24T08:52:55Z</time>
      </trkpt>
      <trkpt lat="43.3543" lon="1.48506">
        <ele>144.34</ele>
        <time>2016-06-24T08:53:05Z</time>
      </trkpt>
      <trkpt lat="43.3543" lon="1.48506">
        <ele>144.34</ele>
        <time>2016-06-24T08:53:25Z</time>
      </trkpt>
      <trkpt lat="43.354" lon="1.48486">
        <ele>145.78</ele>
        <time>2016-06-24T08:53:30Z</time>
      </trkpt>
      <trkpt lat="43.35294" lon="1.48368">
        <ele>144.34</ele>
        <time>2016-06-24T08:53:39Z</time>
      </trkpt>
      <trkpt lat="43.35283" lon="1.48354">
        <ele>144.82</ele>
        <time>2016-06-24T08:53:40Z</time>
      </trkpt>
      <trkpt lat="43.3526" lon="1.48327">
        <ele>143.37</ele>
        <time>2016-06-24T08:53:42Z</time>
      </trkpt>
      <trkpt lat="43.35226" lon="1.48257">
        <ele>143.37</ele>
        <time>2016-06-24T08:53:46Z</time>
      </trkpt>
      <trkpt lat="43.35196" lon="1.48128">
        <ele>138.57</ele>
        <time>2016-06-24T08:53:53Z</time>
      </trkpt>
      <trkpt lat="43.35187" lon="1.48063">
        <ele>140.49</ele>
        <time>2016-06-24T08:53:57Z</time>
      </trkpt>
      <trkpt lat="43.35176" lon="1.47967">
        <ele>139.53</ele>
        <time>2016-06-24T08:54:05Z</time>
      </trkpt>
      <trkpt lat="43.3516" lon="1.47936">
        <ele>140.01</ele>
        <time>2016-06-24T08:54:09Z</time>
      </trkpt>
      <trkpt lat="43.35112" lon="1.47889">
        <ele>136.16</ele>
        <time>2016-06-24T08:54:16Z</time>
      </trkpt>
      <trkpt lat="43.35092" lon="1.47868">
        <ele>134.72</ele>
        <time>2016-06-24T08:54:19Z</time>
      </trkpt>
      <trkpt lat="43.35062" lon="1.47835">
        <ele>130.88</ele>
        <time>2016-06-24T08:54:24Z</time>
      </trkpt>
      <trkpt lat="43.35057" lon="1.47828">
        <ele>130.4</ele>
        <time>2016-06-24T08:54:25Z</time>
      </trkpt>
      <trkpt lat="43.35057" lon="1.47785">
        <ele>129.92</ele>
        <time>2016-06-24T08:54:32Z</time>
      </trkpt>
      <trkpt lat="43.35069" lon="1.47777">
        <ele>129.92</ele>
        <time>2016-06-24T08:54:33Z</time>
      </trkpt>
      <trkpt lat="43.35087" lon="1.47766">
        <ele>129.43</ele>
        <time>2016-06-24T08:54:35Z</time>
      </trkpt>
      <trkpt lat="43.35122" lon="1.4775">
        <ele>128.95</ele>
        <time>2016-06-24T08:54:41Z</time>
      </trkpt>
      <trkpt lat="43.35144" lon="1.47743">
        <ele>130.4</ele>
        <time>2016-06-24T08:54:50Z</time>
      </trkpt>
      <trkpt lat="43.35145" lon="1.47742">
        <ele>131.36</ele>
        <time>2016-06-24T08:55:08Z</time>
      </trkpt>
      <trkpt lat="43.35145" lon="1.47742">
        <ele>130.88</ele>
        <time>2016-06-24T08:55:13Z</time>
      </trkpt>
      <trkpt lat="43.35144" lon="1.4772">
        <ele>131.84</ele>
        <time>2016-06-24T08:55:17Z</time>
      </trkpt>
      <trkpt lat="43.35109" lon="1.4758">
        <ele>128.47</ele>
        <time>2016-06-24T08:55:30Z</time>
      </trkpt>
      <trkpt lat="43.35073" lon="1.47447">
        <ele>127.03</ele>
        <time>2016-06-24T08:55:44Z</time>
      </trkpt>
      <trkpt lat="43.35069" lon="1.47403">
        <ele>126.07</ele>
        <time>2016-06-24T08:55:52Z</time>
      </trkpt>
      <trkpt lat="43.35081" lon="1.4738">
        <ele>124.63</ele>
        <time>2016-06-24T08:55:56Z</time>
      </trkpt>
      <trkpt lat="43.35132" lon="1.47324">
        <ele>123.67</ele>
        <time>2016-06-24T08:56:06Z</time>
      </trkpt>
      <trkpt lat="43.35155" lon="1.47304">
        <ele>125.11</ele>
        <time>2016-06-24T08:56:16Z</time>
      </trkpt>
      <trkpt lat="43.35159" lon="1.47302">
        <ele>124.63</ele>
        <time>2016-06-24T08:56:25Z</time>
      </trkpt>
      <trkpt lat="43.35166" lon="1.47298">
        <ele>125.59</ele>
        <time>2016-06-24T08:56:58Z</time>
      </trkpt>
      <trkpt lat="43.35166" lon="1.47298">
        <ele>126.07</ele>
        <time>2016-06-24T08:57:02Z</time>
      </trkpt>
      <trkpt lat="43.3517" lon="1.47297">
        <ele>125.11</ele>
        <time>2016-06-24T08:57:20Z</time>
      </trkpt>
      <trkpt lat="43.35196" lon="1.47282">
        <ele>127.03</ele>
        <time>2016-06-24T08:58:27Z</time>
      </trkpt>
      <trkpt lat="43.35247" lon="1.47231">
        <ele>127.03</ele>
        <time>2016-06-24T08:58:41Z</time>
      </trkpt>
      <trkpt lat="43.35304" lon="1.47174">
        <ele>127.51</ele>
        <time>2016-06-24T08:58:53Z</time>
      </trkpt>
      <trkpt lat="43.3538" lon="1.47099">
        <ele>128.47</ele>
        <time>2016-06-24T08:59:08Z</time>
      </trkpt>
      <trkpt lat="43.3542" lon="1.47061">
        <ele>127.51</ele>
        <time>2016-06-24T08:59:15Z</time>
      </trkpt>
      <trkpt lat="43.35434" lon="1.47027">
        <ele>128.47</ele>
        <time>2016-06-24T08:59:19Z</time>
      </trkpt>
      <trkpt lat="43.35446" lon="1.46882">
        <ele>127.51</ele>
        <time>2016-06-24T08:59:32Z</time>
      </trkpt>
      <trkpt lat="43.35448" lon="1.46857">
        <ele>128.47</ele>
        <time>2016-06-24T08:59:40Z</time>
      </trkpt>
      <trkpt lat="43.3545" lon="1.46849">
        <ele>129.43</ele>
        <time>2016-06-24T09:00:34Z</time>
      </trkpt>
      <trkpt lat="43.35453" lon="1.46844">
        <ele>129.92</ele>
        <time>2016-06-24T09:00:35Z</time>
      </trkpt>
      <trkpt lat="43.35459" lon="1.46841">
        <ele>128.95</ele>
        <time>2016-06-24T09:00:36Z</time>
      </trkpt>
      <trkpt lat="43.35521" lon="1.46807">
        <ele>131.36</ele>
        <time>2016-06-24T09:00:43Z</time>
      </trkpt>
      <trkpt lat="43.35665" lon="1.46723">
        <ele>131.36</ele>
        <time>2016-06-24T09:00:56Z</time>
      </trkpt>
      <trkpt lat="43.35765" lon="1.46628">
        <ele>131.84</ele>
        <time>2016-06-24T09:01:06Z</time>
      </trkpt>
      <trkpt lat="43.3587" lon="1.46553">
        <ele>132.8</ele>
        <time>2016-06-24T09:01:15Z</time>
      </trkpt>
      <trkpt lat="43.36003" lon="1.4648">
        <ele>132.8</ele>
        <time>2016-06-24T09:01:25Z</time>
      </trkpt>
      <trkpt lat="43.36014" lon="1.46469">
        <ele>131.84</ele>
        <time>2016-06-24T09:01:26Z</time>
      </trkpt>
      <trkpt lat="43.36024" lon="1.46457">
        <ele>131.36</ele>
        <time>2016-06-24T09:01:27Z</time>
      </trkpt>
      <trkpt lat="43.361" lon="1.46328">
        <ele>129.92</ele>
        <time>2016-06-24T09:01:37Z</time>
      </trkpt>
      <trkpt lat="43.36195" lon="1.46119">
        <ele>129.92</ele>
        <time>2016-06-24T09:01:53Z</time>
      </trkpt>
      <trkpt lat="43.36216" lon="1.46065">
        <ele>128.47</ele>
        <time>2016-06-24T09:01:58Z</time>
      </trkpt>
      <trkpt lat="43.36224" lon="1.46049">
        <ele>128.95</ele>
        <time>2016-06-24T09:02:00Z</time>
      </trkpt>
      <trkpt lat="43.36228" lon="1.4604">
        <ele>128.95</ele>
        <time>2016-06-24T09:02:01Z</time>
      </trkpt>
      <trkpt lat="43.36232" lon="1.46031">
        <ele>127.99</ele>
        <time>2016-06-24T09:02:02Z</time>
      </trkpt>
      <trkpt lat="43.36236" lon="1.46022">
        <ele>128.47</ele>
        <time>2016-06-24T09:02:03Z</time>
      </trkpt>
      <trkpt lat="43.36242" lon="1.46013">
        <ele>129.43</ele>
        <time>2016-06-24T09:02:04Z</time>
      </trkpt>
      <trkpt lat="43.36248" lon="1.46004">
        <ele>129.43</ele>
        <time>2016-06-24T09:02:05Z</time>
      </trkpt>
      <trkpt lat="43.36327" lon="1.45871">
        <ele>129.92</ele>
        <time>2016-06-24T09:02:17Z</time>
      </trkpt>
      <trkpt lat="43.36373" lon="1.45788">
        <ele>127.51</ele>
        <time>2016-06-24T09:02:25Z</time>
      </trkpt>
      <trkpt lat="43.36376" lon="1.45784">
        <ele>127.99</ele>
        <time>2016-06-24T09:02:26Z</time>
      </trkpt>
      <trkpt lat="43.3638" lon="1.4578">
        <ele>127.99</ele>
        <time>2016-06-24T09:02:27Z</time>
      </trkpt>
      <trkpt lat="43.36384" lon="1.45777">
        <ele>127.51</ele>
        <time>2016-06-24T09:02:28Z</time>
      </trkpt>
      <trkpt lat="43.36394" lon="1.4577">
        <ele>127.51</ele>
        <time>2016-06-24T09:02:30Z</time>
      </trkpt>
      <trkpt lat="43.36399" lon="1.45764">
        <ele>127.03</ele>
        <time>2016-06-24T09:02:31Z</time>
      </trkpt>
      <trkpt lat="43.36401" lon="1.45757">
        <ele>127.99</ele>
        <time>2016-06-24T09:02:32Z</time>
      </trkpt>
      <trkpt lat="43.36401" lon="1.45748">
        <ele>127.03</ele>
        <time>2016-06-24T09:02:33Z</time>
      </trkpt>
      <trkpt lat="43.36394" lon="1.45735">
        <ele>127.03</ele>
        <time>2016-06-24T09:02:35Z</time>
      </trkpt>
      <trkpt lat="43.36388" lon="1.45734">
        <ele>127.03</ele>
        <time>2016-06-24T09:02:36Z</time>
      </trkpt>
      <trkpt lat="43.36382" lon="1.45736">
        <ele>127.03</ele>
        <time>2016-06-24T09:02:37Z</time>
      </trkpt>
      <trkpt lat="43.36377" lon="1.45743">
        <ele>127.03</ele>
        <time>2016-06-24T09:02:38Z</time>
      </trkpt>
      <trkpt lat="43.36374" lon="1.45752">
        <ele>127.03</ele>
        <time>2016-06-24T09:02:39Z</time>
      </trkpt>
      <trkpt lat="43.36373" lon="1.45764">
        <ele>127.51</ele>
        <time>2016-06-24T09:02:40Z</time>
      </trkpt>
      <trkpt lat="43.36371" lon="1.45775">
        <ele>127.51</ele>
        <time>2016-06-24T09:02:41Z</time>
      </trkpt>
      <trkpt lat="43.36368" lon="1.45787">
        <ele>127.99</ele>
        <time>2016-06-24T09:02:42Z</time>
      </trkpt>
      <trkpt lat="43.36364" lon="1.45797">
        <ele>127.99</ele>
        <time>2016-06-24T09:02:43Z</time>
      </trkpt>
      <trkpt lat="43.3636" lon="1.45806">
        <ele>127.03</ele>
        <time>2016-06-24T09:02:44Z</time>
      </trkpt>
      <trkpt lat="43.36356" lon="1.45814">
        <ele>127.99</ele>
        <time>2016-06-24T09:02:45Z</time>
      </trkpt>
      <trkpt lat="43.36348" lon="1.45827">
        <ele>127.51</ele>
        <time>2016-06-24T09:02:47Z</time>
      </trkpt>
      <trkpt lat="43.36343" lon="1.45832">
        <ele>127.99</ele>
        <time>2016-06-24T09:02:48Z</time>
      </trkpt>
      <trkpt lat="43.36337" lon="1.45834">
        <ele>127.51</ele>
        <time>2016-06-24T09:02:49Z</time>
      </trkpt>
      <trkpt lat="43.36332" lon="1.45834">
        <ele>127.03</ele>
        <time>2016-06-24T09:02:50Z</time>
      </trkpt>
      <trkpt lat="43.36327" lon="1.45832">
        <ele>127.03</ele>
        <time>2016-06-24T09:02:51Z</time>
      </trkpt>
      <trkpt lat="43.36319" lon="1.45817">
        <ele>126.55</ele>
        <time>2016-06-24T09:02:54Z</time>
      </trkpt>
      <trkpt lat="43.36321" lon="1.45811">
        <ele>127.03</ele>
        <time>2016-06-24T09:02:55Z</time>
      </trkpt>
      <trkpt lat="43.36323" lon="1.45806">
        <ele>127.03</ele>
        <time>2016-06-24T09:02:56Z</time>
      </trkpt>
      <trkpt lat="43.36324" lon="1.45802">
        <ele>126.55</ele>
        <time>2016-06-24T09:02:57Z</time>
      </trkpt>
      <trkpt lat="43.36324" lon="1.45799">
        <ele>125.59</ele>
        <time>2016-06-24T09:02:58Z</time>
      </trkpt>
      <trkpt lat="43.36324" lon="1.45797">
        <ele>127.03</ele>
        <time>2016-06-24T09:02:59Z</time>
      </trkpt>
      <trkpt lat="43.3632" lon="1.45787">
        <ele>126.55</ele>
        <time>2016-06-24T09:03:09Z</time>
      </trkpt>
      <trkpt lat="43.3632" lon="1.45786">
        <ele>125.11</ele>
        <time>2016-06-24T09:04:59Z</time>
      </trkpt>
      <trkpt lat="43.3632" lon="1.45786">
        <ele>127.03</ele>
        <time>2016-06-24T09:05:21Z</time>
      </trkpt>
      <trkpt lat="43.3632" lon="1.45786">
        <ele>125.59</ele>
        <time>2016-06-24T09:05:23Z</time>
      </trkpt>
      <trkpt lat="43.3632" lon="1.45786">
        <ele>127.03</ele>
        <time>2016-06-24T09:05:41Z</time>
      </trkpt>
      <trkpt lat="43.3632" lon="1.45785">
        <ele>126.07</ele>
        <time>2016-06-24T09:05:58Z</time>
      </trkpt>
      <trkpt lat="43.3632" lon="1.45785">
        <ele>127.03</ele>
        <time>2016-06-24T09:07:11Z</time>
      </trkpt>
      <trkpt lat="43.3632" lon="1.45785">
        <ele>125.59</ele>
        <time>2016-06-24T09:07:13Z</time>
      </trkpt>
      <trkpt lat="43.3632" lon="1.45785">
        <ele>127.03</ele>
        <time>2016-06-24T09:07:18Z</time>
      </trkpt>
      <trkpt lat="43.36317" lon="1.45771">
        <ele>126.07</ele>
        <time>2016-06-24T09:07:32Z</time>
      </trkpt>
      <trkpt lat="43.36317" lon="1.45771">
        <ele>126.55</ele>
        <time>2016-06-24T09:08:44Z</time>
      </trkpt>
      <trkpt lat="43.36313" lon="1.45757">
        <ele>126.55</ele>
        <time>2016-06-24T09:09:23Z</time>
      </trkpt>
      <trkpt lat="43.36303" lon="1.4573">
        <ele>126.55</ele>
        <time>2016-06-24T09:09:28Z</time>
      </trkpt>
      <trkpt lat="43.36299" lon="1.45735">
        <ele>125.59</ele>
        <time>2016-06-24T09:09:34Z</time>
      </trkpt>
      <trkpt lat="43.363" lon="1.45736">
        <ele>125.59</ele>
        <time>2016-06-24T09:09:47Z</time>
      </trkpt>
      <trkpt lat="43.363" lon="1.45734">
        <ele>125.11</ele>
        <time>2016-06-24T09:11:14Z</time>
      </trkpt>
      <trkpt lat="43.363" lon="1.45732">
        <ele>126.07</ele>
        <time>2016-06-24T09:12:42Z</time>
      </trkpt>
      <trkpt lat="43.363" lon="1.45731">
        <ele>126.55</ele>
        <time>2016-06-24T09:13:25Z</time>
      </trkpt>
      <trkpt lat="43.363" lon="1.4573">
        <ele>125.59</ele>
        <time>2016-06-24T09:14:23Z</time>
      </trkpt>
      <trkpt lat="43.36301" lon="1.45731">
        <ele>125.11</ele>
        <time>2016-06-24T09:14:25Z</time>
      </trkpt>
      <trkpt lat="43.36302" lon="1.45735">
        <ele>125.11</ele>
        <time>2016-06-24T09:14:40Z</time>
      </trkpt>
      <trkpt lat="43.36303" lon="1.45743">
        <ele>125.11</ele>
        <time>2016-06-24T09:14:44Z</time>
      </trkpt>
      <trkpt lat="43.36302" lon="1.4575">
        <ele>126.07</ele>
        <time>2016-06-24T09:14:45Z</time>
      </trkpt>
      <trkpt lat="43.36302" lon="1.45758">
        <ele>127.03</ele>
        <time>2016-06-24T09:14:46Z</time>
      </trkpt>
      <trkpt lat="43.36301" lon="1.45783">
        <ele>126.07</ele>
        <time>2016-06-24T09:14:49Z</time>
      </trkpt>
      <trkpt lat="43.36317" lon="1.45827">
        <ele>126.55</ele>
        <time>2016-06-24T09:14:56Z</time>
      </trkpt>
      <trkpt lat="43.36317" lon="1.45833">
        <ele>127.03</ele>
        <time>2016-06-24T09:14:57Z</time>
      </trkpt>
      <trkpt lat="43.36316" lon="1.45839">
        <ele>126.07</ele>
        <time>2016-06-24T09:14:58Z</time>
      </trkpt>
      <trkpt lat="43.36312" lon="1.45844">
        <ele>127.03</ele>
        <time>2016-06-24T09:14:59Z</time>
      </trkpt>
      <trkpt lat="43.36308" lon="1.4585">
        <ele>126.55</ele>
        <time>2016-06-24T09:15:00Z</time>
      </trkpt>
      <trkpt lat="43.36299" lon="1.45864">
        <ele>127.03</ele>
        <time>2016-06-24T09:15:02Z</time>
      </trkpt>
      <trkpt lat="43.36247" lon="1.45951">
        <ele>126.07</ele>
        <time>2016-06-24T09:15:13Z</time>
      </trkpt>
      <trkpt lat="43.36231" lon="1.45975">
        <ele>127.51</ele>
        <time>2016-06-24T09:15:16Z</time>
      </trkpt>
      <trkpt lat="43.36225" lon="1.4598">
        <ele>126.55</ele>
        <time>2016-06-24T09:15:17Z</time>
      </trkpt>
      <trkpt lat="43.36219" lon="1.45983">
        <ele>127.51</ele>
        <time>2016-06-24T09:15:18Z</time>
      </trkpt>
      <trkpt lat="43.36214" lon="1.45985">
        <ele>126.55</ele>
        <time>2016-06-24T09:15:19Z</time>
      </trkpt>
      <trkpt lat="43.36209" lon="1.45985">
        <ele>126.55</ele>
        <time>2016-06-24T09:15:20Z</time>
      </trkpt>
      <trkpt lat="43.36204" lon="1.45985">
        <ele>126.55</ele>
        <time>2016-06-24T09:15:21Z</time>
      </trkpt>
      <trkpt lat="43.36201" lon="1.45986">
        <ele>126.55</ele>
        <time>2016-06-24T09:15:22Z</time>
      </trkpt>
      <trkpt lat="43.36199" lon="1.45987">
        <ele>126.07</ele>
        <time>2016-06-24T09:15:23Z</time>
      </trkpt>
      <trkpt lat="43.36197" lon="1.45989">
        <ele>126.55</ele>
        <time>2016-06-24T09:15:24Z</time>
      </trkpt>
      <trkpt lat="43.36195" lon="1.45992">
        <ele>127.03</ele>
        <time>2016-06-24T09:15:25Z</time>
      </trkpt>
      <trkpt lat="43.36195" lon="1.45995">
        <ele>127.03</ele>
        <time>2016-06-24T09:15:26Z</time>
      </trkpt>
      <trkpt lat="43.36198" lon="1.46005">
        <ele>127.51</ele>
        <time>2016-06-24T09:15:28Z</time>
      </trkpt>
      <trkpt lat="43.36204" lon="1.46031">
        <ele>127.03</ele>
        <time>2016-06-24T09:15:35Z</time>
      </trkpt>
      <trkpt lat="43.36206" lon="1.46055">
        <ele>127.51</ele>
        <time>2016-06-24T09:15:39Z</time>
      </trkpt>
      <trkpt lat="43.36206" lon="1.46062">
        <ele>127.51</ele>
        <time>2016-06-24T09:15:40Z</time>
      </trkpt>
      <trkpt lat="43.36205" lon="1.46069">
        <ele>127.99</ele>
        <time>2016-06-24T09:15:41Z</time>
      </trkpt>
      <trkpt lat="43.36204" lon="1.46076">
        <ele>127.03</ele>
        <time>2016-06-24T09:15:42Z</time>
      </trkpt>
      <trkpt lat="43.36201" lon="1.46084">
        <ele>127.51</ele>
        <time>2016-06-24T09:15:43Z</time>
      </trkpt>
      <trkpt lat="43.3616" lon="1.46184">
        <ele>128.47</ele>
        <time>2016-06-24T09:15:53Z</time>
      </trkpt>
      <trkpt lat="43.36111" lon="1.4629">
        <ele>125.11</ele>
        <time>2016-06-24T09:16:02Z</time>
      </trkpt>
      <trkpt lat="43.36105" lon="1.46303">
        <ele>128.47</ele>
        <time>2016-06-24T09:16:03Z</time>
      </trkpt>
      <trkpt lat="43.3601" lon="1.46463">
        <ele>129.43</ele>
        <time>2016-06-24T09:16:16Z</time>
      </trkpt>
      <trkpt lat="43.35911" lon="1.46526">
        <ele>129.43</ele>
        <time>2016-06-24T09:16:25Z</time>
      </trkpt>
      <trkpt lat="43.35768" lon="1.46619">
        <ele>130.88</ele>
        <time>2016-06-24T09:16:38Z</time>
      </trkpt>
      <trkpt lat="43.35694" lon="1.46691">
        <ele>129.43</ele>
        <time>2016-06-24T09:16:47Z</time>
      </trkpt>
      <trkpt lat="43.35678" lon="1.46703">
        <ele>128.47</ele>
        <time>2016-06-24T09:16:52Z</time>
      </trkpt>
      <trkpt lat="43.35635" lon="1.46734">
        <ele>129.92</ele>
        <time>2016-06-24T09:17:03Z</time>
      </trkpt>
      <trkpt lat="43.35629" lon="1.46737">
        <ele>129.92</ele>
        <time>2016-06-24T09:17:04Z</time>
      </trkpt>
      <trkpt lat="43.35623" lon="1.46741">
        <ele>128.47</ele>
        <time>2016-06-24T09:17:05Z</time>
      </trkpt>
      <trkpt lat="43.35602" lon="1.46754">
        <ele>129.92</ele>
        <time>2016-06-24T09:17:08Z</time>
      </trkpt>
      <trkpt lat="43.35562" lon="1.46777">
        <ele>129.92</ele>
        <time>2016-06-24T09:17:17Z</time>
      </trkpt>
      <trkpt lat="43.3555" lon="1.46783">
        <ele>128.95</ele>
        <time>2016-06-24T09:17:32Z</time>
      </trkpt>
      <trkpt lat="43.35527" lon="1.46797">
        <ele>129.43</ele>
        <time>2016-06-24T09:17:45Z</time>
      </trkpt>
      <trkpt lat="43.35453" lon="1.46839">
        <ele>129.92</ele>
        <time>2016-06-24T09:17:56Z</time>
      </trkpt>
      <trkpt lat="43.35431" lon="1.46853">
        <ele>129.43</ele>
        <time>2016-06-24T09:18:02Z</time>
      </trkpt>
      <trkpt lat="43.35431" lon="1.46853">
        <ele>130.4</ele>
        <time>2016-06-24T09:18:07Z</time>
      </trkpt>
      <trkpt lat="43.35412" lon="1.46864">
        <ele>130.88</ele>
        <time>2016-06-24T09:18:19Z</time>
      </trkpt>
      <trkpt lat="43.35364" lon="1.46891">
        <ele>130.4</ele>
        <time>2016-06-24T09:18:30Z</time>
      </trkpt>
      <trkpt lat="43.35321" lon="1.46916">
        <ele>130.4</ele>
        <time>2016-06-24T09:18:41Z</time>
      </trkpt>
      <trkpt lat="43.35301" lon="1.46927">
        <ele>129.92</ele>
        <time>2016-06-24T09:18:49Z</time>
      </trkpt>
      <trkpt lat="43.35288" lon="1.46935">
        <ele>131.36</ele>
        <time>2016-06-24T09:19:21Z</time>
      </trkpt>
      <trkpt lat="43.35267" lon="1.46947">
        <ele>129.43</ele>
        <time>2016-06-24T09:19:26Z</time>
      </trkpt>
      <trkpt lat="43.35262" lon="1.46949">
        <ele>130.4</ele>
        <time>2016-06-24T09:19:27Z</time>
      </trkpt>
      <trkpt lat="43.35221" lon="1.46973">
        <ele>130.88</ele>
        <time>2016-06-24T09:19:39Z</time>
      </trkpt>
      <trkpt lat="43.35208" lon="1.4698">
        <ele>130.4</ele>
        <time>2016-06-24T09:19:57Z</time>
      </trkpt>
      <trkpt lat="43.35184" lon="1.46994">
        <ele>131.36</ele>
        <time>2016-06-24T09:20:47Z</time>
      </trkpt>
      <trkpt lat="43.35157" lon="1.47004">
        <ele>130.88</ele>
        <time>2016-06-24T09:20:52Z</time>
      </trkpt>
      <trkpt lat="43.35141" lon="1.46982">
        <ele>132.32</ele>
        <time>2016-06-24T09:20:55Z</time>
      </trkpt>
      <trkpt lat="43.35072" lon="1.46812">
        <ele>132.8</ele>
        <time>2016-06-24T09:21:08Z</time>
      </trkpt>
      <trkpt lat="43.35032" lon="1.46625">
        <ele>133.28</ele>
        <time>2016-06-24T09:21:20Z</time>
      </trkpt>
      <trkpt lat="43.35033" lon="1.46453">
        <ele>132.8</ele>
        <time>2016-06-24T09:21:30Z</time>
      </trkpt>
      <trkpt lat="43.35037" lon="1.46246">
        <ele>133.28</ele>
        <time>2016-06-24T09:21:43Z</time>
      </trkpt>
      <trkpt lat="43.35038" lon="1.46172">
        <ele>131.84</ele>
        <time>2016-06-24T09:21:48Z</time>
      </trkpt>
      <trkpt lat="43.3504" lon="1.46089">
        <ele>131.36</ele>
        <time>2016-06-24T09:21:54Z</time>
      </trkpt>
      <trkpt lat="43.35041" lon="1.45978">
        <ele>135.68</ele>
        <time>2016-06-24T09:21:59Z</time>
      </trkpt>
      <trkpt lat="43.35047" lon="1.45718">
        <ele>138.09</ele>
        <time>2016-06-24T09:22:10Z</time>
      </trkpt>
      <trkpt lat="43.3503" lon="1.45622">
        <ele>138.09</ele>
        <time>2016-06-24T09:22:14Z</time>
      </trkpt>
      <trkpt lat="43.35009" lon="1.45562">
        <ele>135.2</ele>
        <time>2016-06-24T09:22:17Z</time>
      </trkpt>
      <trkpt lat="43.34959" lon="1.45419">
        <ele>138.57</ele>
        <time>2016-06-24T09:22:23Z</time>
      </trkpt>
      <trkpt lat="43.3495" lon="1.45393">
        <ele>138.09</ele>
        <time>2016-06-24T09:22:24Z</time>
      </trkpt>
      <trkpt lat="43.34799" lon="1.44968">
        <ele>140.01</ele>
        <time>2016-06-24T09:22:40Z</time>
      </trkpt>
      <trkpt lat="43.34679" lon="1.44634">
        <ele>140.97</ele>
        <time>2016-06-24T09:22:52Z</time>
      </trkpt>
      <trkpt lat="43.3464" lon="1.44555">
        <ele>143.37</ele>
        <time>2016-06-24T09:22:55Z</time>
      </trkpt>
      <trkpt lat="43.34528" lon="1.44286">
        <ele>143.37</ele>
        <time>2016-06-24T09:23:05Z</time>
      </trkpt>
      <trkpt lat="43.34395" lon="1.43886">
        <ele>141.45</ele>
        <time>2016-06-24T09:23:19Z</time>
      </trkpt>
      <trkpt lat="43.34319" lon="1.43556">
        <ele>144.82</ele>
        <time>2016-06-24T09:23:30Z</time>
      </trkpt>
      <trkpt lat="43.34272" lon="1.43239">
        <ele>141.45</ele>
        <time>2016-06-24T09:23:41Z</time>
      </trkpt>
      <trkpt lat="43.34269" lon="1.43215">
        <ele>141.45</ele>
        <time>2016-06-24T09:23:42Z</time>
      </trkpt>
      <trkpt lat="43.34264" lon="1.43152">
        <ele>140.01</ele>
        <time>2016-06-24T09:23:45Z</time>
      </trkpt>
      <trkpt lat="43.34264" lon="1.43133">
        <ele>139.53</ele>
        <time>2016-06-24T09:23:46Z</time>
      </trkpt>
      <trkpt lat="43.34253" lon="1.43027">
        <ele>140.49</ele>
        <time>2016-06-24T09:23:52Z</time>
      </trkpt>
      <trkpt lat="43.34244" lon="1.42942">
        <ele>144.34</ele>
        <time>2016-06-24T09:23:56Z</time>
      </trkpt>
      <trkpt lat="43.34235" lon="1.42901">
        <ele>144.82</ele>
        <time>2016-06-24T09:23:58Z</time>
      </trkpt>
      <trkpt lat="43.34159" lon="1.42717">
        <ele>147.22</ele>
        <time>2016-06-24T09:24:07Z</time>
      </trkpt>
      <trkpt lat="43.34049" lon="1.42496">
        <ele>149.14</ele>
        <time>2016-06-24T09:24:18Z</time>
      </trkpt>
      <trkpt lat="43.34016" lon="1.42403">
        <ele>147.7</ele>
        <time>2016-06-24T09:24:23Z</time>
      </trkpt>
      <trkpt lat="43.33978" lon="1.42254">
        <ele>146.74</ele>
        <time>2016-06-24T09:24:31Z</time>
      </trkpt>
      <trkpt lat="43.3397" lon="1.42201">
        <ele>147.7</ele>
        <time>2016-06-24T09:24:34Z</time>
      </trkpt>
      <trkpt lat="43.3397" lon="1.42167">
        <ele>145.78</ele>
        <time>2016-06-24T09:24:36Z</time>
      </trkpt>
      <trkpt lat="43.33979" lon="1.42136">
        <ele>146.26</ele>
        <time>2016-06-24T09:24:38Z</time>
      </trkpt>
      <trkpt lat="43.33982" lon="1.4206">
        <ele>146.26</ele>
        <time>2016-06-24T09:24:43Z</time>
      </trkpt>
      <trkpt lat="43.33959" lon="1.41995">
        <ele>151.06</ele>
        <time>2016-06-24T09:24:47Z</time>
      </trkpt>
      <trkpt lat="43.33945" lon="1.4196">
        <ele>152.99</ele>
        <time>2016-06-24T09:24:49Z</time>
      </trkpt>
      <trkpt lat="43.33869" lon="1.4186">
        <ele>152.99</ele>
        <time>2016-06-24T09:24:56Z</time>
      </trkpt>
      <trkpt lat="43.33847" lon="1.41828">
        <ele>154.43</ele>
        <time>2016-06-24T09:24:58Z</time>
      </trkpt>
      <trkpt lat="43.3381" lon="1.41752">
        <ele>155.39</ele>
        <time>2016-06-24T09:25:02Z</time>
      </trkpt>
      <trkpt lat="43.33801" lon="1.41731">
        <ele>155.87</ele>
        <time>2016-06-24T09:25:03Z</time>
      </trkpt>
      <trkpt lat="43.33733" lon="1.41617">
        <ele>157.79</ele>
        <time>2016-06-24T09:25:09Z</time>
      </trkpt>
      <trkpt lat="43.33704" lon="1.41546">
        <ele>159.24</ele>
        <time>2016-06-24T09:25:12Z</time>
      </trkpt>
      <trkpt lat="43.33683" lon="1.41495">
        <ele>157.79</ele>
        <time>2016-06-24T09:25:14Z</time>
      </trkpt>
      <trkpt lat="43.3366" lon="1.41442">
        <ele>161.16</ele>
        <time>2016-06-24T09:25:16Z</time>
      </trkpt>
      <trkpt lat="43.33648" lon="1.41416">
        <ele>161.16</ele>
        <time>2016-06-24T09:25:17Z</time>
      </trkpt>
      <trkpt lat="43.33583" lon="1.41261">
        <ele>163.56</ele>
        <time>2016-06-24T09:25:23Z</time>
      </trkpt>
      <trkpt lat="43.33569" lon="1.41186">
        <ele>165.96</ele>
        <time>2016-06-24T09:25:26Z</time>
      </trkpt>
      <trkpt lat="43.33572" lon="1.41134">
        <ele>169.81</ele>
        <time>2016-06-24T09:25:28Z</time>
      </trkpt>
      <trkpt lat="43.33583" lon="1.41017">
        <ele>177.02</ele>
        <time>2016-06-24T09:25:32Z</time>
      </trkpt>
      <trkpt lat="43.33579" lon="1.40956">
        <ele>180.87</ele>
        <time>2016-06-24T09:25:34Z</time>
      </trkpt>
      <trkpt lat="43.33577" lon="1.40926">
        <ele>180.87</ele>
        <time>2016-06-24T09:25:35Z</time>
      </trkpt>
      <trkpt lat="43.33571" lon="1.40836">
        <ele>184.71</ele>
        <time>2016-06-24T09:25:38Z</time>
      </trkpt>
      <trkpt lat="43.33563" lon="1.40749">
        <ele>188.08</ele>
        <time>2016-06-24T09:25:41Z</time>
      </trkpt>
      <trkpt lat="43.33555" lon="1.40664">
        <ele>190.96</ele>
        <time>2016-06-24T09:25:44Z</time>
      </trkpt>
      <trkpt lat="43.33544" lon="1.40583">
        <ele>192.4</ele>
        <time>2016-06-24T09:25:47Z</time>
      </trkpt>
      <trkpt lat="43.33525" lon="1.40507">
        <ele>194.8</ele>
        <time>2016-06-24T09:25:50Z</time>
      </trkpt>
      <trkpt lat="43.33523" lon="1.40428">
        <ele>199.13</ele>
        <time>2016-06-24T09:25:53Z</time>
      </trkpt>
      <trkpt lat="43.33544" lon="1.40322">
        <ele>203.46</ele>
        <time>2016-06-24T09:25:57Z</time>
      </trkpt>
      <trkpt lat="43.33548" lon="1.40274">
        <ele>205.38</ele>
        <time>2016-06-24T09:25:59Z</time>
      </trkpt>
      <trkpt lat="43.3353" lon="1.40174">
        <ele>207.78</ele>
        <time>2016-06-24T09:26:03Z</time>
      </trkpt>
      <trkpt lat="43.33521" lon="1.40091">
        <ele>212.59</ele>
        <time>2016-06-24T09:26:06Z</time>
      </trkpt>
      <trkpt lat="43.3353" lon="1.39957">
        <ele>216.91</ele>
        <time>2016-06-24T09:26:11Z</time>
      </trkpt>
      <trkpt lat="43.33568" lon="1.39872">
        <ele>218.84</ele>
        <time>2016-06-24T09:26:15Z</time>
      </trkpt>
      <trkpt lat="43.33591" lon="1.39844">
        <ele>217.88</ele>
        <time>2016-06-24T09:26:17Z</time>
      </trkpt>
      <trkpt lat="43.33591" lon="1.39776">
        <ele>219.8</ele>
        <time>2016-06-24T09:26:22Z</time>
      </trkpt>
      <trkpt lat="43.33568" lon="1.39744">
        <ele>222.2</ele>
        <time>2016-06-24T09:26:24Z</time>
      </trkpt>
      <trkpt lat="43.33558" lon="1.39705">
        <ele>222.68</ele>
        <time>2016-06-24T09:26:26Z</time>
      </trkpt>
      <trkpt lat="43.33557" lon="1.39663">
        <ele>223.64</ele>
        <time>2016-06-24T09:26:28Z</time>
      </trkpt>
      <trkpt lat="43.3354" lon="1.39457">
        <ele>227.49</ele>
        <time>2016-06-24T09:26:37Z</time>
      </trkpt>
      <trkpt lat="43.33511" lon="1.39268">
        <ele>229.41</ele>
        <time>2016-06-24T09:26:45Z</time>
      </trkpt>
      <trkpt lat="43.33477" lon="1.3907">
        <ele>232.78</ele>
        <time>2016-06-24T09:26:53Z</time>
      </trkpt>
      <trkpt lat="43.33441" lon="1.38915">
        <ele>235.66</ele>
        <time>2016-06-24T09:26:59Z</time>
      </trkpt>
      <trkpt lat="43.33428" lon="1.38837">
        <ele>238.54</ele>
        <time>2016-06-24T09:27:02Z</time>
      </trkpt>
      <trkpt lat="43.33424" lon="1.38811">
        <ele>238.54</ele>
        <time>2016-06-24T09:27:03Z</time>
      </trkpt>
      <trkpt lat="43.33414" lon="1.38729">
        <ele>240.47</ele>
        <time>2016-06-24T09:27:06Z</time>
      </trkpt>
      <trkpt lat="43.33376" lon="1.38502">
        <ele>243.83</ele>
        <time>2016-06-24T09:27:14Z</time>
      </trkpt>
      <trkpt lat="43.33364" lon="1.38442">
        <ele>245.27</ele>
        <time>2016-06-24T09:27:16Z</time>
      </trkpt>
      <trkpt lat="43.33324" lon="1.38237">
        <ele>246.23</ele>
        <time>2016-06-24T09:27:24Z</time>
      </trkpt>
      <trkpt lat="43.33315" lon="1.38196">
        <ele>247.68</ele>
        <time>2016-06-24T09:27:26Z</time>
      </trkpt>
      <trkpt lat="43.3328" lon="1.37988">
        <ele>247.68</ele>
        <time>2016-06-24T09:27:37Z</time>
      </trkpt>
      <trkpt lat="43.33235" lon="1.3781">
        <ele>245.27</ele>
        <time>2016-06-24T09:27:46Z</time>
      </trkpt>
      <trkpt lat="43.33231" lon="1.3774">
        <ele>246.72</ele>
        <time>2016-06-24T09:27:50Z</time>
      </trkpt>
      <trkpt lat="43.33238" lon="1.37661">
        <ele>244.79</ele>
        <time>2016-06-24T09:27:54Z</time>
      </trkpt>
      <trkpt lat="43.33227" lon="1.37545">
        <ele>240.47</ele>
        <time>2016-06-24T09:27:59Z</time>
      </trkpt>
      <trkpt lat="43.33221" lon="1.37497">
        <ele>239.02</ele>
        <time>2016-06-24T09:28:01Z</time>
      </trkpt>
      <trkpt lat="43.33216" lon="1.37446">
        <ele>235.66</ele>
        <time>2016-06-24T09:28:03Z</time>
      </trkpt>
      <trkpt lat="43.33212" lon="1.37396">
        <ele>231.81</ele>
        <time>2016-06-24T09:28:05Z</time>
      </trkpt>
      <trkpt lat="43.33209" lon="1.37371">
        <ele>231.33</ele>
        <time>2016-06-24T09:28:06Z</time>
      </trkpt>
      <trkpt lat="43.33202" lon="1.37323">
        <ele>227.01</ele>
        <time>2016-06-24T09:28:08Z</time>
      </trkpt>
      <trkpt lat="43.33189" lon="1.37257">
        <ele>222.68</ele>
        <time>2016-06-24T09:28:11Z</time>
      </trkpt>
      <trkpt lat="43.33177" lon="1.37191">
        <ele>219.32</ele>
        <time>2016-06-24T09:28:14Z</time>
      </trkpt>
      <trkpt lat="43.3317" lon="1.37143">
        <ele>216.43</ele>
        <time>2016-06-24T09:28:16Z</time>
      </trkpt>
      <trkpt lat="43.33152" lon="1.36973">
        <ele>212.11</ele>
        <time>2016-06-24T09:28:22Z</time>
      </trkpt>
      <trkpt lat="43.33147" lon="1.36911">
        <ele>208.26</ele>
        <time>2016-06-24T09:28:24Z</time>
      </trkpt>
      <trkpt lat="43.33141" lon="1.36851">
        <ele>204.42</ele>
        <time>2016-06-24T09:28:26Z</time>
      </trkpt>
      <trkpt lat="43.33135" lon="1.36791">
        <ele>199.61</ele>
        <time>2016-06-24T09:28:28Z</time>
      </trkpt>
      <trkpt lat="43.33133" lon="1.36732">
        <ele>196.25</ele>
        <time>2016-06-24T09:28:30Z</time>
      </trkpt>
      <trkpt lat="43.33134" lon="1.36674">
        <ele>190.96</ele>
        <time>2016-06-24T09:28:32Z</time>
      </trkpt>
      <trkpt lat="43.33135" lon="1.36617">
        <ele>188.08</ele>
        <time>2016-06-24T09:28:34Z</time>
      </trkpt>
      <trkpt lat="43.33136" lon="1.36531">
        <ele>182.79</ele>
        <time>2016-06-24T09:28:37Z</time>
      </trkpt>
      <trkpt lat="43.33137" lon="1.36479">
        <ele>178.46</ele>
        <time>2016-06-24T09:28:39Z</time>
      </trkpt>
      <trkpt lat="43.33138" lon="1.36408">
        <ele>173.66</ele>
        <time>2016-06-24T09:28:42Z</time>
      </trkpt>
      <trkpt lat="43.33132" lon="1.36303">
        <ele>170.77</ele>
        <time>2016-06-24T09:28:47Z</time>
      </trkpt>
      <trkpt lat="43.33096" lon="1.36112">
        <ele>168.37</ele>
        <time>2016-06-24T09:28:55Z</time>
      </trkpt>
      <trkpt lat="43.3303" lon="1.35726">
        <ele>167.41</ele>
        <time>2016-06-24T09:29:09Z</time>
      </trkpt>
      <trkpt lat="43.33013" lon="1.35553">
        <ele>164.52</ele>
        <time>2016-06-24T09:29:15Z</time>
      </trkpt>
      <trkpt lat="43.33012" lon="1.35524">
        <ele>163.08</ele>
        <time>2016-06-24T09:29:16Z</time>
      </trkpt>
      <trkpt lat="43.33016" lon="1.35465">
        <ele>162.12</ele>
        <time>2016-06-24T09:29:18Z</time>
      </trkpt>
      <trkpt lat="43.33029" lon="1.35406">
        <ele>162.12</ele>
        <time>2016-06-24T09:29:20Z</time>
      </trkpt>
      <trkpt lat="43.3315" lon="1.34992">
        <ele>158.75</ele>
        <time>2016-06-24T09:29:35Z</time>
      </trkpt>
      <trkpt lat="43.33271" lon="1.34576">
        <ele>155.39</ele>
        <time>2016-06-24T09:29:50Z</time>
      </trkpt>
      <trkpt lat="43.33267" lon="1.34414">
        <ele>152.51</ele>
        <time>2016-06-24T09:29:56Z</time>
      </trkpt>
      <trkpt lat="43.33259" lon="1.34388">
        <ele>152.51</ele>
        <time>2016-06-24T09:29:57Z</time>
      </trkpt>
      <trkpt lat="43.33222" lon="1.34287">
        <ele>151.54</ele>
        <time>2016-06-24T09:30:01Z</time>
      </trkpt>
      <trkpt lat="43.33103" lon="1.33985">
        <ele>151.54</ele>
        <time>2016-06-24T09:30:13Z</time>
      </trkpt>
      <trkpt lat="43.32963" lon="1.33719">
        <ele>151.06</ele>
        <time>2016-06-24T09:30:25Z</time>
      </trkpt>
      <trkpt lat="43.32952" lon="1.33695">
        <ele>149.62</ele>
        <time>2016-06-24T09:30:26Z</time>
      </trkpt>
      <trkpt lat="43.32932" lon="1.33617">
        <ele>146.74</ele>
        <time>2016-06-24T09:30:29Z</time>
      </trkpt>
      <trkpt lat="43.32914" lon="1.33468">
        <ele>143.37</ele>
        <time>2016-06-24T09:30:35Z</time>
      </trkpt>
      <trkpt lat="43.32892" lon="1.33268">
        <ele>140.97</ele>
        <time>2016-06-24T09:30:45Z</time>
      </trkpt>
      <trkpt lat="43.32885" lon="1.33193">
        <ele>139.05</ele>
        <time>2016-06-24T09:30:51Z</time>
      </trkpt>
      <trkpt lat="43.32882" lon="1.33121">
        <ele>139.05</ele>
        <time>2016-06-24T09:30:58Z</time>
      </trkpt>
      <trkpt lat="43.32873" lon="1.32949">
        <ele>140.01</ele>
        <time>2016-06-24T09:31:10Z</time>
      </trkpt>
      <trkpt lat="43.32873" lon="1.32933">
        <ele>140.01</ele>
        <time>2016-06-24T09:31:11Z</time>
      </trkpt>
      <trkpt lat="43.32859" lon="1.32696">
        <ele>138.09</ele>
        <time>2016-06-24T09:31:25Z</time>
      </trkpt>
      <trkpt lat="43.32851" lon="1.32583">
        <ele>140.97</ele>
        <time>2016-06-24T09:31:32Z</time>
      </trkpt>
      <trkpt lat="43.32846" lon="1.32509">
        <ele>138.57</ele>
        <time>2016-06-24T09:31:37Z</time>
      </trkpt>
      <trkpt lat="43.32842" lon="1.3247">
        <ele>138.09</ele>
        <time>2016-06-24T09:31:41Z</time>
      </trkpt>
      <trkpt lat="43.32842" lon="1.32462">
        <ele>137.61</ele>
        <time>2016-06-24T09:31:42Z</time>
      </trkpt>
      <trkpt lat="43.32836" lon="1.32361">
        <ele>138.09</ele>
        <time>2016-06-24T09:31:54Z</time>
      </trkpt>
      <trkpt lat="43.32833" lon="1.32304">
        <ele>138.57</ele>
        <time>2016-06-24T09:32:05Z</time>
      </trkpt>
      <trkpt lat="43.32833" lon="1.32303">
        <ele>138.09</ele>
        <time>2016-06-24T09:32:06Z</time>
      </trkpt>
      <trkpt lat="43.32833" lon="1.32274">
        <ele>138.57</ele>
        <time>2016-06-24T09:32:19Z</time>
      </trkpt>
      <trkpt lat="43.32833" lon="1.32258">
        <ele>138.09</ele>
        <time>2016-06-24T09:32:32Z</time>
      </trkpt>
      <trkpt lat="43.32835" lon="1.32246">
        <ele>138.57</ele>
        <time>2016-06-24T09:32:47Z</time>
      </trkpt>
      <trkpt lat="43.32837" lon="1.32239">
        <ele>138.09</ele>
        <time>2016-06-24T09:32:49Z</time>
      </trkpt>
      <trkpt lat="43.32846" lon="1.32232">
        <ele>139.05</ele>
        <time>2016-06-24T09:32:53Z</time>
      </trkpt>
      <trkpt lat="43.32878" lon="1.32229">
        <ele>140.49</ele>
        <time>2016-06-24T09:32:59Z</time>
      </trkpt>
      <trkpt lat="43.32975" lon="1.32223">
        <ele>140.49</ele>
        <time>2016-06-24T09:33:11Z</time>
      </trkpt>
      <trkpt lat="43.33007" lon="1.32222">
        <ele>139.53</ele>
        <time>2016-06-24T09:33:16Z</time>
      </trkpt>
      <trkpt lat="43.3302" lon="1.32201">
        <ele>140.01</ele>
        <time>2016-06-24T09:33:20Z</time>
      </trkpt>
      <trkpt lat="43.33027" lon="1.3208">
        <ele>144.34</ele>
        <time>2016-06-24T09:33:31Z</time>
      </trkpt>
      <trkpt lat="43.33027" lon="1.32066">
        <ele>143.85</ele>
        <time>2016-06-24T09:33:32Z</time>
      </trkpt>
      <trkpt lat="43.33037" lon="1.31906">
        <ele>147.22</ele>
        <time>2016-06-24T09:33:42Z</time>
      </trkpt>
      <trkpt lat="43.33038" lon="1.31891">
        <ele>146.74</ele>
        <time>2016-06-24T09:33:43Z</time>
      </trkpt>
      <trkpt lat="43.33044" lon="1.31863">
        <ele>147.7</ele>
        <time>2016-06-24T09:33:45Z</time>
      </trkpt>
      <trkpt lat="43.33078" lon="1.31756">
        <ele>150.1</ele>
        <time>2016-06-24T09:33:55Z</time>
      </trkpt>
      <trkpt lat="43.33086" lon="1.31735">
        <ele>149.62</ele>
        <time>2016-06-24T09:33:57Z</time>
      </trkpt>
      <trkpt lat="43.33092" lon="1.31712">
        <ele>151.06</ele>
        <time>2016-06-24T09:33:59Z</time>
      </trkpt>
      <trkpt lat="43.33111" lon="1.31657">
        <ele>152.03</ele>
        <time>2016-06-24T09:34:04Z</time>
      </trkpt>
      <trkpt lat="43.33123" lon="1.31636">
        <ele>153.47</ele>
        <time>2016-06-24T09:34:06Z</time>
      </trkpt>
      <trkpt lat="43.33154" lon="1.31564">
        <ele>158.27</ele>
        <time>2016-06-24T09:34:11Z</time>
      </trkpt>
      <trkpt lat="43.33161" lon="1.31547">
        <ele>158.27</ele>
        <time>2016-06-24T09:34:12Z</time>
      </trkpt>
      <trkpt lat="43.33175" lon="1.31512">
        <ele>159.72</ele>
        <time>2016-06-24T09:34:14Z</time>
      </trkpt>
      <trkpt lat="43.33201" lon="1.31463">
        <ele>162.6</ele>
        <time>2016-06-24T09:34:17Z</time>
      </trkpt>
      <trkpt lat="43.33243" lon="1.31391">
        <ele>165.48</ele>
        <time>2016-06-24T09:34:22Z</time>
      </trkpt>
      <trkpt lat="43.33297" lon="1.31347">
        <ele>169.81</ele>
        <time>2016-06-24T09:34:27Z</time>
      </trkpt>
      <trkpt lat="43.33391" lon="1.31309">
        <ele>174.14</ele>
        <time>2016-06-24T09:34:36Z</time>
      </trkpt>
      <trkpt lat="43.33401" lon="1.31301">
        <ele>175.1</ele>
        <time>2016-06-24T09:34:37Z</time>
      </trkpt>
      <trkpt lat="43.33444" lon="1.31228">
        <ele>178.46</ele>
        <time>2016-06-24T09:34:43Z</time>
      </trkpt>
      <trkpt lat="43.33448" lon="1.31214">
        <ele>178.94</ele>
        <time>2016-06-24T09:34:44Z</time>
      </trkpt>
      <trkpt lat="43.33448" lon="1.31111">
        <ele>183.27</ele>
        <time>2016-06-24T09:34:51Z</time>
      </trkpt>
      <trkpt lat="43.33439" lon="1.31083">
        <ele>184.23</ele>
        <time>2016-06-24T09:34:53Z</time>
      </trkpt>
      <trkpt lat="43.33419" lon="1.31045">
        <ele>185.19</ele>
        <time>2016-06-24T09:34:56Z</time>
      </trkpt>
      <trkpt lat="43.33367" lon="1.30976">
        <ele>187.59</ele>
        <time>2016-06-24T09:35:02Z</time>
      </trkpt>
      <trkpt lat="43.33299" lon="1.30858">
        <ele>191.44</ele>
        <time>2016-06-24T09:35:11Z</time>
      </trkpt>
      <trkpt lat="43.33288" lon="1.30828">
        <ele>192.88</ele>
        <time>2016-06-24T09:35:13Z</time>
      </trkpt>
      <trkpt lat="43.33264" lon="1.30752">
        <ele>195.77</ele>
        <time>2016-06-24T09:35:18Z</time>
      </trkpt>
      <trkpt lat="43.33246" lon="1.30693">
        <ele>199.13</ele>
        <time>2016-06-24T09:35:22Z</time>
      </trkpt>
      <trkpt lat="43.33225" lon="1.30607">
        <ele>202.98</ele>
        <time>2016-06-24T09:35:28Z</time>
      </trkpt>
      <trkpt lat="43.33219" lon="1.30531">
        <ele>206.82</ele>
        <time>2016-06-24T09:35:33Z</time>
      </trkpt>
      <trkpt lat="43.33218" lon="1.30489">
        <ele>212.11</ele>
        <time>2016-06-24T09:35:35Z</time>
      </trkpt>
      <trkpt lat="43.33219" lon="1.30442">
        <ele>213.55</ele>
        <time>2016-06-24T09:35:37Z</time>
      </trkpt>
      <trkpt lat="43.33217" lon="1.30399">
        <ele>210.19</ele>
        <time>2016-06-24T09:35:39Z</time>
      </trkpt>
      <trkpt lat="43.33215" lon="1.3038">
        <ele>210.19</ele>
        <time>2016-06-24T09:35:40Z</time>
      </trkpt>
      <trkpt lat="43.3321" lon="1.30203">
        <ele>212.59</ele>
        <time>2016-06-24T09:35:49Z</time>
      </trkpt>
      <trkpt lat="43.33214" lon="1.30139">
        <ele>215.47</ele>
        <time>2016-06-24T09:35:52Z</time>
      </trkpt>
      <trkpt lat="43.33234" lon="1.29972">
        <ele>214.03</ele>
        <time>2016-06-24T09:36:00Z</time>
      </trkpt>
      <trkpt lat="43.33241" lon="1.29931">
        <ele>216.91</ele>
        <time>2016-06-24T09:36:02Z</time>
      </trkpt>
      <trkpt lat="43.33248" lon="1.2989">
        <ele>218.36</ele>
        <time>2016-06-24T09:36:04Z</time>
      </trkpt>
      <trkpt lat="43.33257" lon="1.2985">
        <ele>218.84</ele>
        <time>2016-06-24T09:36:06Z</time>
      </trkpt>
      <trkpt lat="43.33288" lon="1.29775">
        <ele>221.24</ele>
        <time>2016-06-24T09:36:10Z</time>
      </trkpt>
      <trkpt lat="43.33298" lon="1.29758">
        <ele>222.2</ele>
        <time>2016-06-24T09:36:11Z</time>
      </trkpt>
      <trkpt lat="43.33347" lon="1.29694">
        <ele>225.09</ele>
        <time>2016-06-24T09:36:15Z</time>
      </trkpt>
      <trkpt lat="43.33467" lon="1.29543">
        <ele>227.97</ele>
        <time>2016-06-24T09:36:25Z</time>
      </trkpt>
      <trkpt lat="43.33538" lon="1.29481">
        <ele>230.85</ele>
        <time>2016-06-24T09:36:30Z</time>
      </trkpt>
      <trkpt lat="43.33583" lon="1.29449">
        <ele>230.85</ele>
        <time>2016-06-24T09:36:33Z</time>
      </trkpt>
      <trkpt lat="43.33647" lon="1.29371">
        <ele>235.18</ele>
        <time>2016-06-24T09:36:37Z</time>
      </trkpt>
      <trkpt lat="43.337" lon="1.29301">
        <ele>228.45</ele>
        <time>2016-06-24T09:36:40Z</time>
      </trkpt>
      <trkpt lat="43.33756" lon="1.29244">
        <ele>225.09</ele>
        <time>2016-06-24T09:36:43Z</time>
      </trkpt>
      <trkpt lat="43.33794" lon="1.29209">
        <ele>220.28</ele>
        <time>2016-06-24T09:36:45Z</time>
      </trkpt>
      <trkpt lat="43.33812" lon="1.2919">
        <ele>218.36</ele>
        <time>2016-06-24T09:36:46Z</time>
      </trkpt>
      <trkpt lat="43.33874" lon="1.29061">
        <ele>211.63</ele>
        <time>2016-06-24T09:36:51Z</time>
      </trkpt>
      <trkpt lat="43.33881" lon="1.2903">
        <ele>208.74</ele>
        <time>2016-06-24T09:36:52Z</time>
      </trkpt>
      <trkpt lat="43.33892" lon="1.28968">
        <ele>207.3</ele>
        <time>2016-06-24T09:36:54Z</time>
      </trkpt>
      <trkpt lat="43.33902" lon="1.28906">
        <ele>202.49</ele>
        <time>2016-06-24T09:36:56Z</time>
      </trkpt>
      <trkpt lat="43.33918" lon="1.28813">
        <ele>198.17</ele>
        <time>2016-06-24T09:36:59Z</time>
      </trkpt>
      <trkpt lat="43.33923" lon="1.28782">
        <ele>198.17</ele>
        <time>2016-06-24T09:37:00Z</time>
      </trkpt>
      <trkpt lat="43.33937" lon="1.28691">
        <ele>194.8</ele>
        <time>2016-06-24T09:37:03Z</time>
      </trkpt>
      <trkpt lat="43.33948" lon="1.28631">
        <ele>191.44</ele>
        <time>2016-06-24T09:37:05Z</time>
      </trkpt>
      <trkpt lat="43.33953" lon="1.28602">
        <ele>191.44</ele>
        <time>2016-06-24T09:37:06Z</time>
      </trkpt>
      <trkpt lat="43.33971" lon="1.28516">
        <ele>188.56</ele>
        <time>2016-06-24T09:37:09Z</time>
      </trkpt>
      <trkpt lat="43.33981" lon="1.2846">
        <ele>187.59</ele>
        <time>2016-06-24T09:37:11Z</time>
      </trkpt>
      <trkpt lat="43.33969" lon="1.28323">
        <ele>187.11</ele>
        <time>2016-06-24T09:37:16Z</time>
      </trkpt>
      <trkpt lat="43.33962" lon="1.28296">
        <ele>186.63</ele>
        <time>2016-06-24T09:37:17Z</time>
      </trkpt>
      <trkpt lat="43.33909" lon="1.28138">
        <ele>182.79</ele>
        <time>2016-06-24T09:37:23Z</time>
      </trkpt>
      <trkpt lat="43.33894" lon="1.28083">
        <ele>179.42</ele>
        <time>2016-06-24T09:37:25Z</time>
      </trkpt>
      <trkpt lat="43.3388" lon="1.28026">
        <ele>175.58</ele>
        <time>2016-06-24T09:37:27Z</time>
      </trkpt>
      <trkpt lat="43.33858" lon="1.27941">
        <ele>172.21</ele>
        <time>2016-06-24T09:37:30Z</time>
      </trkpt>
      <trkpt lat="43.33846" lon="1.27883">
        <ele>167.89</ele>
        <time>2016-06-24T09:37:32Z</time>
      </trkpt>
      <trkpt lat="43.33846" lon="1.27765">
        <ele>162.12</ele>
        <time>2016-06-24T09:37:36Z</time>
      </trkpt>
      <trkpt lat="43.33855" lon="1.27678">
        <ele>156.83</ele>
        <time>2016-06-24T09:37:39Z</time>
      </trkpt>
      <trkpt lat="43.33861" lon="1.27619">
        <ele>152.99</ele>
        <time>2016-06-24T09:37:41Z</time>
      </trkpt>
      <trkpt lat="43.33867" lon="1.27562">
        <ele>149.62</ele>
        <time>2016-06-24T09:37:43Z</time>
      </trkpt>
      <trkpt lat="43.33879" lon="1.27507">
        <ele>146.26</ele>
        <time>2016-06-24T09:37:45Z</time>
      </trkpt>
      <trkpt lat="43.33941" lon="1.2737">
        <ele>146.26</ele>
        <time>2016-06-24T09:37:51Z</time>
      </trkpt>
      <trkpt lat="43.33967" lon="1.27276">
        <ele>150.58</ele>
        <time>2016-06-24T09:37:55Z</time>
      </trkpt>
      <trkpt lat="43.34033" lon="1.27064">
        <ele>151.54</ele>
        <time>2016-06-24T09:38:04Z</time>
      </trkpt>
      <trkpt lat="43.34036" lon="1.26931">
        <ele>146.74</ele>
        <time>2016-06-24T09:38:09Z</time>
      </trkpt>
      <trkpt lat="43.3403" lon="1.26906">
        <ele>146.74</ele>
        <time>2016-06-24T09:38:10Z</time>
      </trkpt>
      <trkpt lat="43.34023" lon="1.26882">
        <ele>145.78</ele>
        <time>2016-06-24T09:38:11Z</time>
      </trkpt>
      <trkpt lat="43.34001" lon="1.26811">
        <ele>142.89</ele>
        <time>2016-06-24T09:38:14Z</time>
      </trkpt>
      <trkpt lat="43.3396" lon="1.26606">
        <ele>141.45</ele>
        <time>2016-06-24T09:38:23Z</time>
      </trkpt>
      <trkpt lat="43.33882" lon="1.26376">
        <ele>140.01</ele>
        <time>2016-06-24T09:38:34Z</time>
      </trkpt>
      <trkpt lat="43.338" lon="1.2621">
        <ele>138.57</ele>
        <time>2016-06-24T09:38:43Z</time>
      </trkpt>
      <trkpt lat="43.33767" lon="1.26135">
        <ele>137.13</ele>
        <time>2016-06-24T09:38:48Z</time>
      </trkpt>
      <trkpt lat="43.33748" lon="1.2608">
        <ele>138.57</ele>
        <time>2016-06-24T09:38:52Z</time>
      </trkpt>
      <trkpt lat="43.33736" lon="1.26044">
        <ele>137.13</ele>
        <time>2016-06-24T09:38:55Z</time>
      </trkpt>
      <trkpt lat="43.33747" lon="1.2598">
        <ele>135.2</ele>
        <time>2016-06-24T09:39:01Z</time>
      </trkpt>
      <trkpt lat="43.33755" lon="1.25973">
        <ele>134.24</ele>
        <time>2016-06-24T09:39:02Z</time>
      </trkpt>
      <trkpt lat="43.33846" lon="1.25895">
        <ele>131.84</ele>
        <time>2016-06-24T09:39:11Z</time>
      </trkpt>
      <trkpt lat="43.33916" lon="1.25833">
        <ele>134.72</ele>
        <time>2016-06-24T09:39:18Z</time>
      </trkpt>
      <trkpt lat="43.33983" lon="1.25775">
        <ele>138.09</ele>
        <time>2016-06-24T09:39:24Z</time>
      </trkpt>
      <trkpt lat="43.34005" lon="1.25758">
        <ele>139.05</ele>
        <time>2016-06-24T09:39:26Z</time>
      </trkpt>
      <trkpt lat="43.34035" lon="1.25737">
        <ele>140.49</ele>
        <time>2016-06-24T09:39:29Z</time>
      </trkpt>
      <trkpt lat="43.34081" lon="1.25715">
        <ele>140.49</ele>
        <time>2016-06-24T09:39:34Z</time>
      </trkpt>
      <trkpt lat="43.34139" lon="1.2565">
        <ele>146.74</ele>
        <time>2016-06-24T09:39:40Z</time>
      </trkpt>
      <trkpt lat="43.34196" lon="1.25581">
        <ele>150.1</ele>
        <time>2016-06-24T09:39:46Z</time>
      </trkpt>
      <trkpt lat="43.34205" lon="1.25568">
        <ele>150.58</ele>
        <time>2016-06-24T09:39:47Z</time>
      </trkpt>
      <trkpt lat="43.34279" lon="1.25455">
        <ele>146.74</ele>
        <time>2016-06-24T09:39:55Z</time>
      </trkpt>
      <trkpt lat="43.34319" lon="1.25375">
        <ele>145.3</ele>
        <time>2016-06-24T09:40:00Z</time>
      </trkpt>
      <trkpt lat="43.34343" lon="1.2533">
        <ele>144.82</ele>
        <time>2016-06-24T09:40:03Z</time>
      </trkpt>
      <trkpt lat="43.34507" lon="1.25156">
        <ele>145.78</ele>
        <time>2016-06-24T09:40:17Z</time>
      </trkpt>
      <trkpt lat="43.34662" lon="1.2499">
        <ele>145.3</ele>
        <time>2016-06-24T09:40:29Z</time>
      </trkpt>
      <trkpt lat="43.34681" lon="1.24959">
        <ele>144.82</ele>
        <time>2016-06-24T09:40:31Z</time>
      </trkpt>
      <trkpt lat="43.34714" lon="1.24907">
        <ele>142.89</ele>
        <time>2016-06-24T09:40:35Z</time>
      </trkpt>
      <trkpt lat="43.34718" lon="1.2489">
        <ele>143.85</ele>
        <time>2016-06-24T09:40:36Z</time>
      </trkpt>
      <trkpt lat="43.34724" lon="1.24873">
        <ele>144.34</ele>
        <time>2016-06-24T09:40:37Z</time>
      </trkpt>
      <trkpt lat="43.34754" lon="1.24798">
        <ele>141.93</ele>
        <time>2016-06-24T09:40:41Z</time>
      </trkpt>
      <trkpt lat="43.34762" lon="1.24777">
        <ele>142.89</ele>
        <time>2016-06-24T09:40:42Z</time>
      </trkpt>
      <trkpt lat="43.34779" lon="1.24735">
        <ele>145.3</ele>
        <time>2016-06-24T09:40:44Z</time>
      </trkpt>
      <trkpt lat="43.34836" lon="1.24674">
        <ele>143.37</ele>
        <time>2016-06-24T09:40:49Z</time>
      </trkpt>
      <trkpt lat="43.34999" lon="1.24635">
        <ele>143.85</ele>
        <time>2016-06-24T09:41:00Z</time>
      </trkpt>
      <trkpt lat="43.3506" lon="1.24637">
        <ele>143.85</ele>
        <time>2016-06-24T09:41:04Z</time>
      </trkpt>
      <trkpt lat="43.35099" lon="1.24622">
        <ele>142.41</ele>
        <time>2016-06-24T09:41:07Z</time>
      </trkpt>
      <trkpt lat="43.35109" lon="1.24612">
        <ele>142.41</ele>
        <time>2016-06-24T09:41:08Z</time>
      </trkpt>
      <trkpt lat="43.35152" lon="1.2456">
        <ele>140.01</ele>
        <time>2016-06-24T09:41:14Z</time>
      </trkpt>
      <trkpt lat="43.35211" lon="1.24487">
        <ele>140.97</ele>
        <time>2016-06-24T09:41:23Z</time>
      </trkpt>
      <trkpt lat="43.35261" lon="1.24427">
        <ele>140.01</ele>
        <time>2016-06-24T09:41:31Z</time>
      </trkpt>
      <trkpt lat="43.35314" lon="1.24363">
        <ele>138.57</ele>
        <time>2016-06-24T09:41:39Z</time>
      </trkpt>
      <trkpt lat="43.35347" lon="1.24323">
        <ele>139.05</ele>
        <time>2016-06-24T09:41:48Z</time>
      </trkpt>
      <trkpt lat="43.35379" lon="1.24289">
        <ele>140.97</ele>
        <time>2016-06-24T09:41:52Z</time>
      </trkpt>
      <trkpt lat="43.35419" lon="1.24254">
        <ele>141.45</ele>
        <time>2016-06-24T09:41:56Z</time>
      </trkpt>
      <trkpt lat="43.35468" lon="1.24246">
        <ele>138.57</ele>
        <time>2016-06-24T09:42:02Z</time>
      </trkpt>
      <trkpt lat="43.35474" lon="1.24247">
        <ele>138.09</ele>
        <time>2016-06-24T09:42:04Z</time>
      </trkpt>
      <trkpt lat="43.35481" lon="1.2425">
        <ele>138.09</ele>
        <time>2016-06-24T09:42:06Z</time>
      </trkpt>
      <trkpt lat="43.35501" lon="1.24253">
        <ele>139.05</ele>
        <time>2016-06-24T09:42:10Z</time>
      </trkpt>
      <trkpt lat="43.35515" lon="1.24239">
        <ele>138.57</ele>
        <time>2016-06-24T09:42:14Z</time>
      </trkpt>
      <trkpt lat="43.35523" lon="1.24131">
        <ele>139.05</ele>
        <time>2016-06-24T09:42:26Z</time>
      </trkpt>
      <trkpt lat="43.35529" lon="1.24023">
        <ele>141.45</ele>
        <time>2016-06-24T09:42:38Z</time>
      </trkpt>
      <trkpt lat="43.35533" lon="1.23978">
        <ele>140.97</ele>
        <time>2016-06-24T09:42:46Z</time>
      </trkpt>
      <trkpt lat="43.35537" lon="1.23855">
        <ele>143.37</ele>
        <time>2016-06-24T09:42:58Z</time>
      </trkpt>
      <trkpt lat="43.35541" lon="1.23775">
        <ele>146.74</ele>
        <time>2016-06-24T09:43:04Z</time>
      </trkpt>
      <trkpt lat="43.35541" lon="1.2376">
        <ele>146.74</ele>
        <time>2016-06-24T09:43:05Z</time>
      </trkpt>
      <trkpt lat="43.35543" lon="1.23718">
        <ele>148.66</ele>
        <time>2016-06-24T09:43:08Z</time>
      </trkpt>
      <trkpt lat="43.35556" lon="1.23645">
        <ele>150.58</ele>
        <time>2016-06-24T09:43:14Z</time>
      </trkpt>
      <trkpt lat="43.35567" lon="1.23625">
        <ele>150.58</ele>
        <time>2016-06-24T09:43:17Z</time>
      </trkpt>
      <trkpt lat="43.35577" lon="1.23568">
        <ele>151.54</ele>
        <time>2016-06-24T09:43:23Z</time>
      </trkpt>
      <trkpt lat="43.35602" lon="1.23501">
        <ele>152.99</ele>
        <time>2016-06-24T09:43:28Z</time>
      </trkpt>
      <trkpt lat="43.35625" lon="1.23436">
        <ele>154.43</ele>
        <time>2016-06-24T09:43:32Z</time>
      </trkpt>
      <trkpt lat="43.35659" lon="1.23327">
        <ele>153.47</ele>
        <time>2016-06-24T09:43:40Z</time>
      </trkpt>
      <trkpt lat="43.35692" lon="1.23177">
        <ele>154.43</ele>
        <time>2016-06-24T09:43:50Z</time>
      </trkpt>
      <trkpt lat="43.35751" lon="1.22954">
        <ele>153.47</ele>
        <time>2016-06-24T09:44:06Z</time>
      </trkpt>
      <trkpt lat="43.35782" lon="1.22792">
        <ele>155.87</ele>
        <time>2016-06-24T09:44:16Z</time>
      </trkpt>
      <trkpt lat="43.35774" lon="1.226">
        <ele>158.75</ele>
        <time>2016-06-24T09:44:24Z</time>
      </trkpt>
      <trkpt lat="43.35747" lon="1.22252">
        <ele>160.2</ele>
        <time>2016-06-24T09:44:37Z</time>
      </trkpt>
      <trkpt lat="43.35744" lon="1.22204">
        <ele>159.24</ele>
        <time>2016-06-24T09:44:39Z</time>
      </trkpt>
      <trkpt lat="43.3574" lon="1.22126">
        <ele>155.87</ele>
        <time>2016-06-24T09:44:43Z</time>
      </trkpt>
      <trkpt lat="43.3574" lon="1.22112">
        <ele>154.91</ele>
        <time>2016-06-24T09:44:44Z</time>
      </trkpt>
      <trkpt lat="43.35742" lon="1.22087">
        <ele>153.47</ele>
        <time>2016-06-24T09:44:46Z</time>
      </trkpt>
      <trkpt lat="43.35742" lon="1.22026">
        <ele>154.43</ele>
        <time>2016-06-24T09:44:51Z</time>
      </trkpt>
      <trkpt lat="43.35744" lon="1.21994">
        <ele>154.91</ele>
        <time>2016-06-24T09:44:53Z</time>
      </trkpt>
      <trkpt lat="43.35768" lon="1.21793">
        <ele>157.79</ele>
        <time>2016-06-24T09:45:03Z</time>
      </trkpt>
      <trkpt lat="43.35775" lon="1.21586">
        <ele>156.83</ele>
        <time>2016-06-24T09:45:11Z</time>
      </trkpt>
      <trkpt lat="43.35781" lon="1.21439">
        <ele>156.83</ele>
        <time>2016-06-24T09:45:17Z</time>
      </trkpt>
      <trkpt lat="43.35804" lon="1.2135">
        <ele>156.83</ele>
        <time>2016-06-24T09:45:21Z</time>
      </trkpt>
      <trkpt lat="43.35893" lon="1.21166">
        <ele>158.75</ele>
        <time>2016-06-24T09:45:30Z</time>
      </trkpt>
      <trkpt lat="43.36001" lon="1.20935">
        <ele>160.2</ele>
        <time>2016-06-24T09:45:40Z</time>
      </trkpt>
      <trkpt lat="43.36036" lon="1.20822">
        <ele>161.16</ele>
        <time>2016-06-24T09:45:44Z</time>
      </trkpt>
      <trkpt lat="43.36108" lon="1.20575">
        <ele>160.68</ele>
        <time>2016-06-24T09:45:53Z</time>
      </trkpt>
      <trkpt lat="43.3619" lon="1.2043">
        <ele>164.04</ele>
        <time>2016-06-24T09:45:59Z</time>
      </trkpt>
      <trkpt lat="43.36224" lon="1.20375">
        <ele>167.89</ele>
        <time>2016-06-24T09:46:01Z</time>
      </trkpt>
      <trkpt lat="43.3626" lon="1.20319">
        <ele>168.85</ele>
        <time>2016-06-24T09:46:03Z</time>
      </trkpt>
      <trkpt lat="43.36329" lon="1.20213">
        <ele>166.93</ele>
        <time>2016-06-24T09:46:07Z</time>
      </trkpt>
      <trkpt lat="43.36515" lon="1.19914">
        <ele>165</ele>
        <time>2016-06-24T09:46:19Z</time>
      </trkpt>
      <trkpt lat="43.36651" lon="1.19604">
        <ele>165.48</ele>
        <time>2016-06-24T09:46:30Z</time>
      </trkpt>
      <trkpt lat="43.36773" lon="1.19333">
        <ele>165</ele>
        <time>2016-06-24T09:46:40Z</time>
      </trkpt>
      <trkpt lat="43.368" lon="1.1928">
        <ele>168.37</ele>
        <time>2016-06-24T09:46:42Z</time>
      </trkpt>
      <trkpt lat="43.36914" lon="1.1908">
        <ele>165</ele>
        <time>2016-06-24T09:46:50Z</time>
      </trkpt>
      <trkpt lat="43.3708" lon="1.18901">
        <ele>165.48</ele>
        <time>2016-06-24T09:46:59Z</time>
      </trkpt>
      <trkpt lat="43.3719" lon="1.18783">
        <ele>164.52</ele>
        <time>2016-06-24T09:47:05Z</time>
      </trkpt>
      <trkpt lat="43.37227" lon="1.18743">
        <ele>165.48</ele>
        <time>2016-06-24T09:47:07Z</time>
      </trkpt>
      <trkpt lat="43.37391" lon="1.18514">
        <ele>166.45</ele>
        <time>2016-06-24T09:47:17Z</time>
      </trkpt>
      <trkpt lat="43.37504" lon="1.18352">
        <ele>169.33</ele>
        <time>2016-06-24T09:47:24Z</time>
      </trkpt>
      <trkpt lat="43.37537" lon="1.18306">
        <ele>172.21</ele>
        <time>2016-06-24T09:47:26Z</time>
      </trkpt>
      <trkpt lat="43.37573" lon="1.18257">
        <ele>177.98</ele>
        <time>2016-06-24T09:47:28Z</time>
      </trkpt>
      <trkpt lat="43.37591" lon="1.18231">
        <ele>178.46</ele>
        <time>2016-06-24T09:47:29Z</time>
      </trkpt>
      <trkpt lat="43.37611" lon="1.18205">
        <ele>182.31</ele>
        <time>2016-06-24T09:47:30Z</time>
      </trkpt>
      <trkpt lat="43.37679" lon="1.18119">
        <ele>185.67</ele>
        <time>2016-06-24T09:47:34Z</time>
      </trkpt>
      <trkpt lat="43.37708" lon="1.18084">
        <ele>186.63</ele>
        <time>2016-06-24T09:47:36Z</time>
      </trkpt>
      <trkpt lat="43.37758" lon="1.18022">
        <ele>190.48</ele>
        <time>2016-06-24T09:47:40Z</time>
      </trkpt>
      <trkpt lat="43.37843" lon="1.17891">
        <ele>189.04</ele>
        <time>2016-06-24T09:47:48Z</time>
      </trkpt>
      <trkpt lat="43.37869" lon="1.1785">
        <ele>188.56</ele>
        <time>2016-06-24T09:47:51Z</time>
      </trkpt>
      <trkpt lat="43.3789" lon="1.17813">
        <ele>186.63</ele>
        <time>2016-06-24T09:47:55Z</time>
      </trkpt>
      <trkpt lat="43.37899" lon="1.17802">
        <ele>185.19</ele>
        <time>2016-06-24T09:48:04Z</time>
      </trkpt>
      <trkpt lat="43.37899" lon="1.17802">
        <ele>186.15</ele>
        <time>2016-06-24T09:48:30Z</time>
      </trkpt>
      <trkpt lat="43.37907" lon="1.17788">
        <ele>186.15</ele>
        <time>2016-06-24T09:48:33Z</time>
      </trkpt>
      <trkpt lat="43.37938" lon="1.17711">
        <ele>186.15</ele>
        <time>2016-06-24T09:48:43Z</time>
      </trkpt>
      <trkpt lat="43.37962" lon="1.17659">
        <ele>187.11</ele>
        <time>2016-06-24T09:48:48Z</time>
      </trkpt>
      <trkpt lat="43.38001" lon="1.17612">
        <ele>186.15</ele>
        <time>2016-06-24T09:48:54Z</time>
      </trkpt>
      <trkpt lat="43.38034" lon="1.17559">
        <ele>185.19</ele>
        <time>2016-06-24T09:48:59Z</time>
      </trkpt>
      <trkpt lat="43.38052" lon="1.17538">
        <ele>183.75</ele>
        <time>2016-06-24T09:49:01Z</time>
      </trkpt>
      <trkpt lat="43.38075" lon="1.17522">
        <ele>183.27</ele>
        <time>2016-06-24T09:49:03Z</time>
      </trkpt>
      <trkpt lat="43.38175" lon="1.17509">
        <ele>177.98</ele>
        <time>2016-06-24T09:49:09Z</time>
      </trkpt>
      <trkpt lat="43.38194" lon="1.17508">
        <ele>177.98</ele>
        <time>2016-06-24T09:49:10Z</time>
      </trkpt>
      <trkpt lat="43.38254" lon="1.17505">
        <ele>173.66</ele>
        <time>2016-06-24T09:49:13Z</time>
      </trkpt>
      <trkpt lat="43.38312" lon="1.17485">
        <ele>168.37</ele>
        <time>2016-06-24T09:49:16Z</time>
      </trkpt>
      <trkpt lat="43.38345" lon="1.17449">
        <ele>165.48</ele>
        <time>2016-06-24T09:49:18Z</time>
      </trkpt>
      <trkpt lat="43.3839" lon="1.1739">
        <ele>163.56</ele>
        <time>2016-06-24T09:49:21Z</time>
      </trkpt>
      <trkpt lat="43.38419" lon="1.17351">
        <ele>162.12</ele>
        <time>2016-06-24T09:49:23Z</time>
      </trkpt>
      <trkpt lat="43.38494" lon="1.17153">
        <ele>163.08</ele>
        <time>2016-06-24T09:49:31Z</time>
      </trkpt>
      <trkpt lat="43.38561" lon="1.16932">
        <ele>164.52</ele>
        <time>2016-06-24T09:49:39Z</time>
      </trkpt>
      <trkpt lat="43.38642" lon="1.16636">
        <ele>167.89</ele>
        <time>2016-06-24T09:49:49Z</time>
      </trkpt>
      <trkpt lat="43.38653" lon="1.16509">
        <ele>171.73</ele>
        <time>2016-06-24T09:49:53Z</time>
      </trkpt>
      <trkpt lat="43.38655" lon="1.16444">
        <ele>176.06</ele>
        <time>2016-06-24T09:49:55Z</time>
      </trkpt>
      <trkpt lat="43.38657" lon="1.16373">
        <ele>181.83</ele>
        <time>2016-06-24T09:49:57Z</time>
      </trkpt>
      <trkpt lat="43.38659" lon="1.16298">
        <ele>187.11</ele>
        <time>2016-06-24T09:49:59Z</time>
      </trkpt>
      <trkpt lat="43.38659" lon="1.16262">
        <ele>186.63</ele>
        <time>2016-06-24T09:50:00Z</time>
      </trkpt>
      <trkpt lat="43.38661" lon="1.16198">
        <ele>187.59</ele>
        <time>2016-06-24T09:50:02Z</time>
      </trkpt>
      <trkpt lat="43.3868" lon="1.16113">
        <ele>191.44</ele>
        <time>2016-06-24T09:50:05Z</time>
      </trkpt>
      <trkpt lat="43.38706" lon="1.16058">
        <ele>195.28</ele>
        <time>2016-06-24T09:50:07Z</time>
      </trkpt>
      <trkpt lat="43.3872" lon="1.16028">
        <ele>198.65</ele>
        <time>2016-06-24T09:50:08Z</time>
      </trkpt>
      <trkpt lat="43.38765" lon="1.15931">
        <ele>202.01</ele>
        <time>2016-06-24T09:50:11Z</time>
      </trkpt>
      <trkpt lat="43.38797" lon="1.15861">
        <ele>202.49</ele>
        <time>2016-06-24T09:50:13Z</time>
      </trkpt>
      <trkpt lat="43.38851" lon="1.1575">
        <ele>205.86</ele>
        <time>2016-06-24T09:50:16Z</time>
      </trkpt>
      <trkpt lat="43.3887" lon="1.15713">
        <ele>205.86</ele>
        <time>2016-06-24T09:50:17Z</time>
      </trkpt>
      <trkpt lat="43.3893" lon="1.15599">
        <ele>207.3</ele>
        <time>2016-06-24T09:50:20Z</time>
      </trkpt>
      <trkpt lat="43.39029" lon="1.15412">
        <ele>204.42</ele>
        <time>2016-06-24T09:50:25Z</time>
      </trkpt>
      <trkpt lat="43.39081" lon="1.15318">
        <ele>200.57</ele>
        <time>2016-06-24T09:50:28Z</time>
      </trkpt>
      <trkpt lat="43.39161" lon="1.15205">
        <ele>203.94</ele>
        <time>2016-06-24T09:50:32Z</time>
      </trkpt>
      <trkpt lat="43.39182" lon="1.15175">
        <ele>204.42</ele>
        <time>2016-06-24T09:50:33Z</time>
      </trkpt>
      <trkpt lat="43.3929" lon="1.15028">
        <ele>199.61</ele>
        <time>2016-06-24T09:50:38Z</time>
      </trkpt>
      <trkpt lat="43.39342" lon="1.14955">
        <ele>194.8</ele>
        <time>2016-06-24T09:50:41Z</time>
      </trkpt>
      <trkpt lat="43.39358" lon="1.14932">
        <ele>194.32</ele>
        <time>2016-06-24T09:50:42Z</time>
      </trkpt>
      <trkpt lat="43.39374" lon="1.1491">
        <ele>193.36</ele>
        <time>2016-06-24T09:50:43Z</time>
      </trkpt>
      <trkpt lat="43.39503" lon="1.14811">
        <ele>190</ele>
        <time>2016-06-24T09:50:49Z</time>
      </trkpt>
      <trkpt lat="43.39572" lon="1.14766">
        <ele>187.59</ele>
        <time>2016-06-24T09:50:52Z</time>
      </trkpt>
      <trkpt lat="43.39732" lon="1.14644">
        <ele>190</ele>
        <time>2016-06-24T09:51:00Z</time>
      </trkpt>
      <trkpt lat="43.39876" lon="1.14512">
        <ele>193.84</ele>
        <time>2016-06-24T09:51:08Z</time>
      </trkpt>
      <trkpt lat="43.39961" lon="1.14435">
        <ele>190.96</ele>
        <time>2016-06-24T09:51:13Z</time>
      </trkpt>
      <trkpt lat="43.40201" lon="1.14221">
        <ele>190.96</ele>
        <time>2016-06-24T09:51:29Z</time>
      </trkpt>
      <trkpt lat="43.40385" lon="1.14027">
        <ele>191.92</ele>
        <time>2016-06-24T09:51:42Z</time>
      </trkpt>
      <trkpt lat="43.40535" lon="1.13866">
        <ele>193.36</ele>
        <time>2016-06-24T09:51:52Z</time>
      </trkpt>
      <trkpt lat="43.40706" lon="1.13699">
        <ele>192.4</ele>
        <time>2016-06-24T09:52:02Z</time>
      </trkpt>
      <trkpt lat="43.4076" lon="1.13656">
        <ele>190.96</ele>
        <time>2016-06-24T09:52:05Z</time>
      </trkpt>
      <trkpt lat="43.40835" lon="1.13614">
        <ele>190</ele>
        <time>2016-06-24T09:52:09Z</time>
      </trkpt>
      <trkpt lat="43.40912" lon="1.13524">
        <ele>191.92</ele>
        <time>2016-06-24T09:52:14Z</time>
      </trkpt>
      <trkpt lat="43.40923" lon="1.135">
        <ele>192.88</ele>
        <time>2016-06-24T09:52:15Z</time>
      </trkpt>
      <trkpt lat="43.41068" lon="1.13153">
        <ele>194.8</ele>
        <time>2016-06-24T09:52:29Z</time>
      </trkpt>
      <trkpt lat="43.41182" lon="1.12886">
        <ele>192.88</ele>
        <time>2016-06-24T09:52:41Z</time>
      </trkpt>
      <trkpt lat="43.41207" lon="1.12829">
        <ele>194.8</ele>
        <time>2016-06-24T09:52:44Z</time>
      </trkpt>
      <trkpt lat="43.41256" lon="1.12707">
        <ele>195.28</ele>
        <time>2016-06-24T09:52:52Z</time>
      </trkpt>
      <trkpt lat="43.41271" lon="1.12639">
        <ele>198.65</ele>
        <time>2016-06-24T09:52:57Z</time>
      </trkpt>
      <trkpt lat="43.41273" lon="1.12629">
        <ele>198.65</ele>
        <time>2016-06-24T09:52:58Z</time>
      </trkpt>
      <trkpt lat="43.41278" lon="1.12613">
        <ele>198.17</ele>
        <time>2016-06-24T09:53:02Z</time>
      </trkpt>
      <trkpt lat="43.41295" lon="1.12564">
        <ele>201.53</ele>
        <time>2016-06-24T09:53:09Z</time>
      </trkpt>
      <trkpt lat="43.41288" lon="1.12546">
        <ele>202.49</ele>
        <time>2016-06-24T09:53:11Z</time>
      </trkpt>
      <trkpt lat="43.41281" lon="1.12484">
        <ele>206.34</ele>
        <time>2016-06-24T09:53:16Z</time>
      </trkpt>
      <trkpt lat="43.41275" lon="1.12428">
        <ele>211.15</ele>
        <time>2016-06-24T09:53:20Z</time>
      </trkpt>
      <trkpt lat="43.41272" lon="1.12401">
        <ele>212.59</ele>
        <time>2016-06-24T09:53:22Z</time>
      </trkpt>
      <trkpt lat="43.41266" lon="1.12347">
        <ele>215.95</ele>
        <time>2016-06-24T09:53:26Z</time>
      </trkpt>
      <trkpt lat="43.41262" lon="1.12305">
        <ele>217.88</ele>
        <time>2016-06-24T09:53:29Z</time>
      </trkpt>
      <trkpt lat="43.41247" lon="1.12148">
        <ele>219.32</ele>
        <time>2016-06-24T09:53:41Z</time>
      </trkpt>
      <trkpt lat="43.4125" lon="1.12065">
        <ele>219.32</ele>
        <time>2016-06-24T09:53:50Z</time>
      </trkpt>
      <trkpt lat="43.41245" lon="1.11963">
        <ele>220.28</ele>
        <time>2016-06-24T09:54:02Z</time>
      </trkpt>
      <trkpt lat="43.41249" lon="1.11927">
        <ele>220.28</ele>
        <time>2016-06-24T09:54:08Z</time>
      </trkpt>
      <trkpt lat="43.41237" lon="1.11855">
        <ele>220.28</ele>
        <time>2016-06-24T09:54:21Z</time>
      </trkpt>
      <trkpt lat="43.41225" lon="1.11781">
        <ele>220.76</ele>
        <time>2016-06-24T09:54:35Z</time>
      </trkpt>
      <trkpt lat="43.41225" lon="1.11778">
        <ele>221.24</ele>
        <time>2016-06-24T09:54:36Z</time>
      </trkpt>
      <trkpt lat="43.41243" lon="1.11766">
        <ele>221.24</ele>
        <time>2016-06-24T09:54:42Z</time>
      </trkpt>
      <trkpt lat="43.41281" lon="1.11764">
        <ele>221.72</ele>
        <time>2016-06-24T09:54:47Z</time>
      </trkpt>
      <trkpt lat="43.41341" lon="1.11754">
        <ele>219.8</ele>
        <time>2016-06-24T09:54:55Z</time>
      </trkpt>
      <trkpt lat="43.41356" lon="1.11755">
        <ele>218.84</ele>
        <time>2016-06-24T09:54:58Z</time>
      </trkpt>
      <trkpt lat="43.41366" lon="1.11731">
        <ele>219.8</ele>
        <time>2016-06-24T09:55:03Z</time>
      </trkpt>
      <trkpt lat="43.41369" lon="1.11594">
        <ele>218.36</ele>
        <time>2016-06-24T09:55:13Z</time>
      </trkpt>
      <trkpt lat="43.41391" lon="1.11504">
        <ele>218.84</ele>
        <time>2016-06-24T09:55:18Z</time>
      </trkpt>
      <trkpt lat="43.41433" lon="1.11446">
        <ele>220.28</ele>
        <time>2016-06-24T09:55:22Z</time>
      </trkpt>
      <trkpt lat="43.4146" lon="1.1142">
        <ele>218.36</ele>
        <time>2016-06-24T09:55:24Z</time>
      </trkpt>
      <trkpt lat="43.41504" lon="1.11318">
        <ele>214.51</ele>
        <time>2016-06-24T09:55:29Z</time>
      </trkpt>
      <trkpt lat="43.41508" lon="1.11212">
        <ele>210.67</ele>
        <time>2016-06-24T09:55:33Z</time>
      </trkpt>
      <trkpt lat="43.41512" lon="1.11161">
        <ele>206.82</ele>
        <time>2016-06-24T09:55:35Z</time>
      </trkpt>
      <trkpt lat="43.41535" lon="1.11098">
        <ele>203.46</ele>
        <time>2016-06-24T09:55:38Z</time>
      </trkpt>
      <trkpt lat="43.4155" lon="1.11085">
        <ele>202.49</ele>
        <time>2016-06-24T09:55:39Z</time>
      </trkpt>
      <trkpt lat="43.41602" lon="1.11049">
        <ele>206.82</ele>
        <time>2016-06-24T09:55:42Z</time>
      </trkpt>
      <trkpt lat="43.41651" lon="1.10994">
        <ele>210.19</ele>
        <time>2016-06-24T09:55:45Z</time>
      </trkpt>
      <trkpt lat="43.41677" lon="1.10947">
        <ele>214.03</ele>
        <time>2016-06-24T09:55:47Z</time>
      </trkpt>
      <trkpt lat="43.41698" lon="1.10896">
        <ele>216.43</ele>
        <time>2016-06-24T09:55:49Z</time>
      </trkpt>
      <trkpt lat="43.41721" lon="1.10815">
        <ele>221.24</ele>
        <time>2016-06-24T09:55:52Z</time>
      </trkpt>
      <trkpt lat="43.41735" lon="1.10758">
        <ele>225.57</ele>
        <time>2016-06-24T09:55:54Z</time>
      </trkpt>
      <trkpt lat="43.41751" lon="1.1067">
        <ele>229.89</ele>
        <time>2016-06-24T09:55:57Z</time>
      </trkpt>
      <trkpt lat="43.41764" lon="1.10581">
        <ele>232.3</ele>
        <time>2016-06-24T09:56:00Z</time>
      </trkpt>
      <trkpt lat="43.41776" lon="1.1049">
        <ele>233.74</ele>
        <time>2016-06-24T09:56:03Z</time>
      </trkpt>
      <trkpt lat="43.41806" lon="1.1028">
        <ele>234.7</ele>
        <time>2016-06-24T09:56:10Z</time>
      </trkpt>
      <trkpt lat="43.4183" lon="1.10197">
        <ele>236.14</ele>
        <time>2016-06-24T09:56:13Z</time>
      </trkpt>
      <trkpt lat="43.4194" lon="1.09887">
        <ele>232.78</ele>
        <time>2016-06-24T09:56:24Z</time>
      </trkpt>
      <trkpt lat="43.41972" lon="1.09801">
        <ele>230.37</ele>
        <time>2016-06-24T09:56:27Z</time>
      </trkpt>
      <trkpt lat="43.4201" lon="1.09681">
        <ele>235.18</ele>
        <time>2016-06-24T09:56:31Z</time>
      </trkpt>
      <trkpt lat="43.42052" lon="1.0956">
        <ele>237.1</ele>
        <time>2016-06-24T09:56:35Z</time>
      </trkpt>
      <trkpt lat="43.42092" lon="1.09411">
        <ele>242.87</ele>
        <time>2016-06-24T09:56:40Z</time>
      </trkpt>
      <trkpt lat="43.42104" lon="1.09346">
        <ele>246.23</ele>
        <time>2016-06-24T09:56:42Z</time>
      </trkpt>
      <trkpt lat="43.42115" lon="1.09282">
        <ele>249.6</ele>
        <time>2016-06-24T09:56:44Z</time>
      </trkpt>
      <trkpt lat="43.4213" lon="1.09186">
        <ele>253.44</ele>
        <time>2016-06-24T09:56:47Z</time>
      </trkpt>
      <trkpt lat="43.42134" lon="1.0912">
        <ele>256.81</ele>
        <time>2016-06-24T09:56:49Z</time>
      </trkpt>
      <trkpt lat="43.42133" lon="1.0896">
        <ele>259.21</ele>
        <time>2016-06-24T09:56:54Z</time>
      </trkpt>
      <trkpt lat="43.42134" lon="1.08899">
        <ele>261.62</ele>
        <time>2016-06-24T09:56:56Z</time>
      </trkpt>
      <trkpt lat="43.42163" lon="1.08782">
        <ele>264.5</ele>
        <time>2016-06-24T09:57:00Z</time>
      </trkpt>
      <trkpt lat="43.42174" lon="1.08756">
        <ele>264.5</ele>
        <time>2016-06-24T09:57:01Z</time>
      </trkpt>
      <trkpt lat="43.42223" lon="1.0866">
        <ele>267.38</ele>
        <time>2016-06-24T09:57:05Z</time>
      </trkpt>
      <trkpt lat="43.42249" lon="1.08617">
        <ele>269.31</ele>
        <time>2016-06-24T09:57:07Z</time>
      </trkpt>
      <trkpt lat="43.42303" lon="1.08416">
        <ele>270.27</ele>
        <time>2016-06-24T09:57:15Z</time>
      </trkpt>
      <trkpt lat="43.42325" lon="1.08201">
        <ele>274.11</ele>
        <time>2016-06-24T09:57:23Z</time>
      </trkpt>
      <trkpt lat="43.42345" lon="1.08045">
        <ele>272.67</ele>
        <time>2016-06-24T09:57:28Z</time>
      </trkpt>
      <trkpt lat="43.42353" lon="1.07919">
        <ele>274.11</ele>
        <time>2016-06-24T09:57:32Z</time>
      </trkpt>
      <trkpt lat="43.42394" lon="1.07743">
        <ele>277</ele>
        <time>2016-06-24T09:57:38Z</time>
      </trkpt>
      <trkpt lat="43.42446" lon="1.07543">
        <ele>276.52</ele>
        <time>2016-06-24T09:57:45Z</time>
      </trkpt>
      <trkpt lat="43.42484" lon="1.07434">
        <ele>275.07</ele>
        <time>2016-06-24T09:57:49Z</time>
      </trkpt>
      <trkpt lat="43.42492" lon="1.07316">
        <ele>272.19</ele>
        <time>2016-06-24T09:57:53Z</time>
      </trkpt>
      <trkpt lat="43.42489" lon="1.07257">
        <ele>268.35</ele>
        <time>2016-06-24T09:57:55Z</time>
      </trkpt>
      <trkpt lat="43.42491" lon="1.07196">
        <ele>264.5</ele>
        <time>2016-06-24T09:57:57Z</time>
      </trkpt>
      <trkpt lat="43.42531" lon="1.0709">
        <ele>259.21</ele>
        <time>2016-06-24T09:58:01Z</time>
      </trkpt>
      <trkpt lat="43.42548" lon="1.0707">
        <ele>258.25</ele>
        <time>2016-06-24T09:58:02Z</time>
      </trkpt>
      <trkpt lat="43.42623" lon="1.07007">
        <ele>252</ele>
        <time>2016-06-24T09:58:06Z</time>
      </trkpt>
      <trkpt lat="43.42678" lon="1.06958">
        <ele>248.16</ele>
        <time>2016-06-24T09:58:09Z</time>
      </trkpt>
      <trkpt lat="43.42719" lon="1.06893">
        <ele>243.35</ele>
        <time>2016-06-24T09:58:12Z</time>
      </trkpt>
      <trkpt lat="43.42727" lon="1.06865">
        <ele>241.91</ele>
        <time>2016-06-24T09:58:13Z</time>
      </trkpt>
      <trkpt lat="43.42747" lon="1.06779">
        <ele>238.06</ele>
        <time>2016-06-24T09:58:16Z</time>
      </trkpt>
      <trkpt lat="43.42795" lon="1.06684">
        <ele>232.78</ele>
        <time>2016-06-24T09:58:20Z</time>
      </trkpt>
      <trkpt lat="43.42809" lon="1.06662">
        <ele>232.78</ele>
        <time>2016-06-24T09:58:21Z</time>
      </trkpt>
      <trkpt lat="43.42864" lon="1.06574">
        <ele>229.41</ele>
        <time>2016-06-24T09:58:25Z</time>
      </trkpt>
      <trkpt lat="43.42893" lon="1.0653">
        <ele>227.97</ele>
        <time>2016-06-24T09:58:27Z</time>
      </trkpt>
      <trkpt lat="43.43041" lon="1.06311">
        <ele>231.81</ele>
        <time>2016-06-24T09:58:37Z</time>
      </trkpt>
      <trkpt lat="43.43056" lon="1.06287">
        <ele>231.81</ele>
        <time>2016-06-24T09:58:38Z</time>
      </trkpt>
      <trkpt lat="43.43147" lon="1.0615">
        <ele>233.74</ele>
        <time>2016-06-24T09:58:44Z</time>
      </trkpt>
      <trkpt lat="43.43238" lon="1.06062">
        <ele>236.62</ele>
        <time>2016-06-24T09:58:49Z</time>
      </trkpt>
      <trkpt lat="43.43319" lon="1.06029">
        <ele>238.06</ele>
        <time>2016-06-24T09:58:53Z</time>
      </trkpt>
      <trkpt lat="43.43472" lon="1.06018">
        <ele>241.43</ele>
        <time>2016-06-24T09:59:00Z</time>
      </trkpt>
      <trkpt lat="43.43535" lon="1.06005">
        <ele>243.83</ele>
        <time>2016-06-24T09:59:03Z</time>
      </trkpt>
      <trkpt lat="43.43724" lon="1.05942">
        <ele>246.72</ele>
        <time>2016-06-24T09:59:12Z</time>
      </trkpt>
      <trkpt lat="43.43854" lon="1.0592">
        <ele>250.56</ele>
        <time>2016-06-24T09:59:19Z</time>
      </trkpt>
      <trkpt lat="43.43925" lon="1.05907">
        <ele>253.93</ele>
        <time>2016-06-24T09:59:23Z</time>
      </trkpt>
      <trkpt lat="43.43944" lon="1.05903">
        <ele>254.89</ele>
        <time>2016-06-24T09:59:24Z</time>
      </trkpt>
      <trkpt lat="43.44025" lon="1.05837">
        <ele>258.25</ele>
        <time>2016-06-24T09:59:29Z</time>
      </trkpt>
      <trkpt lat="43.44077" lon="1.05732">
        <ele>260.17</ele>
        <time>2016-06-24T09:59:34Z</time>
      </trkpt>
      <trkpt lat="43.44135" lon="1.05679">
        <ele>257.29</ele>
        <time>2016-06-24T09:59:38Z</time>
      </trkpt>
      <trkpt lat="43.44181" lon="1.05626">
        <ele>255.37</ele>
        <time>2016-06-24T09:59:41Z</time>
      </trkpt>
      <trkpt lat="43.44194" lon="1.05602">
        <ele>253.93</ele>
        <time>2016-06-24T09:59:42Z</time>
      </trkpt>
      <trkpt lat="43.44233" lon="1.05499">
        <ele>253.44</ele>
        <time>2016-06-24T09:59:46Z</time>
      </trkpt>
      <trkpt lat="43.44243" lon="1.05361">
        <ele>255.37</ele>
        <time>2016-06-24T09:59:51Z</time>
      </trkpt>
      <trkpt lat="43.4423" lon="1.05249">
        <ele>261.62</ele>
        <time>2016-06-24T09:59:55Z</time>
      </trkpt>
      <trkpt lat="43.44229" lon="1.05222">
        <ele>262.1</ele>
        <time>2016-06-24T09:59:56Z</time>
      </trkpt>
      <trkpt lat="43.44234" lon="1.05146">
        <ele>266.42</ele>
        <time>2016-06-24T09:59:59Z</time>
      </trkpt>
      <trkpt lat="43.44236" lon="1.05074">
        <ele>267.38</ele>
        <time>2016-06-24T10:00:02Z</time>
      </trkpt>
      <trkpt lat="43.44249" lon="1.04955">
        <ele>265.46</ele>
        <time>2016-06-24T10:00:07Z</time>
      </trkpt>
      <trkpt lat="43.44254" lon="1.04931">
        <ele>265.94</ele>
        <time>2016-06-24T10:00:08Z</time>
      </trkpt>
      <trkpt lat="43.44277" lon="1.04867">
        <ele>262.58</ele>
        <time>2016-06-24T10:00:11Z</time>
      </trkpt>
      <trkpt lat="43.44295" lon="1.04753">
        <ele>260.17</ele>
        <time>2016-06-24T10:00:16Z</time>
      </trkpt>
      <trkpt lat="43.44274" lon="1.04654">
        <ele>255.37</ele>
        <time>2016-06-24T10:00:20Z</time>
      </trkpt>
      <trkpt lat="43.44267" lon="1.04603">
        <ele>252.48</ele>
        <time>2016-06-24T10:00:22Z</time>
      </trkpt>
      <trkpt lat="43.44285" lon="1.04484">
        <ele>247.68</ele>
        <time>2016-06-24T10:00:27Z</time>
      </trkpt>
      <trkpt lat="43.44302" lon="1.04442">
        <ele>246.23</ele>
        <time>2016-06-24T10:00:29Z</time>
      </trkpt>
      <trkpt lat="43.44312" lon="1.04423">
        <ele>245.75</ele>
        <time>2016-06-24T10:00:30Z</time>
      </trkpt>
      <trkpt lat="43.44367" lon="1.04329">
        <ele>243.83</ele>
        <time>2016-06-24T10:00:35Z</time>
      </trkpt>
      <trkpt lat="43.44397" lon="1.04265">
        <ele>240.47</ele>
        <time>2016-06-24T10:00:38Z</time>
      </trkpt>
      <trkpt lat="43.44407" lon="1.04244">
        <ele>239.02</ele>
        <time>2016-06-24T10:00:39Z</time>
      </trkpt>
      <trkpt lat="43.44488" lon="1.04162">
        <ele>235.66</ele>
        <time>2016-06-24T10:00:45Z</time>
      </trkpt>
      <trkpt lat="43.44516" lon="1.04142">
        <ele>236.14</ele>
        <time>2016-06-24T10:00:47Z</time>
      </trkpt>
      <trkpt lat="43.44572" lon="1.0406">
        <ele>239.99</ele>
        <time>2016-06-24T10:00:52Z</time>
      </trkpt>
      <trkpt lat="43.44589" lon="1.04018">
        <ele>240.47</ele>
        <time>2016-06-24T10:00:54Z</time>
      </trkpt>
      <trkpt lat="43.4462" lon="1.03929">
        <ele>243.83</ele>
        <time>2016-06-24T10:00:58Z</time>
      </trkpt>
      <trkpt lat="43.44664" lon="1.03705">
        <ele>245.75</ele>
        <time>2016-06-24T10:01:07Z</time>
      </trkpt>
      <trkpt lat="43.4469" lon="1.03538">
        <ele>246.23</ele>
        <time>2016-06-24T10:01:14Z</time>
      </trkpt>
      <trkpt lat="43.44725" lon="1.03421">
        <ele>245.27</ele>
        <time>2016-06-24T10:01:19Z</time>
      </trkpt>
      <trkpt lat="43.44724" lon="1.03299">
        <ele>248.64</ele>
        <time>2016-06-24T10:01:24Z</time>
      </trkpt>
      <trkpt lat="43.44696" lon="1.03206">
        <ele>252</ele>
        <time>2016-06-24T10:01:28Z</time>
      </trkpt>
      <trkpt lat="43.44665" lon="1.03146">
        <ele>255.37</ele>
        <time>2016-06-24T10:01:31Z</time>
      </trkpt>
      <trkpt lat="43.44652" lon="1.03079">
        <ele>257.29</ele>
        <time>2016-06-24T10:01:34Z</time>
      </trkpt>
      <trkpt lat="43.44657" lon="1.03054">
        <ele>258.25</ele>
        <time>2016-06-24T10:01:35Z</time>
      </trkpt>
      <trkpt lat="43.44694" lon="1.02902">
        <ele>253.93</ele>
        <time>2016-06-24T10:01:41Z</time>
      </trkpt>
      <trkpt lat="43.44723" lon="1.02776">
        <ele>253.93</ele>
        <time>2016-06-24T10:01:46Z</time>
      </trkpt>
      <trkpt lat="43.44725" lon="1.02699">
        <ele>253.44</ele>
        <time>2016-06-24T10:01:49Z</time>
      </trkpt>
      <trkpt lat="43.44755" lon="1.02488">
        <ele>251.52</ele>
        <time>2016-06-24T10:01:57Z</time>
      </trkpt>
      <trkpt lat="43.44789" lon="1.02298">
        <ele>247.68</ele>
        <time>2016-06-24T10:02:04Z</time>
      </trkpt>
      <trkpt lat="43.44799" lon="1.02247">
        <ele>244.31</ele>
        <time>2016-06-24T10:02:06Z</time>
      </trkpt>
      <trkpt lat="43.44808" lon="1.022">
        <ele>240.95</ele>
        <time>2016-06-24T10:02:08Z</time>
      </trkpt>
      <trkpt lat="43.44797" lon="1.02125">
        <ele>235.66</ele>
        <time>2016-06-24T10:02:12Z</time>
      </trkpt>
      <trkpt lat="43.44782" lon="1.02116">
        <ele>235.18</ele>
        <time>2016-06-24T10:02:13Z</time>
      </trkpt>
      <trkpt lat="43.44704" lon="1.02036">
        <ele>230.85</ele>
        <time>2016-06-24T10:02:19Z</time>
      </trkpt>
      <trkpt lat="43.44715" lon="1.01968">
        <ele>231.81</ele>
        <time>2016-06-24T10:02:22Z</time>
      </trkpt>
      <trkpt lat="43.44774" lon="1.01764">
        <ele>236.62</ele>
        <time>2016-06-24T10:02:31Z</time>
      </trkpt>
      <trkpt lat="43.44785" lon="1.01714">
        <ele>238.54</ele>
        <time>2016-06-24T10:02:33Z</time>
      </trkpt>
      <trkpt lat="43.448" lon="1.01531">
        <ele>235.18</ele>
        <time>2016-06-24T10:02:40Z</time>
      </trkpt>
      <trkpt lat="43.44803" lon="1.01505">
        <ele>233.74</ele>
        <time>2016-06-24T10:02:41Z</time>
      </trkpt>
      <trkpt lat="43.44835" lon="1.01409">
        <ele>231.33</ele>
        <time>2016-06-24T10:02:45Z</time>
      </trkpt>
      <trkpt lat="43.44863" lon="1.01369">
        <ele>231.33</ele>
        <time>2016-06-24T10:02:47Z</time>
      </trkpt>
      <trkpt lat="43.44935" lon="1.0131">
        <ele>234.7</ele>
        <time>2016-06-24T10:02:51Z</time>
      </trkpt>
      <trkpt lat="43.44954" lon="1.01298">
        <ele>234.7</ele>
        <time>2016-06-24T10:02:52Z</time>
      </trkpt>
      <trkpt lat="43.45013" lon="1.01263">
        <ele>234.22</ele>
        <time>2016-06-24T10:02:55Z</time>
      </trkpt>
      <trkpt lat="43.45078" lon="1.01197">
        <ele>230.85</ele>
        <time>2016-06-24T10:02:59Z</time>
      </trkpt>
      <trkpt lat="43.45094" lon="1.01181">
        <ele>229.89</ele>
        <time>2016-06-24T10:03:00Z</time>
      </trkpt>
      <trkpt lat="43.45167" lon="1.01158">
        <ele>224.61</ele>
        <time>2016-06-24T10:03:04Z</time>
      </trkpt>
      <trkpt lat="43.45248" lon="1.01126">
        <ele>219.32</ele>
        <time>2016-06-24T10:03:09Z</time>
      </trkpt>
      <trkpt lat="43.45258" lon="1.01103">
        <ele>219.32</ele>
        <time>2016-06-24T10:03:10Z</time>
      </trkpt>
      <trkpt lat="43.45288" lon="1.01031">
        <ele>214.99</ele>
        <time>2016-06-24T10:03:13Z</time>
      </trkpt>
      <trkpt lat="43.45327" lon="1.00969">
        <ele>209.7</ele>
        <time>2016-06-24T10:03:16Z</time>
      </trkpt>
      <trkpt lat="43.45364" lon="1.00948">
        <ele>206.82</ele>
        <time>2016-06-24T10:03:18Z</time>
      </trkpt>
      <trkpt lat="43.45384" lon="1.00942">
        <ele>205.38</ele>
        <time>2016-06-24T10:03:19Z</time>
      </trkpt>
      <trkpt lat="43.4544" lon="1.00936">
        <ele>202.98</ele>
        <time>2016-06-24T10:03:22Z</time>
      </trkpt>
      <trkpt lat="43.45596" lon="1.00969">
        <ele>207.78</ele>
        <time>2016-06-24T10:03:30Z</time>
      </trkpt>
      <trkpt lat="43.45653" lon="1.00954">
        <ele>211.15</ele>
        <time>2016-06-24T10:03:33Z</time>
      </trkpt>
      <trkpt lat="43.45669" lon="1.00939">
        <ele>211.15</ele>
        <time>2016-06-24T10:03:34Z</time>
      </trkpt>
      <trkpt lat="43.45727" lon="1.00872">
        <ele>215.47</ele>
        <time>2016-06-24T10:03:38Z</time>
      </trkpt>
      <trkpt lat="43.4582" lon="1.00766">
        <ele>214.03</ele>
        <time>2016-06-24T10:03:44Z</time>
      </trkpt>
      <trkpt lat="43.45844" lon="1.00722">
        <ele>213.55</ele>
        <time>2016-06-24T10:03:46Z</time>
      </trkpt>
      <trkpt lat="43.45865" lon="1.00649">
        <ele>212.11</ele>
        <time>2016-06-24T10:03:49Z</time>
      </trkpt>
      <trkpt lat="43.45921" lon="1.00417">
        <ele>208.74</ele>
        <time>2016-06-24T10:03:59Z</time>
      </trkpt>
      <trkpt lat="43.45931" lon="1.00346">
        <ele>207.3</ele>
        <time>2016-06-24T10:04:02Z</time>
      </trkpt>
      <trkpt lat="43.45937" lon="1.00301">
        <ele>207.3</ele>
        <time>2016-06-24T10:04:04Z</time>
      </trkpt>
      <trkpt lat="43.4599" lon="1.00183">
        <ele>208.74</ele>
        <time>2016-06-24T10:04:10Z</time>
      </trkpt>
      <trkpt lat="43.46041" lon="1.00086">
        <ele>212.11</ele>
        <time>2016-06-24T10:04:15Z</time>
      </trkpt>
      <trkpt lat="43.4606" lon="1.00044">
        <ele>212.59</ele>
        <time>2016-06-24T10:04:17Z</time>
      </trkpt>
      <trkpt lat="43.46138" lon="0.9985">
        <ele>207.78</ele>
        <time>2016-06-24T10:04:26Z</time>
      </trkpt>
      <trkpt lat="43.46145" lon="0.9983">
        <ele>208.74</ele>
        <time>2016-06-24T10:04:27Z</time>
      </trkpt>
      <trkpt lat="43.46184" lon="0.9972">
        <ele>205.38</ele>
        <time>2016-06-24T10:04:33Z</time>
      </trkpt>
      <trkpt lat="43.46222" lon="0.99635">
        <ele>202.01</ele>
        <time>2016-06-24T10:04:38Z</time>
      </trkpt>
      <trkpt lat="43.46297" lon="0.99452">
        <ele>201.53</ele>
        <time>2016-06-24T10:04:49Z</time>
      </trkpt>
      <trkpt lat="43.46315" lon="0.9937">
        <ele>200.09</ele>
        <time>2016-06-24T10:04:53Z</time>
      </trkpt>
      <trkpt lat="43.46344" lon="0.99292">
        <ele>195.28</ele>
        <time>2016-06-24T10:04:57Z</time>
      </trkpt>
      <trkpt lat="43.46362" lon="0.99259">
        <ele>193.84</ele>
        <time>2016-06-24T10:04:59Z</time>
      </trkpt>
      <trkpt lat="43.4638" lon="0.99176">
        <ele>191.44</ele>
        <time>2016-06-24T10:05:04Z</time>
      </trkpt>
      <trkpt lat="43.46387" lon="0.99087">
        <ele>190.48</ele>
        <time>2016-06-24T10:05:10Z</time>
      </trkpt>
      <trkpt lat="43.46401" lon="0.99034">
        <ele>186.63</ele>
        <time>2016-06-24T10:05:14Z</time>
      </trkpt>
      <trkpt lat="43.46425" lon="0.98967">
        <ele>183.27</ele>
        <time>2016-06-24T10:05:19Z</time>
      </trkpt>
      <trkpt lat="43.46435" lon="0.98928">
        <ele>181.83</ele>
        <time>2016-06-24T10:05:22Z</time>
      </trkpt>
      <trkpt lat="43.46461" lon="0.98845">
        <ele>182.31</ele>
        <time>2016-06-24T10:05:28Z</time>
      </trkpt>
      <trkpt lat="43.465" lon="0.98703">
        <ele>180.87</ele>
        <time>2016-06-24T10:05:37Z</time>
      </trkpt>
      <trkpt lat="43.46533" lon="0.98633">
        <ele>177.98</ele>
        <time>2016-06-24T10:05:42Z</time>
      </trkpt>
      <trkpt lat="43.4654" lon="0.98619">
        <ele>177.02</ele>
        <time>2016-06-24T10:05:43Z</time>
      </trkpt>
      <trkpt lat="43.46578" lon="0.98494">
        <ele>174.62</ele>
        <time>2016-06-24T10:05:50Z</time>
      </trkpt>
      <trkpt lat="43.46651" lon="0.98357">
        <ele>170.77</ele>
        <time>2016-06-24T10:05:57Z</time>
      </trkpt>
      <trkpt lat="43.46689" lon="0.98293">
        <ele>167.89</ele>
        <time>2016-06-24T10:06:00Z</time>
      </trkpt>
      <trkpt lat="43.46701" lon="0.98271">
        <ele>167.41</ele>
        <time>2016-06-24T10:06:01Z</time>
      </trkpt>
      <trkpt lat="43.46727" lon="0.98227">
        <ele>164.52</ele>
        <time>2016-06-24T10:06:03Z</time>
      </trkpt>
      <trkpt lat="43.46753" lon="0.98182">
        <ele>160.68</ele>
        <time>2016-06-24T10:06:05Z</time>
      </trkpt>
      <trkpt lat="43.46765" lon="0.9816">
        <ele>160.68</ele>
        <time>2016-06-24T10:06:06Z</time>
      </trkpt>
      <trkpt lat="43.468" lon="0.98089">
        <ele>157.31</ele>
        <time>2016-06-24T10:06:09Z</time>
      </trkpt>
      <trkpt lat="43.46822" lon="0.98041">
        <ele>153.47</ele>
        <time>2016-06-24T10:06:11Z</time>
      </trkpt>
      <trkpt lat="43.46843" lon="0.97995">
        <ele>150.1</ele>
        <time>2016-06-24T10:06:13Z</time>
      </trkpt>
      <trkpt lat="43.46873" lon="0.97924">
        <ele>146.74</ele>
        <time>2016-06-24T10:06:16Z</time>
      </trkpt>
      <trkpt lat="43.4689" lon="0.97846">
        <ele>142.41</ele>
        <time>2016-06-24T10:06:19Z</time>
      </trkpt>
      <trkpt lat="43.46889" lon="0.97795">
        <ele>138.09</ele>
        <time>2016-06-24T10:06:21Z</time>
      </trkpt>
      <trkpt lat="43.46882" lon="0.97773">
        <ele>134.72</ele>
        <time>2016-06-24T10:06:22Z</time>
      </trkpt>
      <trkpt lat="43.46871" lon="0.97754">
        <ele>134.24</ele>
        <time>2016-06-24T10:06:23Z</time>
      </trkpt>
      <trkpt lat="43.46857" lon="0.97741">
        <ele>132.8</ele>
        <time>2016-06-24T10:06:24Z</time>
      </trkpt>
      <trkpt lat="43.46813" lon="0.97676">
        <ele>125.11</ele>
        <time>2016-06-24T10:06:28Z</time>
      </trkpt>
      <trkpt lat="43.46812" lon="0.97653">
        <ele>126.55</ele>
        <time>2016-06-24T10:06:29Z</time>
      </trkpt>
      <trkpt lat="43.46814" lon="0.97629">
        <ele>127.03</ele>
        <time>2016-06-24T10:06:30Z</time>
      </trkpt>
      <trkpt lat="43.46823" lon="0.97553">
        <ele>127.51</ele>
        <time>2016-06-24T10:06:33Z</time>
      </trkpt>
      <trkpt lat="43.46886" lon="0.97385">
        <ele>129.92</ele>
        <time>2016-06-24T10:06:40Z</time>
      </trkpt>
      <trkpt lat="43.46896" lon="0.97363">
        <ele>129.92</ele>
        <time>2016-06-24T10:06:41Z</time>
      </trkpt>
      <trkpt lat="43.46918" lon="0.97318">
        <ele>133.76</ele>
        <time>2016-06-24T10:06:43Z</time>
      </trkpt>
      <trkpt lat="43.46953" lon="0.97255">
        <ele>137.13</ele>
        <time>2016-06-24T10:06:46Z</time>
      </trkpt>
      <trkpt lat="43.46986" lon="0.97191">
        <ele>141.45</ele>
        <time>2016-06-24T10:06:49Z</time>
      </trkpt>
      <trkpt lat="43.46996" lon="0.97169">
        <ele>142.89</ele>
        <time>2016-06-24T10:06:50Z</time>
      </trkpt>
      <trkpt lat="43.47025" lon="0.97063">
        <ele>148.66</ele>
        <time>2016-06-24T10:06:54Z</time>
      </trkpt>
      <trkpt lat="43.47037" lon="0.97006">
        <ele>151.54</ele>
        <time>2016-06-24T10:06:56Z</time>
      </trkpt>
      <trkpt lat="43.47036" lon="0.96886">
        <ele>159.24</ele>
        <time>2016-06-24T10:07:00Z</time>
      </trkpt>
      <trkpt lat="43.47032" lon="0.96828">
        <ele>162.12</ele>
        <time>2016-06-24T10:07:02Z</time>
      </trkpt>
      <trkpt lat="43.47031" lon="0.96799">
        <ele>163.56</ele>
        <time>2016-06-24T10:07:03Z</time>
      </trkpt>
      <trkpt lat="43.47034" lon="0.96745">
        <ele>165.96</ele>
        <time>2016-06-24T10:07:05Z</time>
      </trkpt>
      <trkpt lat="43.47051" lon="0.96695">
        <ele>167.89</ele>
        <time>2016-06-24T10:07:07Z</time>
      </trkpt>
      <trkpt lat="43.47147" lon="0.96488">
        <ele>165</ele>
        <time>2016-06-24T10:07:16Z</time>
      </trkpt>
      <trkpt lat="43.47189" lon="0.96443">
        <ele>160.2</ele>
        <time>2016-06-24T10:07:19Z</time>
      </trkpt>
      <trkpt lat="43.47206" lon="0.96437">
        <ele>159.24</ele>
        <time>2016-06-24T10:07:20Z</time>
      </trkpt>
      <trkpt lat="43.47242" lon="0.96392">
        <ele>153.95</ele>
        <time>2016-06-24T10:07:23Z</time>
      </trkpt>
      <trkpt lat="43.47248" lon="0.96367">
        <ele>153.95</ele>
        <time>2016-06-24T10:07:24Z</time>
      </trkpt>
      <trkpt lat="43.47269" lon="0.9623">
        <ele>150.1</ele>
        <time>2016-06-24T10:07:29Z</time>
      </trkpt>
      <trkpt lat="43.47278" lon="0.96175">
        <ele>146.74</ele>
        <time>2016-06-24T10:07:31Z</time>
      </trkpt>
      <trkpt lat="43.47285" lon="0.96119">
        <ele>143.37</ele>
        <time>2016-06-24T10:07:33Z</time>
      </trkpt>
      <trkpt lat="43.47288" lon="0.96031">
        <ele>140.49</ele>
        <time>2016-06-24T10:07:36Z</time>
      </trkpt>
      <trkpt lat="43.47289" lon="0.96001">
        <ele>137.61</ele>
        <time>2016-06-24T10:07:37Z</time>
      </trkpt>
      <trkpt lat="43.47308" lon="0.95919">
        <ele>132.8</ele>
        <time>2016-06-24T10:07:40Z</time>
      </trkpt>
      <trkpt lat="43.47328" lon="0.95867">
        <ele>130.88</ele>
        <time>2016-06-24T10:07:42Z</time>
      </trkpt>
      <trkpt lat="43.47348" lon="0.95814">
        <ele>127.03</ele>
        <time>2016-06-24T10:07:44Z</time>
      </trkpt>
      <trkpt lat="43.47386" lon="0.95707">
        <ele>122.71</ele>
        <time>2016-06-24T10:07:48Z</time>
      </trkpt>
      <trkpt lat="43.47428" lon="0.9554">
        <ele>123.67</ele>
        <time>2016-06-24T10:07:54Z</time>
      </trkpt>
      <trkpt lat="43.47509" lon="0.95363">
        <ele>120.78</ele>
        <time>2016-06-24T10:08:01Z</time>
      </trkpt>
      <trkpt lat="43.47521" lon="0.95339">
        <ele>121.26</ele>
        <time>2016-06-24T10:08:02Z</time>
      </trkpt>
      <trkpt lat="43.47587" lon="0.95201">
        <ele>124.15</ele>
        <time>2016-06-24T10:08:08Z</time>
      </trkpt>
      <trkpt lat="43.47602" lon="0.95155">
        <ele>122.22</ele>
        <time>2016-06-24T10:08:10Z</time>
      </trkpt>
      <trkpt lat="43.47629" lon="0.9501">
        <ele>125.11</ele>
        <time>2016-06-24T10:08:16Z</time>
      </trkpt>
      <trkpt lat="43.47662" lon="0.94821">
        <ele>128.95</ele>
        <time>2016-06-24T10:08:24Z</time>
      </trkpt>
      <trkpt lat="43.47682" lon="0.94729">
        <ele>132.8</ele>
        <time>2016-06-24T10:08:28Z</time>
      </trkpt>
      <trkpt lat="43.47698" lon="0.94654">
        <ele>136.64</ele>
        <time>2016-06-24T10:08:31Z</time>
      </trkpt>
      <trkpt lat="43.47712" lon="0.94575">
        <ele>139.53</ele>
        <time>2016-06-24T10:08:34Z</time>
      </trkpt>
      <trkpt lat="43.4772" lon="0.94522">
        <ele>142.89</ele>
        <time>2016-06-24T10:08:36Z</time>
      </trkpt>
      <trkpt lat="43.47732" lon="0.94416">
        <ele>146.74</ele>
        <time>2016-06-24T10:08:40Z</time>
      </trkpt>
      <trkpt lat="43.47742" lon="0.94338">
        <ele>150.58</ele>
        <time>2016-06-24T10:08:43Z</time>
      </trkpt>
      <trkpt lat="43.47746" lon="0.94312">
        <ele>152.03</ele>
        <time>2016-06-24T10:08:44Z</time>
      </trkpt>
      <trkpt lat="43.4776" lon="0.94263">
        <ele>153.95</ele>
        <time>2016-06-24T10:08:46Z</time>
      </trkpt>
      <trkpt lat="43.47789" lon="0.94195">
        <ele>150.1</ele>
        <time>2016-06-24T10:08:49Z</time>
      </trkpt>
      <trkpt lat="43.47838" lon="0.94083">
        <ele>148.18</ele>
        <time>2016-06-24T10:08:54Z</time>
      </trkpt>
      <trkpt lat="43.47859" lon="0.94038">
        <ele>147.22</ele>
        <time>2016-06-24T10:08:56Z</time>
      </trkpt>
      <trkpt lat="43.47901" lon="0.93983">
        <ele>144.34</ele>
        <time>2016-06-24T10:08:59Z</time>
      </trkpt>
      <trkpt lat="43.47966" lon="0.9392">
        <ele>141.93</ele>
        <time>2016-06-24T10:09:03Z</time>
      </trkpt>
      <trkpt lat="43.48057" lon="0.93814">
        <ele>138.57</ele>
        <time>2016-06-24T10:09:09Z</time>
      </trkpt>
      <trkpt lat="43.48107" lon="0.93772">
        <ele>135.2</ele>
        <time>2016-06-24T10:09:12Z</time>
      </trkpt>
      <trkpt lat="43.4816" lon="0.9374">
        <ele>131.36</ele>
        <time>2016-06-24T10:09:15Z</time>
      </trkpt>
      <trkpt lat="43.48197" lon="0.9372">
        <ele>129.43</ele>
        <time>2016-06-24T10:09:17Z</time>
      </trkpt>
      <trkpt lat="43.48253" lon="0.93689">
        <ele>126.07</ele>
        <time>2016-06-24T10:09:20Z</time>
      </trkpt>
      <trkpt lat="43.4829" lon="0.93671">
        <ele>122.22</ele>
        <time>2016-06-24T10:09:22Z</time>
      </trkpt>
      <trkpt lat="43.48345" lon="0.93643">
        <ele>118.38</ele>
        <time>2016-06-24T10:09:25Z</time>
      </trkpt>
      <trkpt lat="43.48416" lon="0.93606">
        <ele>116.46</ele>
        <time>2016-06-24T10:09:29Z</time>
      </trkpt>
      <trkpt lat="43.48575" lon="0.93519">
        <ele>112.13</ele>
        <time>2016-06-24T10:09:39Z</time>
      </trkpt>
      <trkpt lat="43.48652" lon="0.93474">
        <ele>109.25</ele>
        <time>2016-06-24T10:09:46Z</time>
      </trkpt>
      <trkpt lat="43.48658" lon="0.93469">
        <ele>109.25</ele>
        <time>2016-06-24T10:09:47Z</time>
      </trkpt>
      <trkpt lat="43.48675" lon="0.93461">
        <ele>109.25</ele>
        <time>2016-06-24T10:09:50Z</time>
      </trkpt>
      <trkpt lat="43.48711" lon="0.9345">
        <ele>109.25</ele>
        <time>2016-06-24T10:09:55Z</time>
      </trkpt>
      <trkpt lat="43.48718" lon="0.93448">
        <ele>109.73</ele>
        <time>2016-06-24T10:09:56Z</time>
      </trkpt>
      <trkpt lat="43.48725" lon="0.93448">
        <ele>109.25</ele>
        <time>2016-06-24T10:09:57Z</time>
      </trkpt>
      <trkpt lat="43.48731" lon="0.93449">
        <ele>110.21</ele>
        <time>2016-06-24T10:09:58Z</time>
      </trkpt>
      <trkpt lat="43.48738" lon="0.9345">
        <ele>108.29</ele>
        <time>2016-06-24T10:09:59Z</time>
      </trkpt>
      <trkpt lat="43.4877" lon="0.93427">
        <ele>110.69</ele>
        <time>2016-06-24T10:10:04Z</time>
      </trkpt>
      <trkpt lat="43.48786" lon="0.9342">
        <ele>110.21</ele>
        <time>2016-06-24T10:10:06Z</time>
      </trkpt>
      <trkpt lat="43.48794" lon="0.93418">
        <ele>110.21</ele>
        <time>2016-06-24T10:10:07Z</time>
      </trkpt>
      <trkpt lat="43.4892" lon="0.93367">
        <ele>111.65</ele>
        <time>2016-06-24T10:10:22Z</time>
      </trkpt>
      <trkpt lat="43.48948" lon="0.93345">
        <ele>110.21</ele>
        <time>2016-06-24T10:10:29Z</time>
      </trkpt>
      <trkpt lat="43.48948" lon="0.93344">
        <ele>109.73</ele>
        <time>2016-06-24T10:10:37Z</time>
      </trkpt>
      <trkpt lat="43.48966" lon="0.93325">
        <ele>109.25</ele>
        <time>2016-06-24T10:11:04Z</time>
      </trkpt>
      <trkpt lat="43.48966" lon="0.93279">
        <ele>109.25</ele>
        <time>2016-06-24T10:11:10Z</time>
      </trkpt>
      <trkpt lat="43.48962" lon="0.93246">
        <ele>110.69</ele>
        <time>2016-06-24T10:11:13Z</time>
      </trkpt>
      <trkpt lat="43.48974" lon="0.93206">
        <ele>110.21</ele>
        <time>2016-06-24T10:11:18Z</time>
      </trkpt>
      <trkpt lat="43.48999" lon="0.93172">
        <ele>111.65</ele>
        <time>2016-06-24T10:11:25Z</time>
      </trkpt>
      <trkpt lat="43.48998" lon="0.93151">
        <ele>108.77</ele>
        <time>2016-06-24T10:11:31Z</time>
      </trkpt>
      <trkpt lat="43.48998" lon="0.93151">
        <ele>108.77</ele>
        <time>2016-06-24T10:11:48Z</time>
      </trkpt>
      <trkpt lat="43.48998" lon="0.9315">
        <ele>108.77</ele>
        <time>2016-06-24T10:12:14Z</time>
      </trkpt>
      <trkpt lat="43.48998" lon="0.9315">
        <ele>108.29</ele>
        <time>2016-06-24T10:13:08Z</time>
      </trkpt>
      <trkpt lat="43.48998" lon="0.9315">
        <ele>109.73</ele>
        <time>2016-06-24T10:13:24Z</time>
      </trkpt>
      <trkpt lat="43.48997" lon="0.93151">
        <ele>110.69</ele>
        <time>2016-06-24T10:15:28Z</time>
      </trkpt>
      <trkpt lat="43.48997" lon="0.9315">
        <ele>108.77</ele>
        <time>2016-06-24T10:17:54Z</time>
      </trkpt>
      <trkpt lat="43.48998" lon="0.9315">
        <ele>109.25</ele>
        <time>2016-06-24T10:24:01Z</time>
      </trkpt>
      <trkpt lat="43.48998" lon="0.9315">
        <ele>108.77</ele>
        <time>2016-06-24T10:24:09Z</time>
      </trkpt>
      <trkpt lat="43.48998" lon="0.9315">
        <ele>110.21</ele>
        <time>2016-06-24T10:24:12Z</time>
      </trkpt>
      <trkpt lat="43.48998" lon="0.9315">
        <ele>109.25</ele>
        <time>2016-06-24T10:27:28Z</time>
      </trkpt>
      <trkpt lat="43.48997" lon="0.93148">
        <ele>109.73</ele>
        <time>2016-06-24T10:31:27Z</time>
      </trkpt>
      <trkpt lat="43.48996" lon="0.93149">
        <ele>110.21</ele>
        <time>2016-06-24T10:32:50Z</time>
      </trkpt>
      <trkpt lat="43.48996" lon="0.93149">
        <ele>111.17</ele>
        <time>2016-06-24T10:33:11Z</time>
      </trkpt>
      <trkpt lat="43.48996" lon="0.93149">
        <ele>111.17</ele>
        <time>2016-06-24T10:35:52Z</time>
      </trkpt>
      <trkpt lat="43.48997" lon="0.93149">
        <ele>111.65</ele>
        <time>2016-06-24T10:37:52Z</time>
      </trkpt>
      <trkpt lat="43.48997" lon="0.93149">
        <ele>109.73</ele>
        <time>2016-06-24T10:37:54Z</time>
      </trkpt>
      <trkpt lat="43.48997" lon="0.93148">
        <ele>111.65</ele>
        <time>2016-06-24T10:38:32Z</time>
      </trkpt>
      <trkpt lat="43.48996" lon="0.93149">
        <ele>110.69</ele>
        <time>2016-06-24T10:40:43Z</time>
      </trkpt>
      <trkpt lat="43.48996" lon="0.9315">
        <ele>109.73</ele>
        <time>2016-06-24T10:43:17Z</time>
      </trkpt>
      <trkpt lat="43.48996" lon="0.93151">
        <ele>113.09</ele>
        <time>2016-06-24T10:45:02Z</time>
      </trkpt>
      <trkpt lat="43.48996" lon="0.93151">
        <ele>109.73</ele>
        <time>2016-06-24T10:45:11Z</time>
      </trkpt>
      <trkpt lat="43.48996" lon="0.93151">
        <ele>111.65</ele>
        <time>2016-06-24T10:45:14Z</time>
      </trkpt>
      <trkpt lat="43.48996" lon="0.93151">
        <ele>110.69</ele>
        <time>2016-06-24T10:46:16Z</time>
      </trkpt>
      <trkpt lat="43.48996" lon="0.93152">
        <ele>110.69</ele>
        <time>2016-06-24T10:46:59Z</time>
      </trkpt>
      <trkpt lat="43.48995" lon="0.93153">
        <ele>112.13</ele>
        <time>2016-06-24T10:48:50Z</time>
      </trkpt>
      <trkpt lat="43.48995" lon="0.93154">
        <ele>110.69</ele>
        <time>2016-06-24T10:50:53Z</time>
      </trkpt>
      <trkpt lat="43.48995" lon="0.93154">
        <ele>112.13</ele>
        <time>2016-06-24T10:53:25Z</time>
      </trkpt>
      <trkpt lat="43.48996" lon="0.93155">
        <ele>112.13</ele>
        <time>2016-06-24T10:55:27Z</time>
      </trkpt>
      <trkpt lat="43.48995" lon="0.93154">
        <ele>113.09</ele>
        <time>2016-06-24T10:57:29Z</time>
      </trkpt>
      <trkpt lat="43.48995" lon="0.93154">
        <ele>111.65</ele>
        <time>2016-06-24T10:57:36Z</time>
      </trkpt>
      <trkpt lat="43.48996" lon="0.93154">
        <ele>111.65</ele>
        <time>2016-06-24T10:58:35Z</time>
      </trkpt>
      <trkpt lat="43.48996" lon="0.93154">
        <ele>112.61</ele>
        <time>2016-06-24T11:00:58Z</time>
      </trkpt>
      <trkpt lat="43.48996" lon="0.93154">
        <ele>111.17</ele>
        <time>2016-06-24T11:01:13Z</time>
      </trkpt>
      <trkpt lat="43.48996" lon="0.93154">
        <ele>112.13</ele>
        <time>2016-06-24T11:01:15Z</time>
      </trkpt>
      <trkpt lat="43.48996" lon="0.93153">
        <ele>112.13</ele>
        <time>2016-06-24T11:04:16Z</time>
      </trkpt>
      <trkpt lat="43.48996" lon="0.93152">
        <ele>112.61</ele>
        <time>2016-06-24T11:05:15Z</time>
      </trkpt>
      <trkpt lat="43.48995" lon="0.93151">
        <ele>112.13</ele>
        <time>2016-06-24T11:06:09Z</time>
      </trkpt>
      <trkpt lat="43.48995" lon="0.93151">
        <ele>112.61</ele>
        <time>2016-06-24T11:06:39Z</time>
      </trkpt>
      <trkpt lat="43.48995" lon="0.93151">
        <ele>114.05</ele>
        <time>2016-06-24T11:06:56Z</time>
      </trkpt>
      <trkpt lat="43.48996" lon="0.93151">
        <ele>112.13</ele>
        <time>2016-06-24T11:08:05Z</time>
      </trkpt>
      <trkpt lat="43.48996" lon="0.9315">
        <ele>114.05</ele>
        <time>2016-06-24T11:10:21Z</time>
      </trkpt>
      <trkpt lat="43.48996" lon="0.9315">
        <ele>112.61</ele>
        <time>2016-06-24T11:10:23Z</time>
      </trkpt>
      <trkpt lat="43.48995" lon="0.93151">
        <ele>112.13</ele>
        <time>2016-06-24T11:11:13Z</time>
      </trkpt>
      <trkpt lat="43.48995" lon="0.93151">
        <ele>112.13</ele>
        <time>2016-06-24T11:11:57Z</time>
      </trkpt>
      <trkpt lat="43.48995" lon="0.93152">
        <ele>114.05</ele>
        <time>2016-06-24T11:12:08Z</time>
      </trkpt>
      <trkpt lat="43.48995" lon="0.93152">
        <ele>112.61</ele>
        <time>2016-06-24T11:12:14Z</time>
      </trkpt>
      <trkpt lat="43.48995" lon="0.93151">
        <ele>115.98</ele>
        <time>2016-06-24T11:12:57Z</time>
      </trkpt>
      <trkpt lat="43.48995" lon="0.93151">
        <ele>112.61</ele>
        <time>2016-06-24T11:13:07Z</time>
      </trkpt>
      <trkpt lat="43.48996" lon="0.93151">
        <ele>113.57</ele>
        <time>2016-06-24T11:13:16Z</time>
      </trkpt>
      <trkpt lat="43.49007" lon="0.93151">
        <ele>114.05</ele>
        <time>2016-06-24T11:13:26Z</time>
      </trkpt>
      <trkpt lat="43.49008" lon="0.93151">
        <ele>115.01</ele>
        <time>2016-06-24T11:14:28Z</time>
      </trkpt>
      <trkpt lat="43.49008" lon="0.93151">
        <ele>114.05</ele>
        <time>2016-06-24T11:14:29Z</time>
      </trkpt>
      <trkpt lat="43.49019" lon="0.93147">
        <ele>114.05</ele>
        <time>2016-06-24T11:14:33Z</time>
      </trkpt>
      <trkpt lat="43.49081" lon="0.93067">
        <ele>115.5</ele>
        <time>2016-06-24T11:14:47Z</time>
      </trkpt>
      <trkpt lat="43.49165" lon="0.92953">
        <ele>115.98</ele>
        <time>2016-06-24T11:15:03Z</time>
      </trkpt>
      <trkpt lat="43.49176" lon="0.92934">
        <ele>117.9</ele>
        <time>2016-06-24T11:15:05Z</time>
      </trkpt>
      <trkpt lat="43.49191" lon="0.92887">
        <ele>118.86</ele>
        <time>2016-06-24T11:15:09Z</time>
      </trkpt>
      <trkpt lat="43.49201" lon="0.92764">
        <ele>124.15</ele>
        <time>2016-06-24T11:15:17Z</time>
      </trkpt>
      <trkpt lat="43.49202" lon="0.92747">
        <ele>124.63</ele>
        <time>2016-06-24T11:15:18Z</time>
      </trkpt>
      <trkpt lat="43.49216" lon="0.92695">
        <ele>126.55</ele>
        <time>2016-06-24T11:15:21Z</time>
      </trkpt>
      <trkpt lat="43.49249" lon="0.92656">
        <ele>130.4</ele>
        <time>2016-06-24T11:15:24Z</time>
      </trkpt>
      <trkpt lat="43.49263" lon="0.92647">
        <ele>131.84</ele>
        <time>2016-06-24T11:15:25Z</time>
      </trkpt>
      <trkpt lat="43.49318" lon="0.92612">
        <ele>135.2</ele>
        <time>2016-06-24T11:15:29Z</time>
      </trkpt>
      <trkpt lat="43.49355" lon="0.92571">
        <ele>140.49</ele>
        <time>2016-06-24T11:15:32Z</time>
      </trkpt>
      <trkpt lat="43.49384" lon="0.92511">
        <ele>143.85</ele>
        <time>2016-06-24T11:15:35Z</time>
      </trkpt>
      <trkpt lat="43.494" lon="0.92466">
        <ele>145.3</ele>
        <time>2016-06-24T11:15:37Z</time>
      </trkpt>
      <trkpt lat="43.49417" lon="0.92421">
        <ele>149.14</ele>
        <time>2016-06-24T11:15:39Z</time>
      </trkpt>
      <trkpt lat="43.49426" lon="0.92397">
        <ele>148.66</ele>
        <time>2016-06-24T11:15:40Z</time>
      </trkpt>
      <trkpt lat="43.49443" lon="0.92349">
        <ele>152.51</ele>
        <time>2016-06-24T11:15:42Z</time>
      </trkpt>
      <trkpt lat="43.49478" lon="0.92254">
        <ele>156.35</ele>
        <time>2016-06-24T11:15:46Z</time>
      </trkpt>
      <trkpt lat="43.49487" lon="0.9223">
        <ele>155.39</ele>
        <time>2016-06-24T11:15:47Z</time>
      </trkpt>
      <trkpt lat="43.49532" lon="0.9211">
        <ele>159.72</ele>
        <time>2016-06-24T11:15:52Z</time>
      </trkpt>
      <trkpt lat="43.4956" lon="0.9204">
        <ele>162.6</ele>
        <time>2016-06-24T11:15:55Z</time>
      </trkpt>
      <trkpt lat="43.49622" lon="0.91932">
        <ele>166.45</ele>
        <time>2016-06-24T11:16:00Z</time>
      </trkpt>
      <trkpt lat="43.49635" lon="0.9191">
        <ele>165.96</ele>
        <time>2016-06-24T11:16:01Z</time>
      </trkpt>
      <trkpt lat="43.49672" lon="0.91846">
        <ele>168.37</ele>
        <time>2016-06-24T11:16:04Z</time>
      </trkpt>
      <trkpt lat="43.49723" lon="0.91732">
        <ele>171.25</ele>
        <time>2016-06-24T11:16:09Z</time>
      </trkpt>
      <trkpt lat="43.49747" lon="0.91657">
        <ele>175.58</ele>
        <time>2016-06-24T11:16:12Z</time>
      </trkpt>
      <trkpt lat="43.49764" lon="0.91608">
        <ele>177.5</ele>
        <time>2016-06-24T11:16:14Z</time>
      </trkpt>
      <trkpt lat="43.49786" lon="0.91565">
        <ele>178.46</ele>
        <time>2016-06-24T11:16:16Z</time>
      </trkpt>
      <trkpt lat="43.49831" lon="0.9151">
        <ele>181.35</ele>
        <time>2016-06-24T11:16:19Z</time>
      </trkpt>
      <trkpt lat="43.49868" lon="0.91444">
        <ele>188.56</ele>
        <time>2016-06-24T11:16:22Z</time>
      </trkpt>
      <trkpt lat="43.49876" lon="0.91418">
        <ele>188.08</ele>
        <time>2016-06-24T11:16:23Z</time>
      </trkpt>
      <trkpt lat="43.49881" lon="0.91392">
        <ele>188.08</ele>
        <time>2016-06-24T11:16:24Z</time>
      </trkpt>
      <trkpt lat="43.49892" lon="0.91313">
        <ele>190.96</ele>
        <time>2016-06-24T11:16:27Z</time>
      </trkpt>
      <trkpt lat="43.49953" lon="0.9118">
        <ele>191.44</ele>
        <time>2016-06-24T11:16:33Z</time>
      </trkpt>
      <trkpt lat="43.50012" lon="0.91071">
        <ele>188.08</ele>
        <time>2016-06-24T11:16:38Z</time>
      </trkpt>
      <trkpt lat="43.50041" lon="0.90998">
        <ele>184.71</ele>
        <time>2016-06-24T11:16:41Z</time>
      </trkpt>
      <trkpt lat="43.50068" lon="0.90922">
        <ele>181.83</ele>
        <time>2016-06-24T11:16:44Z</time>
      </trkpt>
      <trkpt lat="43.50097" lon="0.90845">
        <ele>177.98</ele>
        <time>2016-06-24T11:16:47Z</time>
      </trkpt>
      <trkpt lat="43.50129" lon="0.90769">
        <ele>174.62</ele>
        <time>2016-06-24T11:16:50Z</time>
      </trkpt>
      <trkpt lat="43.50139" lon="0.90743">
        <ele>174.14</ele>
        <time>2016-06-24T11:16:51Z</time>
      </trkpt>
      <trkpt lat="43.50193" lon="0.90612">
        <ele>172.69</ele>
        <time>2016-06-24T11:16:56Z</time>
      </trkpt>
      <trkpt lat="43.50251" lon="0.90482">
        <ele>169.33</ele>
        <time>2016-06-24T11:17:01Z</time>
      </trkpt>
      <trkpt lat="43.50264" lon="0.90457">
        <ele>169.81</ele>
        <time>2016-06-24T11:17:02Z</time>
      </trkpt>
      <trkpt lat="43.50327" lon="0.90328">
        <ele>166.93</ele>
        <time>2016-06-24T11:17:07Z</time>
      </trkpt>
      <trkpt lat="43.50351" lon="0.90276">
        <ele>162.12</ele>
        <time>2016-06-24T11:17:09Z</time>
      </trkpt>
      <trkpt lat="43.50363" lon="0.9025">
        <ele>162.6</ele>
        <time>2016-06-24T11:17:10Z</time>
      </trkpt>
      <trkpt lat="43.50387" lon="0.90198">
        <ele>159.72</ele>
        <time>2016-06-24T11:17:12Z</time>
      </trkpt>
      <trkpt lat="43.50436" lon="0.90134">
        <ele>154.43</ele>
        <time>2016-06-24T11:17:15Z</time>
      </trkpt>
      <trkpt lat="43.50455" lon="0.90119">
        <ele>153.95</ele>
        <time>2016-06-24T11:17:16Z</time>
      </trkpt>
      <trkpt lat="43.50473" lon="0.90102">
        <ele>154.43</ele>
        <time>2016-06-24T11:17:17Z</time>
      </trkpt>
      <trkpt lat="43.50535" lon="0.90018">
        <ele>152.99</ele>
        <time>2016-06-24T11:17:21Z</time>
      </trkpt>
      <trkpt lat="43.50576" lon="0.89911">
        <ele>152.03</ele>
        <time>2016-06-24T11:17:25Z</time>
      </trkpt>
      <trkpt lat="43.5059" lon="0.89822">
        <ele>151.54</ele>
        <time>2016-06-24T11:17:28Z</time>
      </trkpt>
      <trkpt lat="43.50604" lon="0.89765">
        <ele>151.06</ele>
        <time>2016-06-24T11:17:30Z</time>
      </trkpt>
      <trkpt lat="43.50643" lon="0.8969">
        <ele>147.22</ele>
        <time>2016-06-24T11:17:33Z</time>
      </trkpt>
      <trkpt lat="43.50658" lon="0.89668">
        <ele>148.18</ele>
        <time>2016-06-24T11:17:34Z</time>
      </trkpt>
      <trkpt lat="43.50696" lon="0.89629">
        <ele>143.37</ele>
        <time>2016-06-24T11:17:36Z</time>
      </trkpt>
      <trkpt lat="43.50737" lon="0.89594">
        <ele>140.49</ele>
        <time>2016-06-24T11:17:38Z</time>
      </trkpt>
      <trkpt lat="43.50789" lon="0.89527">
        <ele>138.09</ele>
        <time>2016-06-24T11:17:41Z</time>
      </trkpt>
      <trkpt lat="43.50902" lon="0.89338">
        <ele>140.97</ele>
        <time>2016-06-24T11:17:49Z</time>
      </trkpt>
      <trkpt lat="43.50942" lon="0.89266">
        <ele>146.26</ele>
        <time>2016-06-24T11:17:52Z</time>
      </trkpt>
      <trkpt lat="43.5097" lon="0.89217">
        <ele>149.62</ele>
        <time>2016-06-24T11:17:54Z</time>
      </trkpt>
      <trkpt lat="43.51013" lon="0.89142">
        <ele>152.99</ele>
        <time>2016-06-24T11:17:57Z</time>
      </trkpt>
      <trkpt lat="43.51028" lon="0.89117">
        <ele>153.47</ele>
        <time>2016-06-24T11:17:58Z</time>
      </trkpt>
      <trkpt lat="43.5108" lon="0.8906">
        <ele>157.31</ele>
        <time>2016-06-24T11:18:01Z</time>
      </trkpt>
      <trkpt lat="43.5112" lon="0.89033">
        <ele>160.68</ele>
        <time>2016-06-24T11:18:03Z</time>
      </trkpt>
      <trkpt lat="43.51199" lon="0.88979">
        <ele>164.52</ele>
        <time>2016-06-24T11:18:07Z</time>
      </trkpt>
      <trkpt lat="43.51267" lon="0.88905">
        <ele>168.85</ele>
        <time>2016-06-24T11:18:11Z</time>
      </trkpt>
      <trkpt lat="43.51311" lon="0.88838">
        <ele>170.77</ele>
        <time>2016-06-24T11:18:14Z</time>
      </trkpt>
      <trkpt lat="43.51386" lon="0.88727">
        <ele>174.14</ele>
        <time>2016-06-24T11:18:19Z</time>
      </trkpt>
      <trkpt lat="43.5158" lon="0.88447">
        <ele>175.1</ele>
        <time>2016-06-24T11:18:32Z</time>
      </trkpt>
      <trkpt lat="43.51595" lon="0.88427">
        <ele>175.58</ele>
        <time>2016-06-24T11:18:33Z</time>
      </trkpt>
      <trkpt lat="43.51638" lon="0.88368">
        <ele>176.06</ele>
        <time>2016-06-24T11:18:36Z</time>
      </trkpt>
      <trkpt lat="43.51663" lon="0.88324">
        <ele>177.98</ele>
        <time>2016-06-24T11:18:38Z</time>
      </trkpt>
      <trkpt lat="43.51694" lon="0.88253">
        <ele>181.35</ele>
        <time>2016-06-24T11:18:41Z</time>
      </trkpt>
      <trkpt lat="43.51704" lon="0.8823">
        <ele>180.38</ele>
        <time>2016-06-24T11:18:42Z</time>
      </trkpt>
      <trkpt lat="43.51805" lon="0.87968">
        <ele>183.27</ele>
        <time>2016-06-24T11:18:53Z</time>
      </trkpt>
      <trkpt lat="43.51889" lon="0.878">
        <ele>185.67</ele>
        <time>2016-06-24T11:19:00Z</time>
      </trkpt>
      <trkpt lat="43.51928" lon="0.87727">
        <ele>187.59</ele>
        <time>2016-06-24T11:19:03Z</time>
      </trkpt>
      <trkpt lat="43.51954" lon="0.87676">
        <ele>189.04</ele>
        <time>2016-06-24T11:19:05Z</time>
      </trkpt>
      <trkpt lat="43.51991" lon="0.87564">
        <ele>193.36</ele>
        <time>2016-06-24T11:19:09Z</time>
      </trkpt>
      <trkpt lat="43.52084" lon="0.8731">
        <ele>191.44</ele>
        <time>2016-06-24T11:19:18Z</time>
      </trkpt>
      <trkpt lat="43.52116" lon="0.87222">
        <ele>187.59</ele>
        <time>2016-06-24T11:19:21Z</time>
      </trkpt>
      <trkpt lat="43.52138" lon="0.87163">
        <ele>183.75</ele>
        <time>2016-06-24T11:19:23Z</time>
      </trkpt>
      <trkpt lat="43.52171" lon="0.87074">
        <ele>179.9</ele>
        <time>2016-06-24T11:19:26Z</time>
      </trkpt>
      <trkpt lat="43.52193" lon="0.87014">
        <ele>176.54</ele>
        <time>2016-06-24T11:19:28Z</time>
      </trkpt>
      <trkpt lat="43.52204" lon="0.86985">
        <ele>176.54</ele>
        <time>2016-06-24T11:19:29Z</time>
      </trkpt>
      <trkpt lat="43.52307" lon="0.86765">
        <ele>178.94</ele>
        <time>2016-06-24T11:19:37Z</time>
      </trkpt>
      <trkpt lat="43.52355" lon="0.86695">
        <ele>183.75</ele>
        <time>2016-06-24T11:19:40Z</time>
      </trkpt>
      <trkpt lat="43.52371" lon="0.86671">
        <ele>187.11</ele>
        <time>2016-06-24T11:19:41Z</time>
      </trkpt>
      <trkpt lat="43.52386" lon="0.86648">
        <ele>187.11</ele>
        <time>2016-06-24T11:19:42Z</time>
      </trkpt>
      <trkpt lat="43.52402" lon="0.86624">
        <ele>190</ele>
        <time>2016-06-24T11:19:43Z</time>
      </trkpt>
      <trkpt lat="43.52429" lon="0.86576">
        <ele>193.84</ele>
        <time>2016-06-24T11:19:45Z</time>
      </trkpt>
      <trkpt lat="43.52457" lon="0.86527">
        <ele>195.77</ele>
        <time>2016-06-24T11:19:47Z</time>
      </trkpt>
      <trkpt lat="43.52517" lon="0.8643">
        <ele>199.13</ele>
        <time>2016-06-24T11:19:51Z</time>
      </trkpt>
      <trkpt lat="43.5256" lon="0.86357">
        <ele>202.49</ele>
        <time>2016-06-24T11:19:54Z</time>
      </trkpt>
      <trkpt lat="43.52582" lon="0.86303">
        <ele>203.94</ele>
        <time>2016-06-24T11:19:56Z</time>
      </trkpt>
      <trkpt lat="43.52649" lon="0.86104">
        <ele>206.34</ele>
        <time>2016-06-24T11:20:03Z</time>
      </trkpt>
      <trkpt lat="43.52681" lon="0.85982">
        <ele>203.94</ele>
        <time>2016-06-24T11:20:07Z</time>
      </trkpt>
      <trkpt lat="43.52712" lon="0.85857">
        <ele>200.09</ele>
        <time>2016-06-24T11:20:11Z</time>
      </trkpt>
      <trkpt lat="43.52736" lon="0.85766">
        <ele>196.25</ele>
        <time>2016-06-24T11:20:14Z</time>
      </trkpt>
      <trkpt lat="43.52752" lon="0.85708">
        <ele>194.32</ele>
        <time>2016-06-24T11:20:16Z</time>
      </trkpt>
      <trkpt lat="43.5281" lon="0.85615">
        <ele>186.15</ele>
        <time>2016-06-24T11:20:20Z</time>
      </trkpt>
      <trkpt lat="43.5283" lon="0.85599">
        <ele>186.15</ele>
        <time>2016-06-24T11:20:21Z</time>
      </trkpt>
      <trkpt lat="43.52903" lon="0.85523">
        <ele>178.94</ele>
        <time>2016-06-24T11:20:25Z</time>
      </trkpt>
      <trkpt lat="43.52941" lon="0.85445">
        <ele>174.14</ele>
        <time>2016-06-24T11:20:28Z</time>
      </trkpt>
      <trkpt lat="43.52952" lon="0.85416">
        <ele>173.17</ele>
        <time>2016-06-24T11:20:29Z</time>
      </trkpt>
      <trkpt lat="43.5298" lon="0.85328">
        <ele>169.81</ele>
        <time>2016-06-24T11:20:32Z</time>
      </trkpt>
      <trkpt lat="43.52997" lon="0.85268">
        <ele>167.41</ele>
        <time>2016-06-24T11:20:34Z</time>
      </trkpt>
      <trkpt lat="43.53021" lon="0.85179">
        <ele>163.56</ele>
        <time>2016-06-24T11:20:37Z</time>
      </trkpt>
      <trkpt lat="43.53027" lon="0.85149">
        <ele>161.16</ele>
        <time>2016-06-24T11:20:38Z</time>
      </trkpt>
      <trkpt lat="43.53031" lon="0.85029">
        <ele>154.91</ele>
        <time>2016-06-24T11:20:42Z</time>
      </trkpt>
      <trkpt lat="43.5303" lon="0.84974">
        <ele>151.54</ele>
        <time>2016-06-24T11:20:44Z</time>
      </trkpt>
      <trkpt lat="43.53036" lon="0.84898">
        <ele>147.7</ele>
        <time>2016-06-24T11:20:47Z</time>
      </trkpt>
      <trkpt lat="43.53055" lon="0.84776">
        <ele>143.85</ele>
        <time>2016-06-24T11:20:53Z</time>
      </trkpt>
      <trkpt lat="43.53058" lon="0.84737">
        <ele>143.85</ele>
        <time>2016-06-24T11:20:55Z</time>
      </trkpt>
      <trkpt lat="43.53074" lon="0.84664">
        <ele>144.82</ele>
        <time>2016-06-24T11:20:59Z</time>
      </trkpt>
      <trkpt lat="43.53079" lon="0.84632">
        <ele>146.26</ele>
        <time>2016-06-24T11:21:01Z</time>
      </trkpt>
      <trkpt lat="43.53094" lon="0.84515">
        <ele>147.22</ele>
        <time>2016-06-24T11:21:09Z</time>
      </trkpt>
      <trkpt lat="43.531" lon="0.84471">
        <ele>150.1</ele>
        <time>2016-06-24T11:21:12Z</time>
      </trkpt>
      <trkpt lat="43.53111" lon="0.84367">
        <ele>154.43</ele>
        <time>2016-06-24T11:21:18Z</time>
      </trkpt>
      <trkpt lat="43.53113" lon="0.84348">
        <ele>153.95</ele>
        <time>2016-06-24T11:21:19Z</time>
      </trkpt>
      <trkpt lat="43.53116" lon="0.8431">
        <ele>155.87</ele>
        <time>2016-06-24T11:21:21Z</time>
      </trkpt>
      <trkpt lat="43.53119" lon="0.8427">
        <ele>157.31</ele>
        <time>2016-06-24T11:21:23Z</time>
      </trkpt>
      <trkpt lat="43.53118" lon="0.84208">
        <ele>161.64</ele>
        <time>2016-06-24T11:21:26Z</time>
      </trkpt>
      <trkpt lat="43.53115" lon="0.84166">
        <ele>163.08</ele>
        <time>2016-06-24T11:21:28Z</time>
      </trkpt>
      <trkpt lat="43.53113" lon="0.84098">
        <ele>165.96</ele>
        <time>2016-06-24T11:21:31Z</time>
      </trkpt>
      <trkpt lat="43.53113" lon="0.84049">
        <ele>169.33</ele>
        <time>2016-06-24T11:21:33Z</time>
      </trkpt>
      <trkpt lat="43.53113" lon="0.84024">
        <ele>169.81</ele>
        <time>2016-06-24T11:21:34Z</time>
      </trkpt>
      <trkpt lat="43.53117" lon="0.83948">
        <ele>174.14</ele>
        <time>2016-06-24T11:21:37Z</time>
      </trkpt>
      <trkpt lat="43.53125" lon="0.8384">
        <ele>179.42</ele>
        <time>2016-06-24T11:21:41Z</time>
      </trkpt>
      <trkpt lat="43.53128" lon="0.83813">
        <ele>178.94</ele>
        <time>2016-06-24T11:21:42Z</time>
      </trkpt>
      <trkpt lat="43.53174" lon="0.83585">
        <ele>177.02</ele>
        <time>2016-06-24T11:21:50Z</time>
      </trkpt>
      <trkpt lat="43.53221" lon="0.83407">
        <ele>180.87</ele>
        <time>2016-06-24T11:21:56Z</time>
      </trkpt>
      <trkpt lat="43.53229" lon="0.83376">
        <ele>179.9</ele>
        <time>2016-06-24T11:21:57Z</time>
      </trkpt>
      <trkpt lat="43.53258" lon="0.83289">
        <ele>184.23</ele>
        <time>2016-06-24T11:22:00Z</time>
      </trkpt>
      <trkpt lat="43.53293" lon="0.83206">
        <ele>190</ele>
        <time>2016-06-24T11:22:03Z</time>
      </trkpt>
      <trkpt lat="43.5333" lon="0.83125">
        <ele>195.28</ele>
        <time>2016-06-24T11:22:06Z</time>
      </trkpt>
      <trkpt lat="43.53367" lon="0.83045">
        <ele>197.21</ele>
        <time>2016-06-24T11:22:09Z</time>
      </trkpt>
      <trkpt lat="43.53431" lon="0.82952">
        <ele>193.84</ele>
        <time>2016-06-24T11:22:13Z</time>
      </trkpt>
      <trkpt lat="43.53461" lon="0.82902">
        <ele>191.92</ele>
        <time>2016-06-24T11:22:15Z</time>
      </trkpt>
      <trkpt lat="43.5356" lon="0.82647">
        <ele>193.36</ele>
        <time>2016-06-24T11:22:24Z</time>
      </trkpt>
      <trkpt lat="43.53592" lon="0.82571">
        <ele>194.32</ele>
        <time>2016-06-24T11:22:27Z</time>
      </trkpt>
      <trkpt lat="43.53681" lon="0.82486">
        <ele>190.48</ele>
        <time>2016-06-24T11:22:32Z</time>
      </trkpt>
      <trkpt lat="43.53729" lon="0.82486">
        <ele>187.11</ele>
        <time>2016-06-24T11:22:34Z</time>
      </trkpt>
      <trkpt lat="43.53774" lon="0.82508">
        <ele>184.23</ele>
        <time>2016-06-24T11:22:36Z</time>
      </trkpt>
      <trkpt lat="43.53854" lon="0.82576">
        <ele>182.79</ele>
        <time>2016-06-24T11:22:40Z</time>
      </trkpt>
      <trkpt lat="43.53918" lon="0.82667">
        <ele>184.23</ele>
        <time>2016-06-24T11:22:44Z</time>
      </trkpt>
      <trkpt lat="43.53989" lon="0.82734">
        <ele>181.35</ele>
        <time>2016-06-24T11:22:48Z</time>
      </trkpt>
      <trkpt lat="43.54029" lon="0.82741">
        <ele>184.71</ele>
        <time>2016-06-24T11:22:50Z</time>
      </trkpt>
      <trkpt lat="43.54046" lon="0.82743">
        <ele>185.67</ele>
        <time>2016-06-24T11:22:51Z</time>
      </trkpt>
      <trkpt lat="43.542" lon="0.82562">
        <ele>185.67</ele>
        <time>2016-06-24T11:22:59Z</time>
      </trkpt>
      <trkpt lat="43.54252" lon="0.82466">
        <ele>182.31</ele>
        <time>2016-06-24T11:23:03Z</time>
      </trkpt>
      <trkpt lat="43.54302" lon="0.82361">
        <ele>177.5</ele>
        <time>2016-06-24T11:23:07Z</time>
      </trkpt>
      <trkpt lat="43.54339" lon="0.82282">
        <ele>176.06</ele>
        <time>2016-06-24T11:23:10Z</time>
      </trkpt>
      <trkpt lat="43.54469" lon="0.82008">
        <ele>175.1</ele>
        <time>2016-06-24T11:23:21Z</time>
      </trkpt>
      <trkpt lat="43.54511" lon="0.8191">
        <ele>170.29</ele>
        <time>2016-06-24T11:23:25Z</time>
      </trkpt>
      <trkpt lat="43.54532" lon="0.81867">
        <ele>167.89</ele>
        <time>2016-06-24T11:23:27Z</time>
      </trkpt>
      <trkpt lat="43.54573" lon="0.81813">
        <ele>165.96</ele>
        <time>2016-06-24T11:23:30Z</time>
      </trkpt>
      <trkpt lat="43.54602" lon="0.81783">
        <ele>162.6</ele>
        <time>2016-06-24T11:23:32Z</time>
      </trkpt>
      <trkpt lat="43.54631" lon="0.81757">
        <ele>160.2</ele>
        <time>2016-06-24T11:23:34Z</time>
      </trkpt>
      <trkpt lat="43.54655" lon="0.81726">
        <ele>159.24</ele>
        <time>2016-06-24T11:23:36Z</time>
      </trkpt>
      <trkpt lat="43.54679" lon="0.81672">
        <ele>157.31</ele>
        <time>2016-06-24T11:23:39Z</time>
      </trkpt>
      <trkpt lat="43.54694" lon="0.81618">
        <ele>153.47</ele>
        <time>2016-06-24T11:23:42Z</time>
      </trkpt>
      <trkpt lat="43.54727" lon="0.81561">
        <ele>151.06</ele>
        <time>2016-06-24T11:23:46Z</time>
      </trkpt>
      <trkpt lat="43.54763" lon="0.81497">
        <ele>150.58</ele>
        <time>2016-06-24T11:23:50Z</time>
      </trkpt>
      <trkpt lat="43.54809" lon="0.81378">
        <ele>145.78</ele>
        <time>2016-06-24T11:23:56Z</time>
      </trkpt>
      <trkpt lat="43.54833" lon="0.81316">
        <ele>142.41</ele>
        <time>2016-06-24T11:23:59Z</time>
      </trkpt>
      <trkpt lat="43.54841" lon="0.81295">
        <ele>142.41</ele>
        <time>2016-06-24T11:24:00Z</time>
      </trkpt>
      <trkpt lat="43.54867" lon="0.81229">
        <ele>139.05</ele>
        <time>2016-06-24T11:24:03Z</time>
      </trkpt>
      <trkpt lat="43.54897" lon="0.81161">
        <ele>135.68</ele>
        <time>2016-06-24T11:24:06Z</time>
      </trkpt>
      <trkpt lat="43.54908" lon="0.81138">
        <ele>135.68</ele>
        <time>2016-06-24T11:24:07Z</time>
      </trkpt>
      <trkpt lat="43.54943" lon="0.81071">
        <ele>132.32</ele>
        <time>2016-06-24T11:24:10Z</time>
      </trkpt>
      <trkpt lat="43.54956" lon="0.81049">
        <ele>133.28</ele>
        <time>2016-06-24T11:24:11Z</time>
      </trkpt>
      <trkpt lat="43.55102" lon="0.80833">
        <ele>134.72</ele>
        <time>2016-06-24T11:24:21Z</time>
      </trkpt>
      <trkpt lat="43.55163" lon="0.80747">
        <ele>139.05</ele>
        <time>2016-06-24T11:24:25Z</time>
      </trkpt>
      <trkpt lat="43.55178" lon="0.80725">
        <ele>138.57</ele>
        <time>2016-06-24T11:24:26Z</time>
      </trkpt>
      <trkpt lat="43.55225" lon="0.80658">
        <ele>141.45</ele>
        <time>2016-06-24T11:24:29Z</time>
      </trkpt>
      <trkpt lat="43.55346" lon="0.80481">
        <ele>144.34</ele>
        <time>2016-06-24T11:24:37Z</time>
      </trkpt>
      <trkpt lat="43.55472" lon="0.80302">
        <ele>141.45</ele>
        <time>2016-06-24T11:24:45Z</time>
      </trkpt>
      <trkpt lat="43.55521" lon="0.80236">
        <ele>138.09</ele>
        <time>2016-06-24T11:24:48Z</time>
      </trkpt>
      <trkpt lat="43.55554" lon="0.80193">
        <ele>134.72</ele>
        <time>2016-06-24T11:24:50Z</time>
      </trkpt>
      <trkpt lat="43.55605" lon="0.80132">
        <ele>130.88</ele>
        <time>2016-06-24T11:24:53Z</time>
      </trkpt>
      <trkpt lat="43.55638" lon="0.80091">
        <ele>127.51</ele>
        <time>2016-06-24T11:24:55Z</time>
      </trkpt>
      <trkpt lat="43.55672" lon="0.8005">
        <ele>124.63</ele>
        <time>2016-06-24T11:24:57Z</time>
      </trkpt>
      <trkpt lat="43.55722" lon="0.79988">
        <ele>123.19</ele>
        <time>2016-06-24T11:25:00Z</time>
      </trkpt>
      <trkpt lat="43.55825" lon="0.79813">
        <ele>119.34</ele>
        <time>2016-06-24T11:25:08Z</time>
      </trkpt>
      <trkpt lat="43.55861" lon="0.79711">
        <ele>116.94</ele>
        <time>2016-06-24T11:25:13Z</time>
      </trkpt>
      <trkpt lat="43.55891" lon="0.79629">
        <ele>112.61</ele>
        <time>2016-06-24T11:25:19Z</time>
      </trkpt>
      <trkpt lat="43.559" lon="0.79613">
        <ele>111.65</ele>
        <time>2016-06-24T11:25:25Z</time>
      </trkpt>
      <trkpt lat="43.55902" lon="0.79611">
        <ele>111.65</ele>
        <time>2016-06-24T11:25:35Z</time>
      </trkpt>
      <trkpt lat="43.55915" lon="0.79591">
        <ele>113.57</ele>
        <time>2016-06-24T11:25:38Z</time>
      </trkpt>
      <trkpt lat="43.55925" lon="0.79548">
        <ele>116.46</ele>
        <time>2016-06-24T11:25:41Z</time>
      </trkpt>
      <trkpt lat="43.55932" lon="0.79533">
        <ele>117.42</ele>
        <time>2016-06-24T11:25:42Z</time>
      </trkpt>
      <trkpt lat="43.55972" lon="0.79465">
        <ele>120.3</ele>
        <time>2016-06-24T11:25:46Z</time>
      </trkpt>
      <trkpt lat="43.56059" lon="0.79329">
        <ele>123.67</ele>
        <time>2016-06-24T11:25:53Z</time>
      </trkpt>
      <trkpt lat="43.56192" lon="0.79121">
        <ele>126.55</ele>
        <time>2016-06-24T11:26:02Z</time>
      </trkpt>
      <trkpt lat="43.56303" lon="0.78945">
        <ele>128.95</ele>
        <time>2016-06-24T11:26:09Z</time>
      </trkpt>
      <trkpt lat="43.56352" lon="0.78873">
        <ele>129.92</ele>
        <time>2016-06-24T11:26:12Z</time>
      </trkpt>
      <trkpt lat="43.56431" lon="0.78798">
        <ele>129.92</ele>
        <time>2016-06-24T11:26:16Z</time>
      </trkpt>
      <trkpt lat="43.56549" lon="0.78624">
        <ele>133.76</ele>
        <time>2016-06-24T11:26:23Z</time>
      </trkpt>
      <trkpt lat="43.56735" lon="0.7826">
        <ele>136.16</ele>
        <time>2016-06-24T11:26:36Z</time>
      </trkpt>
      <trkpt lat="43.56869" lon="0.77964">
        <ele>140.49</ele>
        <time>2016-06-24T11:26:46Z</time>
      </trkpt>
      <trkpt lat="43.56883" lon="0.77937">
        <ele>140.01</ele>
        <time>2016-06-24T11:26:47Z</time>
      </trkpt>
      <trkpt lat="43.57099" lon="0.77563">
        <ele>143.37</ele>
        <time>2016-06-24T11:27:01Z</time>
      </trkpt>
      <trkpt lat="43.57117" lon="0.7754">
        <ele>143.37</ele>
        <time>2016-06-24T11:27:02Z</time>
      </trkpt>
      <trkpt lat="43.57192" lon="0.7745">
        <ele>145.78</ele>
        <time>2016-06-24T11:27:06Z</time>
      </trkpt>
      <trkpt lat="43.57404" lon="0.77164">
        <ele>145.78</ele>
        <time>2016-06-24T11:27:18Z</time>
      </trkpt>
      <trkpt lat="43.57456" lon="0.77091">
        <ele>148.66</ele>
        <time>2016-06-24T11:27:21Z</time>
      </trkpt>
      <trkpt lat="43.57594" lon="0.76849">
        <ele>150.1</ele>
        <time>2016-06-24T11:27:30Z</time>
      </trkpt>
      <trkpt lat="43.57634" lon="0.76762">
        <ele>153.47</ele>
        <time>2016-06-24T11:27:33Z</time>
      </trkpt>
      <trkpt lat="43.57809" lon="0.76389">
        <ele>157.79</ele>
        <time>2016-06-24T11:27:46Z</time>
      </trkpt>
      <trkpt lat="43.57877" lon="0.76244">
        <ele>160.2</ele>
        <time>2016-06-24T11:27:51Z</time>
      </trkpt>
      <trkpt lat="43.57983" lon="0.76016">
        <ele>164.04</ele>
        <time>2016-06-24T11:27:59Z</time>
      </trkpt>
      <trkpt lat="43.58064" lon="0.75843">
        <ele>166.93</ele>
        <time>2016-06-24T11:28:05Z</time>
      </trkpt>
      <trkpt lat="43.58186" lon="0.75582">
        <ele>168.37</ele>
        <time>2016-06-24T11:28:15Z</time>
      </trkpt>
      <trkpt lat="43.58264" lon="0.7538">
        <ele>165.96</ele>
        <time>2016-06-24T11:28:22Z</time>
      </trkpt>
      <trkpt lat="43.58283" lon="0.75274">
        <ele>160.2</ele>
        <time>2016-06-24T11:28:25Z</time>
      </trkpt>
      <trkpt lat="43.58288" lon="0.7524">
        <ele>160.68</ele>
        <time>2016-06-24T11:28:26Z</time>
      </trkpt>
      <trkpt lat="43.58297" lon="0.75171">
        <ele>155.87</ele>
        <time>2016-06-24T11:28:28Z</time>
      </trkpt>
      <trkpt lat="43.58294" lon="0.75035">
        <ele>151.54</ele>
        <time>2016-06-24T11:28:32Z</time>
      </trkpt>
      <trkpt lat="43.58282" lon="0.7487">
        <ele>149.62</ele>
        <time>2016-06-24T11:28:37Z</time>
      </trkpt>
      <trkpt lat="43.58321" lon="0.74647">
        <ele>146.26</ele>
        <time>2016-06-24T11:28:44Z</time>
      </trkpt>
      <trkpt lat="43.5833" lon="0.74617">
        <ele>146.26</ele>
        <time>2016-06-24T11:28:45Z</time>
      </trkpt>
      <trkpt lat="43.58424" lon="0.74345">
        <ele>142.89</ele>
        <time>2016-06-24T11:28:54Z</time>
      </trkpt>
      <trkpt lat="43.58435" lon="0.74315">
        <ele>143.85</ele>
        <time>2016-06-24T11:28:55Z</time>
      </trkpt>
      <trkpt lat="43.5854" lon="0.74143">
        <ele>138.09</ele>
        <time>2016-06-24T11:29:02Z</time>
      </trkpt>
      <trkpt lat="43.5858" lon="0.74069">
        <ele>132.8</ele>
        <time>2016-06-24T11:29:05Z</time>
      </trkpt>
      <trkpt lat="43.58592" lon="0.74043">
        <ele>132.8</ele>
        <time>2016-06-24T11:29:06Z</time>
      </trkpt>
      <trkpt lat="43.58639" lon="0.73936">
        <ele>128.95</ele>
        <time>2016-06-24T11:29:10Z</time>
      </trkpt>
      <trkpt lat="43.58663" lon="0.73882">
        <ele>127.03</ele>
        <time>2016-06-24T11:29:12Z</time>
      </trkpt>
      <trkpt lat="43.58701" lon="0.73801">
        <ele>124.63</ele>
        <time>2016-06-24T11:29:15Z</time>
      </trkpt>
      <trkpt lat="43.58841" lon="0.73616">
        <ele>121.26</ele>
        <time>2016-06-24T11:29:23Z</time>
      </trkpt>
      <trkpt lat="43.58928" lon="0.73572">
        <ele>122.71</ele>
        <time>2016-06-24T11:29:27Z</time>
      </trkpt>
      <trkpt lat="43.5895" lon="0.73565">
        <ele>122.71</ele>
        <time>2016-06-24T11:29:28Z</time>
      </trkpt>
      <trkpt lat="43.59062" lon="0.73514">
        <ele>124.63</ele>
        <time>2016-06-24T11:29:33Z</time>
      </trkpt>
      <trkpt lat="43.59148" lon="0.73451">
        <ele>129.92</ele>
        <time>2016-06-24T11:29:37Z</time>
      </trkpt>
      <trkpt lat="43.59191" lon="0.73419">
        <ele>130.88</ele>
        <time>2016-06-24T11:29:39Z</time>
      </trkpt>
      <trkpt lat="43.59235" lon="0.73387">
        <ele>134.24</ele>
        <time>2016-06-24T11:29:41Z</time>
      </trkpt>
      <trkpt lat="43.59257" lon="0.73372">
        <ele>134.24</ele>
        <time>2016-06-24T11:29:42Z</time>
      </trkpt>
      <trkpt lat="43.593" lon="0.73342">
        <ele>138.57</ele>
        <time>2016-06-24T11:29:44Z</time>
      </trkpt>
      <trkpt lat="43.5932" lon="0.73326">
        <ele>139.05</ele>
        <time>2016-06-24T11:29:45Z</time>
      </trkpt>
      <trkpt lat="43.59379" lon="0.73228">
        <ele>142.89</ele>
        <time>2016-06-24T11:29:49Z</time>
      </trkpt>
      <trkpt lat="43.59415" lon="0.73106">
        <ele>148.66</ele>
        <time>2016-06-24T11:29:53Z</time>
      </trkpt>
      <trkpt lat="43.59424" lon="0.73076">
        <ele>149.14</ele>
        <time>2016-06-24T11:29:54Z</time>
      </trkpt>
      <trkpt lat="43.59437" lon="0.72984">
        <ele>154.43</ele>
        <time>2016-06-24T11:29:57Z</time>
      </trkpt>
      <trkpt lat="43.59436" lon="0.72953">
        <ele>157.31</ele>
        <time>2016-06-24T11:29:58Z</time>
      </trkpt>
      <trkpt lat="43.59428" lon="0.72854">
        <ele>163.08</ele>
        <time>2016-06-24T11:30:01Z</time>
      </trkpt>
      <trkpt lat="43.59424" lon="0.72788">
        <ele>167.41</ele>
        <time>2016-06-24T11:30:03Z</time>
      </trkpt>
      <trkpt lat="43.59427" lon="0.72692">
        <ele>170.77</ele>
        <time>2016-06-24T11:30:06Z</time>
      </trkpt>
      <trkpt lat="43.59434" lon="0.72573">
        <ele>174.62</ele>
        <time>2016-06-24T11:30:10Z</time>
      </trkpt>
      <trkpt lat="43.59451" lon="0.7249">
        <ele>176.54</ele>
        <time>2016-06-24T11:30:13Z</time>
      </trkpt>
      <trkpt lat="43.59475" lon="0.72436">
        <ele>178.46</ele>
        <time>2016-06-24T11:30:15Z</time>
      </trkpt>
      <trkpt lat="43.59532" lon="0.72329">
        <ele>181.83</ele>
        <time>2016-06-24T11:30:19Z</time>
      </trkpt>
      <trkpt lat="43.59587" lon="0.72223">
        <ele>185.19</ele>
        <time>2016-06-24T11:30:23Z</time>
      </trkpt>
      <trkpt lat="43.59628" lon="0.72144">
        <ele>188.56</ele>
        <time>2016-06-24T11:30:26Z</time>
      </trkpt>
      <trkpt lat="43.5967" lon="0.72064">
        <ele>192.88</ele>
        <time>2016-06-24T11:30:29Z</time>
      </trkpt>
      <trkpt lat="43.597" lon="0.72014">
        <ele>193.84</ele>
        <time>2016-06-24T11:30:31Z</time>
      </trkpt>
      <trkpt lat="43.59746" lon="0.71943">
        <ele>195.77</ele>
        <time>2016-06-24T11:30:34Z</time>
      </trkpt>
      <trkpt lat="43.59814" lon="0.71855">
        <ele>199.61</ele>
        <time>2016-06-24T11:30:38Z</time>
      </trkpt>
      <trkpt lat="43.59853" lon="0.71814">
        <ele>200.57</ele>
        <time>2016-06-24T11:30:40Z</time>
      </trkpt>
      <trkpt lat="43.60003" lon="0.71659">
        <ele>202.98</ele>
        <time>2016-06-24T11:30:48Z</time>
      </trkpt>
      <trkpt lat="43.60049" lon="0.71556">
        <ele>208.74</ele>
        <time>2016-06-24T11:30:52Z</time>
      </trkpt>
      <trkpt lat="43.60044" lon="0.71461">
        <ele>210.19</ele>
        <time>2016-06-24T11:30:55Z</time>
      </trkpt>
      <trkpt lat="43.60009" lon="0.71156">
        <ele>209.22</ele>
        <time>2016-06-24T11:31:05Z</time>
      </trkpt>
      <trkpt lat="43.60045" lon="0.70973">
        <ele>207.78</ele>
        <time>2016-06-24T11:31:11Z</time>
      </trkpt>
      <trkpt lat="43.60067" lon="0.70787">
        <ele>208.74</ele>
        <time>2016-06-24T11:31:17Z</time>
      </trkpt>
      <trkpt lat="43.60078" lon="0.70571">
        <ele>211.63</ele>
        <time>2016-06-24T11:31:24Z</time>
      </trkpt>
      <trkpt lat="43.60085" lon="0.70445">
        <ele>216.43</ele>
        <time>2016-06-24T11:31:28Z</time>
      </trkpt>
      <trkpt lat="43.60095" lon="0.70349">
        <ele>218.84</ele>
        <time>2016-06-24T11:31:31Z</time>
      </trkpt>
      <trkpt lat="43.6012" lon="0.70223">
        <ele>220.76</ele>
        <time>2016-06-24T11:31:35Z</time>
      </trkpt>
      <trkpt lat="43.60126" lon="0.70192">
        <ele>221.72</ele>
        <time>2016-06-24T11:31:36Z</time>
      </trkpt>
      <trkpt lat="43.60133" lon="0.70096">
        <ele>226.05</ele>
        <time>2016-06-24T11:31:39Z</time>
      </trkpt>
      <trkpt lat="43.60123" lon="0.70035">
        <ele>229.41</ele>
        <time>2016-06-24T11:31:41Z</time>
      </trkpt>
      <trkpt lat="43.60102" lon="0.69946">
        <ele>232.78</ele>
        <time>2016-06-24T11:31:44Z</time>
      </trkpt>
      <trkpt lat="43.60101" lon="0.6982">
        <ele>237.58</ele>
        <time>2016-06-24T11:31:48Z</time>
      </trkpt>
      <trkpt lat="43.6011" lon="0.69723">
        <ele>241.43</ele>
        <time>2016-06-24T11:31:51Z</time>
      </trkpt>
      <trkpt lat="43.60151" lon="0.69576">
        <ele>241.91</ele>
        <time>2016-06-24T11:31:56Z</time>
      </trkpt>
      <trkpt lat="43.60231" lon="0.69477">
        <ele>241.91</ele>
        <time>2016-06-24T11:32:01Z</time>
      </trkpt>
      <trkpt lat="43.60272" lon="0.69451">
        <ele>240.47</ele>
        <time>2016-06-24T11:32:03Z</time>
      </trkpt>
      <trkpt lat="43.60407" lon="0.69289">
        <ele>239.02</ele>
        <time>2016-06-24T11:32:11Z</time>
      </trkpt>
      <trkpt lat="43.60496" lon="0.6917">
        <ele>240.47</ele>
        <time>2016-06-24T11:32:17Z</time>
      </trkpt>
      <trkpt lat="43.60539" lon="0.6911">
        <ele>242.39</ele>
        <time>2016-06-24T11:32:20Z</time>
      </trkpt>
      <trkpt lat="43.60577" lon="0.69011">
        <ele>243.35</ele>
        <time>2016-06-24T11:32:24Z</time>
      </trkpt>
      <trkpt lat="43.60647" lon="0.68786">
        <ele>243.35</ele>
        <time>2016-06-24T11:32:33Z</time>
      </trkpt>
      <trkpt lat="43.6072" lon="0.68602">
        <ele>240.47</ele>
        <time>2016-06-24T11:32:41Z</time>
      </trkpt>
      <trkpt lat="43.6082" lon="0.68442">
        <ele>238.54</ele>
        <time>2016-06-24T11:32:49Z</time>
      </trkpt>
      <trkpt lat="43.60922" lon="0.68383">
        <ele>236.14</ele>
        <time>2016-06-24T11:32:55Z</time>
      </trkpt>
      <trkpt lat="43.60941" lon="0.68383">
        <ele>233.26</ele>
        <time>2016-06-24T11:32:56Z</time>
      </trkpt>
      <trkpt lat="43.61019" lon="0.68389">
        <ele>231.81</ele>
        <time>2016-06-24T11:33:00Z</time>
      </trkpt>
      <trkpt lat="43.6106" lon="0.68391">
        <ele>229.41</ele>
        <time>2016-06-24T11:33:02Z</time>
      </trkpt>
      <trkpt lat="43.61098" lon="0.68387">
        <ele>228.45</ele>
        <time>2016-06-24T11:33:04Z</time>
      </trkpt>
      <trkpt lat="43.61148" lon="0.68349">
        <ele>224.61</ele>
        <time>2016-06-24T11:33:07Z</time>
      </trkpt>
      <trkpt lat="43.61204" lon="0.68278">
        <ele>221.72</ele>
        <time>2016-06-24T11:33:11Z</time>
      </trkpt>
      <trkpt lat="43.61258" lon="0.68208">
        <ele>218.84</ele>
        <time>2016-06-24T11:33:15Z</time>
      </trkpt>
      <trkpt lat="43.61295" lon="0.68151">
        <ele>215.47</ele>
        <time>2016-06-24T11:33:18Z</time>
      </trkpt>
      <trkpt lat="43.61363" lon="0.67951">
        <ele>210.67</ele>
        <time>2016-06-24T11:33:26Z</time>
      </trkpt>
      <trkpt lat="43.61399" lon="0.67842">
        <ele>207.3</ele>
        <time>2016-06-24T11:33:30Z</time>
      </trkpt>
      <trkpt lat="43.61423" lon="0.67791">
        <ele>204.42</ele>
        <time>2016-06-24T11:33:32Z</time>
      </trkpt>
      <trkpt lat="43.61436" lon="0.67767">
        <ele>204.42</ele>
        <time>2016-06-24T11:33:33Z</time>
      </trkpt>
      <trkpt lat="43.61463" lon="0.67722">
        <ele>201.05</ele>
        <time>2016-06-24T11:33:35Z</time>
      </trkpt>
      <trkpt lat="43.61487" lon="0.67679">
        <ele>197.69</ele>
        <time>2016-06-24T11:33:37Z</time>
      </trkpt>
      <trkpt lat="43.61499" lon="0.67658">
        <ele>197.69</ele>
        <time>2016-06-24T11:33:38Z</time>
      </trkpt>
      <trkpt lat="43.6151" lon="0.67638">
        <ele>196.25</ele>
        <time>2016-06-24T11:33:39Z</time>
      </trkpt>
      <trkpt lat="43.61567" lon="0.67577">
        <ele>192.88</ele>
        <time>2016-06-24T11:33:43Z</time>
      </trkpt>
      <trkpt lat="43.61659" lon="0.67581">
        <ele>187.59</ele>
        <time>2016-06-24T11:33:48Z</time>
      </trkpt>
      <trkpt lat="43.61678" lon="0.67572">
        <ele>188.08</ele>
        <time>2016-06-24T11:33:49Z</time>
      </trkpt>
      <trkpt lat="43.61695" lon="0.67558">
        <ele>188.08</ele>
        <time>2016-06-24T11:33:50Z</time>
      </trkpt>
      <trkpt lat="43.61779" lon="0.67475">
        <ele>182.31</ele>
        <time>2016-06-24T11:33:55Z</time>
      </trkpt>
      <trkpt lat="43.61825" lon="0.67426">
        <ele>178.94</ele>
        <time>2016-06-24T11:33:58Z</time>
      </trkpt>
      <trkpt lat="43.61862" lon="0.67371">
        <ele>176.54</ele>
        <time>2016-06-24T11:34:01Z</time>
      </trkpt>
      <trkpt lat="43.61868" lon="0.67347">
        <ele>176.54</ele>
        <time>2016-06-24T11:34:02Z</time>
      </trkpt>
      <trkpt lat="43.61878" lon="0.67296">
        <ele>175.1</ele>
        <time>2016-06-24T11:34:04Z</time>
      </trkpt>
      <trkpt lat="43.61903" lon="0.67155">
        <ele>170.29</ele>
        <time>2016-06-24T11:34:09Z</time>
      </trkpt>
      <trkpt lat="43.6192" lon="0.67069">
        <ele>168.37</ele>
        <time>2016-06-24T11:34:12Z</time>
      </trkpt>
      <trkpt lat="43.61932" lon="0.67012">
        <ele>167.41</ele>
        <time>2016-06-24T11:34:14Z</time>
      </trkpt>
      <trkpt lat="43.61932" lon="0.66924">
        <ele>165</ele>
        <time>2016-06-24T11:34:17Z</time>
      </trkpt>
      <trkpt lat="43.61925" lon="0.66866">
        <ele>162.6</ele>
        <time>2016-06-24T11:34:19Z</time>
      </trkpt>
      <trkpt lat="43.6194" lon="0.6672">
        <ele>157.79</ele>
        <time>2016-06-24T11:34:24Z</time>
      </trkpt>
      <trkpt lat="43.61962" lon="0.66604">
        <ele>153.47</ele>
        <time>2016-06-24T11:34:28Z</time>
      </trkpt>
      <trkpt lat="43.61988" lon="0.66491">
        <ele>151.54</ele>
        <time>2016-06-24T11:34:32Z</time>
      </trkpt>
      <trkpt lat="43.62013" lon="0.66411">
        <ele>148.18</ele>
        <time>2016-06-24T11:34:35Z</time>
      </trkpt>
      <trkpt lat="43.62021" lon="0.66385">
        <ele>147.22</ele>
        <time>2016-06-24T11:34:36Z</time>
      </trkpt>
      <trkpt lat="43.62031" lon="0.66328">
        <ele>145.78</ele>
        <time>2016-06-24T11:34:38Z</time>
      </trkpt>
      <trkpt lat="43.6202" lon="0.6618">
        <ele>141.93</ele>
        <time>2016-06-24T11:34:43Z</time>
      </trkpt>
      <trkpt lat="43.62016" lon="0.6612">
        <ele>140.97</ele>
        <time>2016-06-24T11:34:45Z</time>
      </trkpt>
      <trkpt lat="43.62007" lon="0.66002">
        <ele>139.05</ele>
        <time>2016-06-24T11:34:49Z</time>
      </trkpt>
      <trkpt lat="43.61991" lon="0.65772">
        <ele>134.72</ele>
        <time>2016-06-24T11:34:57Z</time>
      </trkpt>
      <trkpt lat="43.61985" lon="0.65694">
        <ele>131.36</ele>
        <time>2016-06-24T11:35:00Z</time>
      </trkpt>
      <trkpt lat="43.61983" lon="0.65668">
        <ele>131.84</ele>
        <time>2016-06-24T11:35:01Z</time>
      </trkpt>
      <trkpt lat="43.61999" lon="0.65487">
        <ele>130.88</ele>
        <time>2016-06-24T11:35:08Z</time>
      </trkpt>
      <trkpt lat="43.62023" lon="0.65345">
        <ele>127.03</ele>
        <time>2016-06-24T11:35:14Z</time>
      </trkpt>
      <trkpt lat="43.62033" lon="0.65286">
        <ele>125.59</ele>
        <time>2016-06-24T11:35:17Z</time>
      </trkpt>
      <trkpt lat="43.6204" lon="0.65248">
        <ele>123.67</ele>
        <time>2016-06-24T11:35:19Z</time>
      </trkpt>
      <trkpt lat="43.62053" lon="0.65171">
        <ele>120.3</ele>
        <time>2016-06-24T11:35:23Z</time>
      </trkpt>
      <trkpt lat="43.62055" lon="0.65153">
        <ele>120.3</ele>
        <time>2016-06-24T11:35:24Z</time>
      </trkpt>
      <trkpt lat="43.62054" lon="0.65062">
        <ele>121.26</ele>
        <time>2016-06-24T11:35:29Z</time>
      </trkpt>
      <trkpt lat="43.62032" lon="0.65008">
        <ele>119.82</ele>
        <time>2016-06-24T11:35:33Z</time>
      </trkpt>
      <trkpt lat="43.62002" lon="0.64915">
        <ele>118.38</ele>
        <time>2016-06-24T11:35:40Z</time>
      </trkpt>
      <trkpt lat="43.61996" lon="0.64872">
        <ele>116.46</ele>
        <time>2016-06-24T11:35:43Z</time>
      </trkpt>
      <trkpt lat="43.6201" lon="0.64819">
        <ele>114.05</ele>
        <time>2016-06-24T11:35:47Z</time>
      </trkpt>
      <trkpt lat="43.62056" lon="0.64772">
        <ele>113.57</ele>
        <time>2016-06-24T11:35:53Z</time>
      </trkpt>
      <trkpt lat="43.62081" lon="0.64704">
        <ele>112.13</ele>
        <time>2016-06-24T11:35:59Z</time>
      </trkpt>
      <trkpt lat="43.62067" lon="0.6464">
        <ele>113.57</ele>
        <time>2016-06-24T11:36:04Z</time>
      </trkpt>
      <trkpt lat="43.62034" lon="0.64576">
        <ele>115.01</ele>
        <time>2016-06-24T11:36:09Z</time>
      </trkpt>
      <trkpt lat="43.62017" lon="0.64485">
        <ele>117.9</ele>
        <time>2016-06-24T11:36:14Z</time>
      </trkpt>
      <trkpt lat="43.62021" lon="0.64439">
        <ele>118.86</ele>
        <time>2016-06-24T11:36:16Z</time>
      </trkpt>
      <trkpt lat="43.62046" lon="0.64348">
        <ele>126.55</ele>
        <time>2016-06-24T11:36:20Z</time>
      </trkpt>
      <trkpt lat="43.62057" lon="0.64327">
        <ele>128.47</ele>
        <time>2016-06-24T11:36:21Z</time>
      </trkpt>
      <trkpt lat="43.621" lon="0.64237">
        <ele>131.84</ele>
        <time>2016-06-24T11:36:25Z</time>
      </trkpt>
      <trkpt lat="43.62134" lon="0.64165">
        <ele>134.24</ele>
        <time>2016-06-24T11:36:28Z</time>
      </trkpt>
      <trkpt lat="43.62163" lon="0.64121">
        <ele>132.8</ele>
        <time>2016-06-24T11:36:30Z</time>
      </trkpt>
      <trkpt lat="43.62178" lon="0.641">
        <ele>136.16</ele>
        <time>2016-06-24T11:36:31Z</time>
      </trkpt>
      <trkpt lat="43.62211" lon="0.6406">
        <ele>136.64</ele>
        <time>2016-06-24T11:36:33Z</time>
      </trkpt>
      <trkpt lat="43.62383" lon="0.63871">
        <ele>137.13</ele>
        <time>2016-06-24T11:36:43Z</time>
      </trkpt>
      <trkpt lat="43.62441" lon="0.63829">
        <ele>140.01</ele>
        <time>2016-06-24T11:36:46Z</time>
      </trkpt>
      <trkpt lat="43.62476" lon="0.63795">
        <ele>141.93</ele>
        <time>2016-06-24T11:36:48Z</time>
      </trkpt>
      <trkpt lat="43.62634" lon="0.63582">
        <ele>139.05</ele>
        <time>2016-06-24T11:36:58Z</time>
      </trkpt>
      <trkpt lat="43.62666" lon="0.63537">
        <ele>136.16</ele>
        <time>2016-06-24T11:37:00Z</time>
      </trkpt>
      <trkpt lat="43.62699" lon="0.63494">
        <ele>135.68</ele>
        <time>2016-06-24T11:37:02Z</time>
      </trkpt>
      <trkpt lat="43.62776" lon="0.6343">
        <ele>136.16</ele>
        <time>2016-06-24T11:37:06Z</time>
      </trkpt>
      <trkpt lat="43.62818" lon="0.63409">
        <ele>137.61</ele>
        <time>2016-06-24T11:37:08Z</time>
      </trkpt>
      <trkpt lat="43.62862" lon="0.63396">
        <ele>141.45</ele>
        <time>2016-06-24T11:37:10Z</time>
      </trkpt>
      <trkpt lat="43.62938" lon="0.6334">
        <ele>143.85</ele>
        <time>2016-06-24T11:37:14Z</time>
      </trkpt>
      <trkpt lat="43.62972" lon="0.63229">
        <ele>144.34</ele>
        <time>2016-06-24T11:37:18Z</time>
      </trkpt>
      <trkpt lat="43.63007" lon="0.62988">
        <ele>148.18</ele>
        <time>2016-06-24T11:37:26Z</time>
      </trkpt>
      <trkpt lat="43.63043" lon="0.62874">
        <ele>151.54</ele>
        <time>2016-06-24T11:37:30Z</time>
      </trkpt>
      <trkpt lat="43.6305" lon="0.62725">
        <ele>153.95</ele>
        <time>2016-06-24T11:37:35Z</time>
      </trkpt>
      <trkpt lat="43.63044" lon="0.62695">
        <ele>155.87</ele>
        <time>2016-06-24T11:37:36Z</time>
      </trkpt>
      <trkpt lat="43.62996" lon="0.62523">
        <ele>158.27</ele>
        <time>2016-06-24T11:37:42Z</time>
      </trkpt>
      <trkpt lat="43.62974" lon="0.62443">
        <ele>160.2</ele>
        <time>2016-06-24T11:37:45Z</time>
      </trkpt>
      <trkpt lat="43.62959" lon="0.62365">
        <ele>160.68</ele>
        <time>2016-06-24T11:37:48Z</time>
      </trkpt>
      <trkpt lat="43.62959" lon="0.62259">
        <ele>157.79</ele>
        <time>2016-06-24T11:37:52Z</time>
      </trkpt>
      <trkpt lat="43.62967" lon="0.62205">
        <ele>154.91</ele>
        <time>2016-06-24T11:37:54Z</time>
      </trkpt>
      <trkpt lat="43.62983" lon="0.62126">
        <ele>152.99</ele>
        <time>2016-06-24T11:37:57Z</time>
      </trkpt>
      <trkpt lat="43.62997" lon="0.62018">
        <ele>149.62</ele>
        <time>2016-06-24T11:38:01Z</time>
      </trkpt>
      <trkpt lat="43.62998" lon="0.61965">
        <ele>148.18</ele>
        <time>2016-06-24T11:38:03Z</time>
      </trkpt>
      <trkpt lat="43.62994" lon="0.61887">
        <ele>145.3</ele>
        <time>2016-06-24T11:38:06Z</time>
      </trkpt>
      <trkpt lat="43.62987" lon="0.61784">
        <ele>141.93</ele>
        <time>2016-06-24T11:38:10Z</time>
      </trkpt>
      <trkpt lat="43.6299" lon="0.61683">
        <ele>139.05</ele>
        <time>2016-06-24T11:38:14Z</time>
      </trkpt>
      <trkpt lat="43.63001" lon="0.61634">
        <ele>138.09</ele>
        <time>2016-06-24T11:38:16Z</time>
      </trkpt>
      <trkpt lat="43.63037" lon="0.61539">
        <ele>135.2</ele>
        <time>2016-06-24T11:38:20Z</time>
      </trkpt>
      <trkpt lat="43.63082" lon="0.61447">
        <ele>130.4</ele>
        <time>2016-06-24T11:38:24Z</time>
      </trkpt>
      <trkpt lat="43.63095" lon="0.61425">
        <ele>130.88</ele>
        <time>2016-06-24T11:38:25Z</time>
      </trkpt>
      <trkpt lat="43.63122" lon="0.61383">
        <ele>128.95</ele>
        <time>2016-06-24T11:38:27Z</time>
      </trkpt>
      <trkpt lat="43.63199" lon="0.61271">
        <ele>124.63</ele>
        <time>2016-06-24T11:38:32Z</time>
      </trkpt>
      <trkpt lat="43.63247" lon="0.61201">
        <ele>122.71</ele>
        <time>2016-06-24T11:38:35Z</time>
      </trkpt>
      <trkpt lat="43.63295" lon="0.61133">
        <ele>118.86</ele>
        <time>2016-06-24T11:38:38Z</time>
      </trkpt>
      <trkpt lat="43.63327" lon="0.61089">
        <ele>116.94</ele>
        <time>2016-06-24T11:38:40Z</time>
      </trkpt>
      <trkpt lat="43.6336" lon="0.61045">
        <ele>113.57</ele>
        <time>2016-06-24T11:38:42Z</time>
      </trkpt>
      <trkpt lat="43.63376" lon="0.61024">
        <ele>113.57</ele>
        <time>2016-06-24T11:38:43Z</time>
      </trkpt>
      <trkpt lat="43.63422" lon="0.60962">
        <ele>110.21</ele>
        <time>2016-06-24T11:38:46Z</time>
      </trkpt>
      <trkpt lat="43.63438" lon="0.60942">
        <ele>110.69</ele>
        <time>2016-06-24T11:38:47Z</time>
      </trkpt>
      <trkpt lat="43.63504" lon="0.60864">
        <ele>110.69</ele>
        <time>2016-06-24T11:38:51Z</time>
      </trkpt>
      <trkpt lat="43.63558" lon="0.60758">
        <ele>107.81</ele>
        <time>2016-06-24T11:38:56Z</time>
      </trkpt>
      <trkpt lat="43.63636" lon="0.60526">
        <ele>106.36</ele>
        <time>2016-06-24T11:39:07Z</time>
      </trkpt>
      <trkpt lat="43.63708" lon="0.60386">
        <ele>102.52</ele>
        <time>2016-06-24T11:39:14Z</time>
      </trkpt>
      <trkpt lat="43.6377" lon="0.60275">
        <ele>99.15</ele>
        <time>2016-06-24T11:39:20Z</time>
      </trkpt>
      <trkpt lat="43.6378" lon="0.60256">
        <ele>99.15</ele>
        <time>2016-06-24T11:39:21Z</time>
      </trkpt>
      <trkpt lat="43.63856" lon="0.60084">
        <ele>94.83</ele>
        <time>2016-06-24T11:39:30Z</time>
      </trkpt>
      <trkpt lat="43.63862" lon="0.60067">
        <ele>94.83</ele>
        <time>2016-06-24T11:39:31Z</time>
      </trkpt>
      <trkpt lat="43.63896" lon="0.59972">
        <ele>95.31</ele>
        <time>2016-06-24T11:39:37Z</time>
      </trkpt>
      <trkpt lat="43.63947" lon="0.5989">
        <ele>94.83</ele>
        <time>2016-06-24T11:39:43Z</time>
      </trkpt>
      <trkpt lat="43.63993" lon="0.59831">
        <ele>93.39</ele>
        <time>2016-06-24T11:39:48Z</time>
      </trkpt>
      <trkpt lat="43.64046" lon="0.59706">
        <ele>90.02</ele>
        <time>2016-06-24T11:39:57Z</time>
      </trkpt>
      <trkpt lat="43.64079" lon="0.59612">
        <ele>87.62</ele>
        <time>2016-06-24T11:40:05Z</time>
      </trkpt>
      <trkpt lat="43.64095" lon="0.59577">
        <ele>86.66</ele>
        <time>2016-06-24T11:40:09Z</time>
      </trkpt>
      <trkpt lat="43.64119" lon="0.59538">
        <ele>84.25</ele>
        <time>2016-06-24T11:40:17Z</time>
      </trkpt>
      <trkpt lat="43.64136" lon="0.59549">
        <ele>84.25</ele>
        <time>2016-06-24T11:40:30Z</time>
      </trkpt>
      <trkpt lat="43.64158" lon="0.5956">
        <ele>85.21</ele>
        <time>2016-06-24T11:40:36Z</time>
      </trkpt>
      <trkpt lat="43.64193" lon="0.59576">
        <ele>86.18</ele>
        <time>2016-06-24T11:40:40Z</time>
      </trkpt>
      <trkpt lat="43.64314" lon="0.596">
        <ele>87.14</ele>
        <time>2016-06-24T11:40:51Z</time>
      </trkpt>
      <trkpt lat="43.64452" lon="0.59605">
        <ele>86.18</ele>
        <time>2016-06-24T11:41:03Z</time>
      </trkpt>
      <trkpt lat="43.64526" lon="0.59608">
        <ele>86.66</ele>
        <time>2016-06-24T11:41:11Z</time>
      </trkpt>
      <trkpt lat="43.6454" lon="0.59608">
        <ele>85.21</ele>
        <time>2016-06-24T11:41:18Z</time>
      </trkpt>
      <trkpt lat="43.64542" lon="0.59608">
        <ele>85.21</ele>
        <time>2016-06-24T11:41:36Z</time>
      </trkpt>
      <trkpt lat="43.64558" lon="0.59609">
        <ele>86.18</ele>
        <time>2016-06-24T11:41:39Z</time>
      </trkpt>
      <trkpt lat="43.6459" lon="0.59614">
        <ele>86.66</ele>
        <time>2016-06-24T11:41:43Z</time>
      </trkpt>
      <trkpt lat="43.64653" lon="0.59615">
        <ele>85.69</ele>
        <time>2016-06-24T11:41:51Z</time>
      </trkpt>
      <trkpt lat="43.64672" lon="0.59594">
        <ele>85.69</ele>
        <time>2016-06-24T11:41:56Z</time>
      </trkpt>
      <trkpt lat="43.64684" lon="0.59547">
        <ele>84.25</ele>
        <time>2016-06-24T11:42:02Z</time>
      </trkpt>
      <trkpt lat="43.64714" lon="0.59434">
        <ele>82.81</ele>
        <time>2016-06-24T11:42:12Z</time>
      </trkpt>
      <trkpt lat="43.64723" lon="0.59403">
        <ele>82.33</ele>
        <time>2016-06-24T11:42:15Z</time>
      </trkpt>
      <trkpt lat="43.64774" lon="0.59334">
        <ele>80.41</ele>
        <time>2016-06-24T11:42:25Z</time>
      </trkpt>
      <trkpt lat="43.648" lon="0.5931">
        <ele>78.48</ele>
        <time>2016-06-24T11:42:33Z</time>
      </trkpt>
      <trkpt lat="43.64821" lon="0.59299">
        <ele>79.45</ele>
        <time>2016-06-24T11:42:42Z</time>
      </trkpt>
      <trkpt lat="43.64821" lon="0.59299">
        <ele>79.93</ele>
        <time>2016-06-24T11:42:49Z</time>
      </trkpt>
      <trkpt lat="43.64827" lon="0.59275">
        <ele>78.97</ele>
        <time>2016-06-24T11:42:55Z</time>
      </trkpt>
      <trkpt lat="43.64826" lon="0.59258">
        <ele>78.97</ele>
        <time>2016-06-24T11:42:57Z</time>
      </trkpt>
      <trkpt lat="43.64848" lon="0.59144">
        <ele>80.89</ele>
        <time>2016-06-24T11:43:08Z</time>
      </trkpt>
      <trkpt lat="43.64868" lon="0.59074">
        <ele>82.81</ele>
        <time>2016-06-24T11:43:18Z</time>
      </trkpt>
      <trkpt lat="43.64898" lon="0.58957">
        <ele>82.81</ele>
        <time>2016-06-24T11:43:30Z</time>
      </trkpt>
      <trkpt lat="43.64924" lon="0.5887">
        <ele>83.29</ele>
        <time>2016-06-24T11:43:41Z</time>
      </trkpt>
      <trkpt lat="43.64925" lon="0.58867">
        <ele>82.33</ele>
        <time>2016-06-24T11:43:54Z</time>
      </trkpt>
      <trkpt lat="43.64934" lon="0.58838">
        <ele>84.73</ele>
        <time>2016-06-24T11:44:30Z</time>
      </trkpt>
      <trkpt lat="43.64942" lon="0.58808">
        <ele>86.66</ele>
        <time>2016-06-24T11:44:34Z</time>
      </trkpt>
      <trkpt lat="43.64953" lon="0.5876">
        <ele>90.98</ele>
        <time>2016-06-24T11:44:39Z</time>
      </trkpt>
      <trkpt lat="43.64955" lon="0.58749">
        <ele>90.5</ele>
        <time>2016-06-24T11:44:40Z</time>
      </trkpt>
      <trkpt lat="43.64969" lon="0.58689">
        <ele>93.39</ele>
        <time>2016-06-24T11:44:45Z</time>
      </trkpt>
      <trkpt lat="43.64968" lon="0.58677">
        <ele>93.39</ele>
        <time>2016-06-24T11:44:46Z</time>
      </trkpt>
      <trkpt lat="43.64967" lon="0.58665">
        <ele>93.39</ele>
        <time>2016-06-24T11:44:47Z</time>
      </trkpt>
      <trkpt lat="43.64962" lon="0.58628">
        <ele>95.31</ele>
        <time>2016-06-24T11:44:50Z</time>
      </trkpt>
      <trkpt lat="43.64951" lon="0.58563">
        <ele>99.63</ele>
        <time>2016-06-24T11:44:55Z</time>
      </trkpt>
      <trkpt lat="43.64949" lon="0.58549">
        <ele>98.67</ele>
        <time>2016-06-24T11:44:56Z</time>
      </trkpt>
      <trkpt lat="43.64943" lon="0.58509">
        <ele>101.08</ele>
        <time>2016-06-24T11:44:59Z</time>
      </trkpt>
      <trkpt lat="43.64939" lon="0.58482">
        <ele>102.04</ele>
        <time>2016-06-24T11:45:01Z</time>
      </trkpt>
      <trkpt lat="43.64933" lon="0.58457">
        <ele>103.96</ele>
        <time>2016-06-24T11:45:03Z</time>
      </trkpt>
      <trkpt lat="43.64929" lon="0.58445">
        <ele>103.96</ele>
        <time>2016-06-24T11:45:04Z</time>
      </trkpt>
      <trkpt lat="43.64922" lon="0.58436">
        <ele>103.48</ele>
        <time>2016-06-24T11:45:05Z</time>
      </trkpt>
      <trkpt lat="43.64915" lon="0.5843">
        <ele>104.44</ele>
        <time>2016-06-24T11:45:06Z</time>
      </trkpt>
      <trkpt lat="43.64908" lon="0.58426">
        <ele>104.44</ele>
        <time>2016-06-24T11:45:07Z</time>
      </trkpt>
      <trkpt lat="43.649" lon="0.58421">
        <ele>104.44</ele>
        <time>2016-06-24T11:45:09Z</time>
      </trkpt>
      <trkpt lat="43.64892" lon="0.58426">
        <ele>101.08</ele>
        <time>2016-06-24T11:45:15Z</time>
      </trkpt>
      <trkpt lat="43.64892" lon="0.58426">
        <ele>105.4</ele>
        <time>2016-06-24T11:45:17Z</time>
      </trkpt>
      <trkpt lat="43.64892" lon="0.58426">
        <ele>104.92</ele>
        <time>2016-06-24T11:45:18Z</time>
      </trkpt>
      <trkpt lat="43.64892" lon="0.58426">
        <ele>104.44</ele>
        <time>2016-06-24T11:45:35Z</time>
      </trkpt>
      <trkpt lat="43.64863" lon="0.58456">
        <ele>106.36</ele>
        <time>2016-06-24T11:45:45Z</time>
      </trkpt>
      <trkpt lat="43.64834" lon="0.58487">
        <ele>109.25</ele>
        <time>2016-06-24T11:45:53Z</time>
      </trkpt>
      <trkpt lat="43.64802" lon="0.58529">
        <ele>111.65</ele>
        <time>2016-06-24T11:45:59Z</time>
      </trkpt>
      <trkpt lat="43.64792" lon="0.58534">
        <ele>112.13</ele>
        <time>2016-06-24T11:46:01Z</time>
      </trkpt>
      <trkpt lat="43.64787" lon="0.58532">
        <ele>112.61</ele>
        <time>2016-06-24T11:46:02Z</time>
      </trkpt>
      <trkpt lat="43.64782" lon="0.58527">
        <ele>113.09</ele>
        <time>2016-06-24T11:46:03Z</time>
      </trkpt>
      <trkpt lat="43.64777" lon="0.58521">
        <ele>113.57</ele>
        <time>2016-06-24T11:46:04Z</time>
      </trkpt>
      <trkpt lat="43.64773" lon="0.58514">
        <ele>114.53</ele>
        <time>2016-06-24T11:46:05Z</time>
      </trkpt>
      <trkpt lat="43.64769" lon="0.58507">
        <ele>114.53</ele>
        <time>2016-06-24T11:46:06Z</time>
      </trkpt>
      <trkpt lat="43.64753" lon="0.58486">
        <ele>115.98</ele>
        <time>2016-06-24T11:46:09Z</time>
      </trkpt>
      <trkpt lat="43.64728" lon="0.58452">
        <ele>117.42</ele>
        <time>2016-06-24T11:46:14Z</time>
      </trkpt>
      <trkpt lat="43.64707" lon="0.58423">
        <ele>118.86</ele>
        <time>2016-06-24T11:46:23Z</time>
      </trkpt>
      <trkpt lat="43.64697" lon="0.58407">
        <ele>118.86</ele>
        <time>2016-06-24T11:46:32Z</time>
      </trkpt>
      <trkpt lat="43.64698" lon="0.58404">
        <ele>118.86</ele>
        <time>2016-06-24T11:46:33Z</time>
      </trkpt>
      <trkpt lat="43.64707" lon="0.58376">
        <ele>119.34</ele>
        <time>2016-06-24T11:46:41Z</time>
      </trkpt>
      <trkpt lat="43.64708" lon="0.58374">
        <ele>119.82</ele>
        <time>2016-06-24T11:46:57Z</time>
      </trkpt>
      <trkpt lat="43.64708" lon="0.58374">
        <ele>118.86</ele>
        <time>2016-06-24T11:51:40Z</time>
      </trkpt>
      <trkpt lat="43.64709" lon="0.58374">
        <ele>119.82</ele>
        <time>2016-06-24T11:52:16Z</time>
      </trkpt>
      <trkpt lat="43.64709" lon="0.58373">
        <ele>119.82</ele>
        <time>2016-06-24T11:53:35Z</time>
      </trkpt>
      <trkpt lat="43.64709" lon="0.58373">
        <ele>121.74</ele>
        <time>2016-06-24T11:54:21Z</time>
      </trkpt>
      <trkpt lat="43.64708" lon="0.58373">
        <ele>119.82</ele>
        <time>2016-06-24T11:56:45Z</time>
      </trkpt>
      <trkpt lat="43.64708" lon="0.58373">
        <ele>121.26</ele>
        <time>2016-06-24T11:56:48Z</time>
      </trkpt>
      <trkpt lat="43.64708" lon="0.58373">
        <ele>120.3</ele>
        <time>2016-06-24T11:58:37Z</time>
      </trkpt>
      <trkpt lat="43.64708" lon="0.58373">
        <ele>121.74</ele>
        <time>2016-06-24T11:59:36Z</time>
      </trkpt>
      <trkpt lat="43.64708" lon="0.58373">
        <ele>120.3</ele>
        <time>2016-06-24T12:00:30Z</time>
      </trkpt>
      <trkpt lat="43.64708" lon="0.58373">
        <ele>120.78</ele>
        <time>2016-06-24T12:00:41Z</time>
      </trkpt>
      <trkpt lat="43.64708" lon="0.58373">
        <ele>121.74</ele>
        <time>2016-06-24T12:00:55Z</time>
      </trkpt>
      <trkpt lat="43.64708" lon="0.58373">
        <ele>120.3</ele>
        <time>2016-06-24T12:01:21Z</time>
      </trkpt>
      <trkpt lat="43.64708" lon="0.58373">
        <ele>120.3</ele>
        <time>2016-06-24T12:01:26Z</time>
      </trkpt>
      <trkpt lat="43.64708" lon="0.58373">
        <ele>119.82</ele>
        <time>2016-06-24T12:01:43Z</time>
      </trkpt>
      <trkpt lat="43.64708" lon="0.58374">
        <ele>122.22</ele>
        <time>2016-06-24T12:03:22Z</time>
      </trkpt>
      <trkpt lat="43.64708" lon="0.58374">
        <ele>120.78</ele>
        <time>2016-06-24T12:03:25Z</time>
      </trkpt>
      <trkpt lat="43.64708" lon="0.58374">
        <ele>121.74</ele>
        <time>2016-06-24T12:03:35Z</time>
      </trkpt>
      <trkpt lat="43.64708" lon="0.58374">
        <ele>120.78</ele>
        <time>2016-06-24T12:03:37Z</time>
      </trkpt>
      <trkpt lat="43.64707" lon="0.58374">
        <ele>119.82</ele>
        <time>2016-06-24T12:04:34Z</time>
      </trkpt>
      <trkpt lat="43.64707" lon="0.58374">
        <ele>120.3</ele>
        <time>2016-06-24T12:04:49Z</time>
      </trkpt>
      <trkpt lat="43.64707" lon="0.58373">
        <ele>119.82</ele>
        <time>2016-06-24T12:05:41Z</time>
      </trkpt>
      <trkpt lat="43.64707" lon="0.58373">
        <ele>121.26</ele>
        <time>2016-06-24T12:05:43Z</time>
      </trkpt>
      <trkpt lat="43.64707" lon="0.58373">
        <ele>121.74</ele>
        <time>2016-06-24T12:06:03Z</time>
      </trkpt>
      <trkpt lat="43.64707" lon="0.58373">
        <ele>120.78</ele>
        <time>2016-06-24T12:06:05Z</time>
      </trkpt>
      <trkpt lat="43.64707" lon="0.58374">
        <ele>120.78</ele>
        <time>2016-06-24T12:07:25Z</time>
      </trkpt>
      <trkpt lat="43.64707" lon="0.58374">
        <ele>121.74</ele>
        <time>2016-06-24T12:07:55Z</time>
      </trkpt>
      <trkpt lat="43.64707" lon="0.58374">
        <ele>122.22</ele>
        <time>2016-06-24T12:08:38Z</time>
      </trkpt>
      <trkpt lat="43.64707" lon="0.58374">
        <ele>121.74</ele>
        <time>2016-06-24T12:09:13Z</time>
      </trkpt>
      <trkpt lat="43.64707" lon="0.58374">
        <ele>122.22</ele>
        <time>2016-06-24T12:10:31Z</time>
      </trkpt>
      <trkpt lat="43.64707" lon="0.58374">
        <ele>121.26</ele>
        <time>2016-06-24T12:11:25Z</time>
      </trkpt>
      <trkpt lat="43.64707" lon="0.58374">
        <ele>122.71</ele>
        <time>2016-06-24T12:12:12Z</time>
      </trkpt>
      <trkpt lat="43.64707" lon="0.58374">
        <ele>122.22</ele>
        <time>2016-06-24T12:12:39Z</time>
      </trkpt>
      <trkpt lat="43.64707" lon="0.58373">
        <ele>122.22</ele>
        <time>2016-06-24T12:14:01Z</time>
      </trkpt>
      <trkpt lat="43.64708" lon="0.58373">
        <ele>121.26</ele>
        <time>2016-06-24T12:20:08Z</time>
      </trkpt>
      <trkpt lat="43.64709" lon="0.58373">
        <ele>121.74</ele>
        <time>2016-06-24T12:22:53Z</time>
      </trkpt>
      <trkpt lat="43.64709" lon="0.58373">
        <ele>121.26</ele>
        <time>2016-06-24T12:25:16Z</time>
      </trkpt>
      <trkpt lat="43.64708" lon="0.58371">
        <ele>122.22</ele>
        <time>2016-06-24T12:25:26Z</time>
      </trkpt>
      <trkpt lat="43.64705" lon="0.58363">
        <ele>122.22</ele>
        <time>2016-06-24T12:25:41Z</time>
      </trkpt>
      <trkpt lat="43.64694" lon="0.58356">
        <ele>122.22</ele>
        <time>2016-06-24T12:25:48Z</time>
      </trkpt>
      <trkpt lat="43.6469" lon="0.58356">
        <ele>122.71</ele>
        <time>2016-06-24T12:25:49Z</time>
      </trkpt>
      <trkpt lat="43.64687" lon="0.58359">
        <ele>122.22</ele>
        <time>2016-06-24T12:25:50Z</time>
      </trkpt>
      <trkpt lat="43.64685" lon="0.58362">
        <ele>122.71</ele>
        <time>2016-06-24T12:25:51Z</time>
      </trkpt>
      <trkpt lat="43.64683" lon="0.58365">
        <ele>123.19</ele>
        <time>2016-06-24T12:25:52Z</time>
      </trkpt>
      <trkpt lat="43.64682" lon="0.58369">
        <ele>122.71</ele>
        <time>2016-06-24T12:25:53Z</time>
      </trkpt>
      <trkpt lat="43.6468" lon="0.58373">
        <ele>122.22</ele>
        <time>2016-06-24T12:25:54Z</time>
      </trkpt>
      <trkpt lat="43.64671" lon="0.58399">
        <ele>122.71</ele>
        <time>2016-06-24T12:25:59Z</time>
      </trkpt>
      <trkpt lat="43.64661" lon="0.58424">
        <ele>121.26</ele>
        <time>2016-06-24T12:26:04Z</time>
      </trkpt>
      <trkpt lat="43.64657" lon="0.58442">
        <ele>121.26</ele>
        <time>2016-06-24T12:26:07Z</time>
      </trkpt>
      <trkpt lat="43.64655" lon="0.58447">
        <ele>121.26</ele>
        <time>2016-06-24T12:26:08Z</time>
      </trkpt>
      <trkpt lat="43.64633" lon="0.58488">
        <ele>118.86</ele>
        <time>2016-06-24T12:26:18Z</time>
      </trkpt>
      <trkpt lat="43.64628" lon="0.58505">
        <ele>118.86</ele>
        <time>2016-06-24T12:26:21Z</time>
      </trkpt>
      <trkpt lat="43.64608" lon="0.58584">
        <ele>118.86</ele>
        <time>2016-06-24T12:26:34Z</time>
      </trkpt>
      <trkpt lat="43.64597" lon="0.58588">
        <ele>119.82</ele>
        <time>2016-06-24T12:26:39Z</time>
      </trkpt>
      <trkpt lat="43.64579" lon="0.58584">
        <ele>119.82</ele>
        <time>2016-06-24T12:26:43Z</time>
      </trkpt>
      <trkpt lat="43.6456" lon="0.58597">
        <ele>119.34</ele>
        <time>2016-06-24T12:26:47Z</time>
      </trkpt>
      <trkpt lat="43.6455" lon="0.58636">
        <ele>117.9</ele>
        <time>2016-06-24T12:26:54Z</time>
      </trkpt>
      <trkpt lat="43.64562" lon="0.5865">
        <ele>116.94</ele>
        <time>2016-06-24T12:26:59Z</time>
      </trkpt>
      <trkpt lat="43.64572" lon="0.58653">
        <ele>115.98</ele>
        <time>2016-06-24T12:27:01Z</time>
      </trkpt>
      <trkpt lat="43.64596" lon="0.58642">
        <ele>116.46</ele>
        <time>2016-06-24T12:27:08Z</time>
      </trkpt>
      <trkpt lat="43.64605" lon="0.58595">
        <ele>118.38</ele>
        <time>2016-06-24T12:27:17Z</time>
      </trkpt>
      <trkpt lat="43.64608" lon="0.5859">
        <ele>119.82</ele>
        <time>2016-06-24T12:27:33Z</time>
      </trkpt>
      <trkpt lat="43.64582" lon="0.58588">
        <ele>119.82</ele>
        <time>2016-06-24T12:27:39Z</time>
      </trkpt>
      <trkpt lat="43.64565" lon="0.58605">
        <ele>118.38</ele>
        <time>2016-06-24T12:27:45Z</time>
      </trkpt>
      <trkpt lat="43.64555" lon="0.58643">
        <ele>117.42</ele>
        <time>2016-06-24T12:27:54Z</time>
      </trkpt>
      <trkpt lat="43.64562" lon="0.58649">
        <ele>118.38</ele>
        <time>2016-06-24T12:28:00Z</time>
      </trkpt>
      <trkpt lat="43.64572" lon="0.58645">
        <ele>118.38</ele>
        <time>2016-06-24T12:28:03Z</time>
      </trkpt>
      <trkpt lat="43.64588" lon="0.58615">
        <ele>118.38</ele>
        <time>2016-06-24T12:28:07Z</time>
      </trkpt>
      <trkpt lat="43.64599" lon="0.58577">
        <ele>119.34</ele>
        <time>2016-06-24T12:28:12Z</time>
      </trkpt>
      <trkpt lat="43.64618" lon="0.58502">
        <ele>119.34</ele>
        <time>2016-06-24T12:28:22Z</time>
      </trkpt>
      <trkpt lat="43.64624" lon="0.58481">
        <ele>120.78</ele>
        <time>2016-06-24T12:28:25Z</time>
      </trkpt>
      <trkpt lat="43.64636" lon="0.58475">
        <ele>120.78</ele>
        <time>2016-06-24T12:28:27Z</time>
      </trkpt>
      <trkpt lat="43.64652" lon="0.58456">
        <ele>120.78</ele>
        <time>2016-06-24T12:28:30Z</time>
      </trkpt>
      <trkpt lat="43.64667" lon="0.58416">
        <ele>122.71</ele>
        <time>2016-06-24T12:28:35Z</time>
      </trkpt>
      <trkpt lat="43.64685" lon="0.58387">
        <ele>122.71</ele>
        <time>2016-06-24T12:28:42Z</time>
      </trkpt>
      <trkpt lat="43.64695" lon="0.58368">
        <ele>123.19</ele>
        <time>2016-06-24T12:28:45Z</time>
      </trkpt>
      <trkpt lat="43.64696" lon="0.58361">
        <ele>122.71</ele>
        <time>2016-06-24T12:28:46Z</time>
      </trkpt>
      <trkpt lat="43.64695" lon="0.58355">
        <ele>122.22</ele>
        <time>2016-06-24T12:28:47Z</time>
      </trkpt>
      <trkpt lat="43.64692" lon="0.58351">
        <ele>123.19</ele>
        <time>2016-06-24T12:28:48Z</time>
      </trkpt>
      <trkpt lat="43.64688" lon="0.58347">
        <ele>123.19</ele>
        <time>2016-06-24T12:28:49Z</time>
      </trkpt>
      <trkpt lat="43.64684" lon="0.58342">
        <ele>123.19</ele>
        <time>2016-06-24T12:28:50Z</time>
      </trkpt>
      <trkpt lat="43.6468" lon="0.58338">
        <ele>123.19</ele>
        <time>2016-06-24T12:28:51Z</time>
      </trkpt>
      <trkpt lat="43.64658" lon="0.58308">
        <ele>117.42</ele>
        <time>2016-06-24T12:28:58Z</time>
      </trkpt>
      <trkpt lat="43.64654" lon="0.58305">
        <ele>121.74</ele>
        <time>2016-06-24T12:28:59Z</time>
      </trkpt>
      <trkpt lat="43.64644" lon="0.58297">
        <ele>120.3</ele>
        <time>2016-06-24T12:29:02Z</time>
      </trkpt>
      <trkpt lat="43.64641" lon="0.58294">
        <ele>115.5</ele>
        <time>2016-06-24T12:29:03Z</time>
      </trkpt>
      <trkpt lat="43.64637" lon="0.58292">
        <ele>116.46</ele>
        <time>2016-06-24T12:29:04Z</time>
      </trkpt>
      <trkpt lat="43.6463" lon="0.58286">
        <ele>117.9</ele>
        <time>2016-06-24T12:29:06Z</time>
      </trkpt>
      <trkpt lat="43.64603" lon="0.5827">
        <ele>114.53</ele>
        <time>2016-06-24T12:29:12Z</time>
      </trkpt>
      <trkpt lat="43.64598" lon="0.58267">
        <ele>114.05</ele>
        <time>2016-06-24T12:29:13Z</time>
      </trkpt>
      <trkpt lat="43.64582" lon="0.58258">
        <ele>111.17</ele>
        <time>2016-06-24T12:29:16Z</time>
      </trkpt>
      <trkpt lat="43.64577" lon="0.58255">
        <ele>111.65</ele>
        <time>2016-06-24T12:29:17Z</time>
      </trkpt>
      <trkpt lat="43.64558" lon="0.58244">
        <ele>108.77</ele>
        <time>2016-06-24T12:29:21Z</time>
      </trkpt>
      <trkpt lat="43.64544" lon="0.58233">
        <ele>107.81</ele>
        <time>2016-06-24T12:29:24Z</time>
      </trkpt>
      <trkpt lat="43.64541" lon="0.58228">
        <ele>106.84</ele>
        <time>2016-06-24T12:29:25Z</time>
      </trkpt>
      <trkpt lat="43.6454" lon="0.58221">
        <ele>106.36</ele>
        <time>2016-06-24T12:29:26Z</time>
      </trkpt>
      <trkpt lat="43.6454" lon="0.58214">
        <ele>106.36</ele>
        <time>2016-06-24T12:29:27Z</time>
      </trkpt>
      <trkpt lat="43.64541" lon="0.582">
        <ele>105.4</ele>
        <time>2016-06-24T12:29:29Z</time>
      </trkpt>
      <trkpt lat="43.64543" lon="0.58195">
        <ele>104.44</ele>
        <time>2016-06-24T12:29:30Z</time>
      </trkpt>
      <trkpt lat="43.64546" lon="0.58191">
        <ele>104.44</ele>
        <time>2016-06-24T12:29:31Z</time>
      </trkpt>
      <trkpt lat="43.64548" lon="0.58187">
        <ele>103.96</ele>
        <time>2016-06-24T12:29:32Z</time>
      </trkpt>
      <trkpt lat="43.64551" lon="0.58184">
        <ele>105.4</ele>
        <time>2016-06-24T12:29:33Z</time>
      </trkpt>
      <trkpt lat="43.64554" lon="0.58181">
        <ele>104.92</ele>
        <time>2016-06-24T12:29:34Z</time>
      </trkpt>
      <trkpt lat="43.64597" lon="0.58142">
        <ele>108.29</ele>
        <time>2016-06-24T12:29:41Z</time>
      </trkpt>
      <trkpt lat="43.6461" lon="0.58127">
        <ele>108.77</ele>
        <time>2016-06-24T12:29:43Z</time>
      </trkpt>
      <trkpt lat="43.64648" lon="0.58076">
        <ele>112.13</ele>
        <time>2016-06-24T12:29:50Z</time>
      </trkpt>
      <trkpt lat="43.64653" lon="0.58069">
        <ele>112.13</ele>
        <time>2016-06-24T12:29:51Z</time>
      </trkpt>
      <trkpt lat="43.64659" lon="0.58064">
        <ele>112.61</ele>
        <time>2016-06-24T12:29:52Z</time>
      </trkpt>
      <trkpt lat="43.64666" lon="0.58059">
        <ele>114.05</ele>
        <time>2016-06-24T12:29:53Z</time>
      </trkpt>
      <trkpt lat="43.64673" lon="0.58056">
        <ele>115.5</ele>
        <time>2016-06-24T12:29:54Z</time>
      </trkpt>
      <trkpt lat="43.64682" lon="0.58053">
        <ele>115.01</ele>
        <time>2016-06-24T12:29:55Z</time>
      </trkpt>
      <trkpt lat="43.64699" lon="0.58047">
        <ele>116.94</ele>
        <time>2016-06-24T12:29:57Z</time>
      </trkpt>
      <trkpt lat="43.64733" lon="0.58034">
        <ele>119.34</ele>
        <time>2016-06-24T12:30:02Z</time>
      </trkpt>
      <trkpt lat="43.64767" lon="0.58021">
        <ele>121.26</ele>
        <time>2016-06-24T12:30:07Z</time>
      </trkpt>
      <trkpt lat="43.6483" lon="0.57997">
        <ele>124.63</ele>
        <time>2016-06-24T12:30:15Z</time>
      </trkpt>
      <trkpt lat="43.64853" lon="0.57988">
        <ele>125.59</ele>
        <time>2016-06-24T12:30:19Z</time>
      </trkpt>
      <trkpt lat="43.64858" lon="0.57988">
        <ele>125.11</ele>
        <time>2016-06-24T12:30:20Z</time>
      </trkpt>
      <trkpt lat="43.64869" lon="0.57997">
        <ele>127.99</ele>
        <time>2016-06-24T12:30:22Z</time>
      </trkpt>
      <trkpt lat="43.64881" lon="0.58013">
        <ele>127.99</ele>
        <time>2016-06-24T12:30:29Z</time>
      </trkpt>
      <trkpt lat="43.64881" lon="0.58014">
        <ele>130.4</ele>
        <time>2016-06-24T12:30:37Z</time>
      </trkpt>
      <trkpt lat="43.64881" lon="0.58014">
        <ele>128.95</ele>
        <time>2016-06-24T12:30:39Z</time>
      </trkpt>
      <trkpt lat="43.64885" lon="0.58018">
        <ele>128.95</ele>
        <time>2016-06-24T12:31:05Z</time>
      </trkpt>
      <trkpt lat="43.64892" lon="0.58017">
        <ele>130.88</ele>
        <time>2016-06-24T12:31:07Z</time>
      </trkpt>
      <trkpt lat="43.64898" lon="0.58009">
        <ele>130.4</ele>
        <time>2016-06-24T12:31:09Z</time>
      </trkpt>
      <trkpt lat="43.64916" lon="0.57977">
        <ele>131.36</ele>
        <time>2016-06-24T12:31:14Z</time>
      </trkpt>
      <trkpt lat="43.64965" lon="0.57892">
        <ele>134.72</ele>
        <time>2016-06-24T12:31:24Z</time>
      </trkpt>
      <trkpt lat="43.6497" lon="0.57881">
        <ele>134.24</ele>
        <time>2016-06-24T12:31:25Z</time>
      </trkpt>
      <trkpt lat="43.65025" lon="0.57785">
        <ele>138.09</ele>
        <time>2016-06-24T12:31:33Z</time>
      </trkpt>
      <trkpt lat="43.65033" lon="0.57772">
        <ele>138.57</ele>
        <time>2016-06-24T12:31:34Z</time>
      </trkpt>
      <trkpt lat="43.65103" lon="0.57662">
        <ele>142.41</ele>
        <time>2016-06-24T12:31:43Z</time>
      </trkpt>
      <trkpt lat="43.65111" lon="0.57649">
        <ele>141.93</ele>
        <time>2016-06-24T12:31:44Z</time>
      </trkpt>
      <trkpt lat="43.65152" lon="0.57585">
        <ele>145.3</ele>
        <time>2016-06-24T12:31:49Z</time>
      </trkpt>
      <trkpt lat="43.65181" lon="0.57532">
        <ele>147.7</ele>
        <time>2016-06-24T12:31:53Z</time>
      </trkpt>
      <trkpt lat="43.65202" lon="0.5749">
        <ele>150.58</ele>
        <time>2016-06-24T12:31:56Z</time>
      </trkpt>
      <trkpt lat="43.65238" lon="0.57414">
        <ele>152.51</ele>
        <time>2016-06-24T12:32:01Z</time>
      </trkpt>
      <trkpt lat="43.65266" lon="0.57347">
        <ele>156.35</ele>
        <time>2016-06-24T12:32:05Z</time>
      </trkpt>
      <trkpt lat="43.65273" lon="0.57329">
        <ele>156.35</ele>
        <time>2016-06-24T12:32:06Z</time>
      </trkpt>
      <trkpt lat="43.65312" lon="0.57214">
        <ele>159.72</ele>
        <time>2016-06-24T12:32:12Z</time>
      </trkpt>
      <trkpt lat="43.65326" lon="0.57173">
        <ele>160.68</ele>
        <time>2016-06-24T12:32:14Z</time>
      </trkpt>
      <trkpt lat="43.65353" lon="0.57091">
        <ele>164.04</ele>
        <time>2016-06-24T12:32:18Z</time>
      </trkpt>
      <trkpt lat="43.6536" lon="0.5707">
        <ele>163.56</ele>
        <time>2016-06-24T12:32:19Z</time>
      </trkpt>
      <trkpt lat="43.65406" lon="0.56928">
        <ele>167.89</ele>
        <time>2016-06-24T12:32:26Z</time>
      </trkpt>
      <trkpt lat="43.65412" lon="0.56908">
        <ele>167.89</ele>
        <time>2016-06-24T12:32:27Z</time>
      </trkpt>
      <trkpt lat="43.65506" lon="0.56622">
        <ele>171.25</ele>
        <time>2016-06-24T12:32:41Z</time>
      </trkpt>
      <trkpt lat="43.65512" lon="0.56602">
        <ele>170.77</ele>
        <time>2016-06-24T12:32:42Z</time>
      </trkpt>
      <trkpt lat="43.65539" lon="0.56522">
        <ele>173.17</ele>
        <time>2016-06-24T12:32:46Z</time>
      </trkpt>
      <trkpt lat="43.65564" lon="0.56443">
        <ele>176.54</ele>
        <time>2016-06-24T12:32:50Z</time>
      </trkpt>
      <trkpt lat="43.6557" lon="0.56423">
        <ele>177.02</ele>
        <time>2016-06-24T12:32:51Z</time>
      </trkpt>
      <trkpt lat="43.65574" lon="0.56403">
        <ele>178.46</ele>
        <time>2016-06-24T12:32:52Z</time>
      </trkpt>
      <trkpt lat="43.65576" lon="0.56382">
        <ele>178.94</ele>
        <time>2016-06-24T12:32:53Z</time>
      </trkpt>
      <trkpt lat="43.65576" lon="0.5636">
        <ele>179.42</ele>
        <time>2016-06-24T12:32:54Z</time>
      </trkpt>
      <trkpt lat="43.65569" lon="0.56265">
        <ele>182.31</ele>
        <time>2016-06-24T12:32:58Z</time>
      </trkpt>
      <trkpt lat="43.65572" lon="0.5624">
        <ele>183.27</ele>
        <time>2016-06-24T12:32:59Z</time>
      </trkpt>
      <trkpt lat="43.65577" lon="0.56214">
        <ele>183.27</ele>
        <time>2016-06-24T12:33:00Z</time>
      </trkpt>
      <trkpt lat="43.65589" lon="0.56162">
        <ele>185.19</ele>
        <time>2016-06-24T12:33:02Z</time>
      </trkpt>
      <trkpt lat="43.65613" lon="0.55966">
        <ele>186.63</ele>
        <time>2016-06-24T12:33:09Z</time>
      </trkpt>
      <trkpt lat="43.65606" lon="0.55876">
        <ele>188.08</ele>
        <time>2016-06-24T12:33:12Z</time>
      </trkpt>
      <trkpt lat="43.65604" lon="0.55785">
        <ele>190.96</ele>
        <time>2016-06-24T12:33:15Z</time>
      </trkpt>
      <trkpt lat="43.65601" lon="0.55727">
        <ele>191.92</ele>
        <time>2016-06-24T12:33:17Z</time>
      </trkpt>
      <trkpt lat="43.6559" lon="0.55641">
        <ele>194.8</ele>
        <time>2016-06-24T12:33:20Z</time>
      </trkpt>
      <trkpt lat="43.65581" lon="0.55555">
        <ele>196.25</ele>
        <time>2016-06-24T12:33:23Z</time>
      </trkpt>
      <trkpt lat="43.65586" lon="0.55338">
        <ele>191.44</ele>
        <time>2016-06-24T12:33:30Z</time>
      </trkpt>
      <trkpt lat="43.65585" lon="0.55307">
        <ele>189.52</ele>
        <time>2016-06-24T12:33:31Z</time>
      </trkpt>
      <trkpt lat="43.65533" lon="0.5519">
        <ele>190.96</ele>
        <time>2016-06-24T12:33:36Z</time>
      </trkpt>
      <trkpt lat="43.65465" lon="0.55118">
        <ele>193.84</ele>
        <time>2016-06-24T12:33:40Z</time>
      </trkpt>
      <trkpt lat="43.65448" lon="0.551">
        <ele>193.36</ele>
        <time>2016-06-24T12:33:41Z</time>
      </trkpt>
      <trkpt lat="43.65397" lon="0.55044">
        <ele>195.77</ele>
        <time>2016-06-24T12:33:44Z</time>
      </trkpt>
      <trkpt lat="43.65328" lon="0.5497">
        <ele>199.13</ele>
        <time>2016-06-24T12:33:48Z</time>
      </trkpt>
      <trkpt lat="43.65294" lon="0.54932">
        <ele>202.01</ele>
        <time>2016-06-24T12:33:50Z</time>
      </trkpt>
      <trkpt lat="43.65254" lon="0.54863">
        <ele>204.9</ele>
        <time>2016-06-24T12:33:53Z</time>
      </trkpt>
      <trkpt lat="43.65251" lon="0.54748">
        <ele>206.82</ele>
        <time>2016-06-24T12:33:57Z</time>
      </trkpt>
      <trkpt lat="43.65266" lon="0.5466">
        <ele>209.22</ele>
        <time>2016-06-24T12:34:00Z</time>
      </trkpt>
      <trkpt lat="43.65274" lon="0.54601">
        <ele>212.59</ele>
        <time>2016-06-24T12:34:02Z</time>
      </trkpt>
      <trkpt lat="43.65282" lon="0.54544">
        <ele>216.91</ele>
        <time>2016-06-24T12:34:04Z</time>
      </trkpt>
      <trkpt lat="43.65307" lon="0.54468">
        <ele>221.72</ele>
        <time>2016-06-24T12:34:07Z</time>
      </trkpt>
      <trkpt lat="43.65353" lon="0.54398">
        <ele>226.53</ele>
        <time>2016-06-24T12:34:10Z</time>
      </trkpt>
      <trkpt lat="43.65385" lon="0.5435">
        <ele>228.45</ele>
        <time>2016-06-24T12:34:12Z</time>
      </trkpt>
      <trkpt lat="43.65415" lon="0.54302">
        <ele>228.45</ele>
        <time>2016-06-24T12:34:14Z</time>
      </trkpt>
      <trkpt lat="43.65449" lon="0.54196">
        <ele>227.49</ele>
        <time>2016-06-24T12:34:18Z</time>
      </trkpt>
      <trkpt lat="43.65453" lon="0.5411">
        <ele>227.49</ele>
        <time>2016-06-24T12:34:21Z</time>
      </trkpt>
      <trkpt lat="43.65502" lon="0.53986">
        <ele>227.97</ele>
        <time>2016-06-24T12:34:26Z</time>
      </trkpt>
      <trkpt lat="43.65523" lon="0.53967">
        <ele>227.01</ele>
        <time>2016-06-24T12:34:27Z</time>
      </trkpt>
      <trkpt lat="43.65656" lon="0.53803">
        <ele>225.57</ele>
        <time>2016-06-24T12:34:35Z</time>
      </trkpt>
      <trkpt lat="43.65732" lon="0.53771">
        <ele>227.01</ele>
        <time>2016-06-24T12:34:39Z</time>
      </trkpt>
      <trkpt lat="43.65801" lon="0.5372">
        <ele>227.01</ele>
        <time>2016-06-24T12:34:43Z</time>
      </trkpt>
      <trkpt lat="43.65878" lon="0.53612">
        <ele>221.72</ele>
        <time>2016-06-24T12:34:48Z</time>
      </trkpt>
      <trkpt lat="43.65983" lon="0.53471">
        <ele>221.24</ele>
        <time>2016-06-24T12:34:55Z</time>
      </trkpt>
      <trkpt lat="43.66059" lon="0.5344">
        <ele>221.24</ele>
        <time>2016-06-24T12:34:59Z</time>
      </trkpt>
      <trkpt lat="43.66137" lon="0.53445">
        <ele>216.43</ele>
        <time>2016-06-24T12:35:03Z</time>
      </trkpt>
      <trkpt lat="43.66246" lon="0.53451">
        <ele>217.4</ele>
        <time>2016-06-24T12:35:09Z</time>
      </trkpt>
      <trkpt lat="43.66334" lon="0.53488">
        <ele>219.32</ele>
        <time>2016-06-24T12:35:14Z</time>
      </trkpt>
      <trkpt lat="43.66351" lon="0.53498">
        <ele>219.32</ele>
        <time>2016-06-24T12:35:15Z</time>
      </trkpt>
      <trkpt lat="43.66369" lon="0.53507">
        <ele>219.32</ele>
        <time>2016-06-24T12:35:16Z</time>
      </trkpt>
      <trkpt lat="43.66441" lon="0.53491">
        <ele>217.4</ele>
        <time>2016-06-24T12:35:20Z</time>
      </trkpt>
      <trkpt lat="43.66456" lon="0.53472">
        <ele>217.4</ele>
        <time>2016-06-24T12:35:21Z</time>
      </trkpt>
      <trkpt lat="43.66586" lon="0.53236">
        <ele>219.32</ele>
        <time>2016-06-24T12:35:31Z</time>
      </trkpt>
      <trkpt lat="43.66627" lon="0.53168">
        <ele>216.91</ele>
        <time>2016-06-24T12:35:34Z</time>
      </trkpt>
      <trkpt lat="43.66721" lon="0.53108">
        <ele>215.47</ele>
        <time>2016-06-24T12:35:39Z</time>
      </trkpt>
      <trkpt lat="43.66742" lon="0.53106">
        <ele>215.95</ele>
        <time>2016-06-24T12:35:40Z</time>
      </trkpt>
      <trkpt lat="43.66819" lon="0.53142">
        <ele>213.55</ele>
        <time>2016-06-24T12:35:44Z</time>
      </trkpt>
      <trkpt lat="43.66841" lon="0.53189">
        <ele>210.19</ele>
        <time>2016-06-24T12:35:46Z</time>
      </trkpt>
      <trkpt lat="43.66904" lon="0.53274">
        <ele>208.26</ele>
        <time>2016-06-24T12:35:51Z</time>
      </trkpt>
      <trkpt lat="43.66957" lon="0.53277">
        <ele>205.86</ele>
        <time>2016-06-24T12:35:54Z</time>
      </trkpt>
      <trkpt lat="43.66987" lon="0.53261">
        <ele>202.98</ele>
        <time>2016-06-24T12:35:56Z</time>
      </trkpt>
      <trkpt lat="43.67007" lon="0.53235">
        <ele>198.65</ele>
        <time>2016-06-24T12:35:58Z</time>
      </trkpt>
      <trkpt lat="43.67018" lon="0.53207">
        <ele>194.8</ele>
        <time>2016-06-24T12:36:00Z</time>
      </trkpt>
      <trkpt lat="43.67024" lon="0.53184">
        <ele>193.36</ele>
        <time>2016-06-24T12:36:02Z</time>
      </trkpt>
      <trkpt lat="43.67037" lon="0.53165">
        <ele>191.44</ele>
        <time>2016-06-24T12:36:09Z</time>
      </trkpt>
      <trkpt lat="43.67037" lon="0.53165">
        <ele>191.44</ele>
        <time>2016-06-24T12:36:27Z</time>
      </trkpt>
      <trkpt lat="43.67052" lon="0.53182">
        <ele>191.92</ele>
        <time>2016-06-24T12:36:31Z</time>
      </trkpt>
      <trkpt lat="43.67079" lon="0.5317">
        <ele>191.92</ele>
        <time>2016-06-24T12:36:35Z</time>
      </trkpt>
      <trkpt lat="43.67068" lon="0.53129">
        <ele>192.88</ele>
        <time>2016-06-24T12:36:40Z</time>
      </trkpt>
      <trkpt lat="43.67054" lon="0.53085">
        <ele>193.36</ele>
        <time>2016-06-24T12:36:43Z</time>
      </trkpt>
      <trkpt lat="43.67045" lon="0.53037">
        <ele>191.44</ele>
        <time>2016-06-24T12:36:46Z</time>
      </trkpt>
      <trkpt lat="43.67044" lon="0.53005">
        <ele>190.48</ele>
        <time>2016-06-24T12:36:48Z</time>
      </trkpt>
      <trkpt lat="43.67053" lon="0.52943">
        <ele>187.59</ele>
        <time>2016-06-24T12:36:52Z</time>
      </trkpt>
      <trkpt lat="43.67095" lon="0.52813">
        <ele>185.67</ele>
        <time>2016-06-24T12:37:00Z</time>
      </trkpt>
      <trkpt lat="43.67139" lon="0.52738">
        <ele>183.75</ele>
        <time>2016-06-24T12:37:04Z</time>
      </trkpt>
      <trkpt lat="43.6719" lon="0.52657">
        <ele>181.83</ele>
        <time>2016-06-24T12:37:08Z</time>
      </trkpt>
      <trkpt lat="43.67244" lon="0.52569">
        <ele>178.94</ele>
        <time>2016-06-24T12:37:12Z</time>
      </trkpt>
      <trkpt lat="43.67302" lon="0.52476">
        <ele>175.58</ele>
        <time>2016-06-24T12:37:16Z</time>
      </trkpt>
      <trkpt lat="43.67345" lon="0.52405">
        <ele>172.21</ele>
        <time>2016-06-24T12:37:19Z</time>
      </trkpt>
      <trkpt lat="43.67374" lon="0.52358">
        <ele>168.37</ele>
        <time>2016-06-24T12:37:21Z</time>
      </trkpt>
      <trkpt lat="43.67388" lon="0.52334">
        <ele>168.85</ele>
        <time>2016-06-24T12:37:22Z</time>
      </trkpt>
      <trkpt lat="43.67459" lon="0.52213">
        <ele>164.04</ele>
        <time>2016-06-24T12:37:27Z</time>
      </trkpt>
      <trkpt lat="43.67482" lon="0.52157">
        <ele>162.6</ele>
        <time>2016-06-24T12:37:29Z</time>
      </trkpt>
      <trkpt lat="43.67515" lon="0.52037">
        <ele>157.79</ele>
        <time>2016-06-24T12:37:33Z</time>
      </trkpt>
      <trkpt lat="43.67548" lon="0.51912">
        <ele>153.95</ele>
        <time>2016-06-24T12:37:37Z</time>
      </trkpt>
      <trkpt lat="43.67584" lon="0.51787">
        <ele>149.14</ele>
        <time>2016-06-24T12:37:41Z</time>
      </trkpt>
      <trkpt lat="43.67602" lon="0.51725">
        <ele>148.18</ele>
        <time>2016-06-24T12:37:43Z</time>
      </trkpt>
      <trkpt lat="43.67646" lon="0.51574">
        <ele>146.26</ele>
        <time>2016-06-24T12:37:48Z</time>
      </trkpt>
      <trkpt lat="43.67707" lon="0.51356">
        <ele>142.89</ele>
        <time>2016-06-24T12:37:55Z</time>
      </trkpt>
      <trkpt lat="43.67724" lon="0.51294">
        <ele>142.41</ele>
        <time>2016-06-24T12:37:57Z</time>
      </trkpt>
      <trkpt lat="43.67784" lon="0.51078">
        <ele>140.49</ele>
        <time>2016-06-24T12:38:04Z</time>
      </trkpt>
      <trkpt lat="43.67828" lon="0.50924">
        <ele>140.97</ele>
        <time>2016-06-24T12:38:09Z</time>
      </trkpt>
      <trkpt lat="43.67929" lon="0.50557">
        <ele>137.61</ele>
        <time>2016-06-24T12:38:21Z</time>
      </trkpt>
      <trkpt lat="43.68" lon="0.5031">
        <ele>135.68</ele>
        <time>2016-06-24T12:38:29Z</time>
      </trkpt>
      <trkpt lat="43.68147" lon="0.49791">
        <ele>131.84</ele>
        <time>2016-06-24T12:38:46Z</time>
      </trkpt>
      <trkpt lat="43.68164" lon="0.49728">
        <ele>137.13</ele>
        <time>2016-06-24T12:38:48Z</time>
      </trkpt>
      <trkpt lat="43.68173" lon="0.49696">
        <ele>135.68</ele>
        <time>2016-06-24T12:38:49Z</time>
      </trkpt>
      <trkpt lat="43.6821" lon="0.49568">
        <ele>133.28</ele>
        <time>2016-06-24T12:38:53Z</time>
      </trkpt>
      <trkpt lat="43.68252" lon="0.49448">
        <ele>132.32</ele>
        <time>2016-06-24T12:38:57Z</time>
      </trkpt>
      <trkpt lat="43.68327" lon="0.49277">
        <ele>129.92</ele>
        <time>2016-06-24T12:39:03Z</time>
      </trkpt>
      <trkpt lat="43.68468" lon="0.48959">
        <ele>126.55</ele>
        <time>2016-06-24T12:39:14Z</time>
      </trkpt>
      <trkpt lat="43.68609" lon="0.48651">
        <ele>125.11</ele>
        <time>2016-06-24T12:39:25Z</time>
      </trkpt>
      <trkpt lat="43.68845" lon="0.48189">
        <ele>125.11</ele>
        <time>2016-06-24T12:39:42Z</time>
      </trkpt>
      <trkpt lat="43.6901" lon="0.47867">
        <ele>122.22</ele>
        <time>2016-06-24T12:39:54Z</time>
      </trkpt>
      <trkpt lat="43.69111" lon="0.47605">
        <ele>120.3</ele>
        <time>2016-06-24T12:40:03Z</time>
      </trkpt>
      <trkpt lat="43.69142" lon="0.47445">
        <ele>116.94</ele>
        <time>2016-06-24T12:40:08Z</time>
      </trkpt>
      <trkpt lat="43.69163" lon="0.47321">
        <ele>119.82</ele>
        <time>2016-06-24T12:40:12Z</time>
      </trkpt>
      <trkpt lat="43.69207" lon="0.47074">
        <ele>115.98</ele>
        <time>2016-06-24T12:40:20Z</time>
      </trkpt>
      <trkpt lat="43.69217" lon="0.47021">
        <ele>114.05</ele>
        <time>2016-06-24T12:40:22Z</time>
      </trkpt>
      <trkpt lat="43.69243" lon="0.46878">
        <ele>118.38</ele>
        <time>2016-06-24T12:40:27Z</time>
      </trkpt>
      <trkpt lat="43.69249" lon="0.46846">
        <ele>117.9</ele>
        <time>2016-06-24T12:40:28Z</time>
      </trkpt>
      <trkpt lat="43.69299" lon="0.46563">
        <ele>115.5</ele>
        <time>2016-06-24T12:40:37Z</time>
      </trkpt>
      <trkpt lat="43.69334" lon="0.46374">
        <ele>114.05</ele>
        <time>2016-06-24T12:40:43Z</time>
      </trkpt>
      <trkpt lat="43.69356" lon="0.4625">
        <ele>110.69</ele>
        <time>2016-06-24T12:40:47Z</time>
      </trkpt>
      <trkpt lat="43.69427" lon="0.45856">
        <ele>107.81</ele>
        <time>2016-06-24T12:41:00Z</time>
      </trkpt>
      <trkpt lat="43.69471" lon="0.45672">
        <ele>107.81</ele>
        <time>2016-06-24T12:41:07Z</time>
      </trkpt>
      <trkpt lat="43.6955" lon="0.45531">
        <ele>109.73</ele>
        <time>2016-06-24T12:41:13Z</time>
      </trkpt>
      <trkpt lat="43.69567" lon="0.45512">
        <ele>110.21</ele>
        <time>2016-06-24T12:41:14Z</time>
      </trkpt>
      <trkpt lat="43.69724" lon="0.45381">
        <ele>111.17</ele>
        <time>2016-06-24T12:41:22Z</time>
      </trkpt>
      <trkpt lat="43.69868" lon="0.45267">
        <ele>112.61</ele>
        <time>2016-06-24T12:41:29Z</time>
      </trkpt>
      <trkpt lat="43.6991" lon="0.45234">
        <ele>111.65</ele>
        <time>2016-06-24T12:41:31Z</time>
      </trkpt>
      <trkpt lat="43.70096" lon="0.45086">
        <ele>108.29</ele>
        <time>2016-06-24T12:41:40Z</time>
      </trkpt>
      <trkpt lat="43.70454" lon="0.44802">
        <ele>107.32</ele>
        <time>2016-06-24T12:41:58Z</time>
      </trkpt>
      <trkpt lat="43.70493" lon="0.44771">
        <ele>111.65</ele>
        <time>2016-06-24T12:42:00Z</time>
      </trkpt>
      <trkpt lat="43.70512" lon="0.44755">
        <ele>111.65</ele>
        <time>2016-06-24T12:42:01Z</time>
      </trkpt>
      <trkpt lat="43.70672" lon="0.44629">
        <ele>108.29</ele>
        <time>2016-06-24T12:42:09Z</time>
      </trkpt>
      <trkpt lat="43.71035" lon="0.44332">
        <ele>109.73</ele>
        <time>2016-06-24T12:42:27Z</time>
      </trkpt>
      <trkpt lat="43.71051" lon="0.44309">
        <ele>111.17</ele>
        <time>2016-06-24T12:42:28Z</time>
      </trkpt>
      <trkpt lat="43.71065" lon="0.44284">
        <ele>112.13</ele>
        <time>2016-06-24T12:42:29Z</time>
      </trkpt>
      <trkpt lat="43.71078" lon="0.44257">
        <ele>112.13</ele>
        <time>2016-06-24T12:42:30Z</time>
      </trkpt>
      <trkpt lat="43.71089" lon="0.44229">
        <ele>113.57</ele>
        <time>2016-06-24T12:42:31Z</time>
      </trkpt>
      <trkpt lat="43.71099" lon="0.442">
        <ele>115.01</ele>
        <time>2016-06-24T12:42:32Z</time>
      </trkpt>
      <trkpt lat="43.71107" lon="0.4417">
        <ele>115.5</ele>
        <time>2016-06-24T12:42:33Z</time>
      </trkpt>
      <trkpt lat="43.71113" lon="0.44139">
        <ele>115.98</ele>
        <time>2016-06-24T12:42:34Z</time>
      </trkpt>
      <trkpt lat="43.71118" lon="0.44107">
        <ele>115.98</ele>
        <time>2016-06-24T12:42:35Z</time>
      </trkpt>
      <trkpt lat="43.71127" lon="0.44043">
        <ele>119.82</ele>
        <time>2016-06-24T12:42:37Z</time>
      </trkpt>
      <trkpt lat="43.7113" lon="0.4401">
        <ele>120.3</ele>
        <time>2016-06-24T12:42:38Z</time>
      </trkpt>
      <trkpt lat="43.71143" lon="0.4388">
        <ele>123.19</ele>
        <time>2016-06-24T12:42:42Z</time>
      </trkpt>
      <trkpt lat="43.7115" lon="0.43815">
        <ele>125.59</ele>
        <time>2016-06-24T12:42:44Z</time>
      </trkpt>
      <trkpt lat="43.7116" lon="0.43749">
        <ele>128.95</ele>
        <time>2016-06-24T12:42:46Z</time>
      </trkpt>
      <trkpt lat="43.7117" lon="0.43719">
        <ele>128.95</ele>
        <time>2016-06-24T12:42:47Z</time>
      </trkpt>
      <trkpt lat="43.71182" lon="0.4369">
        <ele>131.36</ele>
        <time>2016-06-24T12:42:48Z</time>
      </trkpt>
      <trkpt lat="43.71196" lon="0.43664">
        <ele>131.84</ele>
        <time>2016-06-24T12:42:49Z</time>
      </trkpt>
      <trkpt lat="43.71212" lon="0.43639">
        <ele>131.36</ele>
        <time>2016-06-24T12:42:50Z</time>
      </trkpt>
      <trkpt lat="43.71229" lon="0.43616">
        <ele>132.8</ele>
        <time>2016-06-24T12:42:51Z</time>
      </trkpt>
      <trkpt lat="43.71264" lon="0.43568">
        <ele>136.16</ele>
        <time>2016-06-24T12:42:53Z</time>
      </trkpt>
      <trkpt lat="43.71297" lon="0.43521">
        <ele>139.53</ele>
        <time>2016-06-24T12:42:55Z</time>
      </trkpt>
      <trkpt lat="43.71346" lon="0.43427">
        <ele>140.97</ele>
        <time>2016-06-24T12:42:59Z</time>
      </trkpt>
      <trkpt lat="43.71355" lon="0.43402">
        <ele>141.45</ele>
        <time>2016-06-24T12:43:00Z</time>
      </trkpt>
      <trkpt lat="43.71362" lon="0.43375">
        <ele>141.45</ele>
        <time>2016-06-24T12:43:01Z</time>
      </trkpt>
      <trkpt lat="43.71367" lon="0.43348">
        <ele>142.89</ele>
        <time>2016-06-24T12:43:02Z</time>
      </trkpt>
      <trkpt lat="43.71371" lon="0.43321">
        <ele>144.34</ele>
        <time>2016-06-24T12:43:03Z</time>
      </trkpt>
      <trkpt lat="43.71374" lon="0.43266">
        <ele>144.34</ele>
        <time>2016-06-24T12:43:05Z</time>
      </trkpt>
      <trkpt lat="43.71371" lon="0.43154">
        <ele>146.26</ele>
        <time>2016-06-24T12:43:09Z</time>
      </trkpt>
      <trkpt lat="43.71367" lon="0.43049">
        <ele>150.58</ele>
        <time>2016-06-24T12:43:13Z</time>
      </trkpt>
      <trkpt lat="43.71365" lon="0.42997">
        <ele>152.03</ele>
        <time>2016-06-24T12:43:15Z</time>
      </trkpt>
      <trkpt lat="43.71364" lon="0.42916">
        <ele>152.99</ele>
        <time>2016-06-24T12:43:18Z</time>
      </trkpt>
      <trkpt lat="43.71367" lon="0.42861">
        <ele>154.43</ele>
        <time>2016-06-24T12:43:20Z</time>
      </trkpt>
      <trkpt lat="43.71395" lon="0.42759">
        <ele>155.39</ele>
        <time>2016-06-24T12:43:24Z</time>
      </trkpt>
      <trkpt lat="43.71441" lon="0.42666">
        <ele>158.75</ele>
        <time>2016-06-24T12:43:28Z</time>
      </trkpt>
      <trkpt lat="43.71509" lon="0.42526">
        <ele>155.87</ele>
        <time>2016-06-24T12:43:34Z</time>
      </trkpt>
      <trkpt lat="43.71568" lon="0.4235">
        <ele>152.03</ele>
        <time>2016-06-24T12:43:40Z</time>
      </trkpt>
      <trkpt lat="43.71596" lon="0.42264">
        <ele>145.3</ele>
        <time>2016-06-24T12:43:43Z</time>
      </trkpt>
      <trkpt lat="43.71613" lon="0.42212">
        <ele>140.97</ele>
        <time>2016-06-24T12:43:45Z</time>
      </trkpt>
      <trkpt lat="43.71636" lon="0.4214">
        <ele>137.13</ele>
        <time>2016-06-24T12:43:48Z</time>
      </trkpt>
      <trkpt lat="43.71651" lon="0.42092">
        <ele>135.2</ele>
        <time>2016-06-24T12:43:50Z</time>
      </trkpt>
      <trkpt lat="43.71667" lon="0.42047">
        <ele>133.28</ele>
        <time>2016-06-24T12:43:52Z</time>
      </trkpt>
      <trkpt lat="43.71686" lon="0.42001">
        <ele>129.43</ele>
        <time>2016-06-24T12:43:54Z</time>
      </trkpt>
      <trkpt lat="43.7171" lon="0.41957">
        <ele>126.07</ele>
        <time>2016-06-24T12:43:56Z</time>
      </trkpt>
      <trkpt lat="43.71724" lon="0.41936">
        <ele>127.99</ele>
        <time>2016-06-24T12:43:57Z</time>
      </trkpt>
      <trkpt lat="43.71754" lon="0.41891">
        <ele>133.76</ele>
        <time>2016-06-24T12:43:59Z</time>
      </trkpt>
      <trkpt lat="43.71789" lon="0.4184">
        <ele>137.13</ele>
        <time>2016-06-24T12:44:01Z</time>
      </trkpt>
      <trkpt lat="43.71923" lon="0.41649">
        <ele>137.13</ele>
        <time>2016-06-24T12:44:08Z</time>
      </trkpt>
      <trkpt lat="43.72027" lon="0.41496">
        <ele>139.53</ele>
        <time>2016-06-24T12:44:14Z</time>
      </trkpt>
      <trkpt lat="43.7206" lon="0.41445">
        <ele>143.85</ele>
        <time>2016-06-24T12:44:16Z</time>
      </trkpt>
      <trkpt lat="43.72103" lon="0.41363">
        <ele>149.62</ele>
        <time>2016-06-24T12:44:19Z</time>
      </trkpt>
      <trkpt lat="43.72115" lon="0.41334">
        <ele>149.62</ele>
        <time>2016-06-24T12:44:20Z</time>
      </trkpt>
      <trkpt lat="43.72151" lon="0.41249">
        <ele>153.47</ele>
        <time>2016-06-24T12:44:23Z</time>
      </trkpt>
      <trkpt lat="43.72163" lon="0.41221">
        <ele>153.47</ele>
        <time>2016-06-24T12:44:24Z</time>
      </trkpt>
      <trkpt lat="43.72174" lon="0.41192">
        <ele>156.83</ele>
        <time>2016-06-24T12:44:25Z</time>
      </trkpt>
      <trkpt lat="43.72192" lon="0.41133">
        <ele>157.79</ele>
        <time>2016-06-24T12:44:27Z</time>
      </trkpt>
      <trkpt lat="43.722" lon="0.41072">
        <ele>163.56</ele>
        <time>2016-06-24T12:44:29Z</time>
      </trkpt>
      <trkpt lat="43.722" lon="0.41042">
        <ele>161.64</ele>
        <time>2016-06-24T12:44:30Z</time>
      </trkpt>
      <trkpt lat="43.72189" lon="0.40948">
        <ele>161.64</ele>
        <time>2016-06-24T12:44:33Z</time>
      </trkpt>
      <trkpt lat="43.72153" lon="0.40757">
        <ele>155.87</ele>
        <time>2016-06-24T12:44:39Z</time>
      </trkpt>
      <trkpt lat="43.72148" lon="0.40726">
        <ele>155.87</ele>
        <time>2016-06-24T12:44:40Z</time>
      </trkpt>
      <trkpt lat="43.72132" lon="0.40633">
        <ele>149.62</ele>
        <time>2016-06-24T12:44:43Z</time>
      </trkpt>
      <trkpt lat="43.72128" lon="0.40601">
        <ele>150.1</ele>
        <time>2016-06-24T12:44:44Z</time>
      </trkpt>
      <trkpt lat="43.72128" lon="0.40503">
        <ele>148.18</ele>
        <time>2016-06-24T12:44:47Z</time>
      </trkpt>
      <trkpt lat="43.72132" lon="0.40469">
        <ele>146.74</ele>
        <time>2016-06-24T12:44:48Z</time>
      </trkpt>
      <trkpt lat="43.72147" lon="0.40337">
        <ele>141.45</ele>
        <time>2016-06-24T12:44:52Z</time>
      </trkpt>
      <trkpt lat="43.72142" lon="0.40205">
        <ele>135.68</ele>
        <time>2016-06-24T12:44:56Z</time>
      </trkpt>
      <trkpt lat="43.72146" lon="0.40139">
        <ele>134.24</ele>
        <time>2016-06-24T12:44:58Z</time>
      </trkpt>
      <trkpt lat="43.72161" lon="0.40042">
        <ele>130.88</ele>
        <time>2016-06-24T12:45:01Z</time>
      </trkpt>
      <trkpt lat="43.72169" lon="0.40011">
        <ele>130.4</ele>
        <time>2016-06-24T12:45:02Z</time>
      </trkpt>
      <trkpt lat="43.72189" lon="0.39952">
        <ele>127.99</ele>
        <time>2016-06-24T12:45:04Z</time>
      </trkpt>
      <trkpt lat="43.72249" lon="0.39844">
        <ele>123.67</ele>
        <time>2016-06-24T12:45:08Z</time>
      </trkpt>
      <trkpt lat="43.72264" lon="0.39818">
        <ele>123.67</ele>
        <time>2016-06-24T12:45:09Z</time>
      </trkpt>
      <trkpt lat="43.72294" lon="0.39764">
        <ele>120.3</ele>
        <time>2016-06-24T12:45:11Z</time>
      </trkpt>
      <trkpt lat="43.72321" lon="0.39707">
        <ele>117.9</ele>
        <time>2016-06-24T12:45:13Z</time>
      </trkpt>
      <trkpt lat="43.72345" lon="0.39611">
        <ele>115.01</ele>
        <time>2016-06-24T12:45:16Z</time>
      </trkpt>
      <trkpt lat="43.7235" lon="0.39541">
        <ele>111.17</ele>
        <time>2016-06-24T12:45:18Z</time>
      </trkpt>
      <trkpt lat="43.72352" lon="0.39399">
        <ele>107.32</ele>
        <time>2016-06-24T12:45:22Z</time>
      </trkpt>
      <trkpt lat="43.72354" lon="0.39291">
        <ele>102.52</ele>
        <time>2016-06-24T12:45:25Z</time>
      </trkpt>
      <trkpt lat="43.72355" lon="0.3922">
        <ele>101.08</ele>
        <time>2016-06-24T12:45:27Z</time>
      </trkpt>
      <trkpt lat="43.72358" lon="0.39113">
        <ele>97.23</ele>
        <time>2016-06-24T12:45:30Z</time>
      </trkpt>
      <trkpt lat="43.72361" lon="0.38935">
        <ele>93.87</ele>
        <time>2016-06-24T12:45:35Z</time>
      </trkpt>
      <trkpt lat="43.7237" lon="0.38562">
        <ele>89.06</ele>
        <time>2016-06-24T12:45:46Z</time>
      </trkpt>
      <trkpt lat="43.72371" lon="0.38529">
        <ele>89.54</ele>
        <time>2016-06-24T12:45:47Z</time>
      </trkpt>
      <trkpt lat="43.72372" lon="0.3843">
        <ele>85.69</ele>
        <time>2016-06-24T12:45:50Z</time>
      </trkpt>
      <trkpt lat="43.72373" lon="0.38367">
        <ele>82.33</ele>
        <time>2016-06-24T12:45:52Z</time>
      </trkpt>
      <trkpt lat="43.72374" lon="0.38276">
        <ele>78.48</ele>
        <time>2016-06-24T12:45:55Z</time>
      </trkpt>
      <trkpt lat="43.72376" lon="0.38191">
        <ele>72.72</ele>
        <time>2016-06-24T12:45:58Z</time>
      </trkpt>
      <trkpt lat="43.72378" lon="0.38115">
        <ele>70.31</ele>
        <time>2016-06-24T12:46:01Z</time>
      </trkpt>
      <trkpt lat="43.7238" lon="0.38026">
        <ele>68.39</ele>
        <time>2016-06-24T12:46:05Z</time>
      </trkpt>
      <trkpt lat="43.72381" lon="0.38006">
        <ele>69.35</ele>
        <time>2016-06-24T12:46:06Z</time>
      </trkpt>
      <trkpt lat="43.72398" lon="0.37936">
        <ele>69.83</ele>
        <time>2016-06-24T12:46:10Z</time>
      </trkpt>
      <trkpt lat="43.72497" lon="0.37727">
        <ele>71.76</ele>
        <time>2016-06-24T12:46:23Z</time>
      </trkpt>
      <trkpt lat="43.7255" lon="0.37623">
        <ele>70.31</ele>
        <time>2016-06-24T12:46:30Z</time>
      </trkpt>
      <trkpt lat="43.72604" lon="0.37576">
        <ele>71.27</ele>
        <time>2016-06-24T12:46:36Z</time>
      </trkpt>
      <trkpt lat="43.72628" lon="0.37569">
        <ele>71.76</ele>
        <time>2016-06-24T12:46:38Z</time>
      </trkpt>
      <trkpt lat="43.72655" lon="0.37568">
        <ele>73.68</ele>
        <time>2016-06-24T12:46:40Z</time>
      </trkpt>
      <trkpt lat="43.72861" lon="0.37544">
        <ele>77.04</ele>
        <time>2016-06-24T12:46:52Z</time>
      </trkpt>
      <trkpt lat="43.72922" lon="0.37535">
        <ele>79.93</ele>
        <time>2016-06-24T12:46:55Z</time>
      </trkpt>
      <trkpt lat="43.72942" lon="0.37533">
        <ele>79.93</ele>
        <time>2016-06-24T12:46:56Z</time>
      </trkpt>
      <trkpt lat="43.73002" lon="0.37524">
        <ele>84.25</ele>
        <time>2016-06-24T12:46:59Z</time>
      </trkpt>
      <trkpt lat="43.73023" lon="0.37521">
        <ele>84.25</ele>
        <time>2016-06-24T12:47:00Z</time>
      </trkpt>
      <trkpt lat="43.73107" lon="0.3751">
        <ele>87.14</ele>
        <time>2016-06-24T12:47:04Z</time>
      </trkpt>
      <trkpt lat="43.73128" lon="0.37507">
        <ele>86.66</ele>
        <time>2016-06-24T12:47:05Z</time>
      </trkpt>
      <trkpt lat="43.73344" lon="0.3745">
        <ele>85.21</ele>
        <time>2016-06-24T12:47:15Z</time>
      </trkpt>
      <trkpt lat="43.73409" lon="0.37415">
        <ele>81.85</ele>
        <time>2016-06-24T12:47:18Z</time>
      </trkpt>
      <trkpt lat="43.73517" lon="0.37356">
        <ele>80.89</ele>
        <time>2016-06-24T12:47:23Z</time>
      </trkpt>
      <trkpt lat="43.73602" lon="0.37311">
        <ele>80.41</ele>
        <time>2016-06-24T12:47:27Z</time>
      </trkpt>
      <trkpt lat="43.7367" lon="0.37209">
        <ele>78.48</ele>
        <time>2016-06-24T12:47:32Z</time>
      </trkpt>
      <trkpt lat="43.73663" lon="0.37104">
        <ele>78</ele>
        <time>2016-06-24T12:47:36Z</time>
      </trkpt>
      <trkpt lat="43.73588" lon="0.36834">
        <ele>78.97</ele>
        <time>2016-06-24T12:47:46Z</time>
      </trkpt>
      <trkpt lat="43.73535" lon="0.3657">
        <ele>82.33</ele>
        <time>2016-06-24T12:47:55Z</time>
      </trkpt>
      <trkpt lat="43.73514" lon="0.36388">
        <ele>82.81</ele>
        <time>2016-06-24T12:48:01Z</time>
      </trkpt>
      <trkpt lat="43.73534" lon="0.36211">
        <ele>85.21</ele>
        <time>2016-06-24T12:48:07Z</time>
      </trkpt>
      <trkpt lat="43.73546" lon="0.36155">
        <ele>85.21</ele>
        <time>2016-06-24T12:48:09Z</time>
      </trkpt>
      <trkpt lat="43.73595" lon="0.36061">
        <ele>87.14</ele>
        <time>2016-06-24T12:48:13Z</time>
      </trkpt>
      <trkpt lat="43.73633" lon="0.36028">
        <ele>88.1</ele>
        <time>2016-06-24T12:48:15Z</time>
      </trkpt>
      <trkpt lat="43.73761" lon="0.35896">
        <ele>89.54</ele>
        <time>2016-06-24T12:48:23Z</time>
      </trkpt>
      <trkpt lat="43.73827" lon="0.358">
        <ele>90.98</ele>
        <time>2016-06-24T12:48:28Z</time>
      </trkpt>
      <trkpt lat="43.73915" lon="0.35679">
        <ele>95.79</ele>
        <time>2016-06-24T12:48:34Z</time>
      </trkpt>
      <trkpt lat="43.74037" lon="0.3555">
        <ele>96.27</ele>
        <time>2016-06-24T12:48:41Z</time>
      </trkpt>
      <trkpt lat="43.74053" lon="0.35536">
        <ele>96.27</ele>
        <time>2016-06-24T12:48:42Z</time>
      </trkpt>
      <trkpt lat="43.7411" lon="0.35502">
        <ele>99.63</ele>
        <time>2016-06-24T12:48:45Z</time>
      </trkpt>
      <trkpt lat="43.74154" lon="0.3548">
        <ele>103.48</ele>
        <time>2016-06-24T12:48:47Z</time>
      </trkpt>
      <trkpt lat="43.74177" lon="0.35468">
        <ele>104.92</ele>
        <time>2016-06-24T12:48:48Z</time>
      </trkpt>
      <trkpt lat="43.74263" lon="0.35374">
        <ele>103</ele>
        <time>2016-06-24T12:48:53Z</time>
      </trkpt>
      <trkpt lat="43.74337" lon="0.352">
        <ele>105.88</ele>
        <time>2016-06-24T12:49:01Z</time>
      </trkpt>
      <trkpt lat="43.74346" lon="0.35179">
        <ele>105.88</ele>
        <time>2016-06-24T12:49:02Z</time>
      </trkpt>
      <trkpt lat="43.74392" lon="0.35077">
        <ele>107.32</ele>
        <time>2016-06-24T12:49:07Z</time>
      </trkpt>
      <trkpt lat="43.74444" lon="0.35017">
        <ele>109.25</ele>
        <time>2016-06-24T12:49:11Z</time>
      </trkpt>
      <trkpt lat="43.74505" lon="0.34969">
        <ele>115.5</ele>
        <time>2016-06-24T12:49:15Z</time>
      </trkpt>
      <trkpt lat="43.74561" lon="0.34917">
        <ele>117.42</ele>
        <time>2016-06-24T12:49:19Z</time>
      </trkpt>
      <trkpt lat="43.74614" lon="0.34865">
        <ele>119.82</ele>
        <time>2016-06-24T12:49:23Z</time>
      </trkpt>
      <trkpt lat="43.74665" lon="0.34749">
        <ele>125.59</ele>
        <time>2016-06-24T12:49:29Z</time>
      </trkpt>
      <trkpt lat="43.74675" lon="0.34701">
        <ele>126.55</ele>
        <time>2016-06-24T12:49:31Z</time>
      </trkpt>
      <trkpt lat="43.7468" lon="0.34602">
        <ele>129.92</ele>
        <time>2016-06-24T12:49:35Z</time>
      </trkpt>
      <trkpt lat="43.7468" lon="0.34552">
        <ele>132.8</ele>
        <time>2016-06-24T12:49:37Z</time>
      </trkpt>
      <trkpt lat="43.74681" lon="0.34528">
        <ele>133.28</ele>
        <time>2016-06-24T12:49:38Z</time>
      </trkpt>
      <trkpt lat="43.74681" lon="0.34424">
        <ele>137.13</ele>
        <time>2016-06-24T12:49:42Z</time>
      </trkpt>
      <trkpt lat="43.74679" lon="0.34364">
        <ele>142.89</ele>
        <time>2016-06-24T12:49:44Z</time>
      </trkpt>
      <trkpt lat="43.74679" lon="0.34295">
        <ele>148.66</ele>
        <time>2016-06-24T12:49:46Z</time>
      </trkpt>
      <trkpt lat="43.74679" lon="0.34222">
        <ele>152.99</ele>
        <time>2016-06-24T12:49:48Z</time>
      </trkpt>
      <trkpt lat="43.74685" lon="0.34085">
        <ele>152.51</ele>
        <time>2016-06-24T12:49:52Z</time>
      </trkpt>
      <trkpt lat="43.74725" lon="0.33942">
        <ele>155.87</ele>
        <time>2016-06-24T12:49:57Z</time>
      </trkpt>
      <trkpt lat="43.74746" lon="0.33892">
        <ele>156.35</ele>
        <time>2016-06-24T12:49:59Z</time>
      </trkpt>
      <trkpt lat="43.74766" lon="0.33841">
        <ele>158.27</ele>
        <time>2016-06-24T12:50:01Z</time>
      </trkpt>
      <trkpt lat="43.74816" lon="0.33716">
        <ele>162.12</ele>
        <time>2016-06-24T12:50:06Z</time>
      </trkpt>
      <trkpt lat="43.74825" lon="0.33692">
        <ele>162.12</ele>
        <time>2016-06-24T12:50:07Z</time>
      </trkpt>
      <trkpt lat="43.74853" lon="0.33621">
        <ele>159.24</ele>
        <time>2016-06-24T12:50:10Z</time>
      </trkpt>
      <trkpt lat="43.74889" lon="0.3353">
        <ele>155.87</ele>
        <time>2016-06-24T12:50:14Z</time>
      </trkpt>
      <trkpt lat="43.74898" lon="0.33507">
        <ele>155.87</ele>
        <time>2016-06-24T12:50:15Z</time>
      </trkpt>
      <trkpt lat="43.74914" lon="0.33462">
        <ele>153.47</ele>
        <time>2016-06-24T12:50:17Z</time>
      </trkpt>
      <trkpt lat="43.74944" lon="0.3332">
        <ele>152.99</ele>
        <time>2016-06-24T12:50:22Z</time>
      </trkpt>
      <trkpt lat="43.74951" lon="0.33195">
        <ele>147.22</ele>
        <time>2016-06-24T12:50:26Z</time>
      </trkpt>
      <trkpt lat="43.74955" lon="0.33102">
        <ele>143.37</ele>
        <time>2016-06-24T12:50:29Z</time>
      </trkpt>
      <trkpt lat="43.74957" lon="0.33072">
        <ele>143.85</ele>
        <time>2016-06-24T12:50:30Z</time>
      </trkpt>
      <trkpt lat="43.7496" lon="0.32953">
        <ele>140.49</ele>
        <time>2016-06-24T12:50:34Z</time>
      </trkpt>
      <trkpt lat="43.74944" lon="0.3281">
        <ele>136.16</ele>
        <time>2016-06-24T12:50:39Z</time>
      </trkpt>
      <trkpt lat="43.74941" lon="0.32782">
        <ele>133.76</ele>
        <time>2016-06-24T12:50:40Z</time>
      </trkpt>
      <trkpt lat="43.74964" lon="0.32672">
        <ele>129.92</ele>
        <time>2016-06-24T12:50:44Z</time>
      </trkpt>
      <trkpt lat="43.74957" lon="0.32533">
        <ele>126.07</ele>
        <time>2016-06-24T12:50:49Z</time>
      </trkpt>
      <trkpt lat="43.74932" lon="0.32422">
        <ele>122.22</ele>
        <time>2016-06-24T12:50:53Z</time>
      </trkpt>
      <trkpt lat="43.74934" lon="0.32393">
        <ele>121.26</ele>
        <time>2016-06-24T12:50:54Z</time>
      </trkpt>
      <trkpt lat="43.7494" lon="0.32337">
        <ele>118.86</ele>
        <time>2016-06-24T12:50:56Z</time>
      </trkpt>
      <trkpt lat="43.74911" lon="0.32167">
        <ele>116.46</ele>
        <time>2016-06-24T12:51:02Z</time>
      </trkpt>
      <trkpt lat="43.74895" lon="0.32112">
        <ele>114.53</ele>
        <time>2016-06-24T12:51:04Z</time>
      </trkpt>
      <trkpt lat="43.74852" lon="0.32016">
        <ele>110.21</ele>
        <time>2016-06-24T12:51:08Z</time>
      </trkpt>
      <trkpt lat="43.74848" lon="0.31875">
        <ele>105.4</ele>
        <time>2016-06-24T12:51:13Z</time>
      </trkpt>
      <trkpt lat="43.74873" lon="0.31826">
        <ele>104.44</ele>
        <time>2016-06-24T12:51:15Z</time>
      </trkpt>
      <trkpt lat="43.74906" lon="0.31785">
        <ele>102.52</ele>
        <time>2016-06-24T12:51:17Z</time>
      </trkpt>
      <trkpt lat="43.74936" lon="0.31743">
        <ele>99.63</ele>
        <time>2016-06-24T12:51:19Z</time>
      </trkpt>
      <trkpt lat="43.74962" lon="0.31698">
        <ele>97.71</ele>
        <time>2016-06-24T12:51:21Z</time>
      </trkpt>
      <trkpt lat="43.74998" lon="0.31601">
        <ele>97.71</ele>
        <time>2016-06-24T12:51:25Z</time>
      </trkpt>
      <trkpt lat="43.7506" lon="0.31508">
        <ele>96.27</ele>
        <time>2016-06-24T12:51:30Z</time>
      </trkpt>
      <trkpt lat="43.75147" lon="0.3142">
        <ele>92.9</ele>
        <time>2016-06-24T12:51:36Z</time>
      </trkpt>
      <trkpt lat="43.75188" lon="0.31379">
        <ele>90.5</ele>
        <time>2016-06-24T12:51:39Z</time>
      </trkpt>
      <trkpt lat="43.75213" lon="0.31354">
        <ele>87.62</ele>
        <time>2016-06-24T12:51:41Z</time>
      </trkpt>
      <trkpt lat="43.75226" lon="0.31344">
        <ele>87.14</ele>
        <time>2016-06-24T12:51:42Z</time>
      </trkpt>
      <trkpt lat="43.75239" lon="0.31335">
        <ele>86.66</ele>
        <time>2016-06-24T12:51:43Z</time>
      </trkpt>
      <trkpt lat="43.7532" lon="0.31248">
        <ele>81.85</ele>
        <time>2016-06-24T12:51:50Z</time>
      </trkpt>
      <trkpt lat="43.75397" lon="0.31168">
        <ele>78.97</ele>
        <time>2016-06-24T12:51:58Z</time>
      </trkpt>
      <trkpt lat="43.75417" lon="0.3114">
        <ele>78.48</ele>
        <time>2016-06-24T12:52:01Z</time>
      </trkpt>
      <trkpt lat="43.75438" lon="0.31122">
        <ele>76.56</ele>
        <time>2016-06-24T12:52:04Z</time>
      </trkpt>
      <trkpt lat="43.75452" lon="0.31083">
        <ele>76.08</ele>
        <time>2016-06-24T12:52:09Z</time>
      </trkpt>
      <trkpt lat="43.75448" lon="0.31056">
        <ele>74.64</ele>
        <time>2016-06-24T12:52:13Z</time>
      </trkpt>
      <trkpt lat="43.75448" lon="0.31053">
        <ele>73.68</ele>
        <time>2016-06-24T12:52:21Z</time>
      </trkpt>
      <trkpt lat="43.7545" lon="0.31028">
        <ele>74.16</ele>
        <time>2016-06-24T12:53:08Z</time>
      </trkpt>
      <trkpt lat="43.75459" lon="0.30907">
        <ele>72.24</ele>
        <time>2016-06-24T12:53:16Z</time>
      </trkpt>
      <trkpt lat="43.75507" lon="0.30685">
        <ele>69.83</ele>
        <time>2016-06-24T12:53:28Z</time>
      </trkpt>
      <trkpt lat="43.75543" lon="0.30586">
        <ele>68.39</ele>
        <time>2016-06-24T12:53:33Z</time>
      </trkpt>
      <trkpt lat="43.75581" lon="0.30433">
        <ele>67.43</ele>
        <time>2016-06-24T12:53:41Z</time>
      </trkpt>
      <trkpt lat="43.75573" lon="0.30308">
        <ele>66.47</ele>
        <time>2016-06-24T12:53:49Z</time>
      </trkpt>
      <trkpt lat="43.75572" lon="0.30295">
        <ele>66.47</ele>
        <time>2016-06-24T12:53:50Z</time>
      </trkpt>
      <trkpt lat="43.75565" lon="0.30204">
        <ele>69.83</ele>
        <time>2016-06-24T12:53:56Z</time>
      </trkpt>
      <trkpt lat="43.75562" lon="0.30108">
        <ele>70.79</ele>
        <time>2016-06-24T12:54:01Z</time>
      </trkpt>
      <trkpt lat="43.75555" lon="0.30041">
        <ele>70.31</ele>
        <time>2016-06-24T12:54:05Z</time>
      </trkpt>
      <trkpt lat="43.7556" lon="0.29987">
        <ele>72.72</ele>
        <time>2016-06-24T12:54:08Z</time>
      </trkpt>
      <trkpt lat="43.75563" lon="0.29798">
        <ele>76.08</ele>
        <time>2016-06-24T12:54:18Z</time>
      </trkpt>
      <trkpt lat="43.75562" lon="0.2978">
        <ele>76.08</ele>
        <time>2016-06-24T12:54:19Z</time>
      </trkpt>
      <trkpt lat="43.7555" lon="0.29626">
        <ele>78.97</ele>
        <time>2016-06-24T12:54:27Z</time>
      </trkpt>
      <trkpt lat="43.75543" lon="0.29533">
        <ele>78.97</ele>
        <time>2016-06-24T12:54:32Z</time>
      </trkpt>
      <trkpt lat="43.75559" lon="0.29463">
        <ele>80.89</ele>
        <time>2016-06-24T12:54:38Z</time>
      </trkpt>
      <trkpt lat="43.75588" lon="0.29427">
        <ele>82.81</ele>
        <time>2016-06-24T12:54:45Z</time>
      </trkpt>
      <trkpt lat="43.75572" lon="0.29389">
        <ele>82.33</ele>
        <time>2016-06-24T12:54:49Z</time>
      </trkpt>
      <trkpt lat="43.75552" lon="0.29331">
        <ele>84.73</ele>
        <time>2016-06-24T12:54:53Z</time>
      </trkpt>
      <trkpt lat="43.7548" lon="0.2916">
        <ele>87.62</ele>
        <time>2016-06-24T12:55:03Z</time>
      </trkpt>
      <trkpt lat="43.75443" lon="0.29076">
        <ele>91.46</ele>
        <time>2016-06-24T12:55:08Z</time>
      </trkpt>
      <trkpt lat="43.7543" lon="0.29043">
        <ele>92.42</ele>
        <time>2016-06-24T12:55:10Z</time>
      </trkpt>
      <trkpt lat="43.75398" lon="0.28968">
        <ele>95.31</ele>
        <time>2016-06-24T12:55:15Z</time>
      </trkpt>
      <trkpt lat="43.75391" lon="0.28952">
        <ele>95.31</ele>
        <time>2016-06-24T12:55:16Z</time>
      </trkpt>
      <trkpt lat="43.75361" lon="0.28882">
        <ele>98.19</ele>
        <time>2016-06-24T12:55:20Z</time>
      </trkpt>
      <trkpt lat="43.75344" lon="0.28843">
        <ele>101.08</ele>
        <time>2016-06-24T12:55:22Z</time>
      </trkpt>
      <trkpt lat="43.75315" lon="0.28777">
        <ele>105.4</ele>
        <time>2016-06-24T12:55:25Z</time>
      </trkpt>
      <trkpt lat="43.75261" lon="0.28647">
        <ele>110.69</ele>
        <time>2016-06-24T12:55:30Z</time>
      </trkpt>
      <trkpt lat="43.75238" lon="0.28592">
        <ele>114.53</ele>
        <time>2016-06-24T12:55:32Z</time>
      </trkpt>
      <trkpt lat="43.75202" lon="0.28508">
        <ele>120.3</ele>
        <time>2016-06-24T12:55:35Z</time>
      </trkpt>
      <trkpt lat="43.75168" lon="0.28428">
        <ele>125.11</ele>
        <time>2016-06-24T12:55:38Z</time>
      </trkpt>
      <trkpt lat="43.75137" lon="0.28351">
        <ele>129.43</ele>
        <time>2016-06-24T12:55:41Z</time>
      </trkpt>
      <trkpt lat="43.75126" lon="0.28326">
        <ele>128.95</ele>
        <time>2016-06-24T12:55:42Z</time>
      </trkpt>
      <trkpt lat="43.75074" lon="0.28204">
        <ele>131.84</ele>
        <time>2016-06-24T12:55:47Z</time>
      </trkpt>
      <trkpt lat="43.74992" lon="0.28011">
        <ele>128.47</ele>
        <time>2016-06-24T12:55:55Z</time>
      </trkpt>
      <trkpt lat="43.74967" lon="0.27938">
        <ele>125.11</ele>
        <time>2016-06-24T12:55:58Z</time>
      </trkpt>
      <trkpt lat="43.74959" lon="0.27885">
        <ele>124.63</ele>
        <time>2016-06-24T12:56:00Z</time>
      </trkpt>
      <trkpt lat="43.74965" lon="0.27804">
        <ele>123.67</ele>
        <time>2016-06-24T12:56:03Z</time>
      </trkpt>
      <trkpt lat="43.74984" lon="0.27692">
        <ele>127.51</ele>
        <time>2016-06-24T12:56:07Z</time>
      </trkpt>
      <trkpt lat="43.74994" lon="0.27634">
        <ele>128.95</ele>
        <time>2016-06-24T12:56:09Z</time>
      </trkpt>
      <trkpt lat="43.75048" lon="0.27313">
        <ele>125.11</ele>
        <time>2016-06-24T12:56:19Z</time>
      </trkpt>
      <trkpt lat="43.75062" lon="0.27244">
        <ele>121.74</ele>
        <time>2016-06-24T12:56:21Z</time>
      </trkpt>
      <trkpt lat="43.75093" lon="0.27066">
        <ele>116.94</ele>
        <time>2016-06-24T12:56:26Z</time>
      </trkpt>
      <trkpt lat="43.75112" lon="0.2696">
        <ele>113.57</ele>
        <time>2016-06-24T12:56:29Z</time>
      </trkpt>
      <trkpt lat="43.75129" lon="0.26857">
        <ele>110.21</ele>
        <time>2016-06-24T12:56:32Z</time>
      </trkpt>
      <trkpt lat="43.75141" lon="0.2679">
        <ele>108.77</ele>
        <time>2016-06-24T12:56:34Z</time>
      </trkpt>
      <trkpt lat="43.75159" lon="0.26692">
        <ele>105.88</ele>
        <time>2016-06-24T12:56:37Z</time>
      </trkpt>
      <trkpt lat="43.75171" lon="0.26628">
        <ele>103.48</ele>
        <time>2016-06-24T12:56:39Z</time>
      </trkpt>
      <trkpt lat="43.75184" lon="0.26565">
        <ele>100.6</ele>
        <time>2016-06-24T12:56:41Z</time>
      </trkpt>
      <trkpt lat="43.75196" lon="0.26502">
        <ele>97.23</ele>
        <time>2016-06-24T12:56:43Z</time>
      </trkpt>
      <trkpt lat="43.75253" lon="0.26151">
        <ele>96.27</ele>
        <time>2016-06-24T12:56:54Z</time>
      </trkpt>
      <trkpt lat="43.75276" lon="0.26022">
        <ele>99.15</ele>
        <time>2016-06-24T12:56:58Z</time>
      </trkpt>
      <trkpt lat="43.75288" lon="0.25956">
        <ele>103</ele>
        <time>2016-06-24T12:57:00Z</time>
      </trkpt>
      <trkpt lat="43.75299" lon="0.25886">
        <ele>107.32</ele>
        <time>2016-06-24T12:57:02Z</time>
      </trkpt>
      <trkpt lat="43.75312" lon="0.25814">
        <ele>110.21</ele>
        <time>2016-06-24T12:57:04Z</time>
      </trkpt>
      <trkpt lat="43.75326" lon="0.25743">
        <ele>114.05</ele>
        <time>2016-06-24T12:57:06Z</time>
      </trkpt>
      <trkpt lat="43.75349" lon="0.25602">
        <ele>117.9</ele>
        <time>2016-06-24T12:57:10Z</time>
      </trkpt>
      <trkpt lat="43.75361" lon="0.25536">
        <ele>118.86</ele>
        <time>2016-06-24T12:57:12Z</time>
      </trkpt>
      <trkpt lat="43.75389" lon="0.25377">
        <ele>122.71</ele>
        <time>2016-06-24T12:57:17Z</time>
      </trkpt>
      <trkpt lat="43.75411" lon="0.25247">
        <ele>127.99</ele>
        <time>2016-06-24T12:57:21Z</time>
      </trkpt>
      <trkpt lat="43.75495" lon="0.2477">
        <ele>129.92</ele>
        <time>2016-06-24T12:57:36Z</time>
      </trkpt>
      <trkpt lat="43.75551" lon="0.24445">
        <ele>127.99</ele>
        <time>2016-06-24T12:57:46Z</time>
      </trkpt>
      <trkpt lat="43.75563" lon="0.24378">
        <ele>124.63</ele>
        <time>2016-06-24T12:57:48Z</time>
      </trkpt>
      <trkpt lat="43.75592" lon="0.24208">
        <ele>121.74</ele>
        <time>2016-06-24T12:57:53Z</time>
      </trkpt>
      <trkpt lat="43.75616" lon="0.24073">
        <ele>118.38</ele>
        <time>2016-06-24T12:57:57Z</time>
      </trkpt>
      <trkpt lat="43.75633" lon="0.23972">
        <ele>114.05</ele>
        <time>2016-06-24T12:58:00Z</time>
      </trkpt>
      <trkpt lat="43.75661" lon="0.23809">
        <ele>113.09</ele>
        <time>2016-06-24T12:58:05Z</time>
      </trkpt>
      <trkpt lat="43.75672" lon="0.23743">
        <ele>116.94</ele>
        <time>2016-06-24T12:58:07Z</time>
      </trkpt>
      <trkpt lat="43.7569" lon="0.23642">
        <ele>120.3</ele>
        <time>2016-06-24T12:58:10Z</time>
      </trkpt>
      <trkpt lat="43.75696" lon="0.23609">
        <ele>124.63</ele>
        <time>2016-06-24T12:58:11Z</time>
      </trkpt>
      <trkpt lat="43.75706" lon="0.23542">
        <ele>127.03</ele>
        <time>2016-06-24T12:58:13Z</time>
      </trkpt>
      <trkpt lat="43.75713" lon="0.23473">
        <ele>129.92</ele>
        <time>2016-06-24T12:58:15Z</time>
      </trkpt>
      <trkpt lat="43.75721" lon="0.23332">
        <ele>126.55</ele>
        <time>2016-06-24T12:58:19Z</time>
      </trkpt>
      <trkpt lat="43.75722" lon="0.23297">
        <ele>126.07</ele>
        <time>2016-06-24T12:58:20Z</time>
      </trkpt>
      <trkpt lat="43.75726" lon="0.23228">
        <ele>122.22</ele>
        <time>2016-06-24T12:58:22Z</time>
      </trkpt>
      <trkpt lat="43.7573" lon="0.23158">
        <ele>119.34</ele>
        <time>2016-06-24T12:58:24Z</time>
      </trkpt>
      <trkpt lat="43.75735" lon="0.23088">
        <ele>115.5</ele>
        <time>2016-06-24T12:58:26Z</time>
      </trkpt>
      <trkpt lat="43.75737" lon="0.23054">
        <ele>115.5</ele>
        <time>2016-06-24T12:58:27Z</time>
      </trkpt>
      <trkpt lat="43.75742" lon="0.22984">
        <ele>112.13</ele>
        <time>2016-06-24T12:58:29Z</time>
      </trkpt>
      <trkpt lat="43.75746" lon="0.22914">
        <ele>108.29</ele>
        <time>2016-06-24T12:58:31Z</time>
      </trkpt>
      <trkpt lat="43.75751" lon="0.22809">
        <ele>106.84</ele>
        <time>2016-06-24T12:58:34Z</time>
      </trkpt>
      <trkpt lat="43.75769" lon="0.22466">
        <ele>107.32</ele>
        <time>2016-06-24T12:58:44Z</time>
      </trkpt>
      <trkpt lat="43.75774" lon="0.22364">
        <ele>111.17</ele>
        <time>2016-06-24T12:58:47Z</time>
      </trkpt>
      <trkpt lat="43.75778" lon="0.22294">
        <ele>115.98</ele>
        <time>2016-06-24T12:58:49Z</time>
      </trkpt>
      <trkpt lat="43.75784" lon="0.22191">
        <ele>121.26</ele>
        <time>2016-06-24T12:58:52Z</time>
      </trkpt>
      <trkpt lat="43.75786" lon="0.22157">
        <ele>121.26</ele>
        <time>2016-06-24T12:58:53Z</time>
      </trkpt>
      <trkpt lat="43.75792" lon="0.22058">
        <ele>124.15</ele>
        <time>2016-06-24T12:58:56Z</time>
      </trkpt>
      <trkpt lat="43.75795" lon="0.21991">
        <ele>128.95</ele>
        <time>2016-06-24T12:58:58Z</time>
      </trkpt>
      <trkpt lat="43.75801" lon="0.21885">
        <ele>132.8</ele>
        <time>2016-06-24T12:59:01Z</time>
      </trkpt>
      <trkpt lat="43.75803" lon="0.21849">
        <ele>136.64</ele>
        <time>2016-06-24T12:59:02Z</time>
      </trkpt>
      <trkpt lat="43.75805" lon="0.21813">
        <ele>136.64</ele>
        <time>2016-06-24T12:59:03Z</time>
      </trkpt>
      <trkpt lat="43.75808" lon="0.21741">
        <ele>140.49</ele>
        <time>2016-06-24T12:59:05Z</time>
      </trkpt>
      <trkpt lat="43.7583" lon="0.21333">
        <ele>142.41</ele>
        <time>2016-06-24T12:59:17Z</time>
      </trkpt>
      <trkpt lat="43.75843" lon="0.21167">
        <ele>145.3</ele>
        <time>2016-06-24T12:59:22Z</time>
      </trkpt>
      <trkpt lat="43.75866" lon="0.21074">
        <ele>148.66</ele>
        <time>2016-06-24T12:59:25Z</time>
      </trkpt>
      <trkpt lat="43.75911" lon="0.20964">
        <ele>151.54</ele>
        <time>2016-06-24T12:59:29Z</time>
      </trkpt>
      <trkpt lat="43.75934" lon="0.20908">
        <ele>152.99</ele>
        <time>2016-06-24T12:59:31Z</time>
      </trkpt>
      <trkpt lat="43.75958" lon="0.20849">
        <ele>155.87</ele>
        <time>2016-06-24T12:59:33Z</time>
      </trkpt>
      <trkpt lat="43.75983" lon="0.20789">
        <ele>159.24</ele>
        <time>2016-06-24T12:59:35Z</time>
      </trkpt>
      <trkpt lat="43.76007" lon="0.20729">
        <ele>160.68</ele>
        <time>2016-06-24T12:59:37Z</time>
      </trkpt>
      <trkpt lat="43.76045" lon="0.2064">
        <ele>164.52</ele>
        <time>2016-06-24T12:59:40Z</time>
      </trkpt>
      <trkpt lat="43.76056" lon="0.20611">
        <ele>164.52</ele>
        <time>2016-06-24T12:59:41Z</time>
      </trkpt>
      <trkpt lat="43.76077" lon="0.20552">
        <ele>166.93</ele>
        <time>2016-06-24T12:59:43Z</time>
      </trkpt>
      <trkpt lat="43.76089" lon="0.20493">
        <ele>169.33</ele>
        <time>2016-06-24T12:59:45Z</time>
      </trkpt>
      <trkpt lat="43.76086" lon="0.20429">
        <ele>172.21</ele>
        <time>2016-06-24T12:59:47Z</time>
      </trkpt>
      <trkpt lat="43.76067" lon="0.20299">
        <ele>176.06</ele>
        <time>2016-06-24T12:59:51Z</time>
      </trkpt>
      <trkpt lat="43.76058" lon="0.20235">
        <ele>177.98</ele>
        <time>2016-06-24T12:59:53Z</time>
      </trkpt>
      <trkpt lat="43.76035" lon="0.2007">
        <ele>182.31</ele>
        <time>2016-06-24T12:59:58Z</time>
      </trkpt>
      <trkpt lat="43.76031" lon="0.20037">
        <ele>182.31</ele>
        <time>2016-06-24T12:59:59Z</time>
      </trkpt>
      <trkpt lat="43.75984" lon="0.19706">
        <ele>180.38</ele>
        <time>2016-06-24T13:00:09Z</time>
      </trkpt>
      <trkpt lat="43.75977" lon="0.19638">
        <ele>181.35</ele>
        <time>2016-06-24T13:00:11Z</time>
      </trkpt>
      <trkpt lat="43.75972" lon="0.1957">
        <ele>177.5</ele>
        <time>2016-06-24T13:00:13Z</time>
      </trkpt>
      <trkpt lat="43.75969" lon="0.19535">
        <ele>177.5</ele>
        <time>2016-06-24T13:00:14Z</time>
      </trkpt>
      <trkpt lat="43.75965" lon="0.19466">
        <ele>174.62</ele>
        <time>2016-06-24T13:00:16Z</time>
      </trkpt>
      <trkpt lat="43.75958" lon="0.19364">
        <ele>171.73</ele>
        <time>2016-06-24T13:00:19Z</time>
      </trkpt>
      <trkpt lat="43.75951" lon="0.19229">
        <ele>167.89</ele>
        <time>2016-06-24T13:00:23Z</time>
      </trkpt>
      <trkpt lat="43.75955" lon="0.19163">
        <ele>166.93</ele>
        <time>2016-06-24T13:00:25Z</time>
      </trkpt>
      <trkpt lat="43.75965" lon="0.19098">
        <ele>163.08</ele>
        <time>2016-06-24T13:00:27Z</time>
      </trkpt>
      <trkpt lat="43.75978" lon="0.19034">
        <ele>159.72</ele>
        <time>2016-06-24T13:00:29Z</time>
      </trkpt>
      <trkpt lat="43.75996" lon="0.18935">
        <ele>157.31</ele>
        <time>2016-06-24T13:00:32Z</time>
      </trkpt>
      <trkpt lat="43.76003" lon="0.18867">
        <ele>154.43</ele>
        <time>2016-06-24T13:00:34Z</time>
      </trkpt>
      <trkpt lat="43.76004" lon="0.18764">
        <ele>150.1</ele>
        <time>2016-06-24T13:00:37Z</time>
      </trkpt>
      <trkpt lat="43.76002" lon="0.18663">
        <ele>147.22</ele>
        <time>2016-06-24T13:00:40Z</time>
      </trkpt>
      <trkpt lat="43.76003" lon="0.18596">
        <ele>143.37</ele>
        <time>2016-06-24T13:00:42Z</time>
      </trkpt>
      <trkpt lat="43.76006" lon="0.18563">
        <ele>141.93</ele>
        <time>2016-06-24T13:00:43Z</time>
      </trkpt>
      <trkpt lat="43.76026" lon="0.18467">
        <ele>137.61</ele>
        <time>2016-06-24T13:00:46Z</time>
      </trkpt>
      <trkpt lat="43.76052" lon="0.18373">
        <ele>131.36</ele>
        <time>2016-06-24T13:00:49Z</time>
      </trkpt>
      <trkpt lat="43.7607" lon="0.18309">
        <ele>129.92</ele>
        <time>2016-06-24T13:00:51Z</time>
      </trkpt>
      <trkpt lat="43.76116" lon="0.18151">
        <ele>126.07</ele>
        <time>2016-06-24T13:00:56Z</time>
      </trkpt>
      <trkpt lat="43.76179" lon="0.1793">
        <ele>122.71</ele>
        <time>2016-06-24T13:01:03Z</time>
      </trkpt>
      <trkpt lat="43.76242" lon="0.17711">
        <ele>122.22</ele>
        <time>2016-06-24T13:01:10Z</time>
      </trkpt>
      <trkpt lat="43.76312" lon="0.17465">
        <ele>119.82</ele>
        <time>2016-06-24T13:01:18Z</time>
      </trkpt>
      <trkpt lat="43.76387" lon="0.17201">
        <ele>115.98</ele>
        <time>2016-06-24T13:01:27Z</time>
      </trkpt>
      <trkpt lat="43.76427" lon="0.17058">
        <ele>112.61</ele>
        <time>2016-06-24T13:01:33Z</time>
      </trkpt>
      <trkpt lat="43.76433" lon="0.17036">
        <ele>112.61</ele>
        <time>2016-06-24T13:01:34Z</time>
      </trkpt>
      <trkpt lat="43.76465" lon="0.16933">
        <ele>110.21</ele>
        <time>2016-06-24T13:01:39Z</time>
      </trkpt>
      <trkpt lat="43.76501" lon="0.16797">
        <ele>112.13</ele>
        <time>2016-06-24T13:01:46Z</time>
      </trkpt>
      <trkpt lat="43.7654" lon="0.16631">
        <ele>111.65</ele>
        <time>2016-06-24T13:01:55Z</time>
      </trkpt>
      <trkpt lat="43.76585" lon="0.16389">
        <ele>112.61</ele>
        <time>2016-06-24T13:02:05Z</time>
      </trkpt>
      <trkpt lat="43.76601" lon="0.163">
        <ele>115.98</ele>
        <time>2016-06-24T13:02:08Z</time>
      </trkpt>
      <trkpt lat="43.76614" lon="0.16233">
        <ele>118.38</ele>
        <time>2016-06-24T13:02:10Z</time>
      </trkpt>
      <trkpt lat="43.76679" lon="0.15875">
        <ele>121.74</ele>
        <time>2016-06-24T13:02:21Z</time>
      </trkpt>
      <trkpt lat="43.7673" lon="0.15586">
        <ele>125.59</ele>
        <time>2016-06-24T13:02:30Z</time>
      </trkpt>
      <trkpt lat="43.76753" lon="0.15459">
        <ele>127.99</ele>
        <time>2016-06-24T13:02:34Z</time>
      </trkpt>
      <trkpt lat="43.7677" lon="0.15364">
        <ele>131.36</ele>
        <time>2016-06-24T13:02:37Z</time>
      </trkpt>
      <trkpt lat="43.76788" lon="0.15268">
        <ele>133.76</ele>
        <time>2016-06-24T13:02:40Z</time>
      </trkpt>
      <trkpt lat="43.76811" lon="0.1514">
        <ele>138.57</ele>
        <time>2016-06-24T13:02:44Z</time>
      </trkpt>
      <trkpt lat="43.76822" lon="0.15077">
        <ele>141.93</ele>
        <time>2016-06-24T13:02:46Z</time>
      </trkpt>
      <trkpt lat="43.76828" lon="0.15046">
        <ele>141.45</ele>
        <time>2016-06-24T13:02:47Z</time>
      </trkpt>
      <trkpt lat="43.7689" lon="0.14762">
        <ele>141.93</ele>
        <time>2016-06-24T13:02:56Z</time>
      </trkpt>
      <trkpt lat="43.76923" lon="0.14606">
        <ele>146.26</ele>
        <time>2016-06-24T13:03:01Z</time>
      </trkpt>
      <trkpt lat="43.76929" lon="0.14574">
        <ele>145.78</ele>
        <time>2016-06-24T13:03:02Z</time>
      </trkpt>
      <trkpt lat="43.76962" lon="0.1442">
        <ele>149.62</ele>
        <time>2016-06-24T13:03:07Z</time>
      </trkpt>
      <trkpt lat="43.76969" lon="0.14389">
        <ele>149.14</ele>
        <time>2016-06-24T13:03:08Z</time>
      </trkpt>
      <trkpt lat="43.76982" lon="0.14329">
        <ele>152.51</ele>
        <time>2016-06-24T13:03:10Z</time>
      </trkpt>
      <trkpt lat="43.76995" lon="0.14266">
        <ele>156.35</ele>
        <time>2016-06-24T13:03:12Z</time>
      </trkpt>
      <trkpt lat="43.77008" lon="0.1417">
        <ele>160.2</ele>
        <time>2016-06-24T13:03:15Z</time>
      </trkpt>
      <trkpt lat="43.76985" lon="0.13937">
        <ele>162.6</ele>
        <time>2016-06-24T13:03:22Z</time>
      </trkpt>
      <trkpt lat="43.76952" lon="0.13743">
        <ele>166.93</ele>
        <time>2016-06-24T13:03:28Z</time>
      </trkpt>
      <trkpt lat="43.76946" lon="0.13612">
        <ele>170.77</ele>
        <time>2016-06-24T13:03:32Z</time>
      </trkpt>
      <trkpt lat="43.76948" lon="0.1358">
        <ele>170.29</ele>
        <time>2016-06-24T13:03:33Z</time>
      </trkpt>
      <trkpt lat="43.76956" lon="0.13516">
        <ele>172.21</ele>
        <time>2016-06-24T13:03:35Z</time>
      </trkpt>
      <trkpt lat="43.76997" lon="0.13322">
        <ele>168.85</ele>
        <time>2016-06-24T13:03:41Z</time>
      </trkpt>
      <trkpt lat="43.77035" lon="0.13131">
        <ele>172.21</ele>
        <time>2016-06-24T13:03:47Z</time>
      </trkpt>
      <trkpt lat="43.77054" lon="0.13046">
        <ele>175.1</ele>
        <time>2016-06-24T13:03:50Z</time>
      </trkpt>
      <trkpt lat="43.7713" lon="0.12898">
        <ele>178.46</ele>
        <time>2016-06-24T13:03:56Z</time>
      </trkpt>
      <trkpt lat="43.77162" lon="0.12842">
        <ele>181.83</ele>
        <time>2016-06-24T13:03:58Z</time>
      </trkpt>
      <trkpt lat="43.77215" lon="0.12753">
        <ele>183.27</ele>
        <time>2016-06-24T13:04:01Z</time>
      </trkpt>
      <trkpt lat="43.77249" lon="0.12697">
        <ele>182.31</ele>
        <time>2016-06-24T13:04:03Z</time>
      </trkpt>
      <trkpt lat="43.77297" lon="0.12616">
        <ele>178.94</ele>
        <time>2016-06-24T13:04:06Z</time>
      </trkpt>
      <trkpt lat="43.77359" lon="0.12518">
        <ele>181.83</ele>
        <time>2016-06-24T13:04:10Z</time>
      </trkpt>
      <trkpt lat="43.77418" lon="0.12462">
        <ele>178.46</ele>
        <time>2016-06-24T13:04:13Z</time>
      </trkpt>
      <trkpt lat="43.77545" lon="0.12377">
        <ele>174.14</ele>
        <time>2016-06-24T13:04:19Z</time>
      </trkpt>
      <trkpt lat="43.77646" lon="0.12306">
        <ele>177.5</ele>
        <time>2016-06-24T13:04:24Z</time>
      </trkpt>
      <trkpt lat="43.77707" lon="0.12265">
        <ele>182.31</ele>
        <time>2016-06-24T13:04:27Z</time>
      </trkpt>
      <trkpt lat="43.77832" lon="0.12179">
        <ele>179.42</ele>
        <time>2016-06-24T13:04:33Z</time>
      </trkpt>
      <trkpt lat="43.77852" lon="0.12164">
        <ele>180.38</ele>
        <time>2016-06-24T13:04:34Z</time>
      </trkpt>
      <trkpt lat="43.77903" lon="0.12103">
        <ele>178.94</ele>
        <time>2016-06-24T13:04:37Z</time>
      </trkpt>
      <trkpt lat="43.7794" lon="0.12023">
        <ele>177.98</ele>
        <time>2016-06-24T13:04:40Z</time>
      </trkpt>
      <trkpt lat="43.77978" lon="0.11909">
        <ele>175.1</ele>
        <time>2016-06-24T13:04:44Z</time>
      </trkpt>
      <trkpt lat="43.77988" lon="0.1188">
        <ele>175.58</ele>
        <time>2016-06-24T13:04:45Z</time>
      </trkpt>
      <trkpt lat="43.78008" lon="0.11822">
        <ele>171.25</ele>
        <time>2016-06-24T13:04:47Z</time>
      </trkpt>
      <trkpt lat="43.78048" lon="0.11749">
        <ele>168.37</ele>
        <time>2016-06-24T13:04:50Z</time>
      </trkpt>
      <trkpt lat="43.78064" lon="0.11729">
        <ele>168.85</ele>
        <time>2016-06-24T13:04:51Z</time>
      </trkpt>
      <trkpt lat="43.78113" lon="0.11678">
        <ele>165.96</ele>
        <time>2016-06-24T13:04:54Z</time>
      </trkpt>
      <trkpt lat="43.78144" lon="0.11649">
        <ele>163.56</ele>
        <time>2016-06-24T13:04:56Z</time>
      </trkpt>
      <trkpt lat="43.78238" lon="0.11531">
        <ele>158.75</ele>
        <time>2016-06-24T13:05:03Z</time>
      </trkpt>
      <trkpt lat="43.78252" lon="0.11511">
        <ele>158.75</ele>
        <time>2016-06-24T13:05:04Z</time>
      </trkpt>
      <trkpt lat="43.78293" lon="0.11451">
        <ele>160.2</ele>
        <time>2016-06-24T13:05:07Z</time>
      </trkpt>
      <trkpt lat="43.78413" lon="0.11273">
        <ele>159.24</ele>
        <time>2016-06-24T13:05:16Z</time>
      </trkpt>
      <trkpt lat="43.7848" lon="0.11176">
        <ele>160.2</ele>
        <time>2016-06-24T13:05:21Z</time>
      </trkpt>
      <trkpt lat="43.78561" lon="0.11056">
        <ele>164.04</ele>
        <time>2016-06-24T13:05:27Z</time>
      </trkpt>
      <trkpt lat="43.78575" lon="0.11036">
        <ele>163.56</ele>
        <time>2016-06-24T13:05:28Z</time>
      </trkpt>
      <trkpt lat="43.78629" lon="0.10949">
        <ele>161.64</ele>
        <time>2016-06-24T13:05:32Z</time>
      </trkpt>
      <trkpt lat="43.78736" lon="0.10707">
        <ele>163.08</ele>
        <time>2016-06-24T13:05:42Z</time>
      </trkpt>
      <trkpt lat="43.78829" lon="0.10587">
        <ele>164.52</ele>
        <time>2016-06-24T13:05:48Z</time>
      </trkpt>
      <trkpt lat="43.78968" lon="0.10434">
        <ele>164.04</ele>
        <time>2016-06-24T13:05:57Z</time>
      </trkpt>
      <trkpt lat="43.79167" lon="0.1023">
        <ele>164.52</ele>
        <time>2016-06-24T13:06:10Z</time>
      </trkpt>
      <trkpt lat="43.79229" lon="0.10164">
        <ele>165</ele>
        <time>2016-06-24T13:06:14Z</time>
      </trkpt>
      <trkpt lat="43.79271" lon="0.10053">
        <ele>167.89</ele>
        <time>2016-06-24T13:06:19Z</time>
      </trkpt>
      <trkpt lat="43.79272" lon="0.10027">
        <ele>168.85</ele>
        <time>2016-06-24T13:06:20Z</time>
      </trkpt>
      <trkpt lat="43.79272" lon="0.09973">
        <ele>170.29</ele>
        <time>2016-06-24T13:06:22Z</time>
      </trkpt>
      <trkpt lat="43.79268" lon="0.09918">
        <ele>168.85</ele>
        <time>2016-06-24T13:06:24Z</time>
      </trkpt>
      <trkpt lat="43.79257" lon="0.09803">
        <ele>165.96</ele>
        <time>2016-06-24T13:06:28Z</time>
      </trkpt>
      <trkpt lat="43.79249" lon="0.09715">
        <ele>162.12</ele>
        <time>2016-06-24T13:06:31Z</time>
      </trkpt>
      <trkpt lat="43.79244" lon="0.09656">
        <ele>158.75</ele>
        <time>2016-06-24T13:06:33Z</time>
      </trkpt>
      <trkpt lat="43.79231" lon="0.09508">
        <ele>155.39</ele>
        <time>2016-06-24T13:06:38Z</time>
      </trkpt>
      <trkpt lat="43.79227" lon="0.09399">
        <ele>153.47</ele>
        <time>2016-06-24T13:06:42Z</time>
      </trkpt>
      <trkpt lat="43.79268" lon="0.09179">
        <ele>156.35</ele>
        <time>2016-06-24T13:06:50Z</time>
      </trkpt>
      <trkpt lat="43.79303" lon="0.08981">
        <ele>152.03</ele>
        <time>2016-06-24T13:06:57Z</time>
      </trkpt>
      <trkpt lat="43.79308" lon="0.08953">
        <ele>152.03</ele>
        <time>2016-06-24T13:06:58Z</time>
      </trkpt>
      <trkpt lat="43.79316" lon="0.08897">
        <ele>155.87</ele>
        <time>2016-06-24T13:07:00Z</time>
      </trkpt>
      <trkpt lat="43.79321" lon="0.08871">
        <ele>155.39</ele>
        <time>2016-06-24T13:07:01Z</time>
      </trkpt>
      <trkpt lat="43.79385" lon="0.08585">
        <ele>156.83</ele>
        <time>2016-06-24T13:07:11Z</time>
      </trkpt>
      <trkpt lat="43.79415" lon="0.08462">
        <ele>157.31</ele>
        <time>2016-06-24T13:07:15Z</time>
      </trkpt>
      <trkpt lat="43.79446" lon="0.08339">
        <ele>161.16</ele>
        <time>2016-06-24T13:07:19Z</time>
      </trkpt>
      <trkpt lat="43.79452" lon="0.08308">
        <ele>163.08</ele>
        <time>2016-06-24T13:07:20Z</time>
      </trkpt>
      <trkpt lat="43.79448" lon="0.08149">
        <ele>161.16</ele>
        <time>2016-06-24T13:07:25Z</time>
      </trkpt>
      <trkpt lat="43.79446" lon="0.08117">
        <ele>161.64</ele>
        <time>2016-06-24T13:07:26Z</time>
      </trkpt>
      <trkpt lat="43.79446" lon="0.08052">
        <ele>160.2</ele>
        <time>2016-06-24T13:07:28Z</time>
      </trkpt>
      <trkpt lat="43.79467" lon="0.07957">
        <ele>157.79</ele>
        <time>2016-06-24T13:07:31Z</time>
      </trkpt>
      <trkpt lat="43.79488" lon="0.07896">
        <ele>154.91</ele>
        <time>2016-06-24T13:07:33Z</time>
      </trkpt>
      <trkpt lat="43.79543" lon="0.07744">
        <ele>153.47</ele>
        <time>2016-06-24T13:07:38Z</time>
      </trkpt>
      <trkpt lat="43.79565" lon="0.07683">
        <ele>152.03</ele>
        <time>2016-06-24T13:07:40Z</time>
      </trkpt>
      <trkpt lat="43.79609" lon="0.07559">
        <ele>149.14</ele>
        <time>2016-06-24T13:07:44Z</time>
      </trkpt>
      <trkpt lat="43.79642" lon="0.07466">
        <ele>145.78</ele>
        <time>2016-06-24T13:07:47Z</time>
      </trkpt>
      <trkpt lat="43.79653" lon="0.07434">
        <ele>145.3</ele>
        <time>2016-06-24T13:07:48Z</time>
      </trkpt>
      <trkpt lat="43.79675" lon="0.07371">
        <ele>143.37</ele>
        <time>2016-06-24T13:07:50Z</time>
      </trkpt>
      <trkpt lat="43.79696" lon="0.07308">
        <ele>141.93</ele>
        <time>2016-06-24T13:07:52Z</time>
      </trkpt>
      <trkpt lat="43.79739" lon="0.07115">
        <ele>139.53</ele>
        <time>2016-06-24T13:07:58Z</time>
      </trkpt>
      <trkpt lat="43.79745" lon="0.07013">
        <ele>137.61</ele>
        <time>2016-06-24T13:08:01Z</time>
      </trkpt>
      <trkpt lat="43.79743" lon="0.06876">
        <ele>132.32</ele>
        <time>2016-06-24T13:08:05Z</time>
      </trkpt>
      <trkpt lat="43.79743" lon="0.06807">
        <ele>128.47</ele>
        <time>2016-06-24T13:08:07Z</time>
      </trkpt>
      <trkpt lat="43.79742" lon="0.06738">
        <ele>125.59</ele>
        <time>2016-06-24T13:08:09Z</time>
      </trkpt>
      <trkpt lat="43.79741" lon="0.06703">
        <ele>125.59</ele>
        <time>2016-06-24T13:08:10Z</time>
      </trkpt>
      <trkpt lat="43.79741" lon="0.06598">
        <ele>119.82</ele>
        <time>2016-06-24T13:08:13Z</time>
      </trkpt>
      <trkpt lat="43.7974" lon="0.0653">
        <ele>114.53</ele>
        <time>2016-06-24T13:08:15Z</time>
      </trkpt>
      <trkpt lat="43.79737" lon="0.06392">
        <ele>109.73</ele>
        <time>2016-06-24T13:08:19Z</time>
      </trkpt>
      <trkpt lat="43.7973" lon="0.06324">
        <ele>105.88</ele>
        <time>2016-06-24T13:08:21Z</time>
      </trkpt>
      <trkpt lat="43.79697" lon="0.06052">
        <ele>108.77</ele>
        <time>2016-06-24T13:08:29Z</time>
      </trkpt>
      <trkpt lat="43.7971" lon="0.05916">
        <ele>107.32</ele>
        <time>2016-06-24T13:08:33Z</time>
      </trkpt>
      <trkpt lat="43.79756" lon="0.0576">
        <ele>113.09</ele>
        <time>2016-06-24T13:08:38Z</time>
      </trkpt>
      <trkpt lat="43.79765" lon="0.05729">
        <ele>112.61</ele>
        <time>2016-06-24T13:08:39Z</time>
      </trkpt>
      <trkpt lat="43.79802" lon="0.05603">
        <ele>110.21</ele>
        <time>2016-06-24T13:08:43Z</time>
      </trkpt>
      <trkpt lat="43.79857" lon="0.05411">
        <ele>114.53</ele>
        <time>2016-06-24T13:08:49Z</time>
      </trkpt>
      <trkpt lat="43.79866" lon="0.0538">
        <ele>114.05</ele>
        <time>2016-06-24T13:08:50Z</time>
      </trkpt>
      <trkpt lat="43.79894" lon="0.05286">
        <ele>110.69</ele>
        <time>2016-06-24T13:08:53Z</time>
      </trkpt>
      <trkpt lat="43.79903" lon="0.05256">
        <ele>111.17</ele>
        <time>2016-06-24T13:08:54Z</time>
      </trkpt>
      <trkpt lat="43.79949" lon="0.05102">
        <ele>116.46</ele>
        <time>2016-06-24T13:08:59Z</time>
      </trkpt>
      <trkpt lat="43.79992" lon="0.04951">
        <ele>112.13</ele>
        <time>2016-06-24T13:09:04Z</time>
      </trkpt>
      <trkpt lat="43.80007" lon="0.04894">
        <ele>110.21</ele>
        <time>2016-06-24T13:09:06Z</time>
      </trkpt>
      <trkpt lat="43.80023" lon="0.0484">
        <ele>106.36</ele>
        <time>2016-06-24T13:09:08Z</time>
      </trkpt>
      <trkpt lat="43.80045" lon="0.04762">
        <ele>102.04</ele>
        <time>2016-06-24T13:09:11Z</time>
      </trkpt>
      <trkpt lat="43.80052" lon="0.04738">
        <ele>102.52</ele>
        <time>2016-06-24T13:09:12Z</time>
      </trkpt>
      <trkpt lat="43.80075" lon="0.04651">
        <ele>99.15</ele>
        <time>2016-06-24T13:09:16Z</time>
      </trkpt>
      <trkpt lat="43.80076" lon="0.04573">
        <ele>97.23</ele>
        <time>2016-06-24T13:09:20Z</time>
      </trkpt>
      <trkpt lat="43.80052" lon="0.04476">
        <ele>93.39</ele>
        <time>2016-06-24T13:09:26Z</time>
      </trkpt>
      <trkpt lat="43.80045" lon="0.04447">
        <ele>92.9</ele>
        <time>2016-06-24T13:09:28Z</time>
      </trkpt>
      <trkpt lat="43.80012" lon="0.04283">
        <ele>91.46</ele>
        <time>2016-06-24T13:09:40Z</time>
      </trkpt>
      <trkpt lat="43.80011" lon="0.04188">
        <ele>88.58</ele>
        <time>2016-06-24T13:09:47Z</time>
      </trkpt>
      <trkpt lat="43.79995" lon="0.04118">
        <ele>84.73</ele>
        <time>2016-06-24T13:09:53Z</time>
      </trkpt>
      <trkpt lat="43.79976" lon="0.04057">
        <ele>84.25</ele>
        <time>2016-06-24T13:09:58Z</time>
      </trkpt>
      <trkpt lat="43.79954" lon="0.04005">
        <ele>81.85</ele>
        <time>2016-06-24T13:10:03Z</time>
      </trkpt>
      <trkpt lat="43.79944" lon="0.03989">
        <ele>81.37</ele>
        <time>2016-06-24T13:10:05Z</time>
      </trkpt>
      <trkpt lat="43.79875" lon="0.03917">
        <ele>78.48</ele>
        <time>2016-06-24T13:10:17Z</time>
      </trkpt>
      <trkpt lat="43.79835" lon="0.03879">
        <ele>75.6</ele>
        <time>2016-06-24T13:10:22Z</time>
      </trkpt>
      <trkpt lat="43.79749" lon="0.03774">
        <ele>74.16</ele>
        <time>2016-06-24T13:10:33Z</time>
      </trkpt>
      <trkpt lat="43.79697" lon="0.03653">
        <ele>77.52</ele>
        <time>2016-06-24T13:10:40Z</time>
      </trkpt>
      <trkpt lat="43.7968" lon="0.03605">
        <ele>79.45</ele>
        <time>2016-06-24T13:10:42Z</time>
      </trkpt>
      <trkpt lat="43.79597" lon="0.03389">
        <ele>79.93</ele>
        <time>2016-06-24T13:10:51Z</time>
      </trkpt>
      <trkpt lat="43.79536" lon="0.03253">
        <ele>83.29</ele>
        <time>2016-06-24T13:10:57Z</time>
      </trkpt>
      <trkpt lat="43.7938" lon="0.02967">
        <ele>82.81</ele>
        <time>2016-06-24T13:11:10Z</time>
      </trkpt>
      <trkpt lat="43.79347" lon="0.02844">
        <ele>84.25</ele>
        <time>2016-06-24T13:11:15Z</time>
      </trkpt>
      <trkpt lat="43.79343" lon="0.0274">
        <ele>84.25</ele>
        <time>2016-06-24T13:11:19Z</time>
      </trkpt>
      <trkpt lat="43.79348" lon="0.02687">
        <ele>85.69</ele>
        <time>2016-06-24T13:11:21Z</time>
      </trkpt>
      <trkpt lat="43.7938" lon="0.02537">
        <ele>87.62</ele>
        <time>2016-06-24T13:11:27Z</time>
      </trkpt>
      <trkpt lat="43.79424" lon="0.02422">
        <ele>90.98</ele>
        <time>2016-06-24T13:11:32Z</time>
      </trkpt>
      <trkpt lat="43.79447" lon="0.02347">
        <ele>90.02</ele>
        <time>2016-06-24T13:11:35Z</time>
      </trkpt>
      <trkpt lat="43.79453" lon="0.02231">
        <ele>93.39</ele>
        <time>2016-06-24T13:11:39Z</time>
      </trkpt>
      <trkpt lat="43.79428" lon="0.02142">
        <ele>96.75</ele>
        <time>2016-06-24T13:11:42Z</time>
      </trkpt>
      <trkpt lat="43.79411" lon="0.02117">
        <ele>97.23</ele>
        <time>2016-06-24T13:11:43Z</time>
      </trkpt>
      <trkpt lat="43.79371" lon="0.02076">
        <ele>98.67</ele>
        <time>2016-06-24T13:11:45Z</time>
      </trkpt>
      <trkpt lat="43.79172" lon="0.01886">
        <ele>100.6</ele>
        <time>2016-06-24T13:11:55Z</time>
      </trkpt>
      <trkpt lat="43.79049" lon="0.0168">
        <ele>103.48</ele>
        <time>2016-06-24T13:12:03Z</time>
      </trkpt>
      <trkpt lat="43.7904" lon="0.0165">
        <ele>103.48</ele>
        <time>2016-06-24T13:12:04Z</time>
      </trkpt>
      <trkpt lat="43.79005" lon="0.01525">
        <ele>106.84</ele>
        <time>2016-06-24T13:12:08Z</time>
      </trkpt>
      <trkpt lat="43.78948" lon="0.01303">
        <ele>110.21</ele>
        <time>2016-06-24T13:12:15Z</time>
      </trkpt>
      <trkpt lat="43.78908" lon="0.01148">
        <ele>106.84</ele>
        <time>2016-06-24T13:12:20Z</time>
      </trkpt>
      <trkpt lat="43.789" lon="0.01117">
        <ele>107.32</ele>
        <time>2016-06-24T13:12:21Z</time>
      </trkpt>
      <trkpt lat="43.78859" lon="0.00961">
        <ele>103.96</ele>
        <time>2016-06-24T13:12:26Z</time>
      </trkpt>
      <trkpt lat="43.78832" lon="0.00833">
        <ele>100.6</ele>
        <time>2016-06-24T13:12:30Z</time>
      </trkpt>
      <trkpt lat="43.78825" lon="0.00735">
        <ele>98.67</ele>
        <time>2016-06-24T13:12:33Z</time>
      </trkpt>
      <trkpt lat="43.78842" lon="0.00571">
        <ele>100.6</ele>
        <time>2016-06-24T13:12:38Z</time>
      </trkpt>
      <trkpt lat="43.78853" lon="0.00504">
        <ele>99.15</ele>
        <time>2016-06-24T13:12:40Z</time>
      </trkpt>
      <trkpt lat="43.78864" lon="0.00439">
        <ele>97.23</ele>
        <time>2016-06-24T13:12:42Z</time>
      </trkpt>
      <trkpt lat="43.78865" lon="0.00308">
        <ele>92.9</ele>
        <time>2016-06-24T13:12:46Z</time>
      </trkpt>
      <trkpt lat="43.7885" lon="0.0021">
        <ele>88.58</ele>
        <time>2016-06-24T13:12:49Z</time>
      </trkpt>
      <trkpt lat="43.78846" lon="0.00177">
        <ele>89.06</ele>
        <time>2016-06-24T13:12:50Z</time>
      </trkpt>
      <trkpt lat="43.78826" lon="0.00047">
        <ele>84.73</ele>
        <time>2016-06-24T13:12:54Z</time>
      </trkpt>
      <trkpt lat="43.78816" lon="-0.00019">
        <ele>81.37</ele>
        <time>2016-06-24T13:12:56Z</time>
      </trkpt>
      <trkpt lat="43.78811" lon="-0.00052">
        <ele>81.37</ele>
        <time>2016-06-24T13:12:57Z</time>
      </trkpt>
      <trkpt lat="43.78796" lon="-0.00152">
        <ele>78.97</ele>
        <time>2016-06-24T13:13:00Z</time>
      </trkpt>
      <trkpt lat="43.7878" lon="-0.00253">
        <ele>75.6</ele>
        <time>2016-06-24T13:13:03Z</time>
      </trkpt>
      <trkpt lat="43.7876" lon="-0.00388">
        <ele>72.24</ele>
        <time>2016-06-24T13:13:07Z</time>
      </trkpt>
      <trkpt lat="43.78743" lon="-0.00521">
        <ele>68.87</ele>
        <time>2016-06-24T13:13:11Z</time>
      </trkpt>
      <trkpt lat="43.7874" lon="-0.00554">
        <ele>68.87</ele>
        <time>2016-06-24T13:13:12Z</time>
      </trkpt>
      <trkpt lat="43.78727" lon="-0.00789">
        <ele>65.99</ele>
        <time>2016-06-24T13:13:19Z</time>
      </trkpt>
      <trkpt lat="43.78724" lon="-0.00822">
        <ele>66.47</ele>
        <time>2016-06-24T13:13:20Z</time>
      </trkpt>
      <trkpt lat="43.78689" lon="-0.00945">
        <ele>65.03</ele>
        <time>2016-06-24T13:13:24Z</time>
      </trkpt>
      <trkpt lat="43.78517" lon="-0.01276">
        <ele>64.07</ele>
        <time>2016-06-24T13:13:36Z</time>
      </trkpt>
      <trkpt lat="43.78446" lon="-0.01411">
        <ele>64.55</ele>
        <time>2016-06-24T13:13:41Z</time>
      </trkpt>
      <trkpt lat="43.78406" lon="-0.01498">
        <ele>63.1</ele>
        <time>2016-06-24T13:13:44Z</time>
      </trkpt>
      <trkpt lat="43.78373" lon="-0.01629">
        <ele>62.14</ele>
        <time>2016-06-24T13:13:48Z</time>
      </trkpt>
      <trkpt lat="43.7835" lon="-0.01832">
        <ele>58.3</ele>
        <time>2016-06-24T13:13:54Z</time>
      </trkpt>
      <trkpt lat="43.78319" lon="-0.02119">
        <ele>54.93</ele>
        <time>2016-06-24T13:14:03Z</time>
      </trkpt>
      <trkpt lat="43.78316" lon="-0.02149">
        <ele>54.93</ele>
        <time>2016-06-24T13:14:04Z</time>
      </trkpt>
      <trkpt lat="43.7829" lon="-0.02372">
        <ele>52.05</ele>
        <time>2016-06-24T13:14:12Z</time>
      </trkpt>
      <trkpt lat="43.78278" lon="-0.02485">
        <ele>53.97</ele>
        <time>2016-06-24T13:14:16Z</time>
      </trkpt>
      <trkpt lat="43.78254" lon="-0.02697">
        <ele>50.13</ele>
        <time>2016-06-24T13:14:24Z</time>
      </trkpt>
      <trkpt lat="43.78252" lon="-0.02715">
        <ele>50.61</ele>
        <time>2016-06-24T13:14:25Z</time>
      </trkpt>
      <trkpt lat="43.78248" lon="-0.0278">
        <ele>47.72</ele>
        <time>2016-06-24T13:14:30Z</time>
      </trkpt>
      <trkpt lat="43.78239" lon="-0.02792">
        <ele>49.65</ele>
        <time>2016-06-24T13:14:32Z</time>
      </trkpt>
      <trkpt lat="43.78158" lon="-0.0282">
        <ele>50.13</ele>
        <time>2016-06-24T13:14:38Z</time>
      </trkpt>
      <trkpt lat="43.78101" lon="-0.02834">
        <ele>50.13</ele>
        <time>2016-06-24T13:14:41Z</time>
      </trkpt>
      <trkpt lat="43.78043" lon="-0.02834">
        <ele>48.68</ele>
        <time>2016-06-24T13:14:44Z</time>
      </trkpt>
      <trkpt lat="43.78024" lon="-0.02835">
        <ele>48.2</ele>
        <time>2016-06-24T13:14:45Z</time>
      </trkpt>
      <trkpt lat="43.77987" lon="-0.02845">
        <ele>48.2</ele>
        <time>2016-06-24T13:14:47Z</time>
      </trkpt>
      <trkpt lat="43.77969" lon="-0.02854">
        <ele>48.68</ele>
        <time>2016-06-24T13:14:48Z</time>
      </trkpt>
      <trkpt lat="43.7776" lon="-0.02976">
        <ele>48.2</ele>
        <time>2016-06-24T13:15:01Z</time>
      </trkpt>
      <trkpt lat="43.77713" lon="-0.03013">
        <ele>50.61</ele>
        <time>2016-06-24T13:15:04Z</time>
      </trkpt>
      <trkpt lat="43.77696" lon="-0.03021">
        <ele>51.57</ele>
        <time>2016-06-24T13:15:05Z</time>
      </trkpt>
      <trkpt lat="43.77678" lon="-0.03025">
        <ele>51.09</ele>
        <time>2016-06-24T13:15:06Z</time>
      </trkpt>
      <trkpt lat="43.7766" lon="-0.03028">
        <ele>50.13</ele>
        <time>2016-06-24T13:15:07Z</time>
      </trkpt>
      <trkpt lat="43.77643" lon="-0.03028">
        <ele>48.2</ele>
        <time>2016-06-24T13:15:08Z</time>
      </trkpt>
      <trkpt lat="43.77626" lon="-0.03028">
        <ele>48.68</ele>
        <time>2016-06-24T13:15:09Z</time>
      </trkpt>
      <trkpt lat="43.77591" lon="-0.03021">
        <ele>48.68</ele>
        <time>2016-06-24T13:15:11Z</time>
      </trkpt>
      <trkpt lat="43.77573" lon="-0.03013">
        <ele>49.16</ele>
        <time>2016-06-24T13:15:12Z</time>
      </trkpt>
      <trkpt lat="43.77555" lon="-0.03002">
        <ele>50.61</ele>
        <time>2016-06-24T13:15:13Z</time>
      </trkpt>
      <trkpt lat="43.77374" lon="-0.02874">
        <ele>50.61</ele>
        <time>2016-06-24T13:15:24Z</time>
      </trkpt>
      <trkpt lat="43.77282" lon="-0.02816">
        <ele>47.72</ele>
        <time>2016-06-24T13:15:30Z</time>
      </trkpt>
      <trkpt lat="43.77268" lon="-0.02812">
        <ele>47.24</ele>
        <time>2016-06-24T13:15:31Z</time>
      </trkpt>
      <trkpt lat="43.77253" lon="-0.02811">
        <ele>46.76</ele>
        <time>2016-06-24T13:15:32Z</time>
      </trkpt>
      <trkpt lat="43.77238" lon="-0.02813">
        <ele>46.76</ele>
        <time>2016-06-24T13:15:33Z</time>
      </trkpt>
      <trkpt lat="43.77224" lon="-0.02817">
        <ele>47.24</ele>
        <time>2016-06-24T13:15:34Z</time>
      </trkpt>
      <trkpt lat="43.7721" lon="-0.02823">
        <ele>47.72</ele>
        <time>2016-06-24T13:15:35Z</time>
      </trkpt>
      <trkpt lat="43.77196" lon="-0.02832">
        <ele>47.24</ele>
        <time>2016-06-24T13:15:36Z</time>
      </trkpt>
      <trkpt lat="43.77183" lon="-0.02842">
        <ele>47.72</ele>
        <time>2016-06-24T13:15:37Z</time>
      </trkpt>
      <trkpt lat="43.77171" lon="-0.02852">
        <ele>47.72</ele>
        <time>2016-06-24T13:15:38Z</time>
      </trkpt>
      <trkpt lat="43.77082" lon="-0.02934">
        <ele>47.24</ele>
        <time>2016-06-24T13:15:46Z</time>
      </trkpt>
      <trkpt lat="43.77041" lon="-0.02969">
        <ele>45.8</ele>
        <time>2016-06-24T13:15:51Z</time>
      </trkpt>
      <trkpt lat="43.77036" lon="-0.02977">
        <ele>46.28</ele>
        <time>2016-06-24T13:15:52Z</time>
      </trkpt>
      <trkpt lat="43.77032" lon="-0.02987">
        <ele>45.8</ele>
        <time>2016-06-24T13:15:53Z</time>
      </trkpt>
      <trkpt lat="43.77029" lon="-0.02996">
        <ele>45.8</ele>
        <time>2016-06-24T13:15:54Z</time>
      </trkpt>
      <trkpt lat="43.77024" lon="-0.03003">
        <ele>45.8</ele>
        <time>2016-06-24T13:15:55Z</time>
      </trkpt>
      <trkpt lat="43.77019" lon="-0.03007">
        <ele>45.32</ele>
        <time>2016-06-24T13:15:56Z</time>
      </trkpt>
      <trkpt lat="43.77013" lon="-0.03007">
        <ele>45.32</ele>
        <time>2016-06-24T13:15:57Z</time>
      </trkpt>
      <trkpt lat="43.77006" lon="-0.03005">
        <ele>45.8</ele>
        <time>2016-06-24T13:15:58Z</time>
      </trkpt>
      <trkpt lat="43.76999" lon="-0.03003">
        <ele>45.32</ele>
        <time>2016-06-24T13:15:59Z</time>
      </trkpt>
      <trkpt lat="43.76991" lon="-0.03003">
        <ele>45.8</ele>
        <time>2016-06-24T13:16:00Z</time>
      </trkpt>
      <trkpt lat="43.76982" lon="-0.03005">
        <ele>45.8</ele>
        <time>2016-06-24T13:16:01Z</time>
      </trkpt>
      <trkpt lat="43.76974" lon="-0.03007">
        <ele>46.28</ele>
        <time>2016-06-24T13:16:02Z</time>
      </trkpt>
      <trkpt lat="43.7689" lon="-0.03058">
        <ele>47.72</ele>
        <time>2016-06-24T13:16:10Z</time>
      </trkpt>
      <trkpt lat="43.76746" lon="-0.03148">
        <ele>49.65</ele>
        <time>2016-06-24T13:16:21Z</time>
      </trkpt>
      <trkpt lat="43.76627" lon="-0.03174">
        <ele>48.2</ele>
        <time>2016-06-24T13:16:30Z</time>
      </trkpt>
      <trkpt lat="43.76483" lon="-0.03186">
        <ele>48.2</ele>
        <time>2016-06-24T13:16:42Z</time>
      </trkpt>
      <trkpt lat="43.76461" lon="-0.0318">
        <ele>48.2</ele>
        <time>2016-06-24T13:16:44Z</time>
      </trkpt>
      <trkpt lat="43.76328" lon="-0.03104">
        <ele>47.72</ele>
        <time>2016-06-24T13:16:56Z</time>
      </trkpt>
      <trkpt lat="43.76256" lon="-0.03059">
        <ele>49.16</ele>
        <time>2016-06-24T13:17:03Z</time>
      </trkpt>
      <trkpt lat="43.76168" lon="-0.03007">
        <ele>50.61</ele>
        <time>2016-06-24T13:17:14Z</time>
      </trkpt>
      <trkpt lat="43.76161" lon="-0.0301">
        <ele>51.09</ele>
        <time>2016-06-24T13:17:15Z</time>
      </trkpt>
      <trkpt lat="43.76154" lon="-0.03016">
        <ele>50.61</ele>
        <time>2016-06-24T13:17:16Z</time>
      </trkpt>
      <trkpt lat="43.76081" lon="-0.03098">
        <ele>50.61</ele>
        <time>2016-06-24T13:17:26Z</time>
      </trkpt>
      <trkpt lat="43.75994" lon="-0.0319">
        <ele>53.97</ele>
        <time>2016-06-24T13:17:39Z</time>
      </trkpt>
      <trkpt lat="43.75955" lon="-0.0323">
        <ele>55.41</ele>
        <time>2016-06-24T13:17:44Z</time>
      </trkpt>
      <trkpt lat="43.75948" lon="-0.03239">
        <ele>56.37</ele>
        <time>2016-06-24T13:17:45Z</time>
      </trkpt>
      <trkpt lat="43.75877" lon="-0.03326">
        <ele>56.86</ele>
        <time>2016-06-24T13:17:57Z</time>
      </trkpt>
      <trkpt lat="43.75851" lon="-0.03356">
        <ele>55.89</ele>
        <time>2016-06-24T13:18:05Z</time>
      </trkpt>
      <trkpt lat="43.75838" lon="-0.03373">
        <ele>57.82</ele>
        <time>2016-06-24T13:18:09Z</time>
      </trkpt>
      <trkpt lat="43.75768" lon="-0.03452">
        <ele>60.22</ele>
        <time>2016-06-24T13:18:21Z</time>
      </trkpt>
      <trkpt lat="43.75752" lon="-0.0348">
        <ele>61.66</ele>
        <time>2016-06-24T13:18:24Z</time>
      </trkpt>
      <trkpt lat="43.75748" lon="-0.0349">
        <ele>62.14</ele>
        <time>2016-06-24T13:18:25Z</time>
      </trkpt>
      <trkpt lat="43.75731" lon="-0.03562">
        <ele>64.07</ele>
        <time>2016-06-24T13:18:32Z</time>
      </trkpt>
      <trkpt lat="43.75678" lon="-0.03678">
        <ele>67.91</ele>
        <time>2016-06-24T13:18:42Z</time>
      </trkpt>
      <trkpt lat="43.75647" lon="-0.03746">
        <ele>69.83</ele>
        <time>2016-06-24T13:18:47Z</time>
      </trkpt>
      <trkpt lat="43.75632" lon="-0.03831">
        <ele>71.76</ele>
        <time>2016-06-24T13:18:52Z</time>
      </trkpt>
      <trkpt lat="43.75636" lon="-0.0385">
        <ele>72.24</ele>
        <time>2016-06-24T13:18:53Z</time>
      </trkpt>
      <trkpt lat="43.75647" lon="-0.03885">
        <ele>74.16</ele>
        <time>2016-06-24T13:18:55Z</time>
      </trkpt>
      <trkpt lat="43.75652" lon="-0.03958">
        <ele>76.08</ele>
        <time>2016-06-24T13:18:59Z</time>
      </trkpt>
      <trkpt lat="43.75635" lon="-0.0401">
        <ele>77.04</ele>
        <time>2016-06-24T13:19:02Z</time>
      </trkpt>
      <trkpt lat="43.7559" lon="-0.04144">
        <ele>81.85</ele>
        <time>2016-06-24T13:19:09Z</time>
      </trkpt>
      <trkpt lat="43.75571" lon="-0.04219">
        <ele>84.73</ele>
        <time>2016-06-24T13:19:12Z</time>
      </trkpt>
      <trkpt lat="43.75559" lon="-0.04275">
        <ele>88.58</ele>
        <time>2016-06-24T13:19:14Z</time>
      </trkpt>
      <trkpt lat="43.75546" lon="-0.04331">
        <ele>89.54</ele>
        <time>2016-06-24T13:19:16Z</time>
      </trkpt>
      <trkpt lat="43.75534" lon="-0.04389">
        <ele>91.94</ele>
        <time>2016-06-24T13:19:18Z</time>
      </trkpt>
      <trkpt lat="43.75539" lon="-0.04505">
        <ele>94.35</ele>
        <time>2016-06-24T13:19:22Z</time>
      </trkpt>
      <trkpt lat="43.7553" lon="-0.04671">
        <ele>98.67</ele>
        <time>2016-06-24T13:19:28Z</time>
      </trkpt>
      <trkpt lat="43.75519" lon="-0.04695">
        <ele>99.63</ele>
        <time>2016-06-24T13:19:29Z</time>
      </trkpt>
      <trkpt lat="43.75435" lon="-0.0483">
        <ele>103.96</ele>
        <time>2016-06-24T13:19:35Z</time>
      </trkpt>
      <trkpt lat="43.75358" lon="-0.04931">
        <ele>102.04</ele>
        <time>2016-06-24T13:19:40Z</time>
      </trkpt>
      <trkpt lat="43.75324" lon="-0.05009">
        <ele>99.15</ele>
        <time>2016-06-24T13:19:43Z</time>
      </trkpt>
      <trkpt lat="43.75264" lon="-0.05212">
        <ele>94.35</ele>
        <time>2016-06-24T13:19:50Z</time>
      </trkpt>
      <trkpt lat="43.75255" lon="-0.05241">
        <ele>94.83</ele>
        <time>2016-06-24T13:19:51Z</time>
      </trkpt>
      <trkpt lat="43.75221" lon="-0.05357">
        <ele>90.5</ele>
        <time>2016-06-24T13:19:55Z</time>
      </trkpt>
      <trkpt lat="43.75204" lon="-0.05416">
        <ele>89.54</ele>
        <time>2016-06-24T13:19:57Z</time>
      </trkpt>
      <trkpt lat="43.75178" lon="-0.05503">
        <ele>87.14</ele>
        <time>2016-06-24T13:20:00Z</time>
      </trkpt>
      <trkpt lat="43.75116" lon="-0.05581">
        <ele>83.77</ele>
        <time>2016-06-24T13:20:04Z</time>
      </trkpt>
      <trkpt lat="43.75075" lon="-0.05604">
        <ele>80.41</ele>
        <time>2016-06-24T13:20:06Z</time>
      </trkpt>
      <trkpt lat="43.74989" lon="-0.05699">
        <ele>76.08</ele>
        <time>2016-06-24T13:20:11Z</time>
      </trkpt>
      <trkpt lat="43.74942" lon="-0.0581">
        <ele>79.93</ele>
        <time>2016-06-24T13:20:15Z</time>
      </trkpt>
      <trkpt lat="43.74905" lon="-0.05892">
        <ele>83.29</ele>
        <time>2016-06-24T13:20:18Z</time>
      </trkpt>
      <trkpt lat="43.74859" lon="-0.05963">
        <ele>85.69</ele>
        <time>2016-06-24T13:20:21Z</time>
      </trkpt>
      <trkpt lat="43.74844" lon="-0.05986">
        <ele>86.66</ele>
        <time>2016-06-24T13:20:22Z</time>
      </trkpt>
      <trkpt lat="43.74806" lon="-0.06063">
        <ele>90.98</ele>
        <time>2016-06-24T13:20:25Z</time>
      </trkpt>
      <trkpt lat="43.7479" lon="-0.06181">
        <ele>93.87</ele>
        <time>2016-06-24T13:20:29Z</time>
      </trkpt>
      <trkpt lat="43.74793" lon="-0.06211">
        <ele>95.31</ele>
        <time>2016-06-24T13:20:30Z</time>
      </trkpt>
      <trkpt lat="43.74803" lon="-0.0627">
        <ele>98.19</ele>
        <time>2016-06-24T13:20:32Z</time>
      </trkpt>
      <trkpt lat="43.74847" lon="-0.06411">
        <ele>103</ele>
        <time>2016-06-24T13:20:37Z</time>
      </trkpt>
      <trkpt lat="43.74868" lon="-0.06467">
        <ele>104.44</ele>
        <time>2016-06-24T13:20:39Z</time>
      </trkpt>
      <trkpt lat="43.74899" lon="-0.0655">
        <ele>103</ele>
        <time>2016-06-24T13:20:42Z</time>
      </trkpt>
      <trkpt lat="43.74946" lon="-0.06693">
        <ele>100.6</ele>
        <time>2016-06-24T13:20:47Z</time>
      </trkpt>
      <trkpt lat="43.74957" lon="-0.06752">
        <ele>99.63</ele>
        <time>2016-06-24T13:20:49Z</time>
      </trkpt>
      <trkpt lat="43.74955" lon="-0.06875">
        <ele>96.75</ele>
        <time>2016-06-24T13:20:53Z</time>
      </trkpt>
      <trkpt lat="43.7493" lon="-0.07031">
        <ele>90.98</ele>
        <time>2016-06-24T13:20:58Z</time>
      </trkpt>
      <trkpt lat="43.74925" lon="-0.07063">
        <ele>91.46</ele>
        <time>2016-06-24T13:20:59Z</time>
      </trkpt>
      <trkpt lat="43.74899" lon="-0.0722">
        <ele>87.14</ele>
        <time>2016-06-24T13:21:04Z</time>
      </trkpt>
      <trkpt lat="43.74883" lon="-0.07314">
        <ele>85.69</ele>
        <time>2016-06-24T13:21:07Z</time>
      </trkpt>
      <trkpt lat="43.74868" lon="-0.07408">
        <ele>83.77</ele>
        <time>2016-06-24T13:21:10Z</time>
      </trkpt>
      <trkpt lat="43.74867" lon="-0.07502">
        <ele>80.41</ele>
        <time>2016-06-24T13:21:13Z</time>
      </trkpt>
      <trkpt lat="43.74881" lon="-0.07562">
        <ele>79.45</ele>
        <time>2016-06-24T13:21:15Z</time>
      </trkpt>
      <trkpt lat="43.74897" lon="-0.0762">
        <ele>80.41</ele>
        <time>2016-06-24T13:21:17Z</time>
      </trkpt>
      <trkpt lat="43.74898" lon="-0.07741">
        <ele>76.08</ele>
        <time>2016-06-24T13:21:21Z</time>
      </trkpt>
      <trkpt lat="43.74883" lon="-0.07799">
        <ele>74.16</ele>
        <time>2016-06-24T13:21:23Z</time>
      </trkpt>
      <trkpt lat="43.74869" lon="-0.07924">
        <ele>74.64</ele>
        <time>2016-06-24T13:21:27Z</time>
      </trkpt>
      <trkpt lat="43.74883" lon="-0.08016">
        <ele>70.31</ele>
        <time>2016-06-24T13:21:30Z</time>
      </trkpt>
      <trkpt lat="43.74894" lon="-0.08043">
        <ele>69.83</ele>
        <time>2016-06-24T13:21:31Z</time>
      </trkpt>
      <trkpt lat="43.74974" lon="-0.08203">
        <ele>65.99</ele>
        <time>2016-06-24T13:21:37Z</time>
      </trkpt>
      <trkpt lat="43.75027" lon="-0.08311">
        <ele>62.62</ele>
        <time>2016-06-24T13:21:41Z</time>
      </trkpt>
      <trkpt lat="43.75051" lon="-0.08367">
        <ele>60.7</ele>
        <time>2016-06-24T13:21:43Z</time>
      </trkpt>
      <trkpt lat="43.75067" lon="-0.08427">
        <ele>59.74</ele>
        <time>2016-06-24T13:21:45Z</time>
      </trkpt>
      <trkpt lat="43.75073" lon="-0.0849">
        <ele>57.34</ele>
        <time>2016-06-24T13:21:47Z</time>
      </trkpt>
      <trkpt lat="43.75083" lon="-0.08846">
        <ele>54.45</ele>
        <time>2016-06-24T13:21:59Z</time>
      </trkpt>
      <trkpt lat="43.75083" lon="-0.0906">
        <ele>55.89</ele>
        <time>2016-06-24T13:22:09Z</time>
      </trkpt>
      <trkpt lat="43.75083" lon="-0.09116">
        <ele>55.41</ele>
        <time>2016-06-24T13:22:13Z</time>
      </trkpt>
      <trkpt lat="43.75088" lon="-0.09197">
        <ele>57.34</ele>
        <time>2016-06-24T13:22:20Z</time>
      </trkpt>
      <trkpt lat="43.75085" lon="-0.09213">
        <ele>58.78</ele>
        <time>2016-06-24T13:22:21Z</time>
      </trkpt>
      <trkpt lat="43.75084" lon="-0.09297">
        <ele>63.1</ele>
        <time>2016-06-24T13:22:25Z</time>
      </trkpt>
      <trkpt lat="43.75084" lon="-0.09401">
        <ele>66.47</ele>
        <time>2016-06-24T13:22:29Z</time>
      </trkpt>
      <trkpt lat="43.75084" lon="-0.0949">
        <ele>71.76</ele>
        <time>2016-06-24T13:22:32Z</time>
      </trkpt>
      <trkpt lat="43.75085" lon="-0.09615">
        <ele>76.08</ele>
        <time>2016-06-24T13:22:36Z</time>
      </trkpt>
      <trkpt lat="43.75085" lon="-0.09646">
        <ele>76.08</ele>
        <time>2016-06-24T13:22:37Z</time>
      </trkpt>
      <trkpt lat="43.75085" lon="-0.09709">
        <ele>77.52</ele>
        <time>2016-06-24T13:22:39Z</time>
      </trkpt>
      <trkpt lat="43.75085" lon="-0.09832">
        <ele>81.37</ele>
        <time>2016-06-24T13:22:43Z</time>
      </trkpt>
      <trkpt lat="43.75081" lon="-0.09894">
        <ele>82.81</ele>
        <time>2016-06-24T13:22:45Z</time>
      </trkpt>
      <trkpt lat="43.75062" lon="-0.09985">
        <ele>87.62</ele>
        <time>2016-06-24T13:22:48Z</time>
      </trkpt>
      <trkpt lat="43.75054" lon="-0.10014">
        <ele>88.1</ele>
        <time>2016-06-24T13:22:49Z</time>
      </trkpt>
      <trkpt lat="43.74931" lon="-0.10491">
        <ele>88.1</ele>
        <time>2016-06-24T13:23:05Z</time>
      </trkpt>
      <trkpt lat="43.74885" lon="-0.1067">
        <ele>89.54</ele>
        <time>2016-06-24T13:23:11Z</time>
      </trkpt>
      <trkpt lat="43.7482" lon="-0.10922">
        <ele>87.62</ele>
        <time>2016-06-24T13:23:21Z</time>
      </trkpt>
      <trkpt lat="43.74796" lon="-0.11015">
        <ele>90.02</ele>
        <time>2016-06-24T13:23:25Z</time>
      </trkpt>
      <trkpt lat="43.74745" lon="-0.11211">
        <ele>91.46</ele>
        <time>2016-06-24T13:23:33Z</time>
      </trkpt>
      <trkpt lat="43.74706" lon="-0.1136">
        <ele>88.58</ele>
        <time>2016-06-24T13:23:39Z</time>
      </trkpt>
      <trkpt lat="43.74652" lon="-0.1151">
        <ele>84.73</ele>
        <time>2016-06-24T13:23:45Z</time>
      </trkpt>
      <trkpt lat="43.74562" lon="-0.11686">
        <ele>88.58</ele>
        <time>2016-06-24T13:23:52Z</time>
      </trkpt>
      <trkpt lat="43.74533" lon="-0.1174">
        <ele>89.06</ele>
        <time>2016-06-24T13:23:54Z</time>
      </trkpt>
      <trkpt lat="43.74517" lon="-0.11769">
        <ele>92.42</ele>
        <time>2016-06-24T13:23:55Z</time>
      </trkpt>
      <trkpt lat="43.745" lon="-0.11799">
        <ele>95.79</ele>
        <time>2016-06-24T13:23:56Z</time>
      </trkpt>
      <trkpt lat="43.74348" lon="-0.12084">
        <ele>94.35</ele>
        <time>2016-06-24T13:24:05Z</time>
      </trkpt>
      <trkpt lat="43.74227" lon="-0.12309">
        <ele>90.98</ele>
        <time>2016-06-24T13:24:13Z</time>
      </trkpt>
      <trkpt lat="43.74023" lon="-0.12686">
        <ele>90.98</ele>
        <time>2016-06-24T13:24:28Z</time>
      </trkpt>
      <trkpt lat="43.73997" lon="-0.12736">
        <ele>91.94</ele>
        <time>2016-06-24T13:24:30Z</time>
      </trkpt>
      <trkpt lat="43.73927" lon="-0.12928">
        <ele>92.9</ele>
        <time>2016-06-24T13:24:37Z</time>
      </trkpt>
      <trkpt lat="43.73917" lon="-0.1296">
        <ele>92.42</ele>
        <time>2016-06-24T13:24:38Z</time>
      </trkpt>
      <trkpt lat="43.73884" lon="-0.13064">
        <ele>100.6</ele>
        <time>2016-06-24T13:24:41Z</time>
      </trkpt>
      <trkpt lat="43.73873" lon="-0.13102">
        <ele>103.96</ele>
        <time>2016-06-24T13:24:42Z</time>
      </trkpt>
      <trkpt lat="43.73862" lon="-0.13141">
        <ele>100.6</ele>
        <time>2016-06-24T13:24:43Z</time>
      </trkpt>
      <trkpt lat="43.73828" lon="-0.13262">
        <ele>103.48</ele>
        <time>2016-06-24T13:24:46Z</time>
      </trkpt>
      <trkpt lat="43.73776" lon="-0.13442">
        <ele>99.63</ele>
        <time>2016-06-24T13:24:51Z</time>
      </trkpt>
      <trkpt lat="43.73757" lon="-0.13507">
        <ele>98.19</ele>
        <time>2016-06-24T13:24:53Z</time>
      </trkpt>
      <trkpt lat="43.73682" lon="-0.13764">
        <ele>97.23</ele>
        <time>2016-06-24T13:25:02Z</time>
      </trkpt>
      <trkpt lat="43.73659" lon="-0.13842">
        <ele>98.67</ele>
        <time>2016-06-24T13:25:05Z</time>
      </trkpt>
      <trkpt lat="43.73619" lon="-0.14062">
        <ele>102.04</ele>
        <time>2016-06-24T13:25:13Z</time>
      </trkpt>
      <trkpt lat="43.73603" lon="-0.14208">
        <ele>98.67</ele>
        <time>2016-06-24T13:25:18Z</time>
      </trkpt>
      <trkpt lat="43.73601" lon="-0.14238">
        <ele>98.67</ele>
        <time>2016-06-24T13:25:19Z</time>
      </trkpt>
      <trkpt lat="43.73615" lon="-0.14502">
        <ele>99.15</ele>
        <time>2016-06-24T13:25:28Z</time>
      </trkpt>
      <trkpt lat="43.73625" lon="-0.14653">
        <ele>101.08</ele>
        <time>2016-06-24T13:25:33Z</time>
      </trkpt>
      <trkpt lat="43.73648" lon="-0.14966">
        <ele>104.44</ele>
        <time>2016-06-24T13:25:43Z</time>
      </trkpt>
      <trkpt lat="43.7366" lon="-0.15181">
        <ele>104.44</ele>
        <time>2016-06-24T13:25:50Z</time>
      </trkpt>
      <trkpt lat="43.73615" lon="-0.15377">
        <ele>102.04</ele>
        <time>2016-06-24T13:25:57Z</time>
      </trkpt>
      <trkpt lat="43.73567" lon="-0.15482">
        <ele>99.15</ele>
        <time>2016-06-24T13:26:01Z</time>
      </trkpt>
      <trkpt lat="43.73506" lon="-0.15617">
        <ele>94.83</ele>
        <time>2016-06-24T13:26:06Z</time>
      </trkpt>
      <trkpt lat="43.73382" lon="-0.15868">
        <ele>95.31</ele>
        <time>2016-06-24T13:26:16Z</time>
      </trkpt>
      <trkpt lat="43.73339" lon="-0.15938">
        <ele>96.27</ele>
        <time>2016-06-24T13:26:19Z</time>
      </trkpt>
      <trkpt lat="43.73256" lon="-0.16085">
        <ele>92.9</ele>
        <time>2016-06-24T13:26:25Z</time>
      </trkpt>
      <trkpt lat="43.73231" lon="-0.16139">
        <ele>88.1</ele>
        <time>2016-06-24T13:26:27Z</time>
      </trkpt>
      <trkpt lat="43.73206" lon="-0.16196">
        <ele>86.66</ele>
        <time>2016-06-24T13:26:29Z</time>
      </trkpt>
      <trkpt lat="43.73178" lon="-0.16323">
        <ele>82.33</ele>
        <time>2016-06-24T13:26:33Z</time>
      </trkpt>
      <trkpt lat="43.73175" lon="-0.16355">
        <ele>82.81</ele>
        <time>2016-06-24T13:26:34Z</time>
      </trkpt>
      <trkpt lat="43.73158" lon="-0.16555">
        <ele>86.18</ele>
        <time>2016-06-24T13:26:40Z</time>
      </trkpt>
      <trkpt lat="43.73153" lon="-0.16589">
        <ele>86.18</ele>
        <time>2016-06-24T13:26:41Z</time>
      </trkpt>
      <trkpt lat="43.73143" lon="-0.16654">
        <ele>89.54</ele>
        <time>2016-06-24T13:26:43Z</time>
      </trkpt>
      <trkpt lat="43.73132" lon="-0.16718">
        <ele>90.98</ele>
        <time>2016-06-24T13:26:45Z</time>
      </trkpt>
      <trkpt lat="43.73116" lon="-0.16813">
        <ele>95.31</ele>
        <time>2016-06-24T13:26:48Z</time>
      </trkpt>
      <trkpt lat="43.73106" lon="-0.16878">
        <ele>98.67</ele>
        <time>2016-06-24T13:26:50Z</time>
      </trkpt>
      <trkpt lat="43.73085" lon="-0.17006">
        <ele>103</ele>
        <time>2016-06-24T13:26:54Z</time>
      </trkpt>
      <trkpt lat="43.73074" lon="-0.17072">
        <ele>104.92</ele>
        <time>2016-06-24T13:26:56Z</time>
      </trkpt>
      <trkpt lat="43.73008" lon="-0.17346">
        <ele>102.52</ele>
        <time>2016-06-24T13:27:05Z</time>
      </trkpt>
      <trkpt lat="43.72875" lon="-0.17621">
        <ele>103.48</ele>
        <time>2016-06-24T13:27:15Z</time>
      </trkpt>
      <trkpt lat="43.72862" lon="-0.17648">
        <ele>103</ele>
        <time>2016-06-24T13:27:16Z</time>
      </trkpt>
      <trkpt lat="43.72824" lon="-0.17728">
        <ele>98.19</ele>
        <time>2016-06-24T13:27:19Z</time>
      </trkpt>
      <trkpt lat="43.72786" lon="-0.17805">
        <ele>94.83</ele>
        <time>2016-06-24T13:27:22Z</time>
      </trkpt>
      <trkpt lat="43.72647" lon="-0.18091">
        <ele>101.56</ele>
        <time>2016-06-24T13:27:33Z</time>
      </trkpt>
      <trkpt lat="43.72635" lon="-0.18116">
        <ele>101.56</ele>
        <time>2016-06-24T13:27:34Z</time>
      </trkpt>
      <trkpt lat="43.72556" lon="-0.18278">
        <ele>101.08</ele>
        <time>2016-06-24T13:27:41Z</time>
      </trkpt>
      <trkpt lat="43.72479" lon="-0.18438">
        <ele>104.44</ele>
        <time>2016-06-24T13:27:47Z</time>
      </trkpt>
      <trkpt lat="43.72273" lon="-0.1885">
        <ele>103.48</ele>
        <time>2016-06-24T13:28:02Z</time>
      </trkpt>
      <trkpt lat="43.72213" lon="-0.18949">
        <ele>108.29</ele>
        <time>2016-06-24T13:28:06Z</time>
      </trkpt>
      <trkpt lat="43.72199" lon="-0.18971">
        <ele>108.29</ele>
        <time>2016-06-24T13:28:07Z</time>
      </trkpt>
      <trkpt lat="43.72149" lon="-0.19043">
        <ele>109.73</ele>
        <time>2016-06-24T13:28:10Z</time>
      </trkpt>
      <trkpt lat="43.7201" lon="-0.19236">
        <ele>106.36</ele>
        <time>2016-06-24T13:28:18Z</time>
      </trkpt>
      <trkpt lat="43.71964" lon="-0.19301">
        <ele>102.52</ele>
        <time>2016-06-24T13:28:21Z</time>
      </trkpt>
      <trkpt lat="43.71949" lon="-0.19321">
        <ele>102.52</ele>
        <time>2016-06-24T13:28:22Z</time>
      </trkpt>
      <trkpt lat="43.71922" lon="-0.19358">
        <ele>98.67</ele>
        <time>2016-06-24T13:28:24Z</time>
      </trkpt>
      <trkpt lat="43.71885" lon="-0.19408">
        <ele>95.31</ele>
        <time>2016-06-24T13:28:27Z</time>
      </trkpt>
      <trkpt lat="43.71875" lon="-0.19423">
        <ele>95.31</ele>
        <time>2016-06-24T13:28:28Z</time>
      </trkpt>
      <trkpt lat="43.71857" lon="-0.19448">
        <ele>92.42</ele>
        <time>2016-06-24T13:28:30Z</time>
      </trkpt>
      <trkpt lat="43.71843" lon="-0.19466">
        <ele>91.46</ele>
        <time>2016-06-24T13:28:32Z</time>
      </trkpt>
      <trkpt lat="43.71836" lon="-0.19475">
        <ele>90.98</ele>
        <time>2016-06-24T13:28:33Z</time>
      </trkpt>
      <trkpt lat="43.71787" lon="-0.19549">
        <ele>88.1</ele>
        <time>2016-06-24T13:28:42Z</time>
      </trkpt>
      <trkpt lat="43.71777" lon="-0.19573">
        <ele>87.62</ele>
        <time>2016-06-24T13:28:53Z</time>
      </trkpt>
      <trkpt lat="43.71769" lon="-0.19596">
        <ele>88.1</ele>
        <time>2016-06-24T13:28:58Z</time>
      </trkpt>
      <trkpt lat="43.71749" lon="-0.19697">
        <ele>90.98</ele>
        <time>2016-06-24T13:29:05Z</time>
      </trkpt>
      <trkpt lat="43.71721" lon="-0.19826">
        <ele>92.42</ele>
        <time>2016-06-24T13:29:11Z</time>
      </trkpt>
      <trkpt lat="43.71706" lon="-0.19895">
        <ele>90.98</ele>
        <time>2016-06-24T13:29:14Z</time>
      </trkpt>
      <trkpt lat="43.71696" lon="-0.19942">
        <ele>89.54</ele>
        <time>2016-06-24T13:29:16Z</time>
      </trkpt>
      <trkpt lat="43.71653" lon="-0.20134">
        <ele>88.58</ele>
        <time>2016-06-24T13:29:23Z</time>
      </trkpt>
      <trkpt lat="43.71632" lon="-0.2023">
        <ele>92.9</ele>
        <time>2016-06-24T13:29:26Z</time>
      </trkpt>
      <trkpt lat="43.71529" lon="-0.20689">
        <ele>90.02</ele>
        <time>2016-06-24T13:29:41Z</time>
      </trkpt>
      <trkpt lat="43.71473" lon="-0.2103">
        <ele>87.62</ele>
        <time>2016-06-24T13:29:52Z</time>
      </trkpt>
      <trkpt lat="43.71469" lon="-0.21127">
        <ele>85.21</ele>
        <time>2016-06-24T13:29:55Z</time>
      </trkpt>
      <trkpt lat="43.71471" lon="-0.21224">
        <ele>81.37</ele>
        <time>2016-06-24T13:29:58Z</time>
      </trkpt>
      <trkpt lat="43.71476" lon="-0.21288">
        <ele>77.52</ele>
        <time>2016-06-24T13:30:00Z</time>
      </trkpt>
      <trkpt lat="43.71482" lon="-0.21353">
        <ele>73.2</ele>
        <time>2016-06-24T13:30:02Z</time>
      </trkpt>
      <trkpt lat="43.71485" lon="-0.21385">
        <ele>72.24</ele>
        <time>2016-06-24T13:30:03Z</time>
      </trkpt>
      <trkpt lat="43.71485" lon="-0.2145">
        <ele>65.99</ele>
        <time>2016-06-24T13:30:05Z</time>
      </trkpt>
      <trkpt lat="43.71455" lon="-0.21541">
        <ele>62.62</ele>
        <time>2016-06-24T13:30:08Z</time>
      </trkpt>
      <trkpt lat="43.714" lon="-0.21657">
        <ele>58.78</ele>
        <time>2016-06-24T13:30:12Z</time>
      </trkpt>
      <trkpt lat="43.71348" lon="-0.21771">
        <ele>55.41</ele>
        <time>2016-06-24T13:30:16Z</time>
      </trkpt>
      <trkpt lat="43.71336" lon="-0.21799">
        <ele>55.41</ele>
        <time>2016-06-24T13:30:17Z</time>
      </trkpt>
      <trkpt lat="43.71252" lon="-0.21988">
        <ele>52.53</ele>
        <time>2016-06-24T13:30:24Z</time>
      </trkpt>
      <trkpt lat="43.71154" lon="-0.22212">
        <ele>48.68</ele>
        <time>2016-06-24T13:30:33Z</time>
      </trkpt>
      <trkpt lat="43.71146" lon="-0.22234">
        <ele>48.68</ele>
        <time>2016-06-24T13:30:34Z</time>
      </trkpt>
      <trkpt lat="43.71132" lon="-0.22272">
        <ele>46.76</ele>
        <time>2016-06-24T13:30:36Z</time>
      </trkpt>
      <trkpt lat="43.71122" lon="-0.22305">
        <ele>45.8</ele>
        <time>2016-06-24T13:30:38Z</time>
      </trkpt>
      <trkpt lat="43.7112" lon="-0.22359">
        <ele>44.84</ele>
        <time>2016-06-24T13:30:42Z</time>
      </trkpt>
      <trkpt lat="43.71095" lon="-0.22398">
        <ele>44.36</ele>
        <time>2016-06-24T13:30:47Z</time>
      </trkpt>
      <trkpt lat="43.71059" lon="-0.22438">
        <ele>44.84</ele>
        <time>2016-06-24T13:30:51Z</time>
      </trkpt>
      <trkpt lat="43.70982" lon="-0.22608">
        <ele>47.24</ele>
        <time>2016-06-24T13:31:00Z</time>
      </trkpt>
      <trkpt lat="43.70851" lon="-0.22906">
        <ele>48.68</ele>
        <time>2016-06-24T13:31:13Z</time>
      </trkpt>
      <trkpt lat="43.70673" lon="-0.2331">
        <ele>47.72</ele>
        <time>2016-06-24T13:31:30Z</time>
      </trkpt>
      <trkpt lat="43.70629" lon="-0.2341">
        <ele>45.8</ele>
        <time>2016-06-24T13:31:35Z</time>
      </trkpt>
      <trkpt lat="43.70606" lon="-0.2346">
        <ele>43.88</ele>
        <time>2016-06-24T13:31:38Z</time>
      </trkpt>
      <trkpt lat="43.70551" lon="-0.2352">
        <ele>42.92</ele>
        <time>2016-06-24T13:31:43Z</time>
      </trkpt>
      <trkpt lat="43.70456" lon="-0.23565">
        <ele>39.07</ele>
        <time>2016-06-24T13:31:50Z</time>
      </trkpt>
      <trkpt lat="43.70433" lon="-0.23575">
        <ele>37.63</ele>
        <time>2016-06-24T13:31:52Z</time>
      </trkpt>
      <trkpt lat="43.70371" lon="-0.23606">
        <ele>35.71</ele>
        <time>2016-06-24T13:32:00Z</time>
      </trkpt>
      <trkpt lat="43.70359" lon="-0.23609">
        <ele>35.71</ele>
        <time>2016-06-24T13:32:09Z</time>
      </trkpt>
      <trkpt lat="43.70357" lon="-0.2361">
        <ele>34.74</ele>
        <time>2016-06-24T13:32:23Z</time>
      </trkpt>
      <trkpt lat="43.70337" lon="-0.23643">
        <ele>35.71</ele>
        <time>2016-06-24T13:32:33Z</time>
      </trkpt>
      <trkpt lat="43.70337" lon="-0.23649">
        <ele>35.71</ele>
        <time>2016-06-24T13:32:34Z</time>
      </trkpt>
      <trkpt lat="43.70338" lon="-0.23655">
        <ele>36.19</ele>
        <time>2016-06-24T13:32:35Z</time>
      </trkpt>
      <trkpt lat="43.70357" lon="-0.23722">
        <ele>34.74</ele>
        <time>2016-06-24T13:32:48Z</time>
      </trkpt>
      <trkpt lat="43.70373" lon="-0.23785">
        <ele>37.15</ele>
        <time>2016-06-24T13:32:55Z</time>
      </trkpt>
      <trkpt lat="43.7038" lon="-0.2381">
        <ele>37.15</ele>
        <time>2016-06-24T13:32:57Z</time>
      </trkpt>
      <trkpt lat="43.70381" lon="-0.23824">
        <ele>37.15</ele>
        <time>2016-06-24T13:32:58Z</time>
      </trkpt>
      <trkpt lat="43.70382" lon="-0.23838">
        <ele>38.11</ele>
        <time>2016-06-24T13:32:59Z</time>
      </trkpt>
      <trkpt lat="43.70382" lon="-0.23852">
        <ele>38.11</ele>
        <time>2016-06-24T13:33:00Z</time>
      </trkpt>
      <trkpt lat="43.7039" lon="-0.2406">
        <ele>38.11</ele>
        <time>2016-06-24T13:33:14Z</time>
      </trkpt>
      <trkpt lat="43.70399" lon="-0.24311">
        <ele>38.59</ele>
        <time>2016-06-24T13:33:28Z</time>
      </trkpt>
      <trkpt lat="43.7041" lon="-0.24586">
        <ele>39.07</ele>
        <time>2016-06-24T13:33:42Z</time>
      </trkpt>
      <trkpt lat="43.70423" lon="-0.24933">
        <ele>37.15</ele>
        <time>2016-06-24T13:33:59Z</time>
      </trkpt>
      <trkpt lat="43.70424" lon="-0.25028">
        <ele>35.23</ele>
        <time>2016-06-24T13:34:06Z</time>
      </trkpt>
      <trkpt lat="43.70423" lon="-0.25075">
        <ele>34.26</ele>
        <time>2016-06-24T13:34:13Z</time>
      </trkpt>
      <trkpt lat="43.70423" lon="-0.25075">
        <ele>33.3</ele>
        <time>2016-06-24T13:34:32Z</time>
      </trkpt>
      <trkpt lat="43.70423" lon="-0.25075">
        <ele>33.3</ele>
        <time>2016-06-24T13:34:46Z</time>
      </trkpt>
      <trkpt lat="43.70397" lon="-0.25079">
        <ele>33.78</ele>
        <time>2016-06-24T13:34:53Z</time>
      </trkpt>
      <trkpt lat="43.70391" lon="-0.25068">
        <ele>33.78</ele>
        <time>2016-06-24T13:34:59Z</time>
      </trkpt>
      <trkpt lat="43.70393" lon="-0.25059">
        <ele>33.78</ele>
        <time>2016-06-24T13:35:12Z</time>
      </trkpt>
      <trkpt lat="43.70394" lon="-0.25064">
        <ele>33.78</ele>
        <time>2016-06-24T13:35:54Z</time>
      </trkpt>
      <trkpt lat="43.70399" lon="-0.25058">
        <ele>31.86</ele>
        <time>2016-06-24T13:35:57Z</time>
      </trkpt>
      <trkpt lat="43.70398" lon="-0.25051">
        <ele>33.78</ele>
        <time>2016-06-24T13:36:08Z</time>
      </trkpt>
      <trkpt lat="43.70399" lon="-0.25051">
        <ele>34.26</ele>
        <time>2016-06-24T13:37:30Z</time>
      </trkpt>
      <trkpt lat="43.70399" lon="-0.25051">
        <ele>33.3</ele>
        <time>2016-06-24T13:40:26Z</time>
      </trkpt>
      <trkpt lat="43.70399" lon="-0.25051">
        <ele>33.78</ele>
        <time>2016-06-24T13:40:36Z</time>
      </trkpt>
      <trkpt lat="43.70399" lon="-0.25037">
        <ele>33.78</ele>
        <time>2016-06-24T13:41:54Z</time>
      </trkpt>
      <trkpt lat="43.70399" lon="-0.25034">
        <ele>33.78</ele>
        <time>2016-06-24T13:42:08Z</time>
      </trkpt>
      <trkpt lat="43.70399" lon="-0.25034">
        <ele>33.78</ele>
        <time>2016-06-24T13:42:30Z</time>
      </trkpt>
      <trkpt lat="43.70384" lon="-0.25035">
        <ele>33.78</ele>
        <time>2016-06-24T13:42:37Z</time>
      </trkpt>
      <trkpt lat="43.70384" lon="-0.25036">
        <ele>34.26</ele>
        <time>2016-06-24T13:42:55Z</time>
      </trkpt>
      <trkpt lat="43.70384" lon="-0.25035">
        <ele>33.78</ele>
        <time>2016-06-24T13:45:03Z</time>
      </trkpt>
      <trkpt lat="43.70387" lon="-0.25062">
        <ele>35.23</ele>
        <time>2016-06-24T13:45:08Z</time>
      </trkpt>
      <trkpt lat="43.70401" lon="-0.25088">
        <ele>34.26</ele>
        <time>2016-06-24T13:45:13Z</time>
      </trkpt>
      <trkpt lat="43.70406" lon="-0.25107">
        <ele>34.26</ele>
        <time>2016-06-24T13:45:16Z</time>
      </trkpt>
      <trkpt lat="43.70414" lon="-0.25123">
        <ele>34.26</ele>
        <time>2016-06-24T13:45:24Z</time>
      </trkpt>
      <trkpt lat="43.70414" lon="-0.25123">
        <ele>28.98</ele>
        <time>2016-06-24T13:45:25Z</time>
      </trkpt>
      <trkpt lat="43.70414" lon="-0.25123">
        <ele>33.3</ele>
        <time>2016-06-24T13:45:26Z</time>
      </trkpt>
      <trkpt lat="43.70414" lon="-0.25122">
        <ele>34.26</ele>
        <time>2016-06-24T13:46:05Z</time>
      </trkpt>
      <trkpt lat="43.70414" lon="-0.25122">
        <ele>33.78</ele>
        <time>2016-06-24T13:46:16Z</time>
      </trkpt>
      <trkpt lat="43.70428" lon="-0.25154">
        <ele>36.67</ele>
        <time>2016-06-24T13:46:20Z</time>
      </trkpt>
      <trkpt lat="43.70438" lon="-0.25381">
        <ele>37.15</ele>
        <time>2016-06-24T13:46:34Z</time>
      </trkpt>
      <trkpt lat="43.70449" lon="-0.25669">
        <ele>38.11</ele>
        <time>2016-06-24T13:46:50Z</time>
      </trkpt>
      <trkpt lat="43.70456" lon="-0.25899">
        <ele>38.11</ele>
        <time>2016-06-24T13:47:04Z</time>
      </trkpt>
      <trkpt lat="43.70464" lon="-0.26096">
        <ele>35.23</ele>
        <time>2016-06-24T13:47:19Z</time>
      </trkpt>
      <trkpt lat="43.70466" lon="-0.26137">
        <ele>36.19</ele>
        <time>2016-06-24T13:47:27Z</time>
      </trkpt>
      <trkpt lat="43.70468" lon="-0.26152">
        <ele>35.71</ele>
        <time>2016-06-24T13:47:29Z</time>
      </trkpt>
      <trkpt lat="43.70443" lon="-0.26179">
        <ele>35.71</ele>
        <time>2016-06-24T13:47:35Z</time>
      </trkpt>
      <trkpt lat="43.70324" lon="-0.26204">
        <ele>36.19</ele>
        <time>2016-06-24T13:47:49Z</time>
      </trkpt>
      <trkpt lat="43.70265" lon="-0.26218">
        <ele>36.19</ele>
        <time>2016-06-24T13:47:57Z</time>
      </trkpt>
      <trkpt lat="43.70245" lon="-0.26261">
        <ele>35.71</ele>
        <time>2016-06-24T13:48:02Z</time>
      </trkpt>
      <trkpt lat="43.70248" lon="-0.26273">
        <ele>35.23</ele>
        <time>2016-06-24T13:48:03Z</time>
      </trkpt>
      <trkpt lat="43.70244" lon="-0.26339">
        <ele>34.74</ele>
        <time>2016-06-24T13:48:09Z</time>
      </trkpt>
      <trkpt lat="43.70235" lon="-0.26345">
        <ele>35.71</ele>
        <time>2016-06-24T13:48:10Z</time>
      </trkpt>
      <trkpt lat="43.70126" lon="-0.26404">
        <ele>36.67</ele>
        <time>2016-06-24T13:48:23Z</time>
      </trkpt>
      <trkpt lat="43.70118" lon="-0.26408">
        <ele>37.15</ele>
        <time>2016-06-24T13:48:24Z</time>
      </trkpt>
      <trkpt lat="43.70061" lon="-0.2642">
        <ele>38.11</ele>
        <time>2016-06-24T13:48:31Z</time>
      </trkpt>
      <trkpt lat="43.70023" lon="-0.26424">
        <ele>37.15</ele>
        <time>2016-06-24T13:48:35Z</time>
      </trkpt>
      <trkpt lat="43.69995" lon="-0.26477">
        <ele>39.55</ele>
        <time>2016-06-24T13:48:40Z</time>
      </trkpt>
      <trkpt lat="43.69991" lon="-0.26579">
        <ele>43.4</ele>
        <time>2016-06-24T13:48:46Z</time>
      </trkpt>
      <trkpt lat="43.69993" lon="-0.26638">
        <ele>47.24</ele>
        <time>2016-06-24T13:48:49Z</time>
      </trkpt>
      <trkpt lat="43.69994" lon="-0.26658">
        <ele>48.68</ele>
        <time>2016-06-24T13:48:50Z</time>
      </trkpt>
      <trkpt lat="43.70027" lon="-0.26752">
        <ele>52.53</ele>
        <time>2016-06-24T13:48:55Z</time>
      </trkpt>
      <trkpt lat="43.70049" lon="-0.26788">
        <ele>54.45</ele>
        <time>2016-06-24T13:48:57Z</time>
      </trkpt>
      <trkpt lat="43.70077" lon="-0.26845">
        <ele>56.86</ele>
        <time>2016-06-24T13:49:00Z</time>
      </trkpt>
      <trkpt lat="43.70081" lon="-0.26927">
        <ele>59.26</ele>
        <time>2016-06-24T13:49:04Z</time>
      </trkpt>
      <trkpt lat="43.70031" lon="-0.26984">
        <ele>65.51</ele>
        <time>2016-06-24T13:49:08Z</time>
      </trkpt>
      <trkpt lat="43.69969" lon="-0.26999">
        <ele>67.43</ele>
        <time>2016-06-24T13:49:11Z</time>
      </trkpt>
      <trkpt lat="43.69913" lon="-0.27021">
        <ele>70.79</ele>
        <time>2016-06-24T13:49:14Z</time>
      </trkpt>
      <trkpt lat="43.69839" lon="-0.27052">
        <ele>74.16</ele>
        <time>2016-06-24T13:49:18Z</time>
      </trkpt>
      <trkpt lat="43.69804" lon="-0.27069">
        <ele>76.56</ele>
        <time>2016-06-24T13:49:20Z</time>
      </trkpt>
      <trkpt lat="43.69723" lon="-0.27074">
        <ele>81.37</ele>
        <time>2016-06-24T13:49:24Z</time>
      </trkpt>
      <trkpt lat="43.69683" lon="-0.2708">
        <ele>81.85</ele>
        <time>2016-06-24T13:49:26Z</time>
      </trkpt>
      <trkpt lat="43.69624" lon="-0.27092">
        <ele>85.21</ele>
        <time>2016-06-24T13:49:29Z</time>
      </trkpt>
      <trkpt lat="43.69564" lon="-0.27105">
        <ele>88.58</ele>
        <time>2016-06-24T13:49:32Z</time>
      </trkpt>
      <trkpt lat="43.69505" lon="-0.27122">
        <ele>90.98</ele>
        <time>2016-06-24T13:49:35Z</time>
      </trkpt>
      <trkpt lat="43.69417" lon="-0.2717">
        <ele>95.31</ele>
        <time>2016-06-24T13:49:40Z</time>
      </trkpt>
      <trkpt lat="43.69401" lon="-0.2718">
        <ele>95.79</ele>
        <time>2016-06-24T13:49:41Z</time>
      </trkpt>
      <trkpt lat="43.69356" lon="-0.27212">
        <ele>97.23</ele>
        <time>2016-06-24T13:49:44Z</time>
      </trkpt>
      <trkpt lat="43.69291" lon="-0.27259">
        <ele>100.11</ele>
        <time>2016-06-24T13:49:49Z</time>
      </trkpt>
      <trkpt lat="43.69279" lon="-0.27266">
        <ele>100.11</ele>
        <time>2016-06-24T13:49:50Z</time>
      </trkpt>
      <trkpt lat="43.69196" lon="-0.27273">
        <ele>103</ele>
        <time>2016-06-24T13:49:57Z</time>
      </trkpt>
      <trkpt lat="43.69157" lon="-0.27288">
        <ele>104.44</ele>
        <time>2016-06-24T13:50:01Z</time>
      </trkpt>
      <trkpt lat="43.69003" lon="-0.27396">
        <ele>106.84</ele>
        <time>2016-06-24T13:50:17Z</time>
      </trkpt>
      <trkpt lat="43.68986" lon="-0.27406">
        <ele>105.88</ele>
        <time>2016-06-24T13:50:19Z</time>
      </trkpt>
      <trkpt lat="43.68965" lon="-0.27474">
        <ele>105.4</ele>
        <time>2016-06-24T13:50:26Z</time>
      </trkpt>
      <trkpt lat="43.68967" lon="-0.27506">
        <ele>107.32</ele>
        <time>2016-06-24T13:50:28Z</time>
      </trkpt>
      <trkpt lat="43.68973" lon="-0.27588">
        <ele>109.73</ele>
        <time>2016-06-24T13:50:32Z</time>
      </trkpt>
      <trkpt lat="43.68975" lon="-0.278">
        <ele>109.73</ele>
        <time>2016-06-24T13:50:41Z</time>
      </trkpt>
      <trkpt lat="43.68967" lon="-0.27903">
        <ele>112.61</ele>
        <time>2016-06-24T13:50:45Z</time>
      </trkpt>
      <trkpt lat="43.6893" lon="-0.28243">
        <ele>111.17</ele>
        <time>2016-06-24T13:50:58Z</time>
      </trkpt>
      <trkpt lat="43.68926" lon="-0.28265">
        <ele>109.73</ele>
        <time>2016-06-24T13:50:59Z</time>
      </trkpt>
      <trkpt lat="43.68918" lon="-0.28284">
        <ele>108.29</ele>
        <time>2016-06-24T13:51:00Z</time>
      </trkpt>
      <trkpt lat="43.68908" lon="-0.283">
        <ele>106.84</ele>
        <time>2016-06-24T13:51:01Z</time>
      </trkpt>
      <trkpt lat="43.68895" lon="-0.28311">
        <ele>105.88</ele>
        <time>2016-06-24T13:51:02Z</time>
      </trkpt>
      <trkpt lat="43.68882" lon="-0.28314">
        <ele>104.44</ele>
        <time>2016-06-24T13:51:03Z</time>
      </trkpt>
      <trkpt lat="43.68866" lon="-0.28313">
        <ele>102.52</ele>
        <time>2016-06-24T13:51:04Z</time>
      </trkpt>
      <trkpt lat="43.6885" lon="-0.28308">
        <ele>101.56</ele>
        <time>2016-06-24T13:51:05Z</time>
      </trkpt>
      <trkpt lat="43.68835" lon="-0.28301">
        <ele>102.52</ele>
        <time>2016-06-24T13:51:06Z</time>
      </trkpt>
      <trkpt lat="43.68792" lon="-0.28289">
        <ele>99.15</ele>
        <time>2016-06-24T13:51:09Z</time>
      </trkpt>
      <trkpt lat="43.68774" lon="-0.28291">
        <ele>97.71</ele>
        <time>2016-06-24T13:51:10Z</time>
      </trkpt>
      <trkpt lat="43.68738" lon="-0.28289">
        <ele>94.83</ele>
        <time>2016-06-24T13:51:12Z</time>
      </trkpt>
      <trkpt lat="43.68721" lon="-0.28283">
        <ele>94.83</ele>
        <time>2016-06-24T13:51:13Z</time>
      </trkpt>
      <trkpt lat="43.68706" lon="-0.28275">
        <ele>93.87</ele>
        <time>2016-06-24T13:51:14Z</time>
      </trkpt>
      <trkpt lat="43.68692" lon="-0.28268">
        <ele>92.42</ele>
        <time>2016-06-24T13:51:15Z</time>
      </trkpt>
      <trkpt lat="43.68677" lon="-0.28267">
        <ele>90.5</ele>
        <time>2016-06-24T13:51:16Z</time>
      </trkpt>
      <trkpt lat="43.68662" lon="-0.28268">
        <ele>88.58</ele>
        <time>2016-06-24T13:51:17Z</time>
      </trkpt>
      <trkpt lat="43.68645" lon="-0.28271">
        <ele>87.62</ele>
        <time>2016-06-24T13:51:18Z</time>
      </trkpt>
      <trkpt lat="43.68611" lon="-0.28279">
        <ele>87.14</ele>
        <time>2016-06-24T13:51:20Z</time>
      </trkpt>
      <trkpt lat="43.68592" lon="-0.28292">
        <ele>84.73</ele>
        <time>2016-06-24T13:51:22Z</time>
      </trkpt>
      <trkpt lat="43.68594" lon="-0.28308">
        <ele>84.73</ele>
        <time>2016-06-24T13:51:23Z</time>
      </trkpt>
      <trkpt lat="43.68599" lon="-0.2833">
        <ele>83.77</ele>
        <time>2016-06-24T13:51:24Z</time>
      </trkpt>
      <trkpt lat="43.68626" lon="-0.28408">
        <ele>82.81</ele>
        <time>2016-06-24T13:51:26Z</time>
      </trkpt>
      <trkpt lat="43.68627" lon="-0.28439">
        <ele>81.85</ele>
        <time>2016-06-24T13:51:27Z</time>
      </trkpt>
      <trkpt lat="43.68624" lon="-0.28467">
        <ele>79.93</ele>
        <time>2016-06-24T13:51:28Z</time>
      </trkpt>
      <trkpt lat="43.68581" lon="-0.28561">
        <ele>76.08</ele>
        <time>2016-06-24T13:51:32Z</time>
      </trkpt>
      <trkpt lat="43.6854" lon="-0.28571">
        <ele>73.68</ele>
        <time>2016-06-24T13:51:34Z</time>
      </trkpt>
      <trkpt lat="43.68474" lon="-0.28573">
        <ele>68.87</ele>
        <time>2016-06-24T13:51:37Z</time>
      </trkpt>
      <trkpt lat="43.68414" lon="-0.28604">
        <ele>65.03</ele>
        <time>2016-06-24T13:51:40Z</time>
      </trkpt>
      <trkpt lat="43.68401" lon="-0.28626">
        <ele>65.03</ele>
        <time>2016-06-24T13:51:41Z</time>
      </trkpt>
      <trkpt lat="43.6839" lon="-0.28653">
        <ele>65.51</ele>
        <time>2016-06-24T13:51:42Z</time>
      </trkpt>
      <trkpt lat="43.68296" lon="-0.28919">
        <ele>67.43</ele>
        <time>2016-06-24T13:51:52Z</time>
      </trkpt>
      <trkpt lat="43.68303" lon="-0.29015">
        <ele>69.83</ele>
        <time>2016-06-24T13:51:56Z</time>
      </trkpt>
      <trkpt lat="43.68335" lon="-0.29043">
        <ele>70.79</ele>
        <time>2016-06-24T13:51:58Z</time>
      </trkpt>
      <trkpt lat="43.68375" lon="-0.2905">
        <ele>74.16</ele>
        <time>2016-06-24T13:52:00Z</time>
      </trkpt>
      <trkpt lat="43.6842" lon="-0.29046">
        <ele>75.6</ele>
        <time>2016-06-24T13:52:02Z</time>
      </trkpt>
      <trkpt lat="43.6846" lon="-0.29052">
        <ele>73.68</ele>
        <time>2016-06-24T13:52:04Z</time>
      </trkpt>
      <trkpt lat="43.68503" lon="-0.29107">
        <ele>76.08</ele>
        <time>2016-06-24T13:52:07Z</time>
      </trkpt>
      <trkpt lat="43.68512" lon="-0.29133">
        <ele>78</ele>
        <time>2016-06-24T13:52:08Z</time>
      </trkpt>
      <trkpt lat="43.68538" lon="-0.29214">
        <ele>83.29</ele>
        <time>2016-06-24T13:52:11Z</time>
      </trkpt>
      <trkpt lat="43.68578" lon="-0.2927">
        <ele>89.06</ele>
        <time>2016-06-24T13:52:14Z</time>
      </trkpt>
      <trkpt lat="43.68629" lon="-0.29303">
        <ele>92.9</ele>
        <time>2016-06-24T13:52:17Z</time>
      </trkpt>
      <trkpt lat="43.68641" lon="-0.29318">
        <ele>93.39</ele>
        <time>2016-06-24T13:52:18Z</time>
      </trkpt>
      <trkpt lat="43.68656" lon="-0.29379">
        <ele>95.79</ele>
        <time>2016-06-24T13:52:22Z</time>
      </trkpt>
      <trkpt lat="43.68651" lon="-0.29407">
        <ele>98.67</ele>
        <time>2016-06-24T13:52:24Z</time>
      </trkpt>
      <trkpt lat="43.68634" lon="-0.29465">
        <ele>103.96</ele>
        <time>2016-06-24T13:52:28Z</time>
      </trkpt>
      <trkpt lat="43.68608" lon="-0.29548">
        <ele>107.32</ele>
        <time>2016-06-24T13:52:33Z</time>
      </trkpt>
      <trkpt lat="43.68563" lon="-0.29675">
        <ele>110.69</ele>
        <time>2016-06-24T13:52:40Z</time>
      </trkpt>
      <trkpt lat="43.68447" lon="-0.29966">
        <ele>111.65</ele>
        <time>2016-06-24T13:52:54Z</time>
      </trkpt>
      <trkpt lat="43.6842" lon="-0.30033">
        <ele>115.01</ele>
        <time>2016-06-24T13:52:57Z</time>
      </trkpt>
      <trkpt lat="43.6841" lon="-0.30057">
        <ele>115.01</ele>
        <time>2016-06-24T13:52:58Z</time>
      </trkpt>
      <trkpt lat="43.68242" lon="-0.3048">
        <ele>117.42</ele>
        <time>2016-06-24T13:53:15Z</time>
      </trkpt>
      <trkpt lat="43.68202" lon="-0.30581">
        <ele>118.38</ele>
        <time>2016-06-24T13:53:19Z</time>
      </trkpt>
      <trkpt lat="43.68067" lon="-0.30919">
        <ele>118.86</ele>
        <time>2016-06-24T13:53:32Z</time>
      </trkpt>
      <trkpt lat="43.68001" lon="-0.31103">
        <ele>118.86</ele>
        <time>2016-06-24T13:53:39Z</time>
      </trkpt>
      <trkpt lat="43.67937" lon="-0.31318">
        <ele>115.5</ele>
        <time>2016-06-24T13:53:47Z</time>
      </trkpt>
      <trkpt lat="43.67929" lon="-0.31343">
        <ele>115.5</ele>
        <time>2016-06-24T13:53:48Z</time>
      </trkpt>
      <trkpt lat="43.67906" lon="-0.31414">
        <ele>114.05</ele>
        <time>2016-06-24T13:53:51Z</time>
      </trkpt>
      <trkpt lat="43.67885" lon="-0.31461">
        <ele>112.61</ele>
        <time>2016-06-24T13:53:53Z</time>
      </trkpt>
      <trkpt lat="43.67861" lon="-0.31508">
        <ele>109.25</ele>
        <time>2016-06-24T13:53:55Z</time>
      </trkpt>
      <trkpt lat="43.67848" lon="-0.31533">
        <ele>109.25</ele>
        <time>2016-06-24T13:53:56Z</time>
      </trkpt>
      <trkpt lat="43.678" lon="-0.31619">
        <ele>114.53</ele>
        <time>2016-06-24T13:53:59Z</time>
      </trkpt>
      <trkpt lat="43.67784" lon="-0.3165">
        <ele>114.05</ele>
        <time>2016-06-24T13:54:00Z</time>
      </trkpt>
      <trkpt lat="43.67723" lon="-0.31771">
        <ele>115.98</ele>
        <time>2016-06-24T13:54:04Z</time>
      </trkpt>
      <trkpt lat="43.67679" lon="-0.31854">
        <ele>118.86</ele>
        <time>2016-06-24T13:54:07Z</time>
      </trkpt>
      <trkpt lat="43.67665" lon="-0.31881">
        <ele>119.34</ele>
        <time>2016-06-24T13:54:08Z</time>
      </trkpt>
      <trkpt lat="43.6754" lon="-0.32118">
        <ele>121.26</ele>
        <time>2016-06-24T13:54:17Z</time>
      </trkpt>
      <trkpt lat="43.67386" lon="-0.3241">
        <ele>125.11</ele>
        <time>2016-06-24T13:54:28Z</time>
      </trkpt>
      <trkpt lat="43.67371" lon="-0.32438">
        <ele>125.11</ele>
        <time>2016-06-24T13:54:29Z</time>
      </trkpt>
      <trkpt lat="43.67225" lon="-0.32717">
        <ele>125.59</ele>
        <time>2016-06-24T13:54:39Z</time>
      </trkpt>
      <trkpt lat="43.67083" lon="-0.32991">
        <ele>124.63</ele>
        <time>2016-06-24T13:54:49Z</time>
      </trkpt>
      <trkpt lat="43.66864" lon="-0.33442">
        <ele>124.63</ele>
        <time>2016-06-24T13:55:05Z</time>
      </trkpt>
      <trkpt lat="43.66721" lon="-0.33709">
        <ele>123.19</ele>
        <time>2016-06-24T13:55:15Z</time>
      </trkpt>
      <trkpt lat="43.66676" lon="-0.33767">
        <ele>119.82</ele>
        <time>2016-06-24T13:55:18Z</time>
      </trkpt>
      <trkpt lat="43.66646" lon="-0.33836">
        <ele>118.38</ele>
        <time>2016-06-24T13:55:21Z</time>
      </trkpt>
      <trkpt lat="43.6664" lon="-0.33888">
        <ele>114.53</ele>
        <time>2016-06-24T13:55:23Z</time>
      </trkpt>
      <trkpt lat="43.6665" lon="-0.33939">
        <ele>113.09</ele>
        <time>2016-06-24T13:55:25Z</time>
      </trkpt>
      <trkpt lat="43.66661" lon="-0.33964">
        <ele>113.09</ele>
        <time>2016-06-24T13:55:26Z</time>
      </trkpt>
      <trkpt lat="43.66715" lon="-0.34077">
        <ele>109.25</ele>
        <time>2016-06-24T13:55:30Z</time>
      </trkpt>
      <trkpt lat="43.66742" lon="-0.34135">
        <ele>108.29</ele>
        <time>2016-06-24T13:55:32Z</time>
      </trkpt>
      <trkpt lat="43.66755" lon="-0.34163">
        <ele>104.92</ele>
        <time>2016-06-24T13:55:33Z</time>
      </trkpt>
      <trkpt lat="43.66782" lon="-0.34219">
        <ele>101.08</ele>
        <time>2016-06-24T13:55:35Z</time>
      </trkpt>
      <trkpt lat="43.6682" lon="-0.34303">
        <ele>98.67</ele>
        <time>2016-06-24T13:55:38Z</time>
      </trkpt>
      <trkpt lat="43.66857" lon="-0.34386">
        <ele>96.27</ele>
        <time>2016-06-24T13:55:41Z</time>
      </trkpt>
      <trkpt lat="43.66882" lon="-0.3444">
        <ele>92.9</ele>
        <time>2016-06-24T13:55:43Z</time>
      </trkpt>
      <trkpt lat="43.66895" lon="-0.34467">
        <ele>92.9</ele>
        <time>2016-06-24T13:55:44Z</time>
      </trkpt>
      <trkpt lat="43.66931" lon="-0.34551">
        <ele>90.02</ele>
        <time>2016-06-24T13:55:47Z</time>
      </trkpt>
      <trkpt lat="43.66943" lon="-0.34638">
        <ele>86.18</ele>
        <time>2016-06-24T13:55:50Z</time>
      </trkpt>
      <trkpt lat="43.66914" lon="-0.34722">
        <ele>84.73</ele>
        <time>2016-06-24T13:55:53Z</time>
      </trkpt>
      <trkpt lat="43.66861" lon="-0.34794">
        <ele>81.85</ele>
        <time>2016-06-24T13:55:56Z</time>
      </trkpt>
      <trkpt lat="43.6667" lon="-0.34999">
        <ele>84.73</ele>
        <time>2016-06-24T13:56:06Z</time>
      </trkpt>
      <trkpt lat="43.66591" lon="-0.35078">
        <ele>87.14</ele>
        <time>2016-06-24T13:56:10Z</time>
      </trkpt>
      <trkpt lat="43.66548" lon="-0.35103">
        <ele>91.94</ele>
        <time>2016-06-24T13:56:12Z</time>
      </trkpt>
      <trkpt lat="43.66503" lon="-0.35115">
        <ele>94.83</ele>
        <time>2016-06-24T13:56:14Z</time>
      </trkpt>
      <trkpt lat="43.66401" lon="-0.35118">
        <ele>97.71</ele>
        <time>2016-06-24T13:56:18Z</time>
      </trkpt>
      <trkpt lat="43.66377" lon="-0.35119">
        <ele>97.71</ele>
        <time>2016-06-24T13:56:19Z</time>
      </trkpt>
      <trkpt lat="43.6633" lon="-0.35123">
        <ele>102.52</ele>
        <time>2016-06-24T13:56:21Z</time>
      </trkpt>
      <trkpt lat="43.66307" lon="-0.35125">
        <ele>102.04</ele>
        <time>2016-06-24T13:56:22Z</time>
      </trkpt>
      <trkpt lat="43.66261" lon="-0.35127">
        <ele>106.36</ele>
        <time>2016-06-24T13:56:24Z</time>
      </trkpt>
      <trkpt lat="43.66217" lon="-0.3513">
        <ele>105.88</ele>
        <time>2016-06-24T13:56:26Z</time>
      </trkpt>
      <trkpt lat="43.66146" lon="-0.35184">
        <ele>109.73</ele>
        <time>2016-06-24T13:56:30Z</time>
      </trkpt>
      <trkpt lat="43.66088" lon="-0.35293">
        <ele>116.46</ele>
        <time>2016-06-24T13:56:34Z</time>
      </trkpt>
      <trkpt lat="43.66031" lon="-0.35398">
        <ele>120.78</ele>
        <time>2016-06-24T13:56:38Z</time>
      </trkpt>
      <trkpt lat="43.66016" lon="-0.35424">
        <ele>120.3</ele>
        <time>2016-06-24T13:56:39Z</time>
      </trkpt>
      <trkpt lat="43.65937" lon="-0.35568">
        <ele>118.86</ele>
        <time>2016-06-24T13:56:45Z</time>
      </trkpt>
      <trkpt lat="43.65827" lon="-0.35764">
        <ele>116.94</ele>
        <time>2016-06-24T13:56:54Z</time>
      </trkpt>
      <trkpt lat="43.65776" lon="-0.35812">
        <ele>113.57</ele>
        <time>2016-06-24T13:56:57Z</time>
      </trkpt>
      <trkpt lat="43.65714" lon="-0.35808">
        <ele>111.65</ele>
        <time>2016-06-24T13:57:00Z</time>
      </trkpt>
      <trkpt lat="43.6565" lon="-0.35777">
        <ele>107.81</ele>
        <time>2016-06-24T13:57:03Z</time>
      </trkpt>
      <trkpt lat="43.65607" lon="-0.35757">
        <ele>103.48</ele>
        <time>2016-06-24T13:57:05Z</time>
      </trkpt>
      <trkpt lat="43.65524" lon="-0.35752">
        <ele>98.19</ele>
        <time>2016-06-24T13:57:09Z</time>
      </trkpt>
      <trkpt lat="43.65484" lon="-0.35776">
        <ele>94.35</ele>
        <time>2016-06-24T13:57:11Z</time>
      </trkpt>
      <trkpt lat="43.65441" lon="-0.35809">
        <ele>92.9</ele>
        <time>2016-06-24T13:57:13Z</time>
      </trkpt>
      <trkpt lat="43.65347" lon="-0.3584">
        <ele>88.58</ele>
        <time>2016-06-24T13:57:17Z</time>
      </trkpt>
      <trkpt lat="43.65205" lon="-0.35835">
        <ele>85.21</ele>
        <time>2016-06-24T13:57:23Z</time>
      </trkpt>
      <trkpt lat="43.6516" lon="-0.35833">
        <ele>84.25</ele>
        <time>2016-06-24T13:57:25Z</time>
      </trkpt>
      <trkpt lat="43.65058" lon="-0.35884">
        <ele>83.29</ele>
        <time>2016-06-24T13:57:30Z</time>
      </trkpt>
      <trkpt lat="43.65027" lon="-0.35931">
        <ele>84.25</ele>
        <time>2016-06-24T13:57:32Z</time>
      </trkpt>
      <trkpt lat="43.64956" lon="-0.36088">
        <ele>81.37</ele>
        <time>2016-06-24T13:57:38Z</time>
      </trkpt>
      <trkpt lat="43.64804" lon="-0.36417">
        <ele>79.45</ele>
        <time>2016-06-24T13:57:52Z</time>
      </trkpt>
      <trkpt lat="43.64705" lon="-0.36631">
        <ele>75.12</ele>
        <time>2016-06-24T13:58:01Z</time>
      </trkpt>
      <trkpt lat="43.64662" lon="-0.36724">
        <ele>71.27</ele>
        <time>2016-06-24T13:58:05Z</time>
      </trkpt>
      <trkpt lat="43.64651" lon="-0.36748">
        <ele>71.27</ele>
        <time>2016-06-24T13:58:06Z</time>
      </trkpt>
      <trkpt lat="43.64618" lon="-0.36818">
        <ele>69.35</ele>
        <time>2016-06-24T13:58:09Z</time>
      </trkpt>
      <trkpt lat="43.64514" lon="-0.37041">
        <ele>69.35</ele>
        <time>2016-06-24T13:58:20Z</time>
      </trkpt>
      <trkpt lat="43.64398" lon="-0.37282">
        <ele>68.39</ele>
        <time>2016-06-24T13:58:34Z</time>
      </trkpt>
      <trkpt lat="43.64352" lon="-0.37341">
        <ele>65.03</ele>
        <time>2016-06-24T13:58:38Z</time>
      </trkpt>
      <trkpt lat="43.64318" lon="-0.37373">
        <ele>62.62</ele>
        <time>2016-06-24T13:58:41Z</time>
      </trkpt>
      <trkpt lat="43.64276" lon="-0.3741">
        <ele>60.7</ele>
        <time>2016-06-24T13:58:46Z</time>
      </trkpt>
      <trkpt lat="43.64264" lon="-0.37427">
        <ele>61.66</ele>
        <time>2016-06-24T13:58:48Z</time>
      </trkpt>
      <trkpt lat="43.64227" lon="-0.37468">
        <ele>64.07</ele>
        <time>2016-06-24T13:58:53Z</time>
      </trkpt>
      <trkpt lat="43.64167" lon="-0.37559">
        <ele>63.1</ele>
        <time>2016-06-24T13:59:04Z</time>
      </trkpt>
      <trkpt lat="43.64117" lon="-0.37637">
        <ele>63.1</ele>
        <time>2016-06-24T13:59:12Z</time>
      </trkpt>
      <trkpt lat="43.64104" lon="-0.37656">
        <ele>64.07</ele>
        <time>2016-06-24T13:59:14Z</time>
      </trkpt>
      <trkpt lat="43.6404" lon="-0.37753">
        <ele>64.07</ele>
        <time>2016-06-24T13:59:25Z</time>
      </trkpt>
      <trkpt lat="43.64005" lon="-0.37813">
        <ele>64.07</ele>
        <time>2016-06-24T13:59:33Z</time>
      </trkpt>
      <trkpt lat="43.63977" lon="-0.37852">
        <ele>65.99</ele>
        <time>2016-06-24T13:59:38Z</time>
      </trkpt>
      <trkpt lat="43.63887" lon="-0.37994">
        <ele>66.47</ele>
        <time>2016-06-24T13:59:50Z</time>
      </trkpt>
      <trkpt lat="43.6383" lon="-0.38081">
        <ele>64.07</ele>
        <time>2016-06-24T13:59:57Z</time>
      </trkpt>
      <trkpt lat="43.63774" lon="-0.38176">
        <ele>62.62</ele>
        <time>2016-06-24T14:00:05Z</time>
      </trkpt>
      <trkpt lat="43.63739" lon="-0.38272">
        <ele>61.66</ele>
        <time>2016-06-24T14:00:11Z</time>
      </trkpt>
      <trkpt lat="43.63723" lon="-0.38366">
        <ele>64.07</ele>
        <time>2016-06-24T14:00:16Z</time>
      </trkpt>
      <trkpt lat="43.63722" lon="-0.38445">
        <ele>68.87</ele>
        <time>2016-06-24T14:00:20Z</time>
      </trkpt>
      <trkpt lat="43.63728" lon="-0.38508">
        <ele>69.83</ele>
        <time>2016-06-24T14:00:23Z</time>
      </trkpt>
      <trkpt lat="43.63742" lon="-0.38571">
        <ele>72.72</ele>
        <time>2016-06-24T14:00:26Z</time>
      </trkpt>
      <trkpt lat="43.63794" lon="-0.38699">
        <ele>72.72</ele>
        <time>2016-06-24T14:00:32Z</time>
      </trkpt>
      <trkpt lat="43.63871" lon="-0.38872">
        <ele>69.83</ele>
        <time>2016-06-24T14:00:39Z</time>
      </trkpt>
      <trkpt lat="43.63879" lon="-0.38902">
        <ele>69.83</ele>
        <time>2016-06-24T14:00:40Z</time>
      </trkpt>
      <trkpt lat="43.63891" lon="-0.38992">
        <ele>66.47</ele>
        <time>2016-06-24T14:00:43Z</time>
      </trkpt>
      <trkpt lat="43.63896" lon="-0.3905">
        <ele>65.51</ele>
        <time>2016-06-24T14:00:45Z</time>
      </trkpt>
      <trkpt lat="43.63955" lon="-0.3924">
        <ele>61.66</ele>
        <time>2016-06-24T14:00:52Z</time>
      </trkpt>
      <trkpt lat="43.64045" lon="-0.39485">
        <ele>58.3</ele>
        <time>2016-06-24T14:01:01Z</time>
      </trkpt>
      <trkpt lat="43.64055" lon="-0.39513">
        <ele>58.3</ele>
        <time>2016-06-24T14:01:02Z</time>
      </trkpt>
      <trkpt lat="43.64212" lon="-0.39951">
        <ele>56.86</ele>
        <time>2016-06-24T14:01:18Z</time>
      </trkpt>
      <trkpt lat="43.64318" lon="-0.40304">
        <ele>56.37</ele>
        <time>2016-06-24T14:01:30Z</time>
      </trkpt>
      <trkpt lat="43.64336" lon="-0.40566">
        <ele>54.45</ele>
        <time>2016-06-24T14:01:38Z</time>
      </trkpt>
      <trkpt lat="43.64337" lon="-0.40599">
        <ele>54.45</ele>
        <time>2016-06-24T14:01:39Z</time>
      </trkpt>
      <trkpt lat="43.64362" lon="-0.40919">
        <ele>53.49</ele>
        <time>2016-06-24T14:01:49Z</time>
      </trkpt>
      <trkpt lat="43.64409" lon="-0.41067">
        <ele>50.13</ele>
        <time>2016-06-24T14:01:54Z</time>
      </trkpt>
      <trkpt lat="43.64425" lon="-0.41127">
        <ele>49.16</ele>
        <time>2016-06-24T14:01:56Z</time>
      </trkpt>
      <trkpt lat="43.64447" lon="-0.41358">
        <ele>46.76</ele>
        <time>2016-06-24T14:02:03Z</time>
      </trkpt>
      <trkpt lat="43.6447" lon="-0.41919">
        <ele>47.24</ele>
        <time>2016-06-24T14:02:20Z</time>
      </trkpt>
      <trkpt lat="43.64474" lon="-0.42016">
        <ele>46.28</ele>
        <time>2016-06-24T14:02:23Z</time>
      </trkpt>
      <trkpt lat="43.64483" lon="-0.42244">
        <ele>48.68</ele>
        <time>2016-06-24T14:02:30Z</time>
      </trkpt>
      <trkpt lat="43.64494" lon="-0.42566">
        <ele>50.61</ele>
        <time>2016-06-24T14:02:40Z</time>
      </trkpt>
      <trkpt lat="43.64484" lon="-0.42659">
        <ele>53.97</ele>
        <time>2016-06-24T14:02:43Z</time>
      </trkpt>
      <trkpt lat="43.64461" lon="-0.4275">
        <ele>55.41</ele>
        <time>2016-06-24T14:02:46Z</time>
      </trkpt>
      <trkpt lat="43.64419" lon="-0.42902">
        <ele>58.78</ele>
        <time>2016-06-24T14:02:51Z</time>
      </trkpt>
      <trkpt lat="43.64394" lon="-0.42995">
        <ele>62.14</ele>
        <time>2016-06-24T14:02:54Z</time>
      </trkpt>
      <trkpt lat="43.64379" lon="-0.43058">
        <ele>64.55</ele>
        <time>2016-06-24T14:02:56Z</time>
      </trkpt>
      <trkpt lat="43.64367" lon="-0.43187">
        <ele>69.35</ele>
        <time>2016-06-24T14:03:00Z</time>
      </trkpt>
      <trkpt lat="43.64371" lon="-0.43252">
        <ele>72.72</ele>
        <time>2016-06-24T14:03:02Z</time>
      </trkpt>
      <trkpt lat="43.64376" lon="-0.43285">
        <ele>74.16</ele>
        <time>2016-06-24T14:03:03Z</time>
      </trkpt>
      <trkpt lat="43.644" lon="-0.43411">
        <ele>78</ele>
        <time>2016-06-24T14:03:07Z</time>
      </trkpt>
      <trkpt lat="43.64426" lon="-0.43534">
        <ele>83.29</ele>
        <time>2016-06-24T14:03:11Z</time>
      </trkpt>
      <trkpt lat="43.64432" lon="-0.43625">
        <ele>87.14</ele>
        <time>2016-06-24T14:03:14Z</time>
      </trkpt>
      <trkpt lat="43.64422" lon="-0.43685">
        <ele>88.1</ele>
        <time>2016-06-24T14:03:16Z</time>
      </trkpt>
      <trkpt lat="43.64426" lon="-0.43783">
        <ele>90.02</ele>
        <time>2016-06-24T14:03:20Z</time>
      </trkpt>
      <trkpt lat="43.64455" lon="-0.43813">
        <ele>93.39</ele>
        <time>2016-06-24T14:03:22Z</time>
      </trkpt>
      <trkpt lat="43.6448" lon="-0.43875">
        <ele>97.71</ele>
        <time>2016-06-24T14:03:25Z</time>
      </trkpt>
      <trkpt lat="43.6448" lon="-0.43899">
        <ele>97.71</ele>
        <time>2016-06-24T14:03:26Z</time>
      </trkpt>
      <trkpt lat="43.64494" lon="-0.44003">
        <ele>99.63</ele>
        <time>2016-06-24T14:03:30Z</time>
      </trkpt>
      <trkpt lat="43.6452" lon="-0.44049">
        <ele>97.71</ele>
        <time>2016-06-24T14:03:32Z</time>
      </trkpt>
      <trkpt lat="43.6456" lon="-0.44113">
        <ele>94.83</ele>
        <time>2016-06-24T14:03:35Z</time>
      </trkpt>
      <trkpt lat="43.64599" lon="-0.4418">
        <ele>92.42</ele>
        <time>2016-06-24T14:03:38Z</time>
      </trkpt>
      <trkpt lat="43.64632" lon="-0.44256">
        <ele>90.02</ele>
        <time>2016-06-24T14:03:41Z</time>
      </trkpt>
      <trkpt lat="43.64653" lon="-0.44402">
        <ele>83.77</ele>
        <time>2016-06-24T14:03:46Z</time>
      </trkpt>
      <trkpt lat="43.64661" lon="-0.44486">
        <ele>80.89</ele>
        <time>2016-06-24T14:03:49Z</time>
      </trkpt>
      <trkpt lat="43.64699" lon="-0.44594">
        <ele>76.56</ele>
        <time>2016-06-24T14:03:53Z</time>
      </trkpt>
      <trkpt lat="43.64728" lon="-0.44643">
        <ele>75.12</ele>
        <time>2016-06-24T14:03:55Z</time>
      </trkpt>
      <trkpt lat="43.64775" lon="-0.44754">
        <ele>70.79</ele>
        <time>2016-06-24T14:03:59Z</time>
      </trkpt>
      <trkpt lat="43.64784" lon="-0.44785">
        <ele>70.79</ele>
        <time>2016-06-24T14:04:00Z</time>
      </trkpt>
      <trkpt lat="43.64843" lon="-0.45025">
        <ele>74.16</ele>
        <time>2016-06-24T14:04:08Z</time>
      </trkpt>
      <trkpt lat="43.64864" lon="-0.45108">
        <ele>78</ele>
        <time>2016-06-24T14:04:11Z</time>
      </trkpt>
      <trkpt lat="43.6487" lon="-0.45134">
        <ele>78</ele>
        <time>2016-06-24T14:04:12Z</time>
      </trkpt>
      <trkpt lat="43.64875" lon="-0.4516">
        <ele>79.45</ele>
        <time>2016-06-24T14:04:13Z</time>
      </trkpt>
      <trkpt lat="43.64881" lon="-0.45244">
        <ele>85.69</ele>
        <time>2016-06-24T14:04:16Z</time>
      </trkpt>
      <trkpt lat="43.64877" lon="-0.45338">
        <ele>90.02</ele>
        <time>2016-06-24T14:04:19Z</time>
      </trkpt>
      <trkpt lat="43.64873" lon="-0.45404">
        <ele>92.9</ele>
        <time>2016-06-24T14:04:21Z</time>
      </trkpt>
      <trkpt lat="43.64869" lon="-0.45464">
        <ele>94.35</ele>
        <time>2016-06-24T14:04:23Z</time>
      </trkpt>
      <trkpt lat="43.64832" lon="-0.45563">
        <ele>97.71</ele>
        <time>2016-06-24T14:04:27Z</time>
      </trkpt>
      <trkpt lat="43.64818" lon="-0.45615">
        <ele>99.63</ele>
        <time>2016-06-24T14:04:29Z</time>
      </trkpt>
      <trkpt lat="43.64798" lon="-0.4573">
        <ele>105.4</ele>
        <time>2016-06-24T14:04:33Z</time>
      </trkpt>
      <trkpt lat="43.64793" lon="-0.45759">
        <ele>105.4</ele>
        <time>2016-06-24T14:04:34Z</time>
      </trkpt>
      <trkpt lat="43.64784" lon="-0.45817">
        <ele>103.96</ele>
        <time>2016-06-24T14:04:36Z</time>
      </trkpt>
      <trkpt lat="43.64767" lon="-0.45925">
        <ele>101.56</ele>
        <time>2016-06-24T14:04:40Z</time>
      </trkpt>
      <trkpt lat="43.64704" lon="-0.46219">
        <ele>101.56</ele>
        <time>2016-06-24T14:04:51Z</time>
      </trkpt>
      <trkpt lat="43.64695" lon="-0.46274">
        <ele>103.96</ele>
        <time>2016-06-24T14:04:53Z</time>
      </trkpt>
      <trkpt lat="43.64632" lon="-0.4667">
        <ele>103.96</ele>
        <time>2016-06-24T14:05:07Z</time>
      </trkpt>
      <trkpt lat="43.64623" lon="-0.46756">
        <ele>103.48</ele>
        <time>2016-06-24T14:05:10Z</time>
      </trkpt>
      <trkpt lat="43.64633" lon="-0.46873">
        <ele>100.11</ele>
        <time>2016-06-24T14:05:14Z</time>
      </trkpt>
      <trkpt lat="43.64638" lon="-0.46931">
        <ele>97.23</ele>
        <time>2016-06-24T14:05:16Z</time>
      </trkpt>
      <trkpt lat="43.64641" lon="-0.4699">
        <ele>94.35</ele>
        <time>2016-06-24T14:05:18Z</time>
      </trkpt>
      <trkpt lat="43.64681" lon="-0.47128">
        <ele>88.58</ele>
        <time>2016-06-24T14:05:23Z</time>
      </trkpt>
      <trkpt lat="43.64698" lon="-0.47182">
        <ele>86.18</ele>
        <time>2016-06-24T14:05:25Z</time>
      </trkpt>
      <trkpt lat="43.64711" lon="-0.47235">
        <ele>82.33</ele>
        <time>2016-06-24T14:05:27Z</time>
      </trkpt>
      <trkpt lat="43.64772" lon="-0.47328">
        <ele>75.6</ele>
        <time>2016-06-24T14:05:32Z</time>
      </trkpt>
      <trkpt lat="43.64791" lon="-0.47368">
        <ele>72.24</ele>
        <time>2016-06-24T14:05:34Z</time>
      </trkpt>
      <trkpt lat="43.64792" lon="-0.47392">
        <ele>72.24</ele>
        <time>2016-06-24T14:05:35Z</time>
      </trkpt>
      <trkpt lat="43.64812" lon="-0.47528">
        <ele>68.87</ele>
        <time>2016-06-24T14:05:40Z</time>
      </trkpt>
      <trkpt lat="43.64849" lon="-0.47637">
        <ele>64.55</ele>
        <time>2016-06-24T14:05:44Z</time>
      </trkpt>
      <trkpt lat="43.64865" lon="-0.4769">
        <ele>60.22</ele>
        <time>2016-06-24T14:05:46Z</time>
      </trkpt>
      <trkpt lat="43.64898" lon="-0.47796">
        <ele>55.89</ele>
        <time>2016-06-24T14:05:50Z</time>
      </trkpt>
      <trkpt lat="43.64914" lon="-0.47849">
        <ele>55.41</ele>
        <time>2016-06-24T14:05:52Z</time>
      </trkpt>
      <trkpt lat="43.64935" lon="-0.47932">
        <ele>52.05</ele>
        <time>2016-06-24T14:05:55Z</time>
      </trkpt>
      <trkpt lat="43.64942" lon="-0.48018">
        <ele>48.2</ele>
        <time>2016-06-24T14:05:58Z</time>
      </trkpt>
      <trkpt lat="43.64937" lon="-0.48076">
        <ele>44.84</ele>
        <time>2016-06-24T14:06:00Z</time>
      </trkpt>
      <trkpt lat="43.64931" lon="-0.48104">
        <ele>44.84</ele>
        <time>2016-06-24T14:06:01Z</time>
      </trkpt>
      <trkpt lat="43.64915" lon="-0.48158">
        <ele>41.47</ele>
        <time>2016-06-24T14:06:03Z</time>
      </trkpt>
      <trkpt lat="43.64905" lon="-0.48184">
        <ele>41.47</ele>
        <time>2016-06-24T14:06:04Z</time>
      </trkpt>
      <trkpt lat="43.64881" lon="-0.48233">
        <ele>40.03</ele>
        <time>2016-06-24T14:06:06Z</time>
      </trkpt>
      <trkpt lat="43.64628" lon="-0.48637">
        <ele>39.07</ele>
        <time>2016-06-24T14:06:25Z</time>
      </trkpt>
      <trkpt lat="43.64541" lon="-0.48777">
        <ele>38.59</ele>
        <time>2016-06-24T14:06:33Z</time>
      </trkpt>
      <trkpt lat="43.64522" lon="-0.48805">
        <ele>37.15</ele>
        <time>2016-06-24T14:06:38Z</time>
      </trkpt>
      <trkpt lat="43.64515" lon="-0.4882">
        <ele>37.15</ele>
        <time>2016-06-24T14:06:48Z</time>
      </trkpt>
      <trkpt lat="43.64495" lon="-0.48822">
        <ele>38.11</ele>
        <time>2016-06-24T14:06:52Z</time>
      </trkpt>
      <trkpt lat="43.6446" lon="-0.48813">
        <ele>40.03</ele>
        <time>2016-06-24T14:06:56Z</time>
      </trkpt>
      <trkpt lat="43.64415" lon="-0.48806">
        <ele>44.36</ele>
        <time>2016-06-24T14:07:00Z</time>
      </trkpt>
      <trkpt lat="43.64372" lon="-0.48822">
        <ele>49.16</ele>
        <time>2016-06-24T14:07:03Z</time>
      </trkpt>
      <trkpt lat="43.64342" lon="-0.48853">
        <ele>52.53</ele>
        <time>2016-06-24T14:07:05Z</time>
      </trkpt>
      <trkpt lat="43.64316" lon="-0.48896">
        <ele>56.86</ele>
        <time>2016-06-24T14:07:07Z</time>
      </trkpt>
      <trkpt lat="43.64291" lon="-0.48941">
        <ele>58.78</ele>
        <time>2016-06-24T14:07:09Z</time>
      </trkpt>
      <trkpt lat="43.64242" lon="-0.48991">
        <ele>61.18</ele>
        <time>2016-06-24T14:07:12Z</time>
      </trkpt>
      <trkpt lat="43.64224" lon="-0.49">
        <ele>62.62</ele>
        <time>2016-06-24T14:07:13Z</time>
      </trkpt>
      <trkpt lat="43.64137" lon="-0.49027">
        <ele>65.99</ele>
        <time>2016-06-24T14:07:18Z</time>
      </trkpt>
      <trkpt lat="43.64107" lon="-0.49036">
        <ele>67.91</ele>
        <time>2016-06-24T14:07:20Z</time>
      </trkpt>
      <trkpt lat="43.64051" lon="-0.49024">
        <ele>71.27</ele>
        <time>2016-06-24T14:07:24Z</time>
      </trkpt>
      <trkpt lat="43.64023" lon="-0.48978">
        <ele>73.68</ele>
        <time>2016-06-24T14:07:27Z</time>
      </trkpt>
      <trkpt lat="43.64009" lon="-0.48895">
        <ele>77.04</ele>
        <time>2016-06-24T14:07:31Z</time>
      </trkpt>
      <trkpt lat="43.64" lon="-0.48858">
        <ele>78.48</ele>
        <time>2016-06-24T14:07:33Z</time>
      </trkpt>
      <trkpt lat="43.63996" lon="-0.4884">
        <ele>78.97</ele>
        <time>2016-06-24T14:07:34Z</time>
      </trkpt>
      <trkpt lat="43.63961" lon="-0.4877">
        <ele>82.33</ele>
        <time>2016-06-24T14:07:39Z</time>
      </trkpt>
      <trkpt lat="43.63921" lon="-0.48716">
        <ele>86.66</ele>
        <time>2016-06-24T14:07:44Z</time>
      </trkpt>
      <trkpt lat="43.63894" lon="-0.48653">
        <ele>87.14</ele>
        <time>2016-06-24T14:07:51Z</time>
      </trkpt>
      <trkpt lat="43.63865" lon="-0.48647">
        <ele>88.1</ele>
        <time>2016-06-24T14:07:55Z</time>
      </trkpt>
      <trkpt lat="43.63793" lon="-0.48657">
        <ele>88.1</ele>
        <time>2016-06-24T14:08:04Z</time>
      </trkpt>
      <trkpt lat="43.63729" lon="-0.48668">
        <ele>89.54</ele>
        <time>2016-06-24T14:08:13Z</time>
      </trkpt>
      <trkpt lat="43.63678" lon="-0.48672">
        <ele>90.02</ele>
        <time>2016-06-24T14:08:22Z</time>
      </trkpt>
      <trkpt lat="43.63645" lon="-0.48677">
        <ele>90.5</ele>
        <time>2016-06-24T14:08:26Z</time>
      </trkpt>
      <trkpt lat="43.63563" lon="-0.48742">
        <ele>90.02</ele>
        <time>2016-06-24T14:08:36Z</time>
      </trkpt>
      <trkpt lat="43.63557" lon="-0.4875">
        <ele>89.54</ele>
        <time>2016-06-24T14:08:38Z</time>
      </trkpt>
      <trkpt lat="43.63522" lon="-0.48806">
        <ele>90.98</ele>
        <time>2016-06-24T14:08:46Z</time>
      </trkpt>
      <trkpt lat="43.63516" lon="-0.48819">
        <ele>90.98</ele>
        <time>2016-06-24T14:08:47Z</time>
      </trkpt>
      <trkpt lat="43.63496" lon="-0.48857">
        <ele>91.94</ele>
        <time>2016-06-24T14:08:50Z</time>
      </trkpt>
      <trkpt lat="43.63398" lon="-0.48968">
        <ele>92.9</ele>
        <time>2016-06-24T14:09:00Z</time>
      </trkpt>
      <trkpt lat="43.6334" lon="-0.49029">
        <ele>91.46</ele>
        <time>2016-06-24T14:09:06Z</time>
      </trkpt>
      <trkpt lat="43.63328" lon="-0.49096">
        <ele>90.02</ele>
        <time>2016-06-24T14:09:12Z</time>
      </trkpt>
      <trkpt lat="43.63335" lon="-0.49108">
        <ele>90.02</ele>
        <time>2016-06-24T14:09:13Z</time>
      </trkpt>
      <trkpt lat="43.63416" lon="-0.49225">
        <ele>88.1</ele>
        <time>2016-06-24T14:09:22Z</time>
      </trkpt>
      <trkpt lat="43.63455" lon="-0.49316">
        <ele>89.54</ele>
        <time>2016-06-24T14:09:28Z</time>
      </trkpt>
      <trkpt lat="43.63473" lon="-0.49348">
        <ele>90.98</ele>
        <time>2016-06-24T14:09:30Z</time>
      </trkpt>
      <trkpt lat="43.63494" lon="-0.49377">
        <ele>91.46</ele>
        <time>2016-06-24T14:09:32Z</time>
      </trkpt>
      <trkpt lat="43.63592" lon="-0.4945">
        <ele>90.98</ele>
        <time>2016-06-24T14:09:39Z</time>
      </trkpt>
      <trkpt lat="43.63755" lon="-0.49549">
        <ele>90.02</ele>
        <time>2016-06-24T14:09:50Z</time>
      </trkpt>
      <trkpt lat="43.63797" lon="-0.49628">
        <ele>90.98</ele>
        <time>2016-06-24T14:09:55Z</time>
      </trkpt>
      <trkpt lat="43.63796" lon="-0.49674">
        <ele>93.39</ele>
        <time>2016-06-24T14:09:57Z</time>
      </trkpt>
      <trkpt lat="43.63765" lon="-0.49927">
        <ele>92.42</ele>
        <time>2016-06-24T14:10:08Z</time>
      </trkpt>
      <trkpt lat="43.63771" lon="-0.50003">
        <ele>95.31</ele>
        <time>2016-06-24T14:10:11Z</time>
      </trkpt>
      <trkpt lat="43.63776" lon="-0.50032">
        <ele>95.31</ele>
        <time>2016-06-24T14:10:12Z</time>
      </trkpt>
      <trkpt lat="43.63789" lon="-0.50095">
        <ele>99.63</ele>
        <time>2016-06-24T14:10:14Z</time>
      </trkpt>
      <trkpt lat="43.63795" lon="-0.50128">
        <ele>103.48</ele>
        <time>2016-06-24T14:10:15Z</time>
      </trkpt>
      <trkpt lat="43.63816" lon="-0.50226">
        <ele>98.19</ele>
        <time>2016-06-24T14:10:18Z</time>
      </trkpt>
      <trkpt lat="43.63837" lon="-0.50319">
        <ele>96.75</ele>
        <time>2016-06-24T14:10:21Z</time>
      </trkpt>
      <trkpt lat="43.63843" lon="-0.5035">
        <ele>96.75</ele>
        <time>2016-06-24T14:10:22Z</time>
      </trkpt>
      <trkpt lat="43.63869" lon="-0.50431">
        <ele>93.87</ele>
        <time>2016-06-24T14:10:25Z</time>
      </trkpt>
      <trkpt lat="43.63881" lon="-0.50455">
        <ele>93.87</ele>
        <time>2016-06-24T14:10:26Z</time>
      </trkpt>
      <trkpt lat="43.63938" lon="-0.50593">
        <ele>99.15</ele>
        <time>2016-06-24T14:10:31Z</time>
      </trkpt>
      <trkpt lat="43.63949" lon="-0.50627">
        <ele>102.04</ele>
        <time>2016-06-24T14:10:32Z</time>
      </trkpt>
      <trkpt lat="43.6396" lon="-0.50662">
        <ele>100.11</ele>
        <time>2016-06-24T14:10:33Z</time>
      </trkpt>
      <trkpt lat="43.64057" lon="-0.50949">
        <ele>97.23</ele>
        <time>2016-06-24T14:10:42Z</time>
      </trkpt>
      <trkpt lat="43.64121" lon="-0.51152">
        <ele>101.56</ele>
        <time>2016-06-24T14:10:49Z</time>
      </trkpt>
      <trkpt lat="43.64133" lon="-0.51184">
        <ele>101.08</ele>
        <time>2016-06-24T14:10:50Z</time>
      </trkpt>
      <trkpt lat="43.64187" lon="-0.51339">
        <ele>97.23</ele>
        <time>2016-06-24T14:10:55Z</time>
      </trkpt>
      <trkpt lat="43.64294" lon="-0.51555">
        <ele>97.23</ele>
        <time>2016-06-24T14:11:03Z</time>
      </trkpt>
      <trkpt lat="43.64492" lon="-0.51898">
        <ele>97.71</ele>
        <time>2016-06-24T14:11:16Z</time>
      </trkpt>
      <trkpt lat="43.6468" lon="-0.52233">
        <ele>95.31</ele>
        <time>2016-06-24T14:11:29Z</time>
      </trkpt>
      <trkpt lat="43.64746" lon="-0.52437">
        <ele>96.27</ele>
        <time>2016-06-24T14:11:36Z</time>
      </trkpt>
      <trkpt lat="43.64757" lon="-0.52501">
        <ele>97.23</ele>
        <time>2016-06-24T14:11:38Z</time>
      </trkpt>
      <trkpt lat="43.64828" lon="-0.52965">
        <ele>96.75</ele>
        <time>2016-06-24T14:11:53Z</time>
      </trkpt>
      <trkpt lat="43.64866" lon="-0.5321">
        <ele>94.35</ele>
        <time>2016-06-24T14:12:01Z</time>
      </trkpt>
      <trkpt lat="43.6493" lon="-0.53615">
        <ele>93.87</ele>
        <time>2016-06-24T14:12:13Z</time>
      </trkpt>
      <trkpt lat="43.64995" lon="-0.5402">
        <ele>90.98</ele>
        <time>2016-06-24T14:12:25Z</time>
      </trkpt>
      <trkpt lat="43.65028" lon="-0.54218">
        <ele>89.06</ele>
        <time>2016-06-24T14:12:31Z</time>
      </trkpt>
      <trkpt lat="43.65039" lon="-0.54285">
        <ele>85.69</ele>
        <time>2016-06-24T14:12:33Z</time>
      </trkpt>
      <trkpt lat="43.65077" lon="-0.5453">
        <ele>88.1</ele>
        <time>2016-06-24T14:12:40Z</time>
      </trkpt>
      <trkpt lat="43.65131" lon="-0.54877">
        <ele>91.46</ele>
        <time>2016-06-24T14:12:50Z</time>
      </trkpt>
      <trkpt lat="43.65147" lon="-0.54979">
        <ele>92.9</ele>
        <time>2016-06-24T14:12:53Z</time>
      </trkpt>
      <trkpt lat="43.65229" lon="-0.55488">
        <ele>89.54</ele>
        <time>2016-06-24T14:13:08Z</time>
      </trkpt>
      <trkpt lat="43.6527" lon="-0.55727">
        <ele>86.18</ele>
        <time>2016-06-24T14:13:15Z</time>
      </trkpt>
      <trkpt lat="43.65278" lon="-0.5576">
        <ele>85.69</ele>
        <time>2016-06-24T14:13:16Z</time>
      </trkpt>
      <trkpt lat="43.65336" lon="-0.55992">
        <ele>89.06</ele>
        <time>2016-06-24T14:13:23Z</time>
      </trkpt>
      <trkpt lat="43.65457" lon="-0.56481">
        <ele>93.39</ele>
        <time>2016-06-24T14:13:38Z</time>
      </trkpt>
      <trkpt lat="43.65465" lon="-0.56513">
        <ele>92.42</ele>
        <time>2016-06-24T14:13:39Z</time>
      </trkpt>
      <trkpt lat="43.65512" lon="-0.56701">
        <ele>89.54</ele>
        <time>2016-06-24T14:13:45Z</time>
      </trkpt>
      <trkpt lat="43.65586" lon="-0.57086">
        <ele>87.62</ele>
        <time>2016-06-24T14:13:57Z</time>
      </trkpt>
      <trkpt lat="43.65594" lon="-0.5719">
        <ele>84.73</ele>
        <time>2016-06-24T14:14:00Z</time>
      </trkpt>
      <trkpt lat="43.65605" lon="-0.57319">
        <ele>81.85</ele>
        <time>2016-06-24T14:14:04Z</time>
      </trkpt>
      <trkpt lat="43.6563" lon="-0.57599">
        <ele>77.52</ele>
        <time>2016-06-24T14:14:14Z</time>
      </trkpt>
      <trkpt lat="43.65662" lon="-0.57979">
        <ele>75.6</ele>
        <time>2016-06-24T14:14:29Z</time>
      </trkpt>
      <trkpt lat="43.65679" lon="-0.58158">
        <ele>75.12</ele>
        <time>2016-06-24T14:14:39Z</time>
      </trkpt>
      <trkpt lat="43.65703" lon="-0.58437">
        <ele>74.64</ele>
        <time>2016-06-24T14:14:55Z</time>
      </trkpt>
      <trkpt lat="43.65715" lon="-0.58576">
        <ele>71.27</ele>
        <time>2016-06-24T14:15:03Z</time>
      </trkpt>
      <trkpt lat="43.65733" lon="-0.58759">
        <ele>67.91</ele>
        <time>2016-06-24T14:15:14Z</time>
      </trkpt>
      <trkpt lat="43.65741" lon="-0.58834">
        <ele>64.55</ele>
        <time>2016-06-24T14:15:20Z</time>
      </trkpt>
      <trkpt lat="43.65744" lon="-0.58848">
        <ele>63.58</ele>
        <time>2016-06-24T14:15:26Z</time>
      </trkpt>
      <trkpt lat="43.65738" lon="-0.58881">
        <ele>64.07</ele>
        <time>2016-06-24T14:15:30Z</time>
      </trkpt>
      <trkpt lat="43.65712" lon="-0.58979">
        <ele>62.14</ele>
        <time>2016-06-24T14:15:38Z</time>
      </trkpt>
      <trkpt lat="43.65684" lon="-0.59042">
        <ele>58.3</ele>
        <time>2016-06-24T14:15:44Z</time>
      </trkpt>
      <trkpt lat="43.65679" lon="-0.59052">
        <ele>58.78</ele>
        <time>2016-06-24T14:15:45Z</time>
      </trkpt>
      <trkpt lat="43.6564" lon="-0.59111">
        <ele>55.41</ele>
        <time>2016-06-24T14:15:53Z</time>
      </trkpt>
      <trkpt lat="43.65635" lon="-0.59117">
        <ele>55.41</ele>
        <time>2016-06-24T14:15:54Z</time>
      </trkpt>
      <trkpt lat="43.65629" lon="-0.59139">
        <ele>53.01</ele>
        <time>2016-06-24T14:15:58Z</time>
      </trkpt>
      <trkpt lat="43.65643" lon="-0.59204">
        <ele>53.49</ele>
        <time>2016-06-24T14:16:08Z</time>
      </trkpt>
      <trkpt lat="43.65606" lon="-0.59223">
        <ele>52.53</ele>
        <time>2016-06-24T14:16:16Z</time>
      </trkpt>
      <trkpt lat="43.65542" lon="-0.59245">
        <ele>49.16</ele>
        <time>2016-06-24T14:16:27Z</time>
      </trkpt>
      <trkpt lat="43.65527" lon="-0.59252">
        <ele>48.68</ele>
        <time>2016-06-24T14:16:31Z</time>
      </trkpt>
      <trkpt lat="43.65525" lon="-0.59271">
        <ele>48.2</ele>
        <time>2016-06-24T14:16:35Z</time>
      </trkpt>
      <trkpt lat="43.65564" lon="-0.59321">
        <ele>48.2</ele>
        <time>2016-06-24T14:16:47Z</time>
      </trkpt>
      <trkpt lat="43.65614" lon="-0.59387">
        <ele>50.61</ele>
        <time>2016-06-24T14:16:59Z</time>
      </trkpt>
      <trkpt lat="43.65612" lon="-0.59405">
        <ele>50.61</ele>
        <time>2016-06-24T14:17:02Z</time>
      </trkpt>
      <trkpt lat="43.65619" lon="-0.59448">
        <ele>50.61</ele>
        <time>2016-06-24T14:17:09Z</time>
      </trkpt>
      <trkpt lat="43.65598" lon="-0.59468">
        <ele>50.61</ele>
        <time>2016-06-24T14:17:14Z</time>
      </trkpt>
      <trkpt lat="43.65587" lon="-0.59472">
        <ele>49.65</ele>
        <time>2016-06-24T14:17:16Z</time>
      </trkpt>
      <trkpt lat="43.65561" lon="-0.59472">
        <ele>47.24</ele>
        <time>2016-06-24T14:17:20Z</time>
      </trkpt>
      <trkpt lat="43.65541" lon="-0.59467">
        <ele>47.72</ele>
        <time>2016-06-24T14:17:23Z</time>
      </trkpt>
      <trkpt lat="43.65492" lon="-0.59414">
        <ele>45.32</ele>
        <time>2016-06-24T14:17:33Z</time>
      </trkpt>
      <trkpt lat="43.65479" lon="-0.59405">
        <ele>44.36</ele>
        <time>2016-06-24T14:17:36Z</time>
      </trkpt>
      <trkpt lat="43.65469" lon="-0.594">
        <ele>44.36</ele>
        <time>2016-06-24T14:17:38Z</time>
      </trkpt>
      <trkpt lat="43.65452" lon="-0.59385">
        <ele>43.88</ele>
        <time>2016-06-24T14:17:42Z</time>
      </trkpt>
      <trkpt lat="43.65425" lon="-0.59351">
        <ele>42.92</ele>
        <time>2016-06-24T14:17:51Z</time>
      </trkpt>
      <trkpt lat="43.6542" lon="-0.59354">
        <ele>41.47</ele>
        <time>2016-06-24T14:17:53Z</time>
      </trkpt>
      <trkpt lat="43.6539" lon="-0.59381">
        <ele>40.99</ele>
        <time>2016-06-24T14:18:06Z</time>
      </trkpt>
      <trkpt lat="43.65333" lon="-0.59439">
        <ele>43.4</ele>
        <time>2016-06-24T14:18:16Z</time>
      </trkpt>
      <trkpt lat="43.65292" lon="-0.59493">
        <ele>43.88</ele>
        <time>2016-06-24T14:18:22Z</time>
      </trkpt>
      <trkpt lat="43.65197" lon="-0.59667">
        <ele>45.32</ele>
        <time>2016-06-24T14:18:36Z</time>
      </trkpt>
      <trkpt lat="43.65137" lon="-0.59835">
        <ele>48.68</ele>
        <time>2016-06-24T14:18:47Z</time>
      </trkpt>
      <trkpt lat="43.65117" lon="-0.59889">
        <ele>52.53</ele>
        <time>2016-06-24T14:18:50Z</time>
      </trkpt>
      <trkpt lat="43.65089" lon="-0.59964">
        <ele>57.34</ele>
        <time>2016-06-24T14:18:54Z</time>
      </trkpt>
      <trkpt lat="43.65074" lon="-0.60002">
        <ele>60.7</ele>
        <time>2016-06-24T14:18:56Z</time>
      </trkpt>
      <trkpt lat="43.65068" lon="-0.60021">
        <ele>60.7</ele>
        <time>2016-06-24T14:18:57Z</time>
      </trkpt>
      <trkpt lat="43.65041" lon="-0.60096">
        <ele>65.03</ele>
        <time>2016-06-24T14:19:01Z</time>
      </trkpt>
      <trkpt lat="43.65021" lon="-0.60153">
        <ele>65.99</ele>
        <time>2016-06-24T14:19:04Z</time>
      </trkpt>
      <trkpt lat="43.65004" lon="-0.60188">
        <ele>67.91</ele>
        <time>2016-06-24T14:19:06Z</time>
      </trkpt>
      <trkpt lat="43.64982" lon="-0.60218">
        <ele>68.87</ele>
        <time>2016-06-24T14:19:08Z</time>
      </trkpt>
      <trkpt lat="43.64843" lon="-0.60352">
        <ele>68.87</ele>
        <time>2016-06-24T14:19:19Z</time>
      </trkpt>
      <trkpt lat="43.64692" lon="-0.60498">
        <ele>69.35</ele>
        <time>2016-06-24T14:19:33Z</time>
      </trkpt>
      <trkpt lat="43.6454" lon="-0.60646">
        <ele>69.35</ele>
        <time>2016-06-24T14:19:46Z</time>
      </trkpt>
      <trkpt lat="43.64334" lon="-0.60848">
        <ele>68.39</ele>
        <time>2016-06-24T14:20:02Z</time>
      </trkpt>
      <trkpt lat="43.64135" lon="-0.61043">
        <ele>66.47</ele>
        <time>2016-06-24T14:20:16Z</time>
      </trkpt>
      <trkpt lat="43.63924" lon="-0.61251">
        <ele>68.39</ele>
        <time>2016-06-24T14:20:33Z</time>
      </trkpt>
      <trkpt lat="43.63794" lon="-0.61381">
        <ele>67.91</ele>
        <time>2016-06-24T14:20:44Z</time>
      </trkpt>
      <trkpt lat="43.63775" lon="-0.61406">
        <ele>65.99</ele>
        <time>2016-06-24T14:20:47Z</time>
      </trkpt>
      <trkpt lat="43.63737" lon="-0.61459">
        <ele>66.95</ele>
        <time>2016-06-24T14:20:54Z</time>
      </trkpt>
      <trkpt lat="43.63644" lon="-0.61527">
        <ele>69.35</ele>
        <time>2016-06-24T14:21:03Z</time>
      </trkpt>
      <trkpt lat="43.63522" lon="-0.61643">
        <ele>70.79</ele>
        <time>2016-06-24T14:21:12Z</time>
      </trkpt>
      <trkpt lat="43.63435" lon="-0.61727">
        <ele>66.47</ele>
        <time>2016-06-24T14:21:17Z</time>
      </trkpt>
      <trkpt lat="43.63416" lon="-0.61746">
        <ele>66.47</ele>
        <time>2016-06-24T14:21:18Z</time>
      </trkpt>
      <trkpt lat="43.63359" lon="-0.61802">
        <ele>64.55</ele>
        <time>2016-06-24T14:21:21Z</time>
      </trkpt>
      <trkpt lat="43.63202" lon="-0.61957">
        <ele>66.47</ele>
        <time>2016-06-24T14:21:29Z</time>
      </trkpt>
      <trkpt lat="43.63143" lon="-0.62016">
        <ele>69.83</ele>
        <time>2016-06-24T14:21:32Z</time>
      </trkpt>
      <trkpt lat="43.63103" lon="-0.62055">
        <ele>73.2</ele>
        <time>2016-06-24T14:21:34Z</time>
      </trkpt>
      <trkpt lat="43.63084" lon="-0.62074">
        <ele>73.2</ele>
        <time>2016-06-24T14:21:35Z</time>
      </trkpt>
      <trkpt lat="43.63044" lon="-0.62112">
        <ele>74.64</ele>
        <time>2016-06-24T14:21:37Z</time>
      </trkpt>
      <trkpt lat="43.62946" lon="-0.62207">
        <ele>77.04</ele>
        <time>2016-06-24T14:21:42Z</time>
      </trkpt>
      <trkpt lat="43.62885" lon="-0.62265">
        <ele>78</ele>
        <time>2016-06-24T14:21:45Z</time>
      </trkpt>
      <trkpt lat="43.62747" lon="-0.624">
        <ele>74.64</ele>
        <time>2016-06-24T14:21:52Z</time>
      </trkpt>
      <trkpt lat="43.62418" lon="-0.62721">
        <ele>75.12</ele>
        <time>2016-06-24T14:22:09Z</time>
      </trkpt>
      <trkpt lat="43.62323" lon="-0.62816">
        <ele>75.6</ele>
        <time>2016-06-24T14:22:16Z</time>
      </trkpt>
      <trkpt lat="43.62195" lon="-0.62941">
        <ele>76.08</ele>
        <time>2016-06-24T14:22:25Z</time>
      </trkpt>
      <trkpt lat="43.62073" lon="-0.63056">
        <ele>73.2</ele>
        <time>2016-06-24T14:22:33Z</time>
      </trkpt>
      <trkpt lat="43.62025" lon="-0.63102">
        <ele>70.31</ele>
        <time>2016-06-24T14:22:36Z</time>
      </trkpt>
      <trkpt lat="43.61963" lon="-0.63162">
        <ele>67.43</ele>
        <time>2016-06-24T14:22:40Z</time>
      </trkpt>
      <trkpt lat="43.61905" lon="-0.6322">
        <ele>65.99</ele>
        <time>2016-06-24T14:22:44Z</time>
      </trkpt>
      <trkpt lat="43.61804" lon="-0.63317">
        <ele>62.14</ele>
        <time>2016-06-24T14:22:51Z</time>
      </trkpt>
      <trkpt lat="43.61791" lon="-0.6333">
        <ele>62.14</ele>
        <time>2016-06-24T14:22:52Z</time>
      </trkpt>
      <trkpt lat="43.61735" lon="-0.63385">
        <ele>60.22</ele>
        <time>2016-06-24T14:22:56Z</time>
      </trkpt>
      <trkpt lat="43.61694" lon="-0.63425">
        <ele>57.82</ele>
        <time>2016-06-24T14:22:59Z</time>
      </trkpt>
      <trkpt lat="43.61643" lon="-0.63475">
        <ele>54.45</ele>
        <time>2016-06-24T14:23:03Z</time>
      </trkpt>
      <trkpt lat="43.61529" lon="-0.63561">
        <ele>53.01</ele>
        <time>2016-06-24T14:23:13Z</time>
      </trkpt>
      <trkpt lat="43.61485" lon="-0.63577">
        <ele>54.45</ele>
        <time>2016-06-24T14:23:17Z</time>
      </trkpt>
      <trkpt lat="43.61388" lon="-0.63604">
        <ele>52.05</ele>
        <time>2016-06-24T14:23:25Z</time>
      </trkpt>
      <trkpt lat="43.61331" lon="-0.63617">
        <ele>48.68</ele>
        <time>2016-06-24T14:23:29Z</time>
      </trkpt>
      <trkpt lat="43.61273" lon="-0.63655">
        <ele>43.4</ele>
        <time>2016-06-24T14:23:33Z</time>
      </trkpt>
      <trkpt lat="43.6123" lon="-0.637">
        <ele>38.11</ele>
        <time>2016-06-24T14:23:36Z</time>
      </trkpt>
      <trkpt lat="43.61185" lon="-0.63748">
        <ele>34.26</ele>
        <time>2016-06-24T14:23:39Z</time>
      </trkpt>
      <trkpt lat="43.61139" lon="-0.63798">
        <ele>29.94</ele>
        <time>2016-06-24T14:23:42Z</time>
      </trkpt>
      <trkpt lat="43.61089" lon="-0.63849">
        <ele>26.09</ele>
        <time>2016-06-24T14:23:45Z</time>
      </trkpt>
      <trkpt lat="43.61035" lon="-0.63894">
        <ele>22.25</ele>
        <time>2016-06-24T14:23:48Z</time>
      </trkpt>
      <trkpt lat="43.60995" lon="-0.63917">
        <ele>18.4</ele>
        <time>2016-06-24T14:23:50Z</time>
      </trkpt>
      <trkpt lat="43.60973" lon="-0.63926">
        <ele>18.4</ele>
        <time>2016-06-24T14:23:51Z</time>
      </trkpt>
      <trkpt lat="43.60948" lon="-0.63936">
        <ele>25.13</ele>
        <time>2016-06-24T14:23:52Z</time>
      </trkpt>
      <trkpt lat="43.60923" lon="-0.63946">
        <ele>28.98</ele>
        <time>2016-06-24T14:23:53Z</time>
      </trkpt>
      <trkpt lat="43.60897" lon="-0.63959">
        <ele>25.61</ele>
        <time>2016-06-24T14:23:54Z</time>
      </trkpt>
      <trkpt lat="43.60845" lon="-0.63984">
        <ele>21.77</ele>
        <time>2016-06-24T14:23:56Z</time>
      </trkpt>
      <trkpt lat="43.60794" lon="-0.64008">
        <ele>18.88</ele>
        <time>2016-06-24T14:23:58Z</time>
      </trkpt>
      <trkpt lat="43.60769" lon="-0.64019">
        <ele>19.84</ele>
        <time>2016-06-24T14:23:59Z</time>
      </trkpt>
      <trkpt lat="43.60667" lon="-0.64066">
        <ele>15.52</ele>
        <time>2016-06-24T14:24:03Z</time>
      </trkpt>
      <trkpt lat="43.60642" lon="-0.64077">
        <ele>16</ele>
        <time>2016-06-24T14:24:04Z</time>
      </trkpt>
      <trkpt lat="43.60304" lon="-0.64229">
        <ele>14.08</ele>
        <time>2016-06-24T14:24:18Z</time>
      </trkpt>
      <trkpt lat="43.60066" lon="-0.64336">
        <ele>15.52</ele>
        <time>2016-06-24T14:24:28Z</time>
      </trkpt>
      <trkpt lat="43.59777" lon="-0.6447">
        <ele>17.92</ele>
        <time>2016-06-24T14:24:40Z</time>
      </trkpt>
      <trkpt lat="43.59736" lon="-0.64503">
        <ele>24.17</ele>
        <time>2016-06-24T14:24:42Z</time>
      </trkpt>
      <trkpt lat="43.59699" lon="-0.64549">
        <ele>28.98</ele>
        <time>2016-06-24T14:24:44Z</time>
      </trkpt>
      <trkpt lat="43.59683" lon="-0.64576">
        <ele>32.34</ele>
        <time>2016-06-24T14:24:45Z</time>
      </trkpt>
      <trkpt lat="43.59669" lon="-0.64605">
        <ele>36.19</ele>
        <time>2016-06-24T14:24:46Z</time>
      </trkpt>
      <trkpt lat="43.59656" lon="-0.64634">
        <ele>38.59</ele>
        <time>2016-06-24T14:24:47Z</time>
      </trkpt>
      <trkpt lat="43.5962" lon="-0.64724">
        <ele>45.8</ele>
        <time>2016-06-24T14:24:50Z</time>
      </trkpt>
      <trkpt lat="43.59607" lon="-0.64752">
        <ele>49.65</ele>
        <time>2016-06-24T14:24:51Z</time>
      </trkpt>
      <trkpt lat="43.5958" lon="-0.64807">
        <ele>53.49</ele>
        <time>2016-06-24T14:24:53Z</time>
      </trkpt>
      <trkpt lat="43.59509" lon="-0.64886">
        <ele>61.66</ele>
        <time>2016-06-24T14:24:57Z</time>
      </trkpt>
      <trkpt lat="43.59466" lon="-0.6491">
        <ele>65.99</ele>
        <time>2016-06-24T14:24:59Z</time>
      </trkpt>
      <trkpt lat="43.59443" lon="-0.64917">
        <ele>68.39</ele>
        <time>2016-06-24T14:25:00Z</time>
      </trkpt>
      <trkpt lat="43.59373" lon="-0.64939">
        <ele>73.68</ele>
        <time>2016-06-24T14:25:03Z</time>
      </trkpt>
      <trkpt lat="43.59327" lon="-0.64954">
        <ele>78</ele>
        <time>2016-06-24T14:25:05Z</time>
      </trkpt>
      <trkpt lat="43.59283" lon="-0.64969">
        <ele>81.85</ele>
        <time>2016-06-24T14:25:07Z</time>
      </trkpt>
      <trkpt lat="43.59226" lon="-0.64993">
        <ele>85.69</ele>
        <time>2016-06-24T14:25:10Z</time>
      </trkpt>
      <trkpt lat="43.59125" lon="-0.65043">
        <ele>88.1</ele>
        <time>2016-06-24T14:25:15Z</time>
      </trkpt>
      <trkpt lat="43.59081" lon="-0.65064">
        <ele>90.02</ele>
        <time>2016-06-24T14:25:17Z</time>
      </trkpt>
      <trkpt lat="43.58992" lon="-0.65105">
        <ele>92.42</ele>
        <time>2016-06-24T14:25:21Z</time>
      </trkpt>
      <trkpt lat="43.58945" lon="-0.65127">
        <ele>93.87</ele>
        <time>2016-06-24T14:25:23Z</time>
      </trkpt>
      <trkpt lat="43.58824" lon="-0.65186">
        <ele>90.5</ele>
        <time>2016-06-24T14:25:28Z</time>
      </trkpt>
      <trkpt lat="43.58753" lon="-0.6522">
        <ele>91.94</ele>
        <time>2016-06-24T14:25:31Z</time>
      </trkpt>
      <trkpt lat="43.58611" lon="-0.65289">
        <ele>96.27</ele>
        <time>2016-06-24T14:25:37Z</time>
      </trkpt>
      <trkpt lat="43.58492" lon="-0.65349">
        <ele>100.11</ele>
        <time>2016-06-24T14:25:42Z</time>
      </trkpt>
      <trkpt lat="43.58371" lon="-0.65404">
        <ele>98.19</ele>
        <time>2016-06-24T14:25:47Z</time>
      </trkpt>
      <trkpt lat="43.58321" lon="-0.65427">
        <ele>94.35</ele>
        <time>2016-06-24T14:25:49Z</time>
      </trkpt>
      <trkpt lat="43.58246" lon="-0.65464">
        <ele>90.98</ele>
        <time>2016-06-24T14:25:52Z</time>
      </trkpt>
      <trkpt lat="43.58147" lon="-0.65513">
        <ele>89.06</ele>
        <time>2016-06-24T14:25:56Z</time>
      </trkpt>
      <trkpt lat="43.57953" lon="-0.65606">
        <ele>85.21</ele>
        <time>2016-06-24T14:26:04Z</time>
      </trkpt>
      <trkpt lat="43.57929" lon="-0.65618">
        <ele>85.21</ele>
        <time>2016-06-24T14:26:05Z</time>
      </trkpt>
      <trkpt lat="43.57859" lon="-0.65655">
        <ele>89.54</ele>
        <time>2016-06-24T14:26:08Z</time>
      </trkpt>
      <trkpt lat="43.57835" lon="-0.65667">
        <ele>89.54</ele>
        <time>2016-06-24T14:26:09Z</time>
      </trkpt>
      <trkpt lat="43.57789" lon="-0.6569">
        <ele>91.94</ele>
        <time>2016-06-24T14:26:11Z</time>
      </trkpt>
      <trkpt lat="43.57724" lon="-0.65721">
        <ele>94.35</ele>
        <time>2016-06-24T14:26:14Z</time>
      </trkpt>
      <trkpt lat="43.57562" lon="-0.65801">
        <ele>91.94</ele>
        <time>2016-06-24T14:26:23Z</time>
      </trkpt>
      <trkpt lat="43.57507" lon="-0.65828">
        <ele>89.06</ele>
        <time>2016-06-24T14:26:26Z</time>
      </trkpt>
      <trkpt lat="43.57489" lon="-0.65836">
        <ele>89.06</ele>
        <time>2016-06-24T14:26:27Z</time>
      </trkpt>
      <trkpt lat="43.5745" lon="-0.65855">
        <ele>84.73</ele>
        <time>2016-06-24T14:26:29Z</time>
      </trkpt>
      <trkpt lat="43.57405" lon="-0.65876">
        <ele>88.1</ele>
        <time>2016-06-24T14:26:31Z</time>
      </trkpt>
      <trkpt lat="43.57282" lon="-0.65941">
        <ele>84.73</ele>
        <time>2016-06-24T14:26:36Z</time>
      </trkpt>
      <trkpt lat="43.57232" lon="-0.65966">
        <ele>80.89</ele>
        <time>2016-06-24T14:26:38Z</time>
      </trkpt>
      <trkpt lat="43.57182" lon="-0.65991">
        <ele>77.52</ele>
        <time>2016-06-24T14:26:40Z</time>
      </trkpt>
      <trkpt lat="43.57157" lon="-0.66004">
        <ele>77.04</ele>
        <time>2016-06-24T14:26:41Z</time>
      </trkpt>
      <trkpt lat="43.5706" lon="-0.66054">
        <ele>73.2</ele>
        <time>2016-06-24T14:26:45Z</time>
      </trkpt>
      <trkpt lat="43.5694" lon="-0.66117">
        <ele>69.83</ele>
        <time>2016-06-24T14:26:50Z</time>
      </trkpt>
      <trkpt lat="43.56798" lon="-0.66193">
        <ele>73.68</ele>
        <time>2016-06-24T14:26:56Z</time>
      </trkpt>
      <trkpt lat="43.56751" lon="-0.66218">
        <ele>78</ele>
        <time>2016-06-24T14:26:58Z</time>
      </trkpt>
      <trkpt lat="43.56682" lon="-0.66254">
        <ele>82.33</ele>
        <time>2016-06-24T14:27:01Z</time>
      </trkpt>
      <trkpt lat="43.56634" lon="-0.66278">
        <ele>86.66</ele>
        <time>2016-06-24T14:27:03Z</time>
      </trkpt>
      <trkpt lat="43.5661" lon="-0.6629">
        <ele>86.66</ele>
        <time>2016-06-24T14:27:04Z</time>
      </trkpt>
      <trkpt lat="43.56561" lon="-0.66309">
        <ele>89.54</ele>
        <time>2016-06-24T14:27:06Z</time>
      </trkpt>
      <trkpt lat="43.56461" lon="-0.66347">
        <ele>85.69</ele>
        <time>2016-06-24T14:27:10Z</time>
      </trkpt>
      <trkpt lat="43.5641" lon="-0.66368">
        <ele>83.77</ele>
        <time>2016-06-24T14:27:12Z</time>
      </trkpt>
      <trkpt lat="43.56359" lon="-0.66387">
        <ele>80.89</ele>
        <time>2016-06-24T14:27:14Z</time>
      </trkpt>
      <trkpt lat="43.56258" lon="-0.66426">
        <ele>77.04</ele>
        <time>2016-06-24T14:27:18Z</time>
      </trkpt>
      <trkpt lat="43.56208" lon="-0.66446">
        <ele>73.68</ele>
        <time>2016-06-24T14:27:20Z</time>
      </trkpt>
      <trkpt lat="43.56183" lon="-0.66457">
        <ele>73.68</ele>
        <time>2016-06-24T14:27:21Z</time>
      </trkpt>
      <trkpt lat="43.56133" lon="-0.66479">
        <ele>70.31</ele>
        <time>2016-06-24T14:27:23Z</time>
      </trkpt>
      <trkpt lat="43.56082" lon="-0.66501">
        <ele>66.47</ele>
        <time>2016-06-24T14:27:25Z</time>
      </trkpt>
      <trkpt lat="43.56032" lon="-0.6652">
        <ele>62.62</ele>
        <time>2016-06-24T14:27:27Z</time>
      </trkpt>
      <trkpt lat="43.55983" lon="-0.66538">
        <ele>58.3</ele>
        <time>2016-06-24T14:27:29Z</time>
      </trkpt>
      <trkpt lat="43.55934" lon="-0.66558">
        <ele>53.97</ele>
        <time>2016-06-24T14:27:31Z</time>
      </trkpt>
      <trkpt lat="43.55911" lon="-0.66567">
        <ele>54.45</ele>
        <time>2016-06-24T14:27:32Z</time>
      </trkpt>
      <trkpt lat="43.55775" lon="-0.66616">
        <ele>55.89</ele>
        <time>2016-06-24T14:27:38Z</time>
      </trkpt>
      <trkpt lat="43.55733" lon="-0.66645">
        <ele>52.53</ele>
        <time>2016-06-24T14:27:41Z</time>
      </trkpt>
      <trkpt lat="43.55709" lon="-0.66695">
        <ele>52.53</ele>
        <time>2016-06-24T14:27:45Z</time>
      </trkpt>
      <trkpt lat="43.55667" lon="-0.66725">
        <ele>53.01</ele>
        <time>2016-06-24T14:27:49Z</time>
      </trkpt>
      <trkpt lat="43.55559" lon="-0.66867">
        <ele>54.45</ele>
        <time>2016-06-24T14:27:57Z</time>
      </trkpt>
      <trkpt lat="43.55496" lon="-0.66957">
        <ele>51.09</ele>
        <time>2016-06-24T14:28:01Z</time>
      </trkpt>
      <trkpt lat="43.55432" lon="-0.67057">
        <ele>47.72</ele>
        <time>2016-06-24T14:28:05Z</time>
      </trkpt>
      <trkpt lat="43.55417" lon="-0.67082">
        <ele>47.72</ele>
        <time>2016-06-24T14:28:06Z</time>
      </trkpt>
      <trkpt lat="43.55385" lon="-0.67133">
        <ele>44.84</ele>
        <time>2016-06-24T14:28:08Z</time>
      </trkpt>
      <trkpt lat="43.55369" lon="-0.67159">
        <ele>44.84</ele>
        <time>2016-06-24T14:28:09Z</time>
      </trkpt>
      <trkpt lat="43.5532" lon="-0.67237">
        <ele>42.44</ele>
        <time>2016-06-24T14:28:12Z</time>
      </trkpt>
      <trkpt lat="43.5519" lon="-0.67446">
        <ele>38.59</ele>
        <time>2016-06-24T14:28:20Z</time>
      </trkpt>
      <trkpt lat="43.55064" lon="-0.67693">
        <ele>34.26</ele>
        <time>2016-06-24T14:28:29Z</time>
      </trkpt>
      <trkpt lat="43.5504" lon="-0.67789">
        <ele>31.86</ele>
        <time>2016-06-24T14:28:32Z</time>
      </trkpt>
      <trkpt lat="43.54998" lon="-0.6798">
        <ele>28.98</ele>
        <time>2016-06-24T14:28:38Z</time>
      </trkpt>
      <trkpt lat="43.54935" lon="-0.68116">
        <ele>25.61</ele>
        <time>2016-06-24T14:28:43Z</time>
      </trkpt>
      <trkpt lat="43.54823" lon="-0.68243">
        <ele>26.09</ele>
        <time>2016-06-24T14:28:49Z</time>
      </trkpt>
      <trkpt lat="43.5478" lon="-0.68271">
        <ele>25.13</ele>
        <time>2016-06-24T14:28:51Z</time>
      </trkpt>
      <trkpt lat="43.5472" lon="-0.68296">
        <ele>22.25</ele>
        <time>2016-06-24T14:28:54Z</time>
      </trkpt>
      <trkpt lat="43.54671" lon="-0.68307">
        <ele>19.36</ele>
        <time>2016-06-24T14:28:57Z</time>
      </trkpt>
      <trkpt lat="43.54618" lon="-0.68332">
        <ele>17.44</ele>
        <time>2016-06-24T14:29:02Z</time>
      </trkpt>
      <trkpt lat="43.54576" lon="-0.68301">
        <ele>18.88</ele>
        <time>2016-06-24T14:29:06Z</time>
      </trkpt>
      <trkpt lat="43.54545" lon="-0.68288">
        <ele>19.84</ele>
        <time>2016-06-24T14:29:08Z</time>
      </trkpt>
      <trkpt lat="43.54332" lon="-0.68214">
        <ele>22.25</ele>
        <time>2016-06-24T14:29:20Z</time>
      </trkpt>
      <trkpt lat="43.54249" lon="-0.68188">
        <ele>20.32</ele>
        <time>2016-06-24T14:29:26Z</time>
      </trkpt>
      <trkpt lat="43.54217" lon="-0.68191">
        <ele>20.81</ele>
        <time>2016-06-24T14:29:29Z</time>
      </trkpt>
      <trkpt lat="43.54141" lon="-0.68229">
        <ele>22.73</ele>
        <time>2016-06-24T14:29:35Z</time>
      </trkpt>
      <trkpt lat="43.54093" lon="-0.68297">
        <ele>27.05</ele>
        <time>2016-06-24T14:29:39Z</time>
      </trkpt>
      <trkpt lat="43.54079" lon="-0.68317">
        <ele>27.05</ele>
        <time>2016-06-24T14:29:40Z</time>
      </trkpt>
      <trkpt lat="43.54034" lon="-0.68382">
        <ele>30.42</ele>
        <time>2016-06-24T14:29:43Z</time>
      </trkpt>
      <trkpt lat="43.54002" lon="-0.68429">
        <ele>34.26</ele>
        <time>2016-06-24T14:29:45Z</time>
      </trkpt>
      <trkpt lat="43.53986" lon="-0.68454">
        <ele>33.78</ele>
        <time>2016-06-24T14:29:46Z</time>
      </trkpt>
      <trkpt lat="43.53938" lon="-0.6853">
        <ele>37.15</ele>
        <time>2016-06-24T14:29:49Z</time>
      </trkpt>
      <trkpt lat="43.53906" lon="-0.68578">
        <ele>39.07</ele>
        <time>2016-06-24T14:29:51Z</time>
      </trkpt>
      <trkpt lat="43.53875" lon="-0.68625">
        <ele>42.44</ele>
        <time>2016-06-24T14:29:53Z</time>
      </trkpt>
      <trkpt lat="43.53843" lon="-0.68673">
        <ele>45.8</ele>
        <time>2016-06-24T14:29:55Z</time>
      </trkpt>
      <trkpt lat="43.53812" lon="-0.6872">
        <ele>49.65</ele>
        <time>2016-06-24T14:29:57Z</time>
      </trkpt>
      <trkpt lat="43.53796" lon="-0.68743">
        <ele>49.16</ele>
        <time>2016-06-24T14:29:58Z</time>
      </trkpt>
      <trkpt lat="43.53781" lon="-0.68765">
        <ele>52.53</ele>
        <time>2016-06-24T14:29:59Z</time>
      </trkpt>
      <trkpt lat="43.53765" lon="-0.68787">
        <ele>52.53</ele>
        <time>2016-06-24T14:30:00Z</time>
      </trkpt>
      <trkpt lat="43.53703" lon="-0.68876">
        <ele>55.41</ele>
        <time>2016-06-24T14:30:04Z</time>
      </trkpt>
      <trkpt lat="43.53639" lon="-0.68967">
        <ele>53.97</ele>
        <time>2016-06-24T14:30:08Z</time>
      </trkpt>
      <trkpt lat="43.53451" lon="-0.69243">
        <ele>57.82</ele>
        <time>2016-06-24T14:30:20Z</time>
      </trkpt>
      <trkpt lat="43.53435" lon="-0.69266">
        <ele>57.82</ele>
        <time>2016-06-24T14:30:21Z</time>
      </trkpt>
      <trkpt lat="43.53255" lon="-0.69529">
        <ele>54.45</ele>
        <time>2016-06-24T14:30:32Z</time>
      </trkpt>
      <trkpt lat="43.53189" lon="-0.69623">
        <ele>51.09</ele>
        <time>2016-06-24T14:30:36Z</time>
      </trkpt>
      <trkpt lat="43.5314" lon="-0.69693">
        <ele>57.82</ele>
        <time>2016-06-24T14:30:39Z</time>
      </trkpt>
      <trkpt lat="43.53108" lon="-0.6974">
        <ele>58.78</ele>
        <time>2016-06-24T14:30:41Z</time>
      </trkpt>
      <trkpt lat="43.52981" lon="-0.69924">
        <ele>59.26</ele>
        <time>2016-06-24T14:30:49Z</time>
      </trkpt>
      <trkpt lat="43.52794" lon="-0.70204">
        <ele>58.78</ele>
        <time>2016-06-24T14:31:01Z</time>
      </trkpt>
      <trkpt lat="43.52733" lon="-0.70298">
        <ele>60.7</ele>
        <time>2016-06-24T14:31:05Z</time>
      </trkpt>
      <trkpt lat="43.52628" lon="-0.70371">
        <ele>63.58</ele>
        <time>2016-06-24T14:31:10Z</time>
      </trkpt>
      <trkpt lat="43.52539" lon="-0.70417">
        <ele>64.55</ele>
        <time>2016-06-24T14:31:14Z</time>
      </trkpt>
      <trkpt lat="43.52452" lon="-0.70462">
        <ele>67.91</ele>
        <time>2016-06-24T14:31:18Z</time>
      </trkpt>
      <trkpt lat="43.52407" lon="-0.70485">
        <ele>69.83</ele>
        <time>2016-06-24T14:31:20Z</time>
      </trkpt>
      <trkpt lat="43.52343" lon="-0.70522">
        <ele>71.76</ele>
        <time>2016-06-24T14:31:23Z</time>
      </trkpt>
      <trkpt lat="43.52273" lon="-0.70601">
        <ele>74.64</ele>
        <time>2016-06-24T14:31:27Z</time>
      </trkpt>
      <trkpt lat="43.52229" lon="-0.70671">
        <ele>77.52</ele>
        <time>2016-06-24T14:31:30Z</time>
      </trkpt>
      <trkpt lat="43.52206" lon="-0.70807">
        <ele>80.89</ele>
        <time>2016-06-24T14:31:35Z</time>
      </trkpt>
      <trkpt lat="43.52209" lon="-0.70839">
        <ele>83.29</ele>
        <time>2016-06-24T14:31:36Z</time>
      </trkpt>
      <trkpt lat="43.52225" lon="-0.70934">
        <ele>86.18</ele>
        <time>2016-06-24T14:31:39Z</time>
      </trkpt>
      <trkpt lat="43.5223" lon="-0.7103">
        <ele>89.06</ele>
        <time>2016-06-24T14:31:42Z</time>
      </trkpt>
      <trkpt lat="43.52216" lon="-0.71253">
        <ele>90.98</ele>
        <time>2016-06-24T14:31:49Z</time>
      </trkpt>
      <trkpt lat="43.52212" lon="-0.71315">
        <ele>92.42</ele>
        <time>2016-06-24T14:31:51Z</time>
      </trkpt>
      <trkpt lat="43.52188" lon="-0.71553">
        <ele>91.94</ele>
        <time>2016-06-24T14:32:00Z</time>
      </trkpt>
      <trkpt lat="43.52184" lon="-0.71578">
        <ele>91.94</ele>
        <time>2016-06-24T14:32:01Z</time>
      </trkpt>
      <trkpt lat="43.52169" lon="-0.71718">
        <ele>92.9</ele>
        <time>2016-06-24T14:32:06Z</time>
      </trkpt>
      <trkpt lat="43.52145" lon="-0.71802">
        <ele>89.54</ele>
        <time>2016-06-24T14:32:09Z</time>
      </trkpt>
      <trkpt lat="43.5213" lon="-0.71827">
        <ele>87.14</ele>
        <time>2016-06-24T14:32:10Z</time>
      </trkpt>
      <trkpt lat="43.52099" lon="-0.71875">
        <ele>83.77</ele>
        <time>2016-06-24T14:32:12Z</time>
      </trkpt>
      <trkpt lat="43.52083" lon="-0.71898">
        <ele>84.25</ele>
        <time>2016-06-24T14:32:13Z</time>
      </trkpt>
      <trkpt lat="43.52052" lon="-0.71946">
        <ele>78.97</ele>
        <time>2016-06-24T14:32:15Z</time>
      </trkpt>
      <trkpt lat="43.51974" lon="-0.72026">
        <ele>76.56</ele>
        <time>2016-06-24T14:32:19Z</time>
      </trkpt>
      <trkpt lat="43.51933" lon="-0.72066">
        <ele>75.12</ele>
        <time>2016-06-24T14:32:21Z</time>
      </trkpt>
      <trkpt lat="43.51854" lon="-0.72139">
        <ele>73.68</ele>
        <time>2016-06-24T14:32:25Z</time>
      </trkpt>
      <trkpt lat="43.51778" lon="-0.72211">
        <ele>71.76</ele>
        <time>2016-06-24T14:32:29Z</time>
      </trkpt>
      <trkpt lat="43.51632" lon="-0.72322">
        <ele>68.87</ele>
        <time>2016-06-24T14:32:36Z</time>
      </trkpt>
      <trkpt lat="43.51476" lon="-0.72425">
        <ele>65.51</ele>
        <time>2016-06-24T14:32:43Z</time>
      </trkpt>
      <trkpt lat="43.5126" lon="-0.72572">
        <ele>66.95</ele>
        <time>2016-06-24T14:32:53Z</time>
      </trkpt>
      <trkpt lat="43.5121" lon="-0.72639">
        <ele>68.39</ele>
        <time>2016-06-24T14:32:56Z</time>
      </trkpt>
      <trkpt lat="43.51197" lon="-0.72665">
        <ele>71.76</ele>
        <time>2016-06-24T14:32:57Z</time>
      </trkpt>
      <trkpt lat="43.51156" lon="-0.72745">
        <ele>73.68</ele>
        <time>2016-06-24T14:33:00Z</time>
      </trkpt>
      <trkpt lat="43.50989" lon="-0.73074">
        <ele>70.31</ele>
        <time>2016-06-24T14:33:12Z</time>
      </trkpt>
      <trkpt lat="43.50946" lon="-0.73157">
        <ele>66.47</ele>
        <time>2016-06-24T14:33:15Z</time>
      </trkpt>
      <trkpt lat="43.50931" lon="-0.73186">
        <ele>62.62</ele>
        <time>2016-06-24T14:33:16Z</time>
      </trkpt>
      <trkpt lat="43.50887" lon="-0.73272">
        <ele>61.18</ele>
        <time>2016-06-24T14:33:19Z</time>
      </trkpt>
      <trkpt lat="43.50845" lon="-0.73359">
        <ele>65.51</ele>
        <time>2016-06-24T14:33:22Z</time>
      </trkpt>
      <trkpt lat="43.50657" lon="-0.73723">
        <ele>63.58</ele>
        <time>2016-06-24T14:33:35Z</time>
      </trkpt>
      <trkpt lat="43.50584" lon="-0.73866">
        <ele>62.14</ele>
        <time>2016-06-24T14:33:40Z</time>
      </trkpt>
      <trkpt lat="43.50526" lon="-0.73979">
        <ele>60.7</ele>
        <time>2016-06-24T14:33:44Z</time>
      </trkpt>
      <trkpt lat="43.50425" lon="-0.74176">
        <ele>58.3</ele>
        <time>2016-06-24T14:33:51Z</time>
      </trkpt>
      <trkpt lat="43.50341" lon="-0.7434">
        <ele>55.41</ele>
        <time>2016-06-24T14:33:57Z</time>
      </trkpt>
      <trkpt lat="43.50312" lon="-0.74395">
        <ele>52.05</ele>
        <time>2016-06-24T14:33:59Z</time>
      </trkpt>
      <trkpt lat="43.5023" lon="-0.7456">
        <ele>55.89</ele>
        <time>2016-06-24T14:34:05Z</time>
      </trkpt>
      <trkpt lat="43.50218" lon="-0.74585">
        <ele>55.41</ele>
        <time>2016-06-24T14:34:06Z</time>
      </trkpt>
      <trkpt lat="43.50145" lon="-0.74725">
        <ele>52.05</ele>
        <time>2016-06-24T14:34:13Z</time>
      </trkpt>
      <trkpt lat="43.50123" lon="-0.74771">
        <ele>51.57</ele>
        <time>2016-06-24T14:34:16Z</time>
      </trkpt>
      <trkpt lat="43.50115" lon="-0.74799">
        <ele>50.13</ele>
        <time>2016-06-24T14:34:18Z</time>
      </trkpt>
      <trkpt lat="43.50116" lon="-0.74829">
        <ele>49.65</ele>
        <time>2016-06-24T14:34:20Z</time>
      </trkpt>
      <trkpt lat="43.50084" lon="-0.7488">
        <ele>48.68</ele>
        <time>2016-06-24T14:34:25Z</time>
      </trkpt>
      <trkpt lat="43.50051" lon="-0.74913">
        <ele>50.61</ele>
        <time>2016-06-24T14:34:28Z</time>
      </trkpt>
      <trkpt lat="43.4998" lon="-0.75051">
        <ele>52.53</ele>
        <time>2016-06-24T14:34:35Z</time>
      </trkpt>
      <trkpt lat="43.49956" lon="-0.75098">
        <ele>53.49</ele>
        <time>2016-06-24T14:34:37Z</time>
      </trkpt>
      <trkpt lat="43.49879" lon="-0.75246">
        <ele>54.45</ele>
        <time>2016-06-24T14:34:43Z</time>
      </trkpt>
      <trkpt lat="43.49813" lon="-0.75373">
        <ele>57.34</ele>
        <time>2016-06-24T14:34:48Z</time>
      </trkpt>
      <trkpt lat="43.498" lon="-0.75399">
        <ele>57.34</ele>
        <time>2016-06-24T14:34:49Z</time>
      </trkpt>
      <trkpt lat="43.49651" lon="-0.75689">
        <ele>59.74</ele>
        <time>2016-06-24T14:35:00Z</time>
      </trkpt>
      <trkpt lat="43.49623" lon="-0.75743">
        <ele>55.89</ele>
        <time>2016-06-24T14:35:02Z</time>
      </trkpt>
      <trkpt lat="43.49514" lon="-0.7596">
        <ele>61.18</ele>
        <time>2016-06-24T14:35:10Z</time>
      </trkpt>
      <trkpt lat="43.495" lon="-0.75987">
        <ele>60.22</ele>
        <time>2016-06-24T14:35:11Z</time>
      </trkpt>
      <trkpt lat="43.49473" lon="-0.76038">
        <ele>57.34</ele>
        <time>2016-06-24T14:35:13Z</time>
      </trkpt>
      <trkpt lat="43.49449" lon="-0.76086">
        <ele>55.41</ele>
        <time>2016-06-24T14:35:15Z</time>
      </trkpt>
      <trkpt lat="43.49425" lon="-0.76133">
        <ele>56.37</ele>
        <time>2016-06-24T14:35:17Z</time>
      </trkpt>
      <trkpt lat="43.49358" lon="-0.76267">
        <ele>57.82</ele>
        <time>2016-06-24T14:35:23Z</time>
      </trkpt>
      <trkpt lat="43.49337" lon="-0.76309">
        <ele>61.18</ele>
        <time>2016-06-24T14:35:25Z</time>
      </trkpt>
      <trkpt lat="43.49318" lon="-0.76348">
        <ele>64.07</ele>
        <time>2016-06-24T14:35:27Z</time>
      </trkpt>
      <trkpt lat="43.49308" lon="-0.76367">
        <ele>64.07</ele>
        <time>2016-06-24T14:35:28Z</time>
      </trkpt>
      <trkpt lat="43.49274" lon="-0.76432">
        <ele>60.22</ele>
        <time>2016-06-24T14:35:32Z</time>
      </trkpt>
      <trkpt lat="43.49267" lon="-0.76444">
        <ele>60.22</ele>
        <time>2016-06-24T14:35:33Z</time>
      </trkpt>
      <trkpt lat="43.49251" lon="-0.76472">
        <ele>56.37</ele>
        <time>2016-06-24T14:35:36Z</time>
      </trkpt>
      <trkpt lat="43.49234" lon="-0.76478">
        <ele>53.97</ele>
        <time>2016-06-24T14:35:39Z</time>
      </trkpt>
      <trkpt lat="43.49228" lon="-0.76474">
        <ele>53.97</ele>
        <time>2016-06-24T14:35:40Z</time>
      </trkpt>
      <trkpt lat="43.49223" lon="-0.76466">
        <ele>55.41</ele>
        <time>2016-06-24T14:35:41Z</time>
      </trkpt>
      <trkpt lat="43.4922" lon="-0.76455">
        <ele>54.45</ele>
        <time>2016-06-24T14:35:42Z</time>
      </trkpt>
      <trkpt lat="43.4918" lon="-0.76334">
        <ele>51.09</ele>
        <time>2016-06-24T14:35:50Z</time>
      </trkpt>
      <trkpt lat="43.49149" lon="-0.76266">
        <ele>47.72</ele>
        <time>2016-06-24T14:35:54Z</time>
      </trkpt>
      <trkpt lat="43.49088" lon="-0.76165">
        <ele>43.88</ele>
        <time>2016-06-24T14:36:01Z</time>
      </trkpt>
      <trkpt lat="43.49017" lon="-0.76071">
        <ele>40.99</ele>
        <time>2016-06-24T14:36:08Z</time>
      </trkpt>
      <trkpt lat="43.48984" lon="-0.76038">
        <ele>37.63</ele>
        <time>2016-06-24T14:36:11Z</time>
      </trkpt>
      <trkpt lat="43.48973" lon="-0.76027">
        <ele>37.63</ele>
        <time>2016-06-24T14:36:12Z</time>
      </trkpt>
      <trkpt lat="43.48938" lon="-0.75997">
        <ele>33.78</ele>
        <time>2016-06-24T14:36:15Z</time>
      </trkpt>
      <trkpt lat="43.48913" lon="-0.75977">
        <ele>29.94</ele>
        <time>2016-06-24T14:36:17Z</time>
      </trkpt>
      <trkpt lat="43.48901" lon="-0.75968">
        <ele>29.94</ele>
        <time>2016-06-24T14:36:18Z</time>
      </trkpt>
      <trkpt lat="43.48874" lon="-0.7595">
        <ele>26.57</ele>
        <time>2016-06-24T14:36:20Z</time>
      </trkpt>
      <trkpt lat="43.4886" lon="-0.75943">
        <ele>25.61</ele>
        <time>2016-06-24T14:36:21Z</time>
      </trkpt>
      <trkpt lat="43.48833" lon="-0.75933">
        <ele>24.65</ele>
        <time>2016-06-24T14:36:23Z</time>
      </trkpt>
      <trkpt lat="43.48774" lon="-0.75931">
        <ele>21.29</ele>
        <time>2016-06-24T14:36:27Z</time>
      </trkpt>
      <trkpt lat="43.48658" lon="-0.75957">
        <ele>17.92</ele>
        <time>2016-06-24T14:36:35Z</time>
      </trkpt>
      <trkpt lat="43.4851" lon="-0.75982">
        <ele>16</ele>
        <time>2016-06-24T14:36:46Z</time>
      </trkpt>
      <trkpt lat="43.4845" lon="-0.76027">
        <ele>15.52</ele>
        <time>2016-06-24T14:36:52Z</time>
      </trkpt>
      <trkpt lat="43.48423" lon="-0.76064">
        <ele>14.08</ele>
        <time>2016-06-24T14:36:59Z</time>
      </trkpt>
      <trkpt lat="43.48422" lon="-0.76065">
        <ele>13.6</ele>
        <time>2016-06-24T14:37:16Z</time>
      </trkpt>
      <trkpt lat="43.48421" lon="-0.76067">
        <ele>14.08</ele>
        <time>2016-06-24T14:37:40Z</time>
      </trkpt>
      <trkpt lat="43.48397" lon="-0.76042">
        <ele>14.56</ele>
        <time>2016-06-24T14:37:45Z</time>
      </trkpt>
      <trkpt lat="43.48363" lon="-0.75929">
        <ele>16.96</ele>
        <time>2016-06-24T14:37:53Z</time>
      </trkpt>
      <trkpt lat="43.48353" lon="-0.75895">
        <ele>17.92</ele>
        <time>2016-06-24T14:37:55Z</time>
      </trkpt>
      <trkpt lat="43.48328" lon="-0.75805">
        <ele>21.77</ele>
        <time>2016-06-24T14:38:00Z</time>
      </trkpt>
      <trkpt lat="43.48318" lon="-0.75768">
        <ele>22.73</ele>
        <time>2016-06-24T14:38:02Z</time>
      </trkpt>
      <trkpt lat="43.48289" lon="-0.75666">
        <ele>25.61</ele>
        <time>2016-06-24T14:38:07Z</time>
      </trkpt>
      <trkpt lat="43.48272" lon="-0.75607">
        <ele>27.05</ele>
        <time>2016-06-24T14:38:10Z</time>
      </trkpt>
      <trkpt lat="43.48261" lon="-0.75568">
        <ele>28.5</ele>
        <time>2016-06-24T14:38:12Z</time>
      </trkpt>
      <trkpt lat="43.48244" lon="-0.75509">
        <ele>32.34</ele>
        <time>2016-06-24T14:38:15Z</time>
      </trkpt>
      <trkpt lat="43.48238" lon="-0.75489">
        <ele>32.34</ele>
        <time>2016-06-24T14:38:16Z</time>
      </trkpt>
      <trkpt lat="43.48217" lon="-0.75416">
        <ele>35.71</ele>
        <time>2016-06-24T14:38:20Z</time>
      </trkpt>
      <trkpt lat="43.48212" lon="-0.75399">
        <ele>35.71</ele>
        <time>2016-06-24T14:38:21Z</time>
      </trkpt>
      <trkpt lat="43.48197" lon="-0.7535">
        <ele>39.07</ele>
        <time>2016-06-24T14:38:24Z</time>
      </trkpt>
      <trkpt lat="43.48146" lon="-0.7518">
        <ele>39.55</ele>
        <time>2016-06-24T14:38:36Z</time>
      </trkpt>
      <trkpt lat="43.48102" lon="-0.7502">
        <ele>36.67</ele>
        <time>2016-06-24T14:38:47Z</time>
      </trkpt>
      <trkpt lat="43.48094" lon="-0.75001">
        <ele>36.19</ele>
        <time>2016-06-24T14:38:49Z</time>
      </trkpt>
      <trkpt lat="43.48088" lon="-0.74989">
        <ele>35.23</ele>
        <time>2016-06-24T14:38:51Z</time>
      </trkpt>
      <trkpt lat="43.48044" lon="-0.74979">
        <ele>34.26</ele>
        <time>2016-06-24T14:38:57Z</time>
      </trkpt>
      <trkpt lat="43.47922" lon="-0.75082">
        <ele>34.26</ele>
        <time>2016-06-24T14:39:07Z</time>
      </trkpt>
      <trkpt lat="43.47908" lon="-0.75094">
        <ele>33.78</ele>
        <time>2016-06-24T14:39:08Z</time>
      </trkpt>
      <trkpt lat="43.47881" lon="-0.75121">
        <ele>33.78</ele>
        <time>2016-06-24T14:39:10Z</time>
      </trkpt>
      <trkpt lat="43.47819" lon="-0.75238">
        <ele>30.42</ele>
        <time>2016-06-24T14:39:16Z</time>
      </trkpt>
      <trkpt lat="43.47814" lon="-0.75262">
        <ele>30.9</ele>
        <time>2016-06-24T14:39:17Z</time>
      </trkpt>
      <trkpt lat="43.47809" lon="-0.75309">
        <ele>28.02</ele>
        <time>2016-06-24T14:39:19Z</time>
      </trkpt>
      <trkpt lat="43.47814" lon="-0.75486">
        <ele>24.65</ele>
        <time>2016-06-24T14:39:26Z</time>
      </trkpt>
      <trkpt lat="43.47825" lon="-0.75746">
        <ele>21.29</ele>
        <time>2016-06-24T14:39:36Z</time>
      </trkpt>
      <trkpt lat="43.47818" lon="-0.75939">
        <ele>18.4</ele>
        <time>2016-06-24T14:39:44Z</time>
      </trkpt>
      <trkpt lat="43.47781" lon="-0.76147">
        <ele>16.48</ele>
        <time>2016-06-24T14:39:55Z</time>
      </trkpt>
      <trkpt lat="43.47771" lon="-0.76187">
        <ele>15.52</ele>
        <time>2016-06-24T14:39:59Z</time>
      </trkpt>
      <trkpt lat="43.47784" lon="-0.76249">
        <ele>16.48</ele>
        <time>2016-06-24T14:40:05Z</time>
      </trkpt>
      <trkpt lat="43.47891" lon="-0.76377">
        <ele>16</ele>
        <time>2016-06-24T14:40:18Z</time>
      </trkpt>
      <trkpt lat="43.47948" lon="-0.76449">
        <ele>16.48</ele>
        <time>2016-06-24T14:40:27Z</time>
      </trkpt>
      <trkpt lat="43.47966" lon="-0.76472">
        <ele>17.92</ele>
        <time>2016-06-24T14:40:33Z</time>
      </trkpt>
      <trkpt lat="43.47982" lon="-0.76484">
        <ele>19.36</ele>
        <time>2016-06-24T14:40:36Z</time>
      </trkpt>
      <trkpt lat="43.4799" lon="-0.76488">
        <ele>19.84</ele>
        <time>2016-06-24T14:40:37Z</time>
      </trkpt>
      <trkpt lat="43.48066" lon="-0.76507">
        <ele>20.81</ele>
        <time>2016-06-24T14:40:45Z</time>
      </trkpt>
      <trkpt lat="43.48098" lon="-0.7653">
        <ele>20.81</ele>
        <time>2016-06-24T14:40:48Z</time>
      </trkpt>
      <trkpt lat="43.48202" lon="-0.76669">
        <ele>20.32</ele>
        <time>2016-06-24T14:41:01Z</time>
      </trkpt>
      <trkpt lat="43.48231" lon="-0.76708">
        <ele>17.92</ele>
        <time>2016-06-24T14:41:05Z</time>
      </trkpt>
      <trkpt lat="43.48241" lon="-0.76785">
        <ele>16.48</ele>
        <time>2016-06-24T14:41:11Z</time>
      </trkpt>
      <trkpt lat="43.48238" lon="-0.76947">
        <ele>15.52</ele>
        <time>2016-06-24T14:41:22Z</time>
      </trkpt>
      <trkpt lat="43.48271" lon="-0.77101">
        <ele>14.08</ele>
        <time>2016-06-24T14:41:32Z</time>
      </trkpt>
      <trkpt lat="43.48318" lon="-0.7721">
        <ele>14.56</ele>
        <time>2016-06-24T14:41:41Z</time>
      </trkpt>
      <trkpt lat="43.48388" lon="-0.77364">
        <ele>14.08</ele>
        <time>2016-06-24T14:41:55Z</time>
      </trkpt>
      <trkpt lat="43.48417" lon="-0.77438">
        <ele>14.56</ele>
        <time>2016-06-24T14:42:06Z</time>
      </trkpt>
      <trkpt lat="43.48428" lon="-0.77462">
        <ele>14.56</ele>
        <time>2016-06-24T14:42:10Z</time>
      </trkpt>
      <trkpt lat="43.48447" lon="-0.77484">
        <ele>16.96</ele>
        <time>2016-06-24T14:42:19Z</time>
      </trkpt>
      <trkpt lat="43.48474" lon="-0.7747">
        <ele>16.48</ele>
        <time>2016-06-24T14:42:29Z</time>
      </trkpt>
      <trkpt lat="43.4851" lon="-0.77447">
        <ele>17.92</ele>
        <time>2016-06-24T14:42:39Z</time>
      </trkpt>
      <trkpt lat="43.4858" lon="-0.77408">
        <ele>17.92</ele>
        <time>2016-06-24T14:42:53Z</time>
      </trkpt>
      <trkpt lat="43.48635" lon="-0.77375">
        <ele>18.4</ele>
        <time>2016-06-24T14:43:04Z</time>
      </trkpt>
      <trkpt lat="43.48663" lon="-0.77359">
        <ele>20.32</ele>
        <time>2016-06-24T14:43:13Z</time>
      </trkpt>
      <trkpt lat="43.4869" lon="-0.77338">
        <ele>20.81</ele>
        <time>2016-06-24T14:43:23Z</time>
      </trkpt>
      <trkpt lat="43.48705" lon="-0.77351">
        <ele>21.29</ele>
        <time>2016-06-24T14:43:29Z</time>
      </trkpt>
      <trkpt lat="43.48721" lon="-0.77409">
        <ele>21.29</ele>
        <time>2016-06-24T14:43:42Z</time>
      </trkpt>
      <trkpt lat="43.48736" lon="-0.77476">
        <ele>22.25</ele>
        <time>2016-06-24T14:43:55Z</time>
      </trkpt>
      <trkpt lat="43.48764" lon="-0.7758">
        <ele>20.32</ele>
        <time>2016-06-24T14:44:10Z</time>
      </trkpt>
      <trkpt lat="43.48781" lon="-0.77646">
        <ele>16.48</ele>
        <time>2016-06-24T14:44:18Z</time>
      </trkpt>
      <trkpt lat="43.48784" lon="-0.77662">
        <ele>16.48</ele>
        <time>2016-06-24T14:44:22Z</time>
      </trkpt>
      <trkpt lat="43.48783" lon="-0.77669">
        <ele>16.48</ele>
        <time>2016-06-24T14:44:32Z</time>
      </trkpt>
      <trkpt lat="43.48783" lon="-0.77671">
        <ele>16</ele>
        <time>2016-06-24T14:44:36Z</time>
      </trkpt>
      <trkpt lat="43.48742" lon="-0.77732">
        <ele>13.6</ele>
        <time>2016-06-24T14:44:45Z</time>
      </trkpt>
      <trkpt lat="43.48723" lon="-0.77759">
        <ele>12.63</ele>
        <time>2016-06-24T14:44:48Z</time>
      </trkpt>
      <trkpt lat="43.48713" lon="-0.7778">
        <ele>11.67</ele>
        <time>2016-06-24T14:44:50Z</time>
      </trkpt>
      <trkpt lat="43.48709" lon="-0.77835">
        <ele>10.23</ele>
        <time>2016-06-24T14:44:54Z</time>
      </trkpt>
      <trkpt lat="43.48716" lon="-0.77863">
        <ele>11.67</ele>
        <time>2016-06-24T14:44:56Z</time>
      </trkpt>
      <trkpt lat="43.48742" lon="-0.77931">
        <ele>12.63</ele>
        <time>2016-06-24T14:45:04Z</time>
      </trkpt>
      <trkpt lat="43.48745" lon="-0.77937">
        <ele>12.15</ele>
        <time>2016-06-24T14:45:12Z</time>
      </trkpt>
      <trkpt lat="43.48745" lon="-0.77937">
        <ele>11.67</ele>
        <time>2016-06-24T14:45:19Z</time>
      </trkpt>
      <trkpt lat="43.48747" lon="-0.77943">
        <ele>11.67</ele>
        <time>2016-06-24T14:53:46Z</time>
      </trkpt>
      <trkpt lat="43.48775" lon="-0.78001">
        <ele>12.15</ele>
        <time>2016-06-24T14:54:00Z</time>
      </trkpt>
      <trkpt lat="43.48804" lon="-0.77987">
        <ele>13.12</ele>
        <time>2016-06-24T14:54:05Z</time>
      </trkpt>
      <trkpt lat="43.48811" lon="-0.77954">
        <ele>13.12</ele>
        <time>2016-06-24T14:54:11Z</time>
      </trkpt>
      <trkpt lat="43.48799" lon="-0.77957">
        <ele>12.63</ele>
        <time>2016-06-24T14:54:16Z</time>
      </trkpt>
      <trkpt lat="43.48798" lon="-0.7796">
        <ele>12.15</ele>
        <time>2016-06-24T14:54:27Z</time>
      </trkpt>
      <trkpt lat="43.48798" lon="-0.7796">
        <ele>13.12</ele>
        <time>2016-06-24T14:56:17Z</time>
      </trkpt>
      <trkpt lat="43.48816" lon="-0.77986">
        <ele>13.6</ele>
        <time>2016-06-24T14:56:26Z</time>
      </trkpt>
      <trkpt lat="43.48815" lon="-0.78">
        <ele>13.6</ele>
        <time>2016-06-24T14:56:29Z</time>
      </trkpt>
      <trkpt lat="43.48796" lon="-0.78014">
        <ele>12.63</ele>
        <time>2016-06-24T14:56:34Z</time>
      </trkpt>
      <trkpt lat="43.48784" lon="-0.7803">
        <ele>12.15</ele>
        <time>2016-06-24T14:56:41Z</time>
      </trkpt>
      <trkpt lat="43.48785" lon="-0.78028">
        <ele>12.63</ele>
        <time>2016-06-24T14:56:48Z</time>
      </trkpt>
      <trkpt lat="43.48784" lon="-0.78028">
        <ele>12.15</ele>
        <time>2016-06-24T14:57:14Z</time>
      </trkpt>
      <trkpt lat="43.48784" lon="-0.78027">
        <ele>12.63</ele>
        <time>2016-06-24T15:01:27Z</time>
      </trkpt>
      <trkpt lat="43.48785" lon="-0.78027">
        <ele>12.15</ele>
        <time>2016-06-24T15:03:04Z</time>
      </trkpt>
      <trkpt lat="43.48783" lon="-0.78027">
        <ele>8.79</ele>
        <time>2016-06-24T15:09:52Z</time>
      </trkpt>
      <trkpt lat="43.48783" lon="-0.78029">
        <ele>5.91</ele>
        <time>2016-06-24T15:25:10Z</time>
      </trkpt>
      <trkpt lat="43.48783" lon="-0.78028">
        <ele>4.94</ele>
        <time>2016-06-24T15:32:14Z</time>
      </trkpt>
      <trkpt lat="43.48783" lon="-0.78029">
        <ele>4.46</ele>
        <time>2016-06-24T15:33:58Z</time>
      </trkpt>
      <trkpt lat="43.48782" lon="-0.78028">
        <ele>7.35</ele>
        <time>2016-06-24T15:37:07Z</time>
      </trkpt>
      <trkpt lat="43.48782" lon="-0.78028">
        <ele>7.35</ele>
        <time>2016-06-24T15:40:16Z</time>
      </trkpt>
      <trkpt lat="43.48786" lon="-0.78017">
        <ele>7.83</ele>
        <time>2016-06-24T15:42:03Z</time>
      </trkpt>
      <trkpt lat="43.48776" lon="-0.7801">
        <ele>6.39</ele>
        <time>2016-06-24T15:42:13Z</time>
      </trkpt>
      <trkpt lat="43.48776" lon="-0.7801">
        <ele>6.87</ele>
        <time>2016-06-24T15:42:16Z</time>
      </trkpt>
      <trkpt lat="43.48778" lon="-0.78038">
        <ele>8.79</ele>
        <time>2016-06-24T15:42:21Z</time>
      </trkpt>
      <trkpt lat="43.48798" lon="-0.78103">
        <ele>10.23</ele>
        <time>2016-06-24T15:42:26Z</time>
      </trkpt>
      <trkpt lat="43.48824" lon="-0.78187">
        <ele>12.63</ele>
        <time>2016-06-24T15:42:31Z</time>
      </trkpt>
      <trkpt lat="43.48842" lon="-0.78238">
        <ele>14.56</ele>
        <time>2016-06-24T15:42:34Z</time>
      </trkpt>
      <trkpt lat="43.48879" lon="-0.78355">
        <ele>13.6</ele>
        <time>2016-06-24T15:42:41Z</time>
      </trkpt>
      <trkpt lat="43.48884" lon="-0.78369">
        <ele>13.6</ele>
        <time>2016-06-24T15:42:42Z</time>
      </trkpt>
      <trkpt lat="43.48926" lon="-0.78489">
        <ele>14.56</ele>
        <time>2016-06-24T15:42:49Z</time>
      </trkpt>
      <trkpt lat="43.48962" lon="-0.78543">
        <ele>12.63</ele>
        <time>2016-06-24T15:42:54Z</time>
      </trkpt>
      <trkpt lat="43.49001" lon="-0.78582">
        <ele>12.63</ele>
        <time>2016-06-24T15:43:01Z</time>
      </trkpt>
      <trkpt lat="43.48999" lon="-0.78747">
        <ele>10.23</ele>
        <time>2016-06-24T15:43:12Z</time>
      </trkpt>
      <trkpt lat="43.48988" lon="-0.7896">
        <ele>10.71</ele>
        <time>2016-06-24T15:43:23Z</time>
      </trkpt>
      <trkpt lat="43.4897" lon="-0.79292">
        <ele>10.71</ele>
        <time>2016-06-24T15:43:39Z</time>
      </trkpt>
      <trkpt lat="43.4896" lon="-0.79477">
        <ele>9.75</ele>
        <time>2016-06-24T15:43:49Z</time>
      </trkpt>
      <trkpt lat="43.48951" lon="-0.79693">
        <ele>11.67</ele>
        <time>2016-06-24T15:44:01Z</time>
      </trkpt>
      <trkpt lat="43.48936" lon="-0.79945">
        <ele>12.63</ele>
        <time>2016-06-24T15:44:13Z</time>
      </trkpt>
      <trkpt lat="43.48927" lon="-0.80117">
        <ele>14.56</ele>
        <time>2016-06-24T15:44:22Z</time>
      </trkpt>
      <trkpt lat="43.48925" lon="-0.80156">
        <ele>15.52</ele>
        <time>2016-06-24T15:44:24Z</time>
      </trkpt>
      <trkpt lat="43.4891" lon="-0.80344">
        <ele>17.44</ele>
        <time>2016-06-24T15:44:32Z</time>
      </trkpt>
      <trkpt lat="43.48878" lon="-0.80443">
        <ele>16.96</ele>
        <time>2016-06-24T15:44:36Z</time>
      </trkpt>
      <trkpt lat="43.4872" lon="-0.80743">
        <ele>18.4</ele>
        <time>2016-06-24T15:44:48Z</time>
      </trkpt>
      <trkpt lat="43.48652" lon="-0.80872">
        <ele>15.52</ele>
        <time>2016-06-24T15:44:53Z</time>
      </trkpt>
      <trkpt lat="43.486" lon="-0.80969">
        <ele>15.52</ele>
        <time>2016-06-24T15:44:57Z</time>
      </trkpt>
      <trkpt lat="43.48567" lon="-0.81101">
        <ele>18.4</ele>
        <time>2016-06-24T15:45:02Z</time>
      </trkpt>
      <trkpt lat="43.48569" lon="-0.81158">
        <ele>21.77</ele>
        <time>2016-06-24T15:45:04Z</time>
      </trkpt>
      <trkpt lat="43.4859" lon="-0.81239">
        <ele>25.13</ele>
        <time>2016-06-24T15:45:07Z</time>
      </trkpt>
      <trkpt lat="43.48617" lon="-0.81287">
        <ele>25.61</ele>
        <time>2016-06-24T15:45:09Z</time>
      </trkpt>
      <trkpt lat="43.48633" lon="-0.81307">
        <ele>27.53</ele>
        <time>2016-06-24T15:45:10Z</time>
      </trkpt>
      <trkpt lat="43.48685" lon="-0.81363">
        <ele>30.9</ele>
        <time>2016-06-24T15:45:13Z</time>
      </trkpt>
      <trkpt lat="43.48703" lon="-0.81382">
        <ele>30.9</ele>
        <time>2016-06-24T15:45:14Z</time>
      </trkpt>
      <trkpt lat="43.48738" lon="-0.8142">
        <ele>32.34</ele>
        <time>2016-06-24T15:45:16Z</time>
      </trkpt>
      <trkpt lat="43.48791" lon="-0.81476">
        <ele>30.9</ele>
        <time>2016-06-24T15:45:19Z</time>
      </trkpt>
      <trkpt lat="43.48997" lon="-0.81693">
        <ele>30.42</ele>
        <time>2016-06-24T15:45:31Z</time>
      </trkpt>
      <trkpt lat="43.4927" lon="-0.81995">
        <ele>27.53</ele>
        <time>2016-06-24T15:45:47Z</time>
      </trkpt>
      <trkpt lat="43.4939" lon="-0.82125">
        <ele>24.17</ele>
        <time>2016-06-24T15:45:54Z</time>
      </trkpt>
      <trkpt lat="43.49459" lon="-0.82201">
        <ele>21.77</ele>
        <time>2016-06-24T15:45:58Z</time>
      </trkpt>
      <trkpt lat="43.49512" lon="-0.82257">
        <ele>19.36</ele>
        <time>2016-06-24T15:46:01Z</time>
      </trkpt>
      <trkpt lat="43.49583" lon="-0.82335">
        <ele>15.52</ele>
        <time>2016-06-24T15:46:05Z</time>
      </trkpt>
      <trkpt lat="43.49637" lon="-0.82393">
        <ele>13.12</ele>
        <time>2016-06-24T15:46:08Z</time>
      </trkpt>
      <trkpt lat="43.49779" lon="-0.82547">
        <ele>12.15</ele>
        <time>2016-06-24T15:46:16Z</time>
      </trkpt>
      <trkpt lat="43.50008" lon="-0.828">
        <ele>11.67</ele>
        <time>2016-06-24T15:46:29Z</time>
      </trkpt>
      <trkpt lat="43.50318" lon="-0.83139">
        <ele>12.15</ele>
        <time>2016-06-24T15:46:46Z</time>
      </trkpt>
      <trkpt lat="43.50442" lon="-0.83274">
        <ele>12.15</ele>
        <time>2016-06-24T15:46:53Z</time>
      </trkpt>
      <trkpt lat="43.50643" lon="-0.83493">
        <ele>10.23</ele>
        <time>2016-06-24T15:47:04Z</time>
      </trkpt>
      <trkpt lat="43.50928" lon="-0.83806">
        <ele>11.19</ele>
        <time>2016-06-24T15:47:20Z</time>
      </trkpt>
      <trkpt lat="43.50977" lon="-0.8386">
        <ele>8.31</ele>
        <time>2016-06-24T15:47:23Z</time>
      </trkpt>
      <trkpt lat="43.50991" lon="-0.83876">
        <ele>7.83</ele>
        <time>2016-06-24T15:47:24Z</time>
      </trkpt>
      <trkpt lat="43.51032" lon="-0.83925">
        <ele>7.35</ele>
        <time>2016-06-24T15:47:27Z</time>
      </trkpt>
      <trkpt lat="43.51084" lon="-0.84032">
        <ele>10.23</ele>
        <time>2016-06-24T15:47:32Z</time>
      </trkpt>
      <trkpt lat="43.51108" lon="-0.8419">
        <ele>12.63</ele>
        <time>2016-06-24T15:47:38Z</time>
      </trkpt>
      <trkpt lat="43.51094" lon="-0.8447">
        <ele>11.67</ele>
        <time>2016-06-24T15:47:47Z</time>
      </trkpt>
      <trkpt lat="43.51085" lon="-0.84561">
        <ele>9.27</ele>
        <time>2016-06-24T15:47:50Z</time>
      </trkpt>
      <trkpt lat="43.51044" lon="-0.84951">
        <ele>8.79</ele>
        <time>2016-06-24T15:48:04Z</time>
      </trkpt>
      <trkpt lat="43.51029" lon="-0.85171">
        <ele>10.23</ele>
        <time>2016-06-24T15:48:13Z</time>
      </trkpt>
      <trkpt lat="43.51025" lon="-0.8522">
        <ele>11.19</ele>
        <time>2016-06-24T15:48:15Z</time>
      </trkpt>
      <trkpt lat="43.50996" lon="-0.8531">
        <ele>11.67</ele>
        <time>2016-06-24T15:48:19Z</time>
      </trkpt>
      <trkpt lat="43.50829" lon="-0.85609">
        <ele>14.08</ele>
        <time>2016-06-24T15:48:34Z</time>
      </trkpt>
      <trkpt lat="43.50732" lon="-0.85778">
        <ele>12.15</ele>
        <time>2016-06-24T15:48:43Z</time>
      </trkpt>
      <trkpt lat="43.50695" lon="-0.85944">
        <ele>10.23</ele>
        <time>2016-06-24T15:48:50Z</time>
      </trkpt>
      <trkpt lat="43.50676" lon="-0.86319">
        <ele>9.75</ele>
        <time>2016-06-24T15:49:05Z</time>
      </trkpt>
      <trkpt lat="43.50662" lon="-0.86591">
        <ele>8.31</ele>
        <time>2016-06-24T15:49:16Z</time>
      </trkpt>
      <trkpt lat="43.50659" lon="-0.86643">
        <ele>9.27</ele>
        <time>2016-06-24T15:49:18Z</time>
      </trkpt>
      <trkpt lat="43.5065" lon="-0.86786">
        <ele>10.71</ele>
        <time>2016-06-24T15:49:23Z</time>
      </trkpt>
      <trkpt lat="43.50686" lon="-0.86957">
        <ele>10.71</ele>
        <time>2016-06-24T15:49:29Z</time>
      </trkpt>
      <trkpt lat="43.50896" lon="-0.87423">
        <ele>13.12</ele>
        <time>2016-06-24T15:49:47Z</time>
      </trkpt>
      <trkpt lat="43.51086" lon="-0.87842">
        <ele>14.08</ele>
        <time>2016-06-24T15:50:03Z</time>
      </trkpt>
      <trkpt lat="43.51199" lon="-0.88064">
        <ele>11.67</ele>
        <time>2016-06-24T15:50:12Z</time>
      </trkpt>
      <trkpt lat="43.51275" lon="-0.88128">
        <ele>8.79</ele>
        <time>2016-06-24T15:50:16Z</time>
      </trkpt>
      <trkpt lat="43.51361" lon="-0.88167">
        <ele>5.91</ele>
        <time>2016-06-24T15:50:20Z</time>
      </trkpt>
      <trkpt lat="43.51404" lon="-0.88185">
        <ele>4.94</ele>
        <time>2016-06-24T15:50:22Z</time>
      </trkpt>
      <trkpt lat="43.51554" lon="-0.88214">
        <ele>7.83</ele>
        <time>2016-06-24T15:50:29Z</time>
      </trkpt>
      <trkpt lat="43.51661" lon="-0.88221">
        <ele>10.71</ele>
        <time>2016-06-24T15:50:34Z</time>
      </trkpt>
      <trkpt lat="43.51703" lon="-0.88228">
        <ele>11.67</ele>
        <time>2016-06-24T15:50:36Z</time>
      </trkpt>
      <trkpt lat="43.51843" lon="-0.88313">
        <ele>11.67</ele>
        <time>2016-06-24T15:50:43Z</time>
      </trkpt>
      <trkpt lat="43.51979" lon="-0.88466">
        <ele>9.75</ele>
        <time>2016-06-24T15:50:51Z</time>
      </trkpt>
      <trkpt lat="43.52025" lon="-0.88525">
        <ele>8.31</ele>
        <time>2016-06-24T15:50:54Z</time>
      </trkpt>
      <trkpt lat="43.52064" lon="-0.88583">
        <ele>7.35</ele>
        <time>2016-06-24T15:50:57Z</time>
      </trkpt>
      <trkpt lat="43.52102" lon="-0.88695">
        <ele>5.91</ele>
        <time>2016-06-24T15:51:02Z</time>
      </trkpt>
      <trkpt lat="43.5213" lon="-0.88871">
        <ele>2.54</ele>
        <time>2016-06-24T15:51:09Z</time>
      </trkpt>
      <trkpt lat="43.52153" lon="-0.89005">
        <ele>2.06</ele>
        <time>2016-06-24T15:51:16Z</time>
      </trkpt>
      <trkpt lat="43.52195" lon="-0.8925">
        <ele>2.54</ele>
        <time>2016-06-24T15:51:28Z</time>
      </trkpt>
      <trkpt lat="43.52211" lon="-0.89347">
        <ele>6.39</ele>
        <time>2016-06-24T15:51:32Z</time>
      </trkpt>
      <trkpt lat="43.52215" lon="-0.89375">
        <ele>6.39</ele>
        <time>2016-06-24T15:51:33Z</time>
      </trkpt>
      <trkpt lat="43.52269" lon="-0.89673">
        <ele>3.98</ele>
        <time>2016-06-24T15:51:44Z</time>
      </trkpt>
      <trkpt lat="43.52321" lon="-0.89982">
        <ele>2.06</ele>
        <time>2016-06-24T15:51:57Z</time>
      </trkpt>
      <trkpt lat="43.52383" lon="-0.90339">
        <ele>1.58</ele>
        <time>2016-06-24T15:52:12Z</time>
      </trkpt>
      <trkpt lat="43.52425" lon="-0.90585">
        <ele>-0.34</ele>
        <time>2016-06-24T15:52:24Z</time>
      </trkpt>
      <trkpt lat="43.52447" lon="-0.90714">
        <ele>-1.3</ele>
        <time>2016-06-24T15:52:30Z</time>
      </trkpt>
      <trkpt lat="43.52502" lon="-0.91029">
        <ele>-4.67</ele>
        <time>2016-06-24T15:52:46Z</time>
      </trkpt>
      <trkpt lat="43.52525" lon="-0.91172">
        <ele>-5.63</ele>
        <time>2016-06-24T15:52:56Z</time>
      </trkpt>
      <trkpt lat="43.52553" lon="-0.9133">
        <ele>-6.11</ele>
        <time>2016-06-24T15:53:08Z</time>
      </trkpt>
      <trkpt lat="43.52559" lon="-0.91366">
        <ele>-7.55</ele>
        <time>2016-06-24T15:53:11Z</time>
      </trkpt>
      <trkpt lat="43.52572" lon="-0.91424">
        <ele>-8.03</ele>
        <time>2016-06-24T15:53:17Z</time>
      </trkpt>
      <trkpt lat="43.5262" lon="-0.91538">
        <ele>-8.51</ele>
        <time>2016-06-24T15:53:29Z</time>
      </trkpt>
      <trkpt lat="43.52668" lon="-0.91637">
        <ele>-9.48</ele>
        <time>2016-06-24T15:53:41Z</time>
      </trkpt>
      <trkpt lat="43.52737" lon="-0.91781">
        <ele>-11.4</ele>
        <time>2016-06-24T15:53:57Z</time>
      </trkpt>
      <trkpt lat="43.52782" lon="-0.91869">
        <ele>-11.4</ele>
        <time>2016-06-24T15:54:07Z</time>
      </trkpt>
      <trkpt lat="43.52839" lon="-0.91944">
        <ele>-11.4</ele>
        <time>2016-06-24T15:54:15Z</time>
      </trkpt>
      <trkpt lat="43.52956" lon="-0.92034">
        <ele>-11.88</ele>
        <time>2016-06-24T15:54:26Z</time>
      </trkpt>
      <trkpt lat="43.53034" lon="-0.92134">
        <ele>-13.8</ele>
        <time>2016-06-24T15:54:33Z</time>
      </trkpt>
      <trkpt lat="43.53104" lon="-0.92261">
        <ele>-11.88</ele>
        <time>2016-06-24T15:54:40Z</time>
      </trkpt>
      <trkpt lat="43.5321" lon="-0.92395">
        <ele>-12.84</ele>
        <time>2016-06-24T15:54:48Z</time>
      </trkpt>
      <trkpt lat="43.53256" lon="-0.92447">
        <ele>-16.69</ele>
        <time>2016-06-24T15:54:51Z</time>
      </trkpt>
      <trkpt lat="43.53301" lon="-0.92505">
        <ele>-18.61</ele>
        <time>2016-06-24T15:54:54Z</time>
      </trkpt>
      <trkpt lat="43.53384" lon="-0.92609">
        <ele>-15.24</ele>
        <time>2016-06-24T15:55:00Z</time>
      </trkpt>
      <trkpt lat="43.5341" lon="-0.92641">
        <ele>-14.28</ele>
        <time>2016-06-24T15:55:02Z</time>
      </trkpt>
      <trkpt lat="43.53611" lon="-0.92884">
        <ele>-14.28</ele>
        <time>2016-06-24T15:55:17Z</time>
      </trkpt>
      <trkpt lat="43.53623" lon="-0.929">
        <ele>-14.76</ele>
        <time>2016-06-24T15:55:18Z</time>
      </trkpt>
      <trkpt lat="43.53709" lon="-0.9309">
        <ele>-14.28</ele>
        <time>2016-06-24T15:55:27Z</time>
      </trkpt>
      <trkpt lat="43.53781" lon="-0.93263">
        <ele>-9.96</ele>
        <time>2016-06-24T15:55:34Z</time>
      </trkpt>
      <trkpt lat="43.53868" lon="-0.93466">
        <ele>-12.84</ele>
        <time>2016-06-24T15:55:41Z</time>
      </trkpt>
      <trkpt lat="43.53916" lon="-0.93578">
        <ele>-14.28</ele>
        <time>2016-06-24T15:55:45Z</time>
      </trkpt>
      <trkpt lat="43.53999" lon="-0.93803">
        <ele>-16.69</ele>
        <time>2016-06-24T15:55:53Z</time>
      </trkpt>
      <trkpt lat="43.5408" lon="-0.94164">
        <ele>-15.72</ele>
        <time>2016-06-24T15:56:05Z</time>
      </trkpt>
      <trkpt lat="43.54167" lon="-0.94546">
        <ele>-17.17</ele>
        <time>2016-06-24T15:56:18Z</time>
      </trkpt>
      <trkpt lat="43.54247" lon="-0.949">
        <ele>-14.76</ele>
        <time>2016-06-24T15:56:31Z</time>
      </trkpt>
      <trkpt lat="43.54273" lon="-0.95014">
        <ele>-13.32</ele>
        <time>2016-06-24T15:56:35Z</time>
      </trkpt>
      <trkpt lat="43.54335" lon="-0.95288">
        <ele>-9</ele>
        <time>2016-06-24T15:56:44Z</time>
      </trkpt>
      <trkpt lat="43.54349" lon="-0.95349">
        <ele>-8.03</ele>
        <time>2016-06-24T15:56:46Z</time>
      </trkpt>
      <trkpt lat="43.54363" lon="-0.9541">
        <ele>-4.67</ele>
        <time>2016-06-24T15:56:48Z</time>
      </trkpt>
      <trkpt lat="43.54391" lon="-0.95528">
        <ele>0.14</ele>
        <time>2016-06-24T15:56:52Z</time>
      </trkpt>
      <trkpt lat="43.54411" lon="-0.95615">
        <ele>3.5</ele>
        <time>2016-06-24T15:56:55Z</time>
      </trkpt>
      <trkpt lat="43.54418" lon="-0.95644">
        <ele>3.02</ele>
        <time>2016-06-24T15:56:56Z</time>
      </trkpt>
      <trkpt lat="43.54459" lon="-0.9582">
        <ele>6.39</ele>
        <time>2016-06-24T15:57:02Z</time>
      </trkpt>
      <trkpt lat="43.54466" lon="-0.9585">
        <ele>3.02</ele>
        <time>2016-06-24T15:57:03Z</time>
      </trkpt>
      <trkpt lat="43.54474" lon="-0.95879">
        <ele>3.98</ele>
        <time>2016-06-24T15:57:04Z</time>
      </trkpt>
      <trkpt lat="43.54488" lon="-0.95939">
        <ele>-0.82</ele>
        <time>2016-06-24T15:57:06Z</time>
      </trkpt>
      <trkpt lat="43.5451" lon="-0.96032">
        <ele>-3.23</ele>
        <time>2016-06-24T15:57:09Z</time>
      </trkpt>
      <trkpt lat="43.54554" lon="-0.96219">
        <ele>1.58</ele>
        <time>2016-06-24T15:57:15Z</time>
      </trkpt>
      <trkpt lat="43.54576" lon="-0.96313">
        <ele>3.5</ele>
        <time>2016-06-24T15:57:18Z</time>
      </trkpt>
      <trkpt lat="43.54612" lon="-0.96464">
        <ele>7.35</ele>
        <time>2016-06-24T15:57:23Z</time>
      </trkpt>
      <trkpt lat="43.54619" lon="-0.96494">
        <ele>6.39</ele>
        <time>2016-06-24T15:57:24Z</time>
      </trkpt>
      <trkpt lat="43.54719" lon="-0.96913">
        <ele>5.91</ele>
        <time>2016-06-24T15:57:38Z</time>
      </trkpt>
      <trkpt lat="43.54798" lon="-0.97251">
        <ele>2.54</ele>
        <time>2016-06-24T15:57:49Z</time>
      </trkpt>
      <trkpt lat="43.54819" lon="-0.97347">
        <ele>-0.82</ele>
        <time>2016-06-24T15:57:52Z</time>
      </trkpt>
      <trkpt lat="43.54873" lon="-0.97581">
        <ele>1.1</ele>
        <time>2016-06-24T15:58:00Z</time>
      </trkpt>
      <trkpt lat="43.54914" lon="-0.97754">
        <ele>-1.3</ele>
        <time>2016-06-24T15:58:08Z</time>
      </trkpt>
      <trkpt lat="43.54984" lon="-0.98044">
        <ele>-2.27</ele>
        <time>2016-06-24T15:58:24Z</time>
      </trkpt>
      <trkpt lat="43.54998" lon="-0.98107">
        <ele>-1.3</ele>
        <time>2016-06-24T15:58:28Z</time>
      </trkpt>
      <trkpt lat="43.55005" lon="-0.98137">
        <ele>-2.75</ele>
        <time>2016-06-24T15:58:30Z</time>
      </trkpt>
      <trkpt lat="43.55024" lon="-0.98227">
        <ele>-6.59</ele>
        <time>2016-06-24T15:58:36Z</time>
      </trkpt>
      <trkpt lat="43.55075" lon="-0.98442">
        <ele>-4.67</ele>
        <time>2016-06-24T15:58:52Z</time>
      </trkpt>
      <trkpt lat="43.55107" lon="-0.98575">
        <ele>-4.67</ele>
        <time>2016-06-24T15:59:03Z</time>
      </trkpt>
      <trkpt lat="43.55141" lon="-0.98718">
        <ele>-3.71</ele>
        <time>2016-06-24T15:59:12Z</time>
      </trkpt>
      <trkpt lat="43.55145" lon="-0.98752">
        <ele>-2.27</ele>
        <time>2016-06-24T15:59:14Z</time>
      </trkpt>
      <trkpt lat="43.55132" lon="-0.98912">
        <ele>0.62</ele>
        <time>2016-06-24T15:59:22Z</time>
      </trkpt>
      <trkpt lat="43.55118" lon="-0.99114">
        <ele>-5.15</ele>
        <time>2016-06-24T15:59:29Z</time>
      </trkpt>
      <trkpt lat="43.5511" lon="-0.99224">
        <ele>-8.51</ele>
        <time>2016-06-24T15:59:33Z</time>
      </trkpt>
      <trkpt lat="43.55101" lon="-0.99338">
        <ele>-4.19</ele>
        <time>2016-06-24T15:59:38Z</time>
      </trkpt>
      <trkpt lat="43.55099" lon="-0.99359">
        <ele>-4.67</ele>
        <time>2016-06-24T15:59:39Z</time>
      </trkpt>
      <trkpt lat="43.55095" lon="-0.994">
        <ele>-1.3</ele>
        <time>2016-06-24T15:59:41Z</time>
      </trkpt>
      <trkpt lat="43.55093" lon="-0.9942">
        <ele>-2.27</ele>
        <time>2016-06-24T15:59:42Z</time>
      </trkpt>
      <trkpt lat="43.55089" lon="-0.99484">
        <ele>1.58</ele>
        <time>2016-06-24T15:59:45Z</time>
      </trkpt>
      <trkpt lat="43.55087" lon="-0.99506">
        <ele>0.62</ele>
        <time>2016-06-24T15:59:46Z</time>
      </trkpt>
      <trkpt lat="43.55071" lon="-0.99723">
        <ele>3.5</ele>
        <time>2016-06-24T15:59:55Z</time>
      </trkpt>
      <trkpt lat="43.55065" lon="-0.998">
        <ele>1.58</ele>
        <time>2016-06-24T15:59:58Z</time>
      </trkpt>
      <trkpt lat="43.55057" lon="-0.99893">
        <ele>1.1</ele>
        <time>2016-06-24T16:00:02Z</time>
      </trkpt>
      <trkpt lat="43.55039" lon="-1.0014">
        <ele>0.62</ele>
        <time>2016-06-24T16:00:15Z</time>
      </trkpt>
      <trkpt lat="43.55024" lon="-1.00327">
        <ele>2.54</ele>
        <time>2016-06-24T16:00:23Z</time>
      </trkpt>
      <trkpt lat="43.55019" lon="-1.00382">
        <ele>4.46</ele>
        <time>2016-06-24T16:00:25Z</time>
      </trkpt>
      <trkpt lat="43.55001" lon="-1.00612">
        <ele>2.54</ele>
        <time>2016-06-24T16:00:33Z</time>
      </trkpt>
      <trkpt lat="43.54993" lon="-1.00732">
        <ele>-3.23</ele>
        <time>2016-06-24T16:00:37Z</time>
      </trkpt>
      <trkpt lat="43.54989" lon="-1.00794">
        <ele>-4.19</ele>
        <time>2016-06-24T16:00:39Z</time>
      </trkpt>
      <trkpt lat="43.54985" lon="-1.00857">
        <ele>-8.03</ele>
        <time>2016-06-24T16:00:41Z</time>
      </trkpt>
      <trkpt lat="43.54982" lon="-1.00888">
        <ele>-8.03</ele>
        <time>2016-06-24T16:00:42Z</time>
      </trkpt>
      <trkpt lat="43.54971" lon="-1.01013">
        <ele>-4.19</ele>
        <time>2016-06-24T16:00:46Z</time>
      </trkpt>
      <trkpt lat="43.5496" lon="-1.01136">
        <ele>-0.82</ele>
        <time>2016-06-24T16:00:50Z</time>
      </trkpt>
      <trkpt lat="43.54956" lon="-1.01196">
        <ele>0.14</ele>
        <time>2016-06-24T16:00:52Z</time>
      </trkpt>
      <trkpt lat="43.54937" lon="-1.014">
        <ele>1.1</ele>
        <time>2016-06-24T16:00:59Z</time>
      </trkpt>
      <trkpt lat="43.54929" lon="-1.01454">
        <ele>-0.34</ele>
        <time>2016-06-24T16:01:01Z</time>
      </trkpt>
      <trkpt lat="43.54903" lon="-1.01563">
        <ele>-0.34</ele>
        <time>2016-06-24T16:01:05Z</time>
      </trkpt>
      <trkpt lat="43.54813" lon="-1.01904">
        <ele>-3.71</ele>
        <time>2016-06-24T16:01:17Z</time>
      </trkpt>
      <trkpt lat="43.54783" lon="-1.0202">
        <ele>-4.19</ele>
        <time>2016-06-24T16:01:21Z</time>
      </trkpt>
      <trkpt lat="43.54673" lon="-1.02437">
        <ele>-5.15</ele>
        <time>2016-06-24T16:01:35Z</time>
      </trkpt>
      <trkpt lat="43.54595" lon="-1.02733">
        <ele>-7.07</ele>
        <time>2016-06-24T16:01:45Z</time>
      </trkpt>
      <trkpt lat="43.5456" lon="-1.02877">
        <ele>-9.48</ele>
        <time>2016-06-24T16:01:50Z</time>
      </trkpt>
      <trkpt lat="43.54558" lon="-1.03026">
        <ele>-7.55</ele>
        <time>2016-06-24T16:01:55Z</time>
      </trkpt>
      <trkpt lat="43.5459" lon="-1.03487">
        <ele>-9.96</ele>
        <time>2016-06-24T16:02:10Z</time>
      </trkpt>
      <trkpt lat="43.54605" lon="-1.03714">
        <ele>-9.48</ele>
        <time>2016-06-24T16:02:17Z</time>
      </trkpt>
      <trkpt lat="43.54614" lon="-1.03843">
        <ele>-12.36</ele>
        <time>2016-06-24T16:02:21Z</time>
      </trkpt>
      <trkpt lat="43.54618" lon="-1.03908">
        <ele>-16.69</ele>
        <time>2016-06-24T16:02:23Z</time>
      </trkpt>
      <trkpt lat="43.54621" lon="-1.0394">
        <ele>-16.69</ele>
        <time>2016-06-24T16:02:24Z</time>
      </trkpt>
      <trkpt lat="43.54623" lon="-1.03973">
        <ele>-20.05</ele>
        <time>2016-06-24T16:02:25Z</time>
      </trkpt>
      <trkpt lat="43.5463" lon="-1.04072">
        <ele>-23.9</ele>
        <time>2016-06-24T16:02:28Z</time>
      </trkpt>
      <trkpt lat="43.54634" lon="-1.04137">
        <ele>-24.38</ele>
        <time>2016-06-24T16:02:30Z</time>
      </trkpt>
      <trkpt lat="43.54645" lon="-1.04233">
        <ele>-22.93</ele>
        <time>2016-06-24T16:02:33Z</time>
      </trkpt>
      <trkpt lat="43.54683" lon="-1.04478">
        <ele>-22.45</ele>
        <time>2016-06-24T16:02:41Z</time>
      </trkpt>
      <trkpt lat="43.54737" lon="-1.04812">
        <ele>-25.82</ele>
        <time>2016-06-24T16:02:52Z</time>
      </trkpt>
      <trkpt lat="43.54761" lon="-1.04957">
        <ele>-27.26</ele>
        <time>2016-06-24T16:02:57Z</time>
      </trkpt>
      <trkpt lat="43.54764" lon="-1.04984">
        <ele>-29.18</ele>
        <time>2016-06-24T16:02:58Z</time>
      </trkpt>
      <trkpt lat="43.54763" lon="-1.05035">
        <ele>-31.11</ele>
        <time>2016-06-24T16:03:00Z</time>
      </trkpt>
      <trkpt lat="43.54737" lon="-1.05242">
        <ele>-30.14</ele>
        <time>2016-06-24T16:03:07Z</time>
      </trkpt>
      <trkpt lat="43.54686" lon="-1.05669">
        <ele>-29.18</ele>
        <time>2016-06-24T16:03:21Z</time>
      </trkpt>
      <trkpt lat="43.54673" lon="-1.05945">
        <ele>-32.55</ele>
        <time>2016-06-24T16:03:30Z</time>
      </trkpt>
      <trkpt lat="43.54664" lon="-1.06115">
        <ele>-35.43</ele>
        <time>2016-06-24T16:03:36Z</time>
      </trkpt>
      <trkpt lat="43.5466" lon="-1.0619">
        <ele>-33.51</ele>
        <time>2016-06-24T16:03:39Z</time>
      </trkpt>
      <trkpt lat="43.54648" lon="-1.06333">
        <ele>-31.11</ele>
        <time>2016-06-24T16:03:45Z</time>
      </trkpt>
      <trkpt lat="43.54628" lon="-1.06438">
        <ele>-31.11</ele>
        <time>2016-06-24T16:03:49Z</time>
      </trkpt>
      <trkpt lat="43.54592" lon="-1.06609">
        <ele>-27.26</ele>
        <time>2016-06-24T16:03:55Z</time>
      </trkpt>
      <trkpt lat="43.54572" lon="-1.06694">
        <ele>-23.9</ele>
        <time>2016-06-24T16:03:58Z</time>
      </trkpt>
      <trkpt lat="43.54554" lon="-1.06777">
        <ele>-20.53</ele>
        <time>2016-06-24T16:04:01Z</time>
      </trkpt>
      <trkpt lat="43.54537" lon="-1.06856">
        <ele>-16.69</ele>
        <time>2016-06-24T16:04:04Z</time>
      </trkpt>
      <trkpt lat="43.54527" lon="-1.06906">
        <ele>-13.32</ele>
        <time>2016-06-24T16:04:06Z</time>
      </trkpt>
      <trkpt lat="43.54513" lon="-1.06978">
        <ele>-8.51</ele>
        <time>2016-06-24T16:04:09Z</time>
      </trkpt>
      <trkpt lat="43.54508" lon="-1.07001">
        <ele>-7.55</ele>
        <time>2016-06-24T16:04:10Z</time>
      </trkpt>
      <trkpt lat="43.54487" lon="-1.07061">
        <ele>-9.96</ele>
        <time>2016-06-24T16:04:13Z</time>
      </trkpt>
      <trkpt lat="43.5447" lon="-1.07095">
        <ele>-9.96</ele>
        <time>2016-06-24T16:04:15Z</time>
      </trkpt>
      <trkpt lat="43.54463" lon="-1.07227">
        <ele>-12.36</ele>
        <time>2016-06-24T16:04:21Z</time>
      </trkpt>
      <trkpt lat="43.54467" lon="-1.07306">
        <ele>-15.24</ele>
        <time>2016-06-24T16:04:24Z</time>
      </trkpt>
      <trkpt lat="43.54472" lon="-1.0736">
        <ele>-16.69</ele>
        <time>2016-06-24T16:04:26Z</time>
      </trkpt>
      <trkpt lat="43.54477" lon="-1.07447">
        <ele>-21.01</ele>
        <time>2016-06-24T16:04:29Z</time>
      </trkpt>
      <trkpt lat="43.54481" lon="-1.07539">
        <ele>-24.86</ele>
        <time>2016-06-24T16:04:32Z</time>
      </trkpt>
      <trkpt lat="43.54482" lon="-1.07598">
        <ele>-25.82</ele>
        <time>2016-06-24T16:04:34Z</time>
      </trkpt>
      <trkpt lat="43.54486" lon="-1.07763">
        <ele>-26.3</ele>
        <time>2016-06-24T16:04:40Z</time>
      </trkpt>
      <trkpt lat="43.54496" lon="-1.08083">
        <ele>-29.18</ele>
        <time>2016-06-24T16:04:51Z</time>
      </trkpt>
      <trkpt lat="43.54497" lon="-1.08113">
        <ele>-29.18</ele>
        <time>2016-06-24T16:04:52Z</time>
      </trkpt>
      <trkpt lat="43.54503" lon="-1.08318">
        <ele>-32.55</ele>
        <time>2016-06-24T16:04:59Z</time>
      </trkpt>
      <trkpt lat="43.54504" lon="-1.08344">
        <ele>-32.55</ele>
        <time>2016-06-24T16:05:00Z</time>
      </trkpt>
      <trkpt lat="43.54511" lon="-1.0861">
        <ele>-28.7</ele>
        <time>2016-06-24T16:05:10Z</time>
      </trkpt>
      <trkpt lat="43.54522" lon="-1.08902">
        <ele>-29.18</ele>
        <time>2016-06-24T16:05:19Z</time>
      </trkpt>
      <trkpt lat="43.54526" lon="-1.09046">
        <ele>-32.55</ele>
        <time>2016-06-24T16:05:24Z</time>
      </trkpt>
      <trkpt lat="43.54531" lon="-1.09189">
        <ele>-31.59</ele>
        <time>2016-06-24T16:05:29Z</time>
      </trkpt>
      <trkpt lat="43.54535" lon="-1.09355">
        <ele>-35.43</ele>
        <time>2016-06-24T16:05:35Z</time>
      </trkpt>
      <trkpt lat="43.54536" lon="-1.09406">
        <ele>-36.39</ele>
        <time>2016-06-24T16:05:37Z</time>
      </trkpt>
      <trkpt lat="43.54542" lon="-1.09578">
        <ele>-39.76</ele>
        <time>2016-06-24T16:05:45Z</time>
      </trkpt>
      <trkpt lat="43.54543" lon="-1.09607">
        <ele>-40.24</ele>
        <time>2016-06-24T16:05:47Z</time>
      </trkpt>
      <trkpt lat="43.54544" lon="-1.09687">
        <ele>-40.24</ele>
        <time>2016-06-24T16:05:53Z</time>
      </trkpt>
      <trkpt lat="43.54538" lon="-1.09708">
        <ele>-41.2</ele>
        <time>2016-06-24T16:05:55Z</time>
      </trkpt>
      <trkpt lat="43.54502" lon="-1.09737">
        <ele>-40.24</ele>
        <time>2016-06-24T16:05:59Z</time>
      </trkpt>
      <trkpt lat="43.54402" lon="-1.09794">
        <ele>-39.28</ele>
        <time>2016-06-24T16:06:06Z</time>
      </trkpt>
      <trkpt lat="43.54357" lon="-1.09824">
        <ele>-41.2</ele>
        <time>2016-06-24T16:06:09Z</time>
      </trkpt>
      <trkpt lat="43.54307" lon="-1.09859">
        <ele>-43.12</ele>
        <time>2016-06-24T16:06:13Z</time>
      </trkpt>
      <trkpt lat="43.54286" lon="-1.09877">
        <ele>-43.6</ele>
        <time>2016-06-24T16:06:15Z</time>
      </trkpt>
      <trkpt lat="43.54268" lon="-1.09947">
        <ele>-44.56</ele>
        <time>2016-06-24T16:06:20Z</time>
      </trkpt>
      <trkpt lat="43.54273" lon="-1.09963">
        <ele>-43.6</ele>
        <time>2016-06-24T16:06:21Z</time>
      </trkpt>
      <trkpt lat="43.54295" lon="-1.10032">
        <ele>-39.76</ele>
        <time>2016-06-24T16:06:25Z</time>
      </trkpt>
      <trkpt lat="43.54311" lon="-1.1009">
        <ele>-41.68</ele>
        <time>2016-06-24T16:06:28Z</time>
      </trkpt>
      <trkpt lat="43.54342" lon="-1.10219">
        <ele>-43.6</ele>
        <time>2016-06-24T16:06:35Z</time>
      </trkpt>
      <trkpt lat="43.54353" lon="-1.10266">
        <ele>-45.04</ele>
        <time>2016-06-24T16:06:38Z</time>
      </trkpt>
      <trkpt lat="43.54369" lon="-1.10336">
        <ele>-44.56</ele>
        <time>2016-06-24T16:06:43Z</time>
      </trkpt>
      <trkpt lat="43.54373" lon="-1.10367">
        <ele>-45.53</ele>
        <time>2016-06-24T16:06:45Z</time>
      </trkpt>
      <trkpt lat="43.54374" lon="-1.10463">
        <ele>-44.56</ele>
        <time>2016-06-24T16:06:52Z</time>
      </trkpt>
      <trkpt lat="43.54415" lon="-1.10511">
        <ele>-46.49</ele>
        <time>2016-06-24T16:07:01Z</time>
      </trkpt>
      <trkpt lat="43.54428" lon="-1.1056">
        <ele>-45.53</ele>
        <time>2016-06-24T16:07:07Z</time>
      </trkpt>
      <trkpt lat="43.54451" lon="-1.10616">
        <ele>-45.04</ele>
        <time>2016-06-24T16:07:13Z</time>
      </trkpt>
      <trkpt lat="43.54508" lon="-1.10732">
        <ele>-44.56</ele>
        <time>2016-06-24T16:07:24Z</time>
      </trkpt>
      <trkpt lat="43.54549" lon="-1.10841">
        <ele>-43.6</ele>
        <time>2016-06-24T16:07:32Z</time>
      </trkpt>
      <trkpt lat="43.54617" lon="-1.11052">
        <ele>-43.12</ele>
        <time>2016-06-24T16:07:44Z</time>
      </trkpt>
      <trkpt lat="43.54625" lon="-1.11142">
        <ele>-42.16</ele>
        <time>2016-06-24T16:07:49Z</time>
      </trkpt>
      <trkpt lat="43.54634" lon="-1.11187">
        <ele>-44.08</ele>
        <time>2016-06-24T16:07:52Z</time>
      </trkpt>
      <trkpt lat="43.54651" lon="-1.11213">
        <ele>-42.64</ele>
        <time>2016-06-24T16:07:54Z</time>
      </trkpt>
      <trkpt lat="43.54671" lon="-1.11239">
        <ele>-41.68</ele>
        <time>2016-06-24T16:07:56Z</time>
      </trkpt>
      <trkpt lat="43.54736" lon="-1.11417">
        <ele>-42.16</ele>
        <time>2016-06-24T16:08:06Z</time>
      </trkpt>
      <trkpt lat="43.54789" lon="-1.11586">
        <ele>-40.72</ele>
        <time>2016-06-24T16:08:15Z</time>
      </trkpt>
      <trkpt lat="43.54807" lon="-1.11639">
        <ele>-42.16</ele>
        <time>2016-06-24T16:08:18Z</time>
      </trkpt>
      <trkpt lat="43.5488" lon="-1.11864">
        <ele>-42.16</ele>
        <time>2016-06-24T16:08:30Z</time>
      </trkpt>
      <trkpt lat="43.54955" lon="-1.12096">
        <ele>-42.16</ele>
        <time>2016-06-24T16:08:42Z</time>
      </trkpt>
      <trkpt lat="43.55017" lon="-1.12289">
        <ele>-42.16</ele>
        <time>2016-06-24T16:08:53Z</time>
      </trkpt>
      <trkpt lat="43.55049" lon="-1.12389">
        <ele>-45.53</ele>
        <time>2016-06-24T16:09:02Z</time>
      </trkpt>
      <trkpt lat="43.55055" lon="-1.1241">
        <ele>-46.01</ele>
        <time>2016-06-24T16:09:09Z</time>
      </trkpt>
      <trkpt lat="43.55066" lon="-1.1244">
        <ele>-46.49</ele>
        <time>2016-06-24T16:09:26Z</time>
      </trkpt>
      <trkpt lat="43.55097" lon="-1.12538">
        <ele>-44.56</ele>
        <time>2016-06-24T16:09:34Z</time>
      </trkpt>
      <trkpt lat="43.55135" lon="-1.12658">
        <ele>-43.6</ele>
        <time>2016-06-24T16:09:41Z</time>
      </trkpt>
      <trkpt lat="43.5519" lon="-1.12823">
        <ele>-43.6</ele>
        <time>2016-06-24T16:09:52Z</time>
      </trkpt>
      <trkpt lat="43.55198" lon="-1.12848">
        <ele>-44.56</ele>
        <time>2016-06-24T16:09:54Z</time>
      </trkpt>
      <trkpt lat="43.55214" lon="-1.1288">
        <ele>-44.08</ele>
        <time>2016-06-24T16:09:57Z</time>
      </trkpt>
      <trkpt lat="43.55225" lon="-1.12946">
        <ele>-43.6</ele>
        <time>2016-06-24T16:10:02Z</time>
      </trkpt>
      <trkpt lat="43.5529" lon="-1.1315">
        <ele>-40.72</ele>
        <time>2016-06-24T16:10:15Z</time>
      </trkpt>
      <trkpt lat="43.55348" lon="-1.13324">
        <ele>-41.68</ele>
        <time>2016-06-24T16:10:27Z</time>
      </trkpt>
      <trkpt lat="43.55378" lon="-1.13398">
        <ele>-41.2</ele>
        <time>2016-06-24T16:10:34Z</time>
      </trkpt>
      <trkpt lat="43.55383" lon="-1.13438">
        <ele>-40.24</ele>
        <time>2016-06-24T16:10:37Z</time>
      </trkpt>
      <trkpt lat="43.55401" lon="-1.13493">
        <ele>-40.24</ele>
        <time>2016-06-24T16:10:42Z</time>
      </trkpt>
      <trkpt lat="43.55418" lon="-1.13516">
        <ele>-40.24</ele>
        <time>2016-06-24T16:10:45Z</time>
      </trkpt>
      <trkpt lat="43.55438" lon="-1.13602">
        <ele>-39.76</ele>
        <time>2016-06-24T16:10:52Z</time>
      </trkpt>
      <trkpt lat="43.55459" lon="-1.13684">
        <ele>-38.32</ele>
        <time>2016-06-24T16:10:57Z</time>
      </trkpt>
      <trkpt lat="43.55503" lon="-1.13821">
        <ele>-34.95</ele>
        <time>2016-06-24T16:11:05Z</time>
      </trkpt>
      <trkpt lat="43.55519" lon="-1.13874">
        <ele>-31.59</ele>
        <time>2016-06-24T16:11:08Z</time>
      </trkpt>
      <trkpt lat="43.55525" lon="-1.13891">
        <ele>-32.07</ele>
        <time>2016-06-24T16:11:09Z</time>
      </trkpt>
      <trkpt lat="43.55563" lon="-1.14009">
        <ele>-28.7</ele>
        <time>2016-06-24T16:11:16Z</time>
      </trkpt>
      <trkpt lat="43.5559" lon="-1.14093">
        <ele>-26.3</ele>
        <time>2016-06-24T16:11:21Z</time>
      </trkpt>
      <trkpt lat="43.55605" lon="-1.14142">
        <ele>-24.38</ele>
        <time>2016-06-24T16:11:24Z</time>
      </trkpt>
      <trkpt lat="43.55626" lon="-1.14208">
        <ele>-21.01</ele>
        <time>2016-06-24T16:11:28Z</time>
      </trkpt>
      <trkpt lat="43.55703" lon="-1.14451">
        <ele>-19.57</ele>
        <time>2016-06-24T16:11:42Z</time>
      </trkpt>
      <trkpt lat="43.55743" lon="-1.14583">
        <ele>-17.17</ele>
        <time>2016-06-24T16:11:48Z</time>
      </trkpt>
      <trkpt lat="43.55759" lon="-1.14635">
        <ele>-18.61</ele>
        <time>2016-06-24T16:11:50Z</time>
      </trkpt>
      <trkpt lat="43.55777" lon="-1.14689">
        <ele>-20.05</ele>
        <time>2016-06-24T16:11:52Z</time>
      </trkpt>
      <trkpt lat="43.55886" lon="-1.15036">
        <ele>-18.13</ele>
        <time>2016-06-24T16:12:04Z</time>
      </trkpt>
      <trkpt lat="43.55904" lon="-1.15095">
        <ele>-17.17</ele>
        <time>2016-06-24T16:12:06Z</time>
      </trkpt>
      <trkpt lat="43.55922" lon="-1.15153">
        <ele>-14.76</ele>
        <time>2016-06-24T16:12:08Z</time>
      </trkpt>
      <trkpt lat="43.5594" lon="-1.15211">
        <ele>-13.32</ele>
        <time>2016-06-24T16:12:10Z</time>
      </trkpt>
      <trkpt lat="43.55994" lon="-1.15383">
        <ele>-12.84</ele>
        <time>2016-06-24T16:12:16Z</time>
      </trkpt>
      <trkpt lat="43.56011" lon="-1.1544">
        <ele>-14.76</ele>
        <time>2016-06-24T16:12:18Z</time>
      </trkpt>
      <trkpt lat="43.56058" lon="-1.15683">
        <ele>-15.24</ele>
        <time>2016-06-24T16:12:26Z</time>
      </trkpt>
      <trkpt lat="43.56108" lon="-1.15994">
        <ele>-15.72</ele>
        <time>2016-06-24T16:12:36Z</time>
      </trkpt>
      <trkpt lat="43.56139" lon="-1.16182">
        <ele>-14.76</ele>
        <time>2016-06-24T16:12:42Z</time>
      </trkpt>
      <trkpt lat="43.56178" lon="-1.16423">
        <ele>-16.21</ele>
        <time>2016-06-24T16:12:50Z</time>
      </trkpt>
      <trkpt lat="43.56246" lon="-1.16835">
        <ele>-14.76</ele>
        <time>2016-06-24T16:13:04Z</time>
      </trkpt>
      <trkpt lat="43.56308" lon="-1.1721">
        <ele>-16.69</ele>
        <time>2016-06-24T16:13:17Z</time>
      </trkpt>
      <trkpt lat="43.56313" lon="-1.17237">
        <ele>-16.69</ele>
        <time>2016-06-24T16:13:18Z</time>
      </trkpt>
      <trkpt lat="43.56346" lon="-1.17441">
        <ele>-20.53</ele>
        <time>2016-06-24T16:13:26Z</time>
      </trkpt>
      <trkpt lat="43.5635" lon="-1.17465">
        <ele>-20.05</ele>
        <time>2016-06-24T16:13:27Z</time>
      </trkpt>
      <trkpt lat="43.56403" lon="-1.17796">
        <ele>-21.49</ele>
        <time>2016-06-24T16:13:41Z</time>
      </trkpt>
      <trkpt lat="43.56415" lon="-1.17857">
        <ele>-22.93</ele>
        <time>2016-06-24T16:13:44Z</time>
      </trkpt>
      <trkpt lat="43.56421" lon="-1.17895">
        <ele>-21.97</ele>
        <time>2016-06-24T16:13:46Z</time>
      </trkpt>
      <trkpt lat="43.56436" lon="-1.17992">
        <ele>-22.93</ele>
        <time>2016-06-24T16:13:51Z</time>
      </trkpt>
      <trkpt lat="43.56481" lon="-1.18158">
        <ele>-22.93</ele>
        <time>2016-06-24T16:14:00Z</time>
      </trkpt>
      <trkpt lat="43.5651" lon="-1.18255">
        <ele>-22.93</ele>
        <time>2016-06-24T16:14:07Z</time>
      </trkpt>
      <trkpt lat="43.56513" lon="-1.18278">
        <ele>-23.9</ele>
        <time>2016-06-24T16:14:09Z</time>
      </trkpt>
      <trkpt lat="43.56516" lon="-1.1832">
        <ele>-23.9</ele>
        <time>2016-06-24T16:14:12Z</time>
      </trkpt>
      <trkpt lat="43.56516" lon="-1.18337">
        <ele>-22.93</ele>
        <time>2016-06-24T16:14:13Z</time>
      </trkpt>
      <trkpt lat="43.56514" lon="-1.18356">
        <ele>-22.45</ele>
        <time>2016-06-24T16:14:14Z</time>
      </trkpt>
      <trkpt lat="43.56509" lon="-1.18392">
        <ele>-21.97</ele>
        <time>2016-06-24T16:14:16Z</time>
      </trkpt>
      <trkpt lat="43.56504" lon="-1.18411">
        <ele>-21.49</ele>
        <time>2016-06-24T16:14:17Z</time>
      </trkpt>
      <trkpt lat="43.56497" lon="-1.1843">
        <ele>-21.01</ele>
        <time>2016-06-24T16:14:18Z</time>
      </trkpt>
      <trkpt lat="43.56438" lon="-1.18583">
        <ele>-17.65</ele>
        <time>2016-06-24T16:14:25Z</time>
      </trkpt>
      <trkpt lat="43.56321" lon="-1.18887">
        <ele>-17.17</ele>
        <time>2016-06-24T16:14:37Z</time>
      </trkpt>
      <trkpt lat="43.56279" lon="-1.18995">
        <ele>-12.36</ele>
        <time>2016-06-24T16:14:41Z</time>
      </trkpt>
      <trkpt lat="43.56268" lon="-1.19024">
        <ele>-13.32</ele>
        <time>2016-06-24T16:14:42Z</time>
      </trkpt>
      <trkpt lat="43.5614" lon="-1.19354">
        <ele>-16.21</ele>
        <time>2016-06-24T16:14:53Z</time>
      </trkpt>
      <trkpt lat="43.56128" lon="-1.19386">
        <ele>-12.84</ele>
        <time>2016-06-24T16:14:54Z</time>
      </trkpt>
      <trkpt lat="43.56116" lon="-1.19419">
        <ele>-13.32</ele>
        <time>2016-06-24T16:14:55Z</time>
      </trkpt>
      <trkpt lat="43.56001" lon="-1.19725">
        <ele>-16.69</ele>
        <time>2016-06-24T16:15:05Z</time>
      </trkpt>
      <trkpt lat="43.55902" lon="-1.19979">
        <ele>-19.09</ele>
        <time>2016-06-24T16:15:14Z</time>
      </trkpt>
      <trkpt lat="43.55884" lon="-1.20036">
        <ele>-18.61</ele>
        <time>2016-06-24T16:15:16Z</time>
      </trkpt>
      <trkpt lat="43.55873" lon="-1.20096">
        <ele>-20.53</ele>
        <time>2016-06-24T16:15:18Z</time>
      </trkpt>
      <trkpt lat="43.55886" lon="-1.20218">
        <ele>-22.93</ele>
        <time>2016-06-24T16:15:22Z</time>
      </trkpt>
      <trkpt lat="43.55936" lon="-1.20313">
        <ele>-26.3</ele>
        <time>2016-06-24T16:15:26Z</time>
      </trkpt>
      <trkpt lat="43.55971" lon="-1.20346">
        <ele>-26.78</ele>
        <time>2016-06-24T16:15:28Z</time>
      </trkpt>
      <trkpt lat="43.56068" lon="-1.20402">
        <ele>-32.07</ele>
        <time>2016-06-24T16:15:33Z</time>
      </trkpt>
      <trkpt lat="43.56108" lon="-1.20413">
        <ele>-33.51</ele>
        <time>2016-06-24T16:15:35Z</time>
      </trkpt>
      <trkpt lat="43.5615" lon="-1.20413">
        <ele>-34.47</ele>
        <time>2016-06-24T16:15:37Z</time>
      </trkpt>
      <trkpt lat="43.5637" lon="-1.20377">
        <ele>-33.51</ele>
        <time>2016-06-24T16:15:48Z</time>
      </trkpt>
      <trkpt lat="43.56432" lon="-1.2036">
        <ele>-35.43</ele>
        <time>2016-06-24T16:15:51Z</time>
      </trkpt>
      <trkpt lat="43.56497" lon="-1.20345">
        <ele>-37.35</ele>
        <time>2016-06-24T16:15:54Z</time>
      </trkpt>
      <trkpt lat="43.56577" lon="-1.20332">
        <ele>-39.76</ele>
        <time>2016-06-24T16:15:58Z</time>
      </trkpt>
      <trkpt lat="43.56788" lon="-1.20307">
        <ele>-39.76</ele>
        <time>2016-06-24T16:16:09Z</time>
      </trkpt>
      <trkpt lat="43.56829" lon="-1.20313">
        <ele>-38.32</ele>
        <time>2016-06-24T16:16:11Z</time>
      </trkpt>
      <trkpt lat="43.5689" lon="-1.20338">
        <ele>-38.32</ele>
        <time>2016-06-24T16:16:14Z</time>
      </trkpt>
      <trkpt lat="43.56908" lon="-1.20351">
        <ele>-38.8</ele>
        <time>2016-06-24T16:16:15Z</time>
      </trkpt>
      <trkpt lat="43.56944" lon="-1.20382">
        <ele>-38.32</ele>
        <time>2016-06-24T16:16:17Z</time>
      </trkpt>
      <trkpt lat="43.56961" lon="-1.204">
        <ele>-38.32</ele>
        <time>2016-06-24T16:16:18Z</time>
      </trkpt>
      <trkpt lat="43.56976" lon="-1.20421">
        <ele>-39.76</ele>
        <time>2016-06-24T16:16:19Z</time>
      </trkpt>
      <trkpt lat="43.5699" lon="-1.20442">
        <ele>-39.28</ele>
        <time>2016-06-24T16:16:20Z</time>
      </trkpt>
      <trkpt lat="43.57002" lon="-1.20464">
        <ele>-41.2</ele>
        <time>2016-06-24T16:16:21Z</time>
      </trkpt>
      <trkpt lat="43.57013" lon="-1.20488">
        <ele>-40.24</ele>
        <time>2016-06-24T16:16:22Z</time>
      </trkpt>
      <trkpt lat="43.57023" lon="-1.20513">
        <ele>-40.72</ele>
        <time>2016-06-24T16:16:23Z</time>
      </trkpt>
      <trkpt lat="43.57031" lon="-1.20539">
        <ele>-40.24</ele>
        <time>2016-06-24T16:16:24Z</time>
      </trkpt>
      <trkpt lat="43.57053" lon="-1.20625">
        <ele>-36.87</ele>
        <time>2016-06-24T16:16:27Z</time>
      </trkpt>
      <trkpt lat="43.57068" lon="-1.2069">
        <ele>-33.03</ele>
        <time>2016-06-24T16:16:29Z</time>
      </trkpt>
      <trkpt lat="43.57076" lon="-1.20723">
        <ele>-32.55</ele>
        <time>2016-06-24T16:16:30Z</time>
      </trkpt>
      <trkpt lat="43.57093" lon="-1.20793">
        <ele>-27.26</ele>
        <time>2016-06-24T16:16:32Z</time>
      </trkpt>
      <trkpt lat="43.57143" lon="-1.20999">
        <ele>-22.93</ele>
        <time>2016-06-24T16:16:38Z</time>
      </trkpt>
      <trkpt lat="43.5716" lon="-1.21067">
        <ele>-19.57</ele>
        <time>2016-06-24T16:16:40Z</time>
      </trkpt>
      <trkpt lat="43.57168" lon="-1.21102">
        <ele>-15.24</ele>
        <time>2016-06-24T16:16:41Z</time>
      </trkpt>
      <trkpt lat="43.57177" lon="-1.21138">
        <ele>-15.24</ele>
        <time>2016-06-24T16:16:42Z</time>
      </trkpt>
      <trkpt lat="43.57186" lon="-1.21175">
        <ele>-11.4</ele>
        <time>2016-06-24T16:16:43Z</time>
      </trkpt>
      <trkpt lat="43.57196" lon="-1.21213">
        <ele>-7.07</ele>
        <time>2016-06-24T16:16:44Z</time>
      </trkpt>
      <trkpt lat="43.57214" lon="-1.21287">
        <ele>-5.63</ele>
        <time>2016-06-24T16:16:46Z</time>
      </trkpt>
      <trkpt lat="43.57245" lon="-1.21416">
        <ele>-2.27</ele>
        <time>2016-06-24T16:16:50Z</time>
      </trkpt>
      <trkpt lat="43.5726" lon="-1.21477">
        <ele>1.1</ele>
        <time>2016-06-24T16:16:52Z</time>
      </trkpt>
      <trkpt lat="43.5727" lon="-1.21534">
        <ele>3.02</ele>
        <time>2016-06-24T16:16:54Z</time>
      </trkpt>
      <trkpt lat="43.57273" lon="-1.21615">
        <ele>6.87</ele>
        <time>2016-06-24T16:16:57Z</time>
      </trkpt>
      <trkpt lat="43.57271" lon="-1.21642">
        <ele>10.71</ele>
        <time>2016-06-24T16:16:58Z</time>
      </trkpt>
      <trkpt lat="43.57265" lon="-1.21692">
        <ele>12.15</ele>
        <time>2016-06-24T16:17:00Z</time>
      </trkpt>
      <trkpt lat="43.57229" lon="-1.21814">
        <ele>15.52</ele>
        <time>2016-06-24T16:17:06Z</time>
      </trkpt>
      <trkpt lat="43.57201" lon="-1.21893">
        <ele>20.32</ele>
        <time>2016-06-24T16:17:09Z</time>
      </trkpt>
      <trkpt lat="43.57108" lon="-1.22103">
        <ele>15.52</ele>
        <time>2016-06-24T16:17:17Z</time>
      </trkpt>
      <trkpt lat="43.57094" lon="-1.22125">
        <ele>16.48</ele>
        <time>2016-06-24T16:17:18Z</time>
      </trkpt>
      <trkpt lat="43.57051" lon="-1.2219">
        <ele>14.56</ele>
        <time>2016-06-24T16:17:21Z</time>
      </trkpt>
      <trkpt lat="43.56907" lon="-1.22368">
        <ele>14.56</ele>
        <time>2016-06-24T16:17:30Z</time>
      </trkpt>
      <trkpt lat="43.56754" lon="-1.22543">
        <ele>17.44</ele>
        <time>2016-06-24T16:17:39Z</time>
      </trkpt>
      <trkpt lat="43.56711" lon="-1.22673">
        <ele>16.96</ele>
        <time>2016-06-24T16:17:44Z</time>
      </trkpt>
      <trkpt lat="43.567" lon="-1.22762">
        <ele>21.29</ele>
        <time>2016-06-24T16:17:47Z</time>
      </trkpt>
      <trkpt lat="43.56697" lon="-1.22792">
        <ele>20.32</ele>
        <time>2016-06-24T16:17:48Z</time>
      </trkpt>
      <trkpt lat="43.56687" lon="-1.22884">
        <ele>22.25</ele>
        <time>2016-06-24T16:17:51Z</time>
      </trkpt>
      <trkpt lat="43.56656" lon="-1.23197">
        <ele>17.92</ele>
        <time>2016-06-24T16:18:01Z</time>
      </trkpt>
      <trkpt lat="43.56619" lon="-1.23555">
        <ele>14.56</ele>
        <time>2016-06-24T16:18:12Z</time>
      </trkpt>
      <trkpt lat="43.56616" lon="-1.23587">
        <ele>14.08</ele>
        <time>2016-06-24T16:18:13Z</time>
      </trkpt>
      <trkpt lat="43.56609" lon="-1.23651">
        <ele>12.63</ele>
        <time>2016-06-24T16:18:15Z</time>
      </trkpt>
      <trkpt lat="43.56606" lon="-1.2368">
        <ele>9.27</ele>
        <time>2016-06-24T16:18:16Z</time>
      </trkpt>
      <trkpt lat="43.56603" lon="-1.23709">
        <ele>9.75</ele>
        <time>2016-06-24T16:18:17Z</time>
      </trkpt>
      <trkpt lat="43.56586" lon="-1.23895">
        <ele>6.87</ele>
        <time>2016-06-24T16:18:24Z</time>
      </trkpt>
      <trkpt lat="43.56582" lon="-1.23973">
        <ele>3.02</ele>
        <time>2016-06-24T16:18:27Z</time>
      </trkpt>
      <trkpt lat="43.56581" lon="-1.23998">
        <ele>3.02</ele>
        <time>2016-06-24T16:18:28Z</time>
      </trkpt>
      <trkpt lat="43.56577" lon="-1.24074">
        <ele>-0.34</ele>
        <time>2016-06-24T16:18:31Z</time>
      </trkpt>
      <trkpt lat="43.56569" lon="-1.2421">
        <ele>-3.71</ele>
        <time>2016-06-24T16:18:36Z</time>
      </trkpt>
      <trkpt lat="43.56559" lon="-1.24364">
        <ele>-7.55</ele>
        <time>2016-06-24T16:18:41Z</time>
      </trkpt>
      <trkpt lat="43.56557" lon="-1.24423">
        <ele>-11.4</ele>
        <time>2016-06-24T16:18:43Z</time>
      </trkpt>
      <trkpt lat="43.56556" lon="-1.24451">
        <ele>-14.76</ele>
        <time>2016-06-24T16:18:44Z</time>
      </trkpt>
      <trkpt lat="43.56554" lon="-1.245">
        <ele>-18.61</ele>
        <time>2016-06-24T16:18:46Z</time>
      </trkpt>
      <trkpt lat="43.56553" lon="-1.24523">
        <ele>-17.65</ele>
        <time>2016-06-24T16:18:47Z</time>
      </trkpt>
      <trkpt lat="43.56545" lon="-1.24634">
        <ele>-15.24</ele>
        <time>2016-06-24T16:18:52Z</time>
      </trkpt>
      <trkpt lat="43.56534" lon="-1.2474">
        <ele>-11.4</ele>
        <time>2016-06-24T16:18:57Z</time>
      </trkpt>
      <trkpt lat="43.56496" lon="-1.24932">
        <ele>-11.88</ele>
        <time>2016-06-24T16:19:05Z</time>
      </trkpt>
      <trkpt lat="43.56474" lon="-1.25042">
        <ele>-11.4</ele>
        <time>2016-06-24T16:19:10Z</time>
      </trkpt>
      <trkpt lat="43.56414" lon="-1.25336">
        <ele>-8.51</ele>
        <time>2016-06-24T16:19:22Z</time>
      </trkpt>
      <trkpt lat="43.56407" lon="-1.25368">
        <ele>-3.23</ele>
        <time>2016-06-24T16:19:23Z</time>
      </trkpt>
      <trkpt lat="43.56402" lon="-1.254">
        <ele>-6.11</ele>
        <time>2016-06-24T16:19:24Z</time>
      </trkpt>
      <trkpt lat="43.5639" lon="-1.25463">
        <ele>-7.55</ele>
        <time>2016-06-24T16:19:26Z</time>
      </trkpt>
      <trkpt lat="43.56341" lon="-1.25701">
        <ele>-10.92</ele>
        <time>2016-06-24T16:19:34Z</time>
      </trkpt>
      <trkpt lat="43.56335" lon="-1.2573">
        <ele>-10.92</ele>
        <time>2016-06-24T16:19:35Z</time>
      </trkpt>
      <trkpt lat="43.56323" lon="-1.25789">
        <ele>-13.8</ele>
        <time>2016-06-24T16:19:37Z</time>
      </trkpt>
      <trkpt lat="43.56318" lon="-1.25818">
        <ele>-13.8</ele>
        <time>2016-06-24T16:19:38Z</time>
      </trkpt>
      <trkpt lat="43.56267" lon="-1.26059">
        <ele>-15.24</ele>
        <time>2016-06-24T16:19:47Z</time>
      </trkpt>
      <trkpt lat="43.5621" lon="-1.26352">
        <ele>-16.21</ele>
        <time>2016-06-24T16:20:00Z</time>
      </trkpt>
      <trkpt lat="43.56179" lon="-1.2651">
        <ele>-12.84</ele>
        <time>2016-06-24T16:20:09Z</time>
      </trkpt>
      <trkpt lat="43.56164" lon="-1.26577">
        <ele>-10.44</ele>
        <time>2016-06-24T16:20:12Z</time>
      </trkpt>
      <trkpt lat="43.56144" lon="-1.26678">
        <ele>-9</ele>
        <time>2016-06-24T16:20:16Z</time>
      </trkpt>
      <trkpt lat="43.56122" lon="-1.26782">
        <ele>-7.07</ele>
        <time>2016-06-24T16:20:20Z</time>
      </trkpt>
      <trkpt lat="43.5608" lon="-1.26992">
        <ele>-4.67</ele>
        <time>2016-06-24T16:20:28Z</time>
      </trkpt>
      <trkpt lat="43.56022" lon="-1.27261">
        <ele>-4.67</ele>
        <time>2016-06-24T16:20:39Z</time>
      </trkpt>
      <trkpt lat="43.55946" lon="-1.2752">
        <ele>-6.59</ele>
        <time>2016-06-24T16:20:49Z</time>
      </trkpt>
      <trkpt lat="43.55887" lon="-1.27693">
        <ele>-5.63</ele>
        <time>2016-06-24T16:20:55Z</time>
      </trkpt>
      <trkpt lat="43.55779" lon="-1.28006">
        <ele>-3.23</ele>
        <time>2016-06-24T16:21:06Z</time>
      </trkpt>
      <trkpt lat="43.55682" lon="-1.28288">
        <ele>-5.15</ele>
        <time>2016-06-24T16:21:16Z</time>
      </trkpt>
      <trkpt lat="43.55624" lon="-1.28452">
        <ele>-1.79</ele>
        <time>2016-06-24T16:21:22Z</time>
      </trkpt>
      <trkpt lat="43.55549" lon="-1.2868">
        <ele>-3.23</ele>
        <time>2016-06-24T16:21:30Z</time>
      </trkpt>
      <trkpt lat="43.55458" lon="-1.28946">
        <ele>-0.82</ele>
        <time>2016-06-24T16:21:40Z</time>
      </trkpt>
      <trkpt lat="43.55433" lon="-1.29018">
        <ele>-2.27</ele>
        <time>2016-06-24T16:21:43Z</time>
      </trkpt>
      <trkpt lat="43.5542" lon="-1.29189">
        <ele>-1.3</ele>
        <time>2016-06-24T16:21:49Z</time>
      </trkpt>
      <trkpt lat="43.55416" lon="-1.29699">
        <ele>-4.67</ele>
        <time>2016-06-24T16:22:05Z</time>
      </trkpt>
      <trkpt lat="43.55416" lon="-1.29763">
        <ele>-5.15</ele>
        <time>2016-06-24T16:22:07Z</time>
      </trkpt>
      <trkpt lat="43.55414" lon="-1.29891">
        <ele>-6.59</ele>
        <time>2016-06-24T16:22:11Z</time>
      </trkpt>
      <trkpt lat="43.55412" lon="-1.30212">
        <ele>-3.23</ele>
        <time>2016-06-24T16:22:21Z</time>
      </trkpt>
      <trkpt lat="43.55411" lon="-1.30307">
        <ele>-6.59</ele>
        <time>2016-06-24T16:22:24Z</time>
      </trkpt>
      <trkpt lat="43.55409" lon="-1.30693">
        <ele>-3.23</ele>
        <time>2016-06-24T16:22:36Z</time>
      </trkpt>
      <trkpt lat="43.55406" lon="-1.31091">
        <ele>0.14</ele>
        <time>2016-06-24T16:22:48Z</time>
      </trkpt>
      <trkpt lat="43.55405" lon="-1.3119">
        <ele>4.94</ele>
        <time>2016-06-24T16:22:51Z</time>
      </trkpt>
      <trkpt lat="43.55405" lon="-1.31222">
        <ele>4.46</ele>
        <time>2016-06-24T16:22:52Z</time>
      </trkpt>
      <trkpt lat="43.55403" lon="-1.31549">
        <ele>7.83</ele>
        <time>2016-06-24T16:23:02Z</time>
      </trkpt>
      <trkpt lat="43.55402" lon="-1.31913">
        <ele>9.75</ele>
        <time>2016-06-24T16:23:14Z</time>
      </trkpt>
      <trkpt lat="43.55399" lon="-1.31961">
        <ele>10.23</ele>
        <time>2016-06-24T16:23:16Z</time>
      </trkpt>
      <trkpt lat="43.55394" lon="-1.31982">
        <ele>12.15</ele>
        <time>2016-06-24T16:23:17Z</time>
      </trkpt>
      <trkpt lat="43.55386" lon="-1.32001">
        <ele>11.67</ele>
        <time>2016-06-24T16:23:18Z</time>
      </trkpt>
      <trkpt lat="43.55375" lon="-1.32017">
        <ele>11.67</ele>
        <time>2016-06-24T16:23:19Z</time>
      </trkpt>
      <trkpt lat="43.55362" lon="-1.32031">
        <ele>11.19</ele>
        <time>2016-06-24T16:23:20Z</time>
      </trkpt>
      <trkpt lat="43.55347" lon="-1.32041">
        <ele>10.71</ele>
        <time>2016-06-24T16:23:21Z</time>
      </trkpt>
      <trkpt lat="43.55331" lon="-1.32047">
        <ele>14.08</ele>
        <time>2016-06-24T16:23:22Z</time>
      </trkpt>
      <trkpt lat="43.55314" lon="-1.32049">
        <ele>15.04</ele>
        <time>2016-06-24T16:23:23Z</time>
      </trkpt>
      <trkpt lat="43.55296" lon="-1.32048">
        <ele>15.04</ele>
        <time>2016-06-24T16:23:24Z</time>
      </trkpt>
      <trkpt lat="43.55277" lon="-1.32046">
        <ele>14.56</ele>
        <time>2016-06-24T16:23:25Z</time>
      </trkpt>
      <trkpt lat="43.55145" lon="-1.32026">
        <ele>10.71</ele>
        <time>2016-06-24T16:23:32Z</time>
      </trkpt>
      <trkpt lat="43.55074" lon="-1.32017">
        <ele>8.31</ele>
        <time>2016-06-24T16:23:36Z</time>
      </trkpt>
      <trkpt lat="43.55056" lon="-1.3202">
        <ele>6.39</ele>
        <time>2016-06-24T16:23:37Z</time>
      </trkpt>
      <trkpt lat="43.55038" lon="-1.32025">
        <ele>5.42</ele>
        <time>2016-06-24T16:23:38Z</time>
      </trkpt>
      <trkpt lat="43.55021" lon="-1.32034">
        <ele>5.91</ele>
        <time>2016-06-24T16:23:39Z</time>
      </trkpt>
      <trkpt lat="43.55006" lon="-1.32047">
        <ele>5.42</ele>
        <time>2016-06-24T16:23:40Z</time>
      </trkpt>
      <trkpt lat="43.54992" lon="-1.32063">
        <ele>3.5</ele>
        <time>2016-06-24T16:23:41Z</time>
      </trkpt>
      <trkpt lat="43.54979" lon="-1.32082">
        <ele>3.02</ele>
        <time>2016-06-24T16:23:42Z</time>
      </trkpt>
      <trkpt lat="43.54968" lon="-1.32104">
        <ele>2.54</ele>
        <time>2016-06-24T16:23:43Z</time>
      </trkpt>
      <trkpt lat="43.54959" lon="-1.32129">
        <ele>3.5</ele>
        <time>2016-06-24T16:23:44Z</time>
      </trkpt>
      <trkpt lat="43.54952" lon="-1.32155">
        <ele>3.02</ele>
        <time>2016-06-24T16:23:45Z</time>
      </trkpt>
      <trkpt lat="43.54857" lon="-1.32501">
        <ele>0.14</ele>
        <time>2016-06-24T16:23:58Z</time>
      </trkpt>
      <trkpt lat="43.5485" lon="-1.32528">
        <ele>0.14</ele>
        <time>2016-06-24T16:23:59Z</time>
      </trkpt>
      <trkpt lat="43.54811" lon="-1.32664">
        <ele>-2.27</ele>
        <time>2016-06-24T16:24:04Z</time>
      </trkpt>
      <trkpt lat="43.5478" lon="-1.32775">
        <ele>-3.23</ele>
        <time>2016-06-24T16:24:08Z</time>
      </trkpt>
      <trkpt lat="43.54749" lon="-1.32888">
        <ele>-6.59</ele>
        <time>2016-06-24T16:24:12Z</time>
      </trkpt>
      <trkpt lat="43.54733" lon="-1.32944">
        <ele>-9.48</ele>
        <time>2016-06-24T16:24:14Z</time>
      </trkpt>
      <trkpt lat="43.54717" lon="-1.33">
        <ele>-14.76</ele>
        <time>2016-06-24T16:24:16Z</time>
      </trkpt>
      <trkpt lat="43.54694" lon="-1.33084">
        <ele>-18.13</ele>
        <time>2016-06-24T16:24:19Z</time>
      </trkpt>
      <trkpt lat="43.54671" lon="-1.33168">
        <ele>-19.57</ele>
        <time>2016-06-24T16:24:22Z</time>
      </trkpt>
      <trkpt lat="43.54639" lon="-1.33278">
        <ele>-15.72</ele>
        <time>2016-06-24T16:24:26Z</time>
      </trkpt>
      <trkpt lat="43.54624" lon="-1.33331">
        <ele>-11.88</ele>
        <time>2016-06-24T16:24:28Z</time>
      </trkpt>
      <trkpt lat="43.54594" lon="-1.33434">
        <ele>-9.48</ele>
        <time>2016-06-24T16:24:32Z</time>
      </trkpt>
      <trkpt lat="43.54583" lon="-1.33486">
        <ele>-8.51</ele>
        <time>2016-06-24T16:24:34Z</time>
      </trkpt>
      <trkpt lat="43.54579" lon="-1.3357">
        <ele>-9.96</ele>
        <time>2016-06-24T16:24:37Z</time>
      </trkpt>
      <trkpt lat="43.54586" lon="-1.33622">
        <ele>-9.48</ele>
        <time>2016-06-24T16:24:39Z</time>
      </trkpt>
      <trkpt lat="43.54638" lon="-1.33913">
        <ele>-7.07</ele>
        <time>2016-06-24T16:24:51Z</time>
      </trkpt>
      <trkpt lat="43.54621" lon="-1.34039">
        <ele>-6.11</ele>
        <time>2016-06-24T16:24:57Z</time>
      </trkpt>
      <trkpt lat="43.54605" lon="-1.34108">
        <ele>-3.23</ele>
        <time>2016-06-24T16:25:01Z</time>
      </trkpt>
      <trkpt lat="43.54601" lon="-1.34125">
        <ele>-3.23</ele>
        <time>2016-06-24T16:25:02Z</time>
      </trkpt>
      <trkpt lat="43.54579" lon="-1.34221">
        <ele>-2.27</ele>
        <time>2016-06-24T16:25:08Z</time>
      </trkpt>
      <trkpt lat="43.54534" lon="-1.34428">
        <ele>-2.75</ele>
        <time>2016-06-24T16:25:21Z</time>
      </trkpt>
      <trkpt lat="43.54518" lon="-1.34494">
        <ele>-3.23</ele>
        <time>2016-06-24T16:25:25Z</time>
      </trkpt>
      <trkpt lat="43.54493" lon="-1.34601">
        <ele>-2.75</ele>
        <time>2016-06-24T16:25:33Z</time>
      </trkpt>
      <trkpt lat="43.54451" lon="-1.34631">
        <ele>-1.79</ele>
        <time>2016-06-24T16:25:39Z</time>
      </trkpt>
      <trkpt lat="43.54351" lon="-1.34679">
        <ele>-2.27</ele>
        <time>2016-06-24T16:25:47Z</time>
      </trkpt>
      <trkpt lat="43.54298" lon="-1.34678">
        <ele>-3.71</ele>
        <time>2016-06-24T16:25:51Z</time>
      </trkpt>
      <trkpt lat="43.54273" lon="-1.34658">
        <ele>-3.71</ele>
        <time>2016-06-24T16:25:53Z</time>
      </trkpt>
      <trkpt lat="43.54124" lon="-1.34535">
        <ele>-6.59</ele>
        <time>2016-06-24T16:26:04Z</time>
      </trkpt>
      <trkpt lat="43.54075" lon="-1.34514">
        <ele>-7.55</ele>
        <time>2016-06-24T16:26:07Z</time>
      </trkpt>
      <trkpt lat="43.53969" lon="-1.34503">
        <ele>-7.55</ele>
        <time>2016-06-24T16:26:13Z</time>
      </trkpt>
      <trkpt lat="43.5379" lon="-1.34562">
        <ele>-5.63</ele>
        <time>2016-06-24T16:26:23Z</time>
      </trkpt>
      <trkpt lat="43.53704" lon="-1.34605">
        <ele>-1.3</ele>
        <time>2016-06-24T16:26:28Z</time>
      </trkpt>
      <trkpt lat="43.53673" lon="-1.34615">
        <ele>-0.34</ele>
        <time>2016-06-24T16:26:30Z</time>
      </trkpt>
      <trkpt lat="43.53659" lon="-1.34618">
        <ele>0.14</ele>
        <time>2016-06-24T16:26:31Z</time>
      </trkpt>
      <trkpt lat="43.53606" lon="-1.34591">
        <ele>2.54</ele>
        <time>2016-06-24T16:26:36Z</time>
      </trkpt>
      <trkpt lat="43.53599" lon="-1.34576">
        <ele>3.5</ele>
        <time>2016-06-24T16:26:37Z</time>
      </trkpt>
      <trkpt lat="43.53576" lon="-1.34521">
        <ele>5.42</ele>
        <time>2016-06-24T16:26:40Z</time>
      </trkpt>
      <trkpt lat="43.53544" lon="-1.34445">
        <ele>3.5</ele>
        <time>2016-06-24T16:26:44Z</time>
      </trkpt>
      <trkpt lat="43.53536" lon="-1.34427">
        <ele>3.5</ele>
        <time>2016-06-24T16:26:45Z</time>
      </trkpt>
      <trkpt lat="43.53523" lon="-1.34308">
        <ele>2.54</ele>
        <time>2016-06-24T16:26:51Z</time>
      </trkpt>
      <trkpt lat="43.53498" lon="-1.34231">
        <ele>2.54</ele>
        <time>2016-06-24T16:26:55Z</time>
      </trkpt>
      <trkpt lat="43.53386" lon="-1.34016">
        <ele>3.5</ele>
        <time>2016-06-24T16:27:07Z</time>
      </trkpt>
      <trkpt lat="43.53311" lon="-1.33887">
        <ele>2.06</ele>
        <time>2016-06-24T16:27:14Z</time>
      </trkpt>
      <trkpt lat="43.53244" lon="-1.33834">
        <ele>0.62</ele>
        <time>2016-06-24T16:27:19Z</time>
      </trkpt>
      <trkpt lat="43.53118" lon="-1.33806">
        <ele>-0.82</ele>
        <time>2016-06-24T16:27:27Z</time>
      </trkpt>
      <trkpt lat="43.53035" lon="-1.33742">
        <ele>-2.27</ele>
        <time>2016-06-24T16:27:33Z</time>
      </trkpt>
      <trkpt lat="43.52982" lon="-1.33687">
        <ele>2.06</ele>
        <time>2016-06-24T16:27:37Z</time>
      </trkpt>
      <trkpt lat="43.52959" lon="-1.33654">
        <ele>3.98</ele>
        <time>2016-06-24T16:27:39Z</time>
      </trkpt>
      <trkpt lat="43.52936" lon="-1.33619">
        <ele>5.42</ele>
        <time>2016-06-24T16:27:41Z</time>
      </trkpt>
      <trkpt lat="43.52829" lon="-1.33489">
        <ele>3.98</ele>
        <time>2016-06-24T16:27:50Z</time>
      </trkpt>
      <trkpt lat="43.52807" lon="-1.33465">
        <ele>1.58</ele>
        <time>2016-06-24T16:27:52Z</time>
      </trkpt>
      <trkpt lat="43.52796" lon="-1.33453">
        <ele>-1.79</ele>
        <time>2016-06-24T16:27:53Z</time>
      </trkpt>
      <trkpt lat="43.52756" lon="-1.33412">
        <ele>-5.15</ele>
        <time>2016-06-24T16:27:57Z</time>
      </trkpt>
      <trkpt lat="43.52712" lon="-1.33407">
        <ele>-10.44</ele>
        <time>2016-06-24T16:28:02Z</time>
      </trkpt>
      <trkpt lat="43.52698" lon="-1.33452">
        <ele>-12.84</ele>
        <time>2016-06-24T16:28:06Z</time>
      </trkpt>
      <trkpt lat="43.52701" lon="-1.33465">
        <ele>-12.84</ele>
        <time>2016-06-24T16:28:07Z</time>
      </trkpt>
      <trkpt lat="43.52707" lon="-1.3349">
        <ele>-14.76</ele>
        <time>2016-06-24T16:28:09Z</time>
      </trkpt>
      <trkpt lat="43.52727" lon="-1.33525">
        <ele>-15.72</ele>
        <time>2016-06-24T16:28:12Z</time>
      </trkpt>
      <trkpt lat="43.52732" lon="-1.33536">
        <ele>-16.69</ele>
        <time>2016-06-24T16:28:13Z</time>
      </trkpt>
      <trkpt lat="43.52735" lon="-1.3356">
        <ele>-19.09</ele>
        <time>2016-06-24T16:28:16Z</time>
      </trkpt>
      <trkpt lat="43.52697" lon="-1.3358">
        <ele>-19.09</ele>
        <time>2016-06-24T16:28:22Z</time>
      </trkpt>
      <trkpt lat="43.52675" lon="-1.3356">
        <ele>-20.05</ele>
        <time>2016-06-24T16:28:25Z</time>
      </trkpt>
      <trkpt lat="43.52618" lon="-1.33538">
        <ele>-25.34</ele>
        <time>2016-06-24T16:28:32Z</time>
      </trkpt>
      <trkpt lat="43.52612" lon="-1.33548">
        <ele>-25.34</ele>
        <time>2016-06-24T16:28:33Z</time>
      </trkpt>
      <trkpt lat="43.52589" lon="-1.33568">
        <ele>-27.26</ele>
        <time>2016-06-24T16:28:37Z</time>
      </trkpt>
      <trkpt lat="43.52568" lon="-1.33545">
        <ele>-27.74</ele>
        <time>2016-06-24T16:28:40Z</time>
      </trkpt>
      <trkpt lat="43.52546" lon="-1.33515">
        <ele>-30.14</ele>
        <time>2016-06-24T16:28:43Z</time>
      </trkpt>
      <trkpt lat="43.52529" lon="-1.33469">
        <ele>-32.55</ele>
        <time>2016-06-24T16:28:47Z</time>
      </trkpt>
      <trkpt lat="43.52528" lon="-1.33447">
        <ele>-34.47</ele>
        <time>2016-06-24T16:28:49Z</time>
      </trkpt>
      <trkpt lat="43.52525" lon="-1.33428">
        <ele>-35.43</ele>
        <time>2016-06-24T16:28:51Z</time>
      </trkpt>
      <trkpt lat="43.52516" lon="-1.33415">
        <ele>-36.39</ele>
        <time>2016-06-24T16:28:53Z</time>
      </trkpt>
      <trkpt lat="43.52505" lon="-1.33403">
        <ele>-36.39</ele>
        <time>2016-06-24T16:28:55Z</time>
      </trkpt>
      <trkpt lat="43.52488" lon="-1.33376">
        <ele>-38.8</ele>
        <time>2016-06-24T16:28:59Z</time>
      </trkpt>
      <trkpt lat="43.52477" lon="-1.33356">
        <ele>-39.76</ele>
        <time>2016-06-24T16:29:02Z</time>
      </trkpt>
      <trkpt lat="43.52428" lon="-1.33324">
        <ele>-40.72</ele>
        <time>2016-06-24T16:29:08Z</time>
      </trkpt>
      <trkpt lat="43.52352" lon="-1.33315">
        <ele>-41.2</ele>
        <time>2016-06-24T16:29:14Z</time>
      </trkpt>
      <trkpt lat="43.52287" lon="-1.33352">
        <ele>-41.2</ele>
        <time>2016-06-24T16:29:19Z</time>
      </trkpt>
      <trkpt lat="43.52224" lon="-1.33364">
        <ele>-42.16</ele>
        <time>2016-06-24T16:29:24Z</time>
      </trkpt>
      <trkpt lat="43.52161" lon="-1.3334">
        <ele>-43.6</ele>
        <time>2016-06-24T16:29:30Z</time>
      </trkpt>
      <trkpt lat="43.52116" lon="-1.33336">
        <ele>-44.08</ele>
        <time>2016-06-24T16:29:35Z</time>
      </trkpt>
      <trkpt lat="43.52098" lon="-1.33357">
        <ele>-44.56</ele>
        <time>2016-06-24T16:29:40Z</time>
      </trkpt>
      <trkpt lat="43.52098" lon="-1.33406">
        <ele>-39.76</ele>
        <time>2016-06-24T16:29:45Z</time>
      </trkpt>
      <trkpt lat="43.52098" lon="-1.3342">
        <ele>-39.28</ele>
        <time>2016-06-24T16:29:46Z</time>
      </trkpt>
      <trkpt lat="43.52104" lon="-1.33459">
        <ele>-34.47</ele>
        <time>2016-06-24T16:29:49Z</time>
      </trkpt>
      <trkpt lat="43.52112" lon="-1.33483">
        <ele>-31.11</ele>
        <time>2016-06-24T16:29:51Z</time>
      </trkpt>
      <trkpt lat="43.52116" lon="-1.33522">
        <ele>-26.3</ele>
        <time>2016-06-24T16:29:54Z</time>
      </trkpt>
      <trkpt lat="43.52113" lon="-1.33547">
        <ele>-22.45</ele>
        <time>2016-06-24T16:29:56Z</time>
      </trkpt>
      <trkpt lat="43.52097" lon="-1.33589">
        <ele>-18.13</ele>
        <time>2016-06-24T16:30:00Z</time>
      </trkpt>
      <trkpt lat="43.52086" lon="-1.33599">
        <ele>-16.69</ele>
        <time>2016-06-24T16:30:02Z</time>
      </trkpt>
      <trkpt lat="43.52068" lon="-1.33591">
        <ele>-13.32</ele>
        <time>2016-06-24T16:30:06Z</time>
      </trkpt>
      <trkpt lat="43.52061" lon="-1.33581">
        <ele>-13.32</ele>
        <time>2016-06-24T16:30:15Z</time>
      </trkpt>
      <trkpt lat="43.52053" lon="-1.33567">
        <ele>-13.32</ele>
        <time>2016-06-24T16:30:41Z</time>
      </trkpt>
      <trkpt lat="43.52039" lon="-1.33523">
        <ele>-16.69</ele>
        <time>2016-06-24T16:30:47Z</time>
      </trkpt>
      <trkpt lat="43.52036" lon="-1.33499">
        <ele>-19.57</ele>
        <time>2016-06-24T16:30:50Z</time>
      </trkpt>
      <trkpt lat="43.52035" lon="-1.33492">
        <ele>-20.05</ele>
        <time>2016-06-24T16:30:51Z</time>
      </trkpt>
      <trkpt lat="43.52034" lon="-1.33475">
        <ele>-21.97</ele>
        <time>2016-06-24T16:30:54Z</time>
      </trkpt>
      <trkpt lat="43.52041" lon="-1.33468">
        <ele>-24.38</ele>
        <time>2016-06-24T16:30:58Z</time>
      </trkpt>
      <trkpt lat="43.5205" lon="-1.33473">
        <ele>-26.3</ele>
        <time>2016-06-24T16:31:03Z</time>
      </trkpt>
      <trkpt lat="43.52061" lon="-1.33485">
        <ele>-27.74</ele>
        <time>2016-06-24T16:31:09Z</time>
      </trkpt>
      <trkpt lat="43.52062" lon="-1.33491">
        <ele>-27.26</ele>
        <time>2016-06-24T16:31:11Z</time>
      </trkpt>
      <trkpt lat="43.52061" lon="-1.33498">
        <ele>-27.74</ele>
        <time>2016-06-24T16:31:26Z</time>
      </trkpt>
      <trkpt lat="43.52061" lon="-1.33499">
        <ele>-28.7</ele>
        <time>2016-06-24T16:33:19Z</time>
      </trkpt>
      <trkpt lat="43.5206" lon="-1.335">
        <ele>-27.26</ele>
        <time>2016-06-24T16:40:33Z</time>
      </trkpt>
      <trkpt lat="43.5206" lon="-1.335">
        <ele>-27.26</ele>
        <time>2016-06-24T16:41:18Z</time>
      </trkpt>
      <trkpt lat="43.5206" lon="-1.335">
        <ele>-27.26</ele>
        <time>2016-06-24T16:42:08Z</time>
      </trkpt>
      <trkpt lat="43.52059" lon="-1.33499">
        <ele>-29.18</ele>
        <time>2016-06-24T16:49:09Z</time>
      </trkpt>
      <trkpt lat="43.52062" lon="-1.33499">
        <ele>-28.22</ele>
        <time>2016-06-24T16:49:52Z</time>
      </trkpt>
      <trkpt lat="43.52062" lon="-1.335">
        <ele>-28.7</ele>
        <time>2016-06-24T16:51:11Z</time>
      </trkpt>
      <trkpt lat="43.52062" lon="-1.335">
        <ele>-29.18</ele>
        <time>2016-06-24T16:52:14Z</time>
      </trkpt>
      <trkpt lat="43.52062" lon="-1.335">
        <ele>-29.18</ele>
        <time>2016-06-24T16:53:50Z</time>
      </trkpt>
      <trkpt lat="43.52063" lon="-1.335">
        <ele>-29.66</ele>
        <time>2016-06-24T16:58:22Z</time>
      </trkpt>
      <trkpt lat="43.52063" lon="-1.33498">
        <ele>-32.55</ele>
        <time>2016-06-24T17:01:47Z</time>
      </trkpt>
      <trkpt lat="43.52063" lon="-1.33498">
        <ele>-30.62</ele>
        <time>2016-06-24T17:01:51Z</time>
      </trkpt>
      <trkpt lat="43.52063" lon="-1.33498">
        <ele>-33.99</ele>
        <time>2016-06-24T17:02:07Z</time>
      </trkpt>
      <trkpt lat="43.52063" lon="-1.33498">
        <ele>-32.07</ele>
        <time>2016-06-24T17:02:08Z</time>
      </trkpt>
      <trkpt lat="43.52062" lon="-1.33498">
        <ele>-31.11</ele>
        <time>2016-06-24T17:02:33Z</time>
      </trkpt>
    </trkseg>
  </trk>
</gpx>